<?xml version='1.0' encoding='UTF-8'?><gpx version="1.1" creator="JPX - https://github.com/jenetics/jpx" xmlns="http://www.topografix.com/GPX/1/1"><trk><trkseg><trkpt lat="45.5404346" lon="11.55865"><ele>30.833333333333336</ele><time>2026-04-03T17:21:56.708Z</time></trkpt><trkpt lat="45.540416" lon="11.5587421"><ele>30.666666666666668</ele><time>2026-04-03T17:21:59.704Z</time></trkpt><trkpt lat="45.5403941" lon="11.5588548"><ele>30.5</ele><time>2026-04-03T17:22:02.698Z</time></trkpt><trkpt lat="45.5403005" lon="11.5589049"><ele>30.333333333333336</ele><time>2026-04-03T17:22:04.699Z</time></trkpt><trkpt lat="45.5402379" lon="11.5589393"><ele>30.166666666666668</ele><time>2026-04-03T17:22:05.701Z</time></trkpt><trkpt lat="45.5401692" lon="11.5589856"><ele>30.0</ele><time>2026-04-03T17:22:06.709Z</time></trkpt><trkpt lat="45.5400941" lon="11.5590354"><ele>30.0</ele><time>2026-04-03T17:22:07.71Z</time></trkpt><trkpt lat="45.5400153" lon="11.5590809"><ele>30.0</ele><time>2026-04-03T17:22:08.706Z</time></trkpt><trkpt lat="45.539933" lon="11.5591279"><ele>30.0</ele><time>2026-04-03T17:22:09.705Z</time></trkpt><trkpt lat="45.5398479" lon="11.5591619"><ele>30.0</ele><time>2026-04-03T17:22:10.708Z</time></trkpt><trkpt lat="45.53976" lon="11.5591791"><ele>30.0</ele><time>2026-04-03T17:22:11.713Z</time></trkpt><trkpt lat="45.5396623" lon="11.5591855"><ele>30.0</ele><time>2026-04-03T17:22:12.706Z</time></trkpt><trkpt lat="45.5395669" lon="11.5591899"><ele>29.6</ele><time>2026-04-03T17:22:13.706Z</time></trkpt><trkpt lat="45.5394731" lon="11.5591885"><ele>29.2</ele><time>2026-04-03T17:22:14.704Z</time></trkpt><trkpt lat="45.5393778" lon="11.5591885"><ele>28.799999999999997</ele><time>2026-04-03T17:22:15.701Z</time></trkpt><trkpt lat="45.5392854" lon="11.5591767"><ele>28.4</ele><time>2026-04-03T17:22:16.7Z</time></trkpt><trkpt lat="45.5391905" lon="11.5591513"><ele>28.0</ele><time>2026-04-03T17:22:17.699Z</time></trkpt><trkpt lat="45.5390939" lon="11.5591128"><ele>28.0</ele><time>2026-04-03T17:22:18.708Z</time></trkpt><trkpt lat="45.5389912" lon="11.5590712"><ele>27.999999999999996</ele><time>2026-04-03T17:22:19.702Z</time></trkpt><trkpt lat="45.5388833" lon="11.5590265"><ele>27.999999999999996</ele><time>2026-04-03T17:22:20.705Z</time></trkpt><trkpt lat="45.5387754" lon="11.5589896"><ele>28.0</ele><time>2026-04-03T17:22:21.704Z</time></trkpt><trkpt lat="45.5386673" lon="11.5589571"><ele>28.0</ele><time>2026-04-03T17:22:22.706Z</time></trkpt><trkpt lat="45.5385567" lon="11.5589269"><ele>28.0</ele><time>2026-04-03T17:22:23.707Z</time></trkpt><trkpt lat="45.5384414" lon="11.5588899"><ele>28.0</ele><time>2026-04-03T17:22:24.703Z</time></trkpt><trkpt lat="45.5383204" lon="11.5588544"><ele>28.0</ele><time>2026-04-03T17:22:25.71Z</time></trkpt><trkpt lat="45.538206" lon="11.5588202"><ele>28.0</ele><time>2026-04-03T17:22:26.709Z</time></trkpt><trkpt lat="45.5380994" lon="11.5587924"><ele>28.000000000000004</ele><time>2026-04-03T17:22:27.707Z</time></trkpt><trkpt lat="45.5379983" lon="11.5587674"><ele>28.0</ele><time>2026-04-03T17:22:28.707Z</time></trkpt><trkpt lat="45.5379044" lon="11.5587456"><ele>28.0</ele><time>2026-04-03T17:22:29.705Z</time></trkpt><trkpt lat="45.5378259" lon="11.558716"><ele>28.0</ele><time>2026-04-03T17:22:30.702Z</time></trkpt><trkpt lat="45.537758" lon="11.5586862"><ele>28.000000000000004</ele><time>2026-04-03T17:22:31.715Z</time></trkpt><trkpt lat="45.537691" lon="11.5586527"><ele>28.0</ele><time>2026-04-03T17:22:32.702Z</time></trkpt><trkpt lat="45.5376305" lon="11.5585989"><ele>28.333333333333336</ele><time>2026-04-03T17:22:33.704Z</time></trkpt><trkpt lat="45.5375738" lon="11.5585435"><ele>28.666666666666668</ele><time>2026-04-03T17:22:34.707Z</time></trkpt><trkpt lat="45.53751" lon="11.5584887"><ele>29.0</ele><time>2026-04-03T17:22:35.708Z</time></trkpt><trkpt lat="45.5374472" lon="11.5584304"><ele>29.333333333333336</ele><time>2026-04-03T17:22:36.704Z</time></trkpt><trkpt lat="45.5373874" lon="11.5583667"><ele>29.666666666666668</ele><time>2026-04-03T17:22:37.706Z</time></trkpt><trkpt lat="45.537325" lon="11.5582956"><ele>30.0</ele><time>2026-04-03T17:22:38.702Z</time></trkpt><trkpt lat="45.5372684" lon="11.5582202"><ele>30.0</ele><time>2026-04-03T17:22:39.71Z</time></trkpt><trkpt lat="45.5372189" lon="11.5581423"><ele>30.0</ele><time>2026-04-03T17:22:40.708Z</time></trkpt><trkpt lat="45.5371671" lon="11.558066"><ele>30.0</ele><time>2026-04-03T17:22:41.703Z</time></trkpt><trkpt lat="45.5371225" lon="11.5579958"><ele>30.0</ele><time>2026-04-03T17:22:42.713Z</time></trkpt><trkpt lat="45.5370489" lon="11.5578794"><ele>30.0</ele><time>2026-04-03T17:22:44.714Z</time></trkpt><trkpt lat="45.5369858" lon="11.557762"><ele>30.0</ele><time>2026-04-03T17:22:46.71Z</time></trkpt><trkpt lat="45.5368873" lon="11.5576885"><ele>30.0</ele><time>2026-04-03T17:22:48.709Z</time></trkpt><trkpt lat="45.5368162" lon="11.557706"><ele>30.0</ele><time>2026-04-03T17:22:49.707Z</time></trkpt><trkpt lat="45.5367405" lon="11.5577627"><ele>30.0</ele><time>2026-04-03T17:22:50.704Z</time></trkpt><trkpt lat="45.5366622" lon="11.5578294"><ele>30.0</ele><time>2026-04-03T17:22:51.702Z</time></trkpt><trkpt lat="45.5365779" lon="11.5579007"><ele>30.0</ele><time>2026-04-03T17:22:52.7Z</time></trkpt><trkpt lat="45.5364857" lon="11.5579811"><ele>30.0</ele><time>2026-04-03T17:22:53.705Z</time></trkpt><trkpt lat="45.5363945" lon="11.558061"><ele>30.0</ele><time>2026-04-03T17:22:54.707Z</time></trkpt><trkpt lat="45.5363035" lon="11.5581378"><ele>30.0</ele><time>2026-04-03T17:22:55.707Z</time></trkpt><trkpt lat="45.5362212" lon="11.5582085"><ele>30.0</ele><time>2026-04-03T17:22:56.708Z</time></trkpt><trkpt lat="45.5361402" lon="11.5582765"><ele>30.0</ele><time>2026-04-03T17:22:57.708Z</time></trkpt><trkpt lat="45.5360589" lon="11.5583437"><ele>30.0</ele><time>2026-04-03T17:22:58.708Z</time></trkpt><trkpt lat="45.5359788" lon="11.5584104"><ele>30.0</ele><time>2026-04-03T17:22:59.708Z</time></trkpt><trkpt lat="45.5358999" lon="11.5584857"><ele>30.0</ele><time>2026-04-03T17:23:00.711Z</time></trkpt><trkpt lat="45.535817" lon="11.5585597"><ele>30.0</ele><time>2026-04-03T17:23:01.719Z</time></trkpt><trkpt lat="45.5357346" lon="11.558641"><ele>30.0</ele><time>2026-04-03T17:23:02.706Z</time></trkpt><trkpt lat="45.5356459" lon="11.5587333"><ele>30.0</ele><time>2026-04-03T17:23:03.709Z</time></trkpt><trkpt lat="45.5355589" lon="11.5588236"><ele>30.0</ele><time>2026-04-03T17:23:04.707Z</time></trkpt><trkpt lat="45.535475" lon="11.5589112"><ele>30.0</ele><time>2026-04-03T17:23:05.707Z</time></trkpt><trkpt lat="45.5353894" lon="11.5589993"><ele>30.0</ele><time>2026-04-03T17:23:06.703Z</time></trkpt><trkpt lat="45.5353151" lon="11.5590779"><ele>30.0</ele><time>2026-04-03T17:23:07.709Z</time></trkpt><trkpt lat="45.5352441" lon="11.5591509"><ele>30.166666666666668</ele><time>2026-04-03T17:23:08.708Z</time></trkpt><trkpt lat="45.5351777" lon="11.5592162"><ele>30.333333333333336</ele><time>2026-04-03T17:23:09.704Z</time></trkpt><trkpt lat="45.5351179" lon="11.5592782"><ele>30.5</ele><time>2026-04-03T17:23:10.7Z</time></trkpt><trkpt lat="45.5350366" lon="11.559357"><ele>30.666666666666668</ele><time>2026-04-03T17:23:12.699Z</time></trkpt><trkpt lat="45.5349697" lon="11.5594373"><ele>30.833333333333336</ele><time>2026-04-03T17:23:23.709Z</time></trkpt><trkpt lat="45.5348937" lon="11.5595004"><ele>31.0</ele><time>2026-04-03T17:23:25.707Z</time></trkpt><trkpt lat="45.5347838" lon="11.5595994"><ele>31.000000000000004</ele><time>2026-04-03T17:23:27.698Z</time></trkpt><trkpt lat="45.5347242" lon="11.5596509"><ele>31.0</ele><time>2026-04-03T17:23:28.693Z</time></trkpt><trkpt lat="45.5346613" lon="11.559721"><ele>31.0</ele><time>2026-04-03T17:23:29.705Z</time></trkpt><trkpt lat="45.5345854" lon="11.5597975"><ele>31.0</ele><time>2026-04-03T17:23:30.7Z</time></trkpt><trkpt lat="45.5345024" lon="11.5598763"><ele>31.000000000000004</ele><time>2026-04-03T17:23:31.719Z</time></trkpt><trkpt lat="45.5344201" lon="11.5599617"><ele>31.0</ele><time>2026-04-03T17:23:32.704Z</time></trkpt><trkpt lat="45.5343381" lon="11.5600479"><ele>30.6</ele><time>2026-04-03T17:23:33.702Z</time></trkpt><trkpt lat="45.5342533" lon="11.5601361"><ele>30.200000000000003</ele><time>2026-04-03T17:23:34.697Z</time></trkpt><trkpt lat="45.5341704" lon="11.5602258"><ele>29.799999999999997</ele><time>2026-04-03T17:23:35.696Z</time></trkpt><trkpt lat="45.5340873" lon="11.5603115"><ele>29.4</ele><time>2026-04-03T17:23:36.697Z</time></trkpt><trkpt lat="45.5339966" lon="11.5604003"><ele>29.0</ele><time>2026-04-03T17:23:37.7Z</time></trkpt><trkpt lat="45.5339032" lon="11.5605033"><ele>29.0</ele><time>2026-04-03T17:23:38.699Z</time></trkpt><trkpt lat="45.5338025" lon="11.5606084"><ele>29.0</ele><time>2026-04-03T17:23:39.701Z</time></trkpt><trkpt lat="45.5336996" lon="11.560714"><ele>29.0</ele><time>2026-04-03T17:23:40.703Z</time></trkpt><trkpt lat="45.5335978" lon="11.5608115"><ele>29.0</ele><time>2026-04-03T17:23:41.707Z</time></trkpt><trkpt lat="45.5334991" lon="11.5609106"><ele>29.799999999999997</ele><time>2026-04-03T17:23:42.71Z</time></trkpt><trkpt lat="45.5334009" lon="11.5610019"><ele>30.599999999999998</ele><time>2026-04-03T17:23:43.708Z</time></trkpt><trkpt lat="45.5333107" lon="11.5610908"><ele>31.4</ele><time>2026-04-03T17:23:44.715Z</time></trkpt><trkpt lat="45.5332193" lon="11.561175"><ele>32.199999999999996</ele><time>2026-04-03T17:23:45.708Z</time></trkpt><trkpt lat="45.5331267" lon="11.5612607"><ele>33.0</ele><time>2026-04-03T17:23:46.716Z</time></trkpt><trkpt lat="45.5330322" lon="11.5613438"><ele>33.0</ele><time>2026-04-03T17:23:47.714Z</time></trkpt><trkpt lat="45.5329379" lon="11.5614293"><ele>33.0</ele><time>2026-04-03T17:23:48.711Z</time></trkpt><trkpt lat="45.5328413" lon="11.5615127"><ele>33.0</ele><time>2026-04-03T17:23:49.712Z</time></trkpt><trkpt lat="45.5327452" lon="11.5615976"><ele>33.0</ele><time>2026-04-03T17:23:50.711Z</time></trkpt><trkpt lat="45.5326479" lon="11.5616867"><ele>33.0</ele><time>2026-04-03T17:23:51.708Z</time></trkpt><trkpt lat="45.5325452" lon="11.5617709"><ele>33.0</ele><time>2026-04-03T17:23:52.71Z</time></trkpt><trkpt lat="45.5324353" lon="11.561859"><ele>33.0</ele><time>2026-04-03T17:23:53.71Z</time></trkpt><trkpt lat="45.5323252" lon="11.5619469"><ele>33.0</ele><time>2026-04-03T17:23:54.711Z</time></trkpt><trkpt lat="45.5322088" lon="11.5620295"><ele>32.25</ele><time>2026-04-03T17:23:55.711Z</time></trkpt><trkpt lat="45.5320897" lon="11.5621072"><ele>31.5</ele><time>2026-04-03T17:23:56.71Z</time></trkpt><trkpt lat="45.5319706" lon="11.5621682"><ele>30.75</ele><time>2026-04-03T17:23:57.714Z</time></trkpt><trkpt lat="45.5318488" lon="11.5622155"><ele>30.0</ele><time>2026-04-03T17:23:58.71Z</time></trkpt><trkpt lat="45.5317255" lon="11.5622513"><ele>30.0</ele><time>2026-04-03T17:23:59.709Z</time></trkpt><trkpt lat="45.531603" lon="11.5622883"><ele>30.0</ele><time>2026-04-03T17:24:00.713Z</time></trkpt><trkpt lat="45.531484" lon="11.5623236"><ele>30.0</ele><time>2026-04-03T17:24:01.72Z</time></trkpt><trkpt lat="45.5313658" lon="11.5623691"><ele>30.0</ele><time>2026-04-03T17:24:02.709Z</time></trkpt><trkpt lat="45.5312431" lon="11.5624113"><ele>30.0</ele><time>2026-04-03T17:24:03.712Z</time></trkpt><trkpt lat="45.5311198" lon="11.5624557"><ele>30.0</ele><time>2026-04-03T17:24:04.71Z</time></trkpt><trkpt lat="45.5309965" lon="11.5625046"><ele>30.0</ele><time>2026-04-03T17:24:05.711Z</time></trkpt><trkpt lat="45.5308703" lon="11.5625505"><ele>30.0</ele><time>2026-04-03T17:24:06.711Z</time></trkpt><trkpt lat="45.5307431" lon="11.5625941"><ele>30.0</ele><time>2026-04-03T17:24:07.711Z</time></trkpt><trkpt lat="45.5306112" lon="11.5626319"><ele>30.0</ele><time>2026-04-03T17:24:08.706Z</time></trkpt><trkpt lat="45.5304731" lon="11.5626689"><ele>30.0</ele><time>2026-04-03T17:24:09.711Z</time></trkpt><trkpt lat="45.5303343" lon="11.5627054"><ele>30.0</ele><time>2026-04-03T17:24:10.714Z</time></trkpt><trkpt lat="45.5301994" lon="11.5627448"><ele>29.75</ele><time>2026-04-03T17:24:11.708Z</time></trkpt><trkpt lat="45.5300642" lon="11.5627671"><ele>29.5</ele><time>2026-04-03T17:24:12.717Z</time></trkpt><trkpt lat="45.5299299" lon="11.5627927"><ele>29.25</ele><time>2026-04-03T17:24:13.717Z</time></trkpt><trkpt lat="45.529795" lon="11.562815"><ele>29.0</ele><time>2026-04-03T17:24:14.712Z</time></trkpt><trkpt lat="45.52966" lon="11.5628425"><ele>30.0</ele><time>2026-04-03T17:24:15.723Z</time></trkpt><trkpt lat="45.5295293" lon="11.5628819"><ele>31.0</ele><time>2026-04-03T17:24:16.717Z</time></trkpt><trkpt lat="45.5293972" lon="11.5629172"><ele>32.0</ele><time>2026-04-03T17:24:17.719Z</time></trkpt><trkpt lat="45.5292621" lon="11.5629509"><ele>33.0</ele><time>2026-04-03T17:24:18.715Z</time></trkpt><trkpt lat="45.5291259" lon="11.562987"><ele>33.0</ele><time>2026-04-03T17:24:19.712Z</time></trkpt><trkpt lat="45.5289905" lon="11.5630106"><ele>33.0</ele><time>2026-04-03T17:24:20.708Z</time></trkpt><trkpt lat="45.5288578" lon="11.5630097"><ele>33.0</ele><time>2026-04-03T17:24:21.706Z</time></trkpt><trkpt lat="45.5287316" lon="11.5629919"><ele>33.0</ele><time>2026-04-03T17:24:22.708Z</time></trkpt><trkpt lat="45.5285987" lon="11.5629715"><ele>32.5</ele><time>2026-04-03T17:24:23.702Z</time></trkpt><trkpt lat="45.528465" lon="11.5629531"><ele>32.0</ele><time>2026-04-03T17:24:24.706Z</time></trkpt><trkpt lat="45.5283296" lon="11.5629382"><ele>31.5</ele><time>2026-04-03T17:24:25.703Z</time></trkpt><trkpt lat="45.528193" lon="11.5629409"><ele>31.0</ele><time>2026-04-03T17:24:26.706Z</time></trkpt><trkpt lat="45.5280583" lon="11.56294"><ele>31.0</ele><time>2026-04-03T17:24:27.699Z</time></trkpt><trkpt lat="45.5279272" lon="11.5629446"><ele>31.0</ele><time>2026-04-03T17:24:28.704Z</time></trkpt><trkpt lat="45.5278041" lon="11.5629451"><ele>31.0</ele><time>2026-04-03T17:24:29.698Z</time></trkpt><trkpt lat="45.5276876" lon="11.5629398"><ele>31.0</ele><time>2026-04-03T17:24:30.701Z</time></trkpt><trkpt lat="45.5275798" lon="11.5629321"><ele>31.25</ele><time>2026-04-03T17:24:31.707Z</time></trkpt><trkpt lat="45.527467" lon="11.5629249"><ele>31.5</ele><time>2026-04-03T17:24:32.698Z</time></trkpt><trkpt lat="45.5273418" lon="11.5629262"><ele>31.75</ele><time>2026-04-03T17:24:33.699Z</time></trkpt><trkpt lat="45.5272122" lon="11.5629311"><ele>32.0</ele><time>2026-04-03T17:24:34.693Z</time></trkpt><trkpt lat="45.5270777" lon="11.5629451"><ele>32.0</ele><time>2026-04-03T17:24:35.703Z</time></trkpt><trkpt lat="45.5269421" lon="11.5629636"><ele>32.0</ele><time>2026-04-03T17:24:36.696Z</time></trkpt><trkpt lat="45.5268088" lon="11.5629874"><ele>32.0</ele><time>2026-04-03T17:24:37.702Z</time></trkpt><trkpt lat="45.5266779" lon="11.5630241"><ele>32.0</ele><time>2026-04-03T17:24:38.696Z</time></trkpt><trkpt lat="45.52654" lon="11.5630649"><ele>32.0</ele><time>2026-04-03T17:24:39.695Z</time></trkpt><trkpt lat="45.5263915" lon="11.5631097"><ele>32.0</ele><time>2026-04-03T17:24:40.699Z</time></trkpt><trkpt lat="45.5262529" lon="11.5631701"><ele>32.0</ele><time>2026-04-03T17:24:41.695Z</time></trkpt><trkpt lat="45.5261309" lon="11.5632357"><ele>32.0</ele><time>2026-04-03T17:24:42.71Z</time></trkpt><trkpt lat="45.5260113" lon="11.5632847"><ele>32.0</ele><time>2026-04-03T17:24:43.701Z</time></trkpt><trkpt lat="45.5258936" lon="11.5633203"><ele>32.0</ele><time>2026-04-03T17:24:44.701Z</time></trkpt><trkpt lat="45.5257548" lon="11.563358"><ele>32.0</ele><time>2026-04-03T17:24:45.704Z</time></trkpt><trkpt lat="45.5256289" lon="11.5633878"><ele>32.0</ele><time>2026-04-03T17:24:46.717Z</time></trkpt><trkpt lat="45.5254887" lon="11.5634222"><ele>31.75</ele><time>2026-04-03T17:24:47.704Z</time></trkpt><trkpt lat="45.5253465" lon="11.5634615"><ele>31.5</ele><time>2026-04-03T17:24:48.709Z</time></trkpt><trkpt lat="45.5252111" lon="11.5635104"><ele>31.25</ele><time>2026-04-03T17:24:49.704Z</time></trkpt><trkpt lat="45.5250736" lon="11.5635535"><ele>31.0</ele><time>2026-04-03T17:24:50.705Z</time></trkpt><trkpt lat="45.5249498" lon="11.5635897"><ele>31.0</ele><time>2026-04-03T17:24:51.7Z</time></trkpt><trkpt lat="45.5248128" lon="11.5635986"><ele>31.0</ele><time>2026-04-03T17:24:52.705Z</time></trkpt><trkpt lat="45.5246858" lon="11.5636109"><ele>31.0</ele><time>2026-04-03T17:24:53.703Z</time></trkpt><trkpt lat="45.5245463" lon="11.5636194"><ele>31.0</ele><time>2026-04-03T17:24:54.706Z</time></trkpt><trkpt lat="45.5244076" lon="11.5636321"><ele>31.75</ele><time>2026-04-03T17:24:55.708Z</time></trkpt><trkpt lat="45.5242761" lon="11.5636473"><ele>32.5</ele><time>2026-04-03T17:24:56.705Z</time></trkpt><trkpt lat="45.5241439" lon="11.5636607"><ele>33.25</ele><time>2026-04-03T17:24:57.705Z</time></trkpt><trkpt lat="45.5240121" lon="11.5636656"><ele>34.0</ele><time>2026-04-03T17:24:58.703Z</time></trkpt><trkpt lat="45.5238808" lon="11.5636591"><ele>34.0</ele><time>2026-04-03T17:24:59.706Z</time></trkpt><trkpt lat="45.5237471" lon="11.5636511"><ele>34.0</ele><time>2026-04-03T17:25:00.696Z</time></trkpt><trkpt lat="45.5236101" lon="11.5636382"><ele>34.0</ele><time>2026-04-03T17:25:01.715Z</time></trkpt><trkpt lat="45.523475" lon="11.5636163"><ele>34.0</ele><time>2026-04-03T17:25:02.703Z</time></trkpt><trkpt lat="45.5233381" lon="11.5635924"><ele>34.5</ele><time>2026-04-03T17:25:03.698Z</time></trkpt><trkpt lat="45.5232061" lon="11.5635807"><ele>35.0</ele><time>2026-04-03T17:25:04.703Z</time></trkpt><trkpt lat="45.5230777" lon="11.5635944"><ele>35.5</ele><time>2026-04-03T17:25:05.7Z</time></trkpt><trkpt lat="45.5229484" lon="11.5636236"><ele>36.0</ele><time>2026-04-03T17:25:06.71Z</time></trkpt><trkpt lat="45.5228271" lon="11.5636566"><ele>34.75</ele><time>2026-04-03T17:25:07.705Z</time></trkpt><trkpt lat="45.522709" lon="11.5636884"><ele>33.5</ele><time>2026-04-03T17:25:08.699Z</time></trkpt><trkpt lat="45.5225876" lon="11.5637272"><ele>32.25</ele><time>2026-04-03T17:25:09.699Z</time></trkpt><trkpt lat="45.5224656" lon="11.5637542"><ele>31.0</ele><time>2026-04-03T17:25:10.701Z</time></trkpt><trkpt lat="45.5223376" lon="11.5637834"><ele>30.75</ele><time>2026-04-03T17:25:11.703Z</time></trkpt><trkpt lat="45.5222128" lon="11.5638198"><ele>30.5</ele><time>2026-04-03T17:25:12.701Z</time></trkpt><trkpt lat="45.5220831" lon="11.5638496"><ele>30.25</ele><time>2026-04-03T17:25:13.703Z</time></trkpt><trkpt lat="45.521953" lon="11.5638846"><ele>30.0</ele><time>2026-04-03T17:25:14.706Z</time></trkpt><trkpt lat="45.5218236" lon="11.563923"><ele>30.0</ele><time>2026-04-03T17:25:15.703Z</time></trkpt><trkpt lat="45.5216895" lon="11.5639596"><ele>30.0</ele><time>2026-04-03T17:25:16.705Z</time></trkpt><trkpt lat="45.5215521" lon="11.5639976"><ele>30.0</ele><time>2026-04-03T17:25:17.711Z</time></trkpt><trkpt lat="45.5214123" lon="11.5640243"><ele>30.0</ele><time>2026-04-03T17:25:18.701Z</time></trkpt><trkpt lat="45.5212834" lon="11.5640642"><ele>30.25</ele><time>2026-04-03T17:25:19.702Z</time></trkpt><trkpt lat="45.5211558" lon="11.5641012"><ele>30.5</ele><time>2026-04-03T17:25:20.704Z</time></trkpt><trkpt lat="45.5210229" lon="11.5641339"><ele>30.75</ele><time>2026-04-03T17:25:21.696Z</time></trkpt><trkpt lat="45.5208989" lon="11.5641664"><ele>31.0</ele><time>2026-04-03T17:25:22.7Z</time></trkpt><trkpt lat="45.5207715" lon="11.5642096"><ele>31.0</ele><time>2026-04-03T17:25:23.703Z</time></trkpt><trkpt lat="45.5206446" lon="11.5642417"><ele>31.0</ele><time>2026-04-03T17:25:24.698Z</time></trkpt><trkpt lat="45.5205243" lon="11.5642728"><ele>31.0</ele><time>2026-04-03T17:25:25.701Z</time></trkpt><trkpt lat="45.5204133" lon="11.5643061"><ele>31.0</ele><time>2026-04-03T17:25:26.697Z</time></trkpt><trkpt lat="45.5203092" lon="11.5643375"><ele>31.0</ele><time>2026-04-03T17:25:27.704Z</time></trkpt><trkpt lat="45.5202058" lon="11.5643694"><ele>31.0</ele><time>2026-04-03T17:25:28.703Z</time></trkpt><trkpt lat="45.5201058" lon="11.5644074"><ele>31.0</ele><time>2026-04-03T17:25:29.7Z</time></trkpt><trkpt lat="45.5200053" lon="11.5644416"><ele>31.0</ele><time>2026-04-03T17:25:30.706Z</time></trkpt><trkpt lat="45.5199093" lon="11.5644715"><ele>31.0</ele><time>2026-04-03T17:25:31.713Z</time></trkpt><trkpt lat="45.5198187" lon="11.5645005"><ele>31.000000000000004</ele><time>2026-04-03T17:25:32.7Z</time></trkpt><trkpt lat="45.5197321" lon="11.5645251"><ele>31.0</ele><time>2026-04-03T17:25:33.709Z</time></trkpt><trkpt lat="45.5196511" lon="11.5645431"><ele>31.0</ele><time>2026-04-03T17:25:34.707Z</time></trkpt><trkpt lat="45.5195707" lon="11.5645512"><ele>31.0</ele><time>2026-04-03T17:25:35.707Z</time></trkpt><trkpt lat="45.5194985" lon="11.5645258"><ele>31.000000000000004</ele><time>2026-04-03T17:25:36.708Z</time></trkpt><trkpt lat="45.5194373" lon="11.56445"><ele>31.0</ele><time>2026-04-03T17:25:37.702Z</time></trkpt><trkpt lat="45.5193698" lon="11.5644052"><ele>31.0</ele><time>2026-04-03T17:25:38.713Z</time></trkpt><trkpt lat="45.5192988" lon="11.564413"><ele>31.000000000000004</ele><time>2026-04-03T17:25:39.703Z</time></trkpt><trkpt lat="45.5192356" lon="11.5644708"><ele>31.0</ele><time>2026-04-03T17:25:40.704Z</time></trkpt><trkpt lat="45.5191891" lon="11.5645631"><ele>31.0</ele><time>2026-04-03T17:25:41.693Z</time></trkpt><trkpt lat="45.5191587" lon="11.5646601"><ele>31.000000000000004</ele><time>2026-04-03T17:25:42.698Z</time></trkpt><trkpt lat="45.5191182" lon="11.5647385"><ele>31.0</ele><time>2026-04-03T17:25:43.695Z</time></trkpt><trkpt lat="45.5190531" lon="11.5647898"><ele>31.0</ele><time>2026-04-03T17:25:44.702Z</time></trkpt><trkpt lat="45.5189688" lon="11.5648247"><ele>31.0</ele><time>2026-04-03T17:25:45.694Z</time></trkpt><trkpt lat="45.518881" lon="11.5648633"><ele>31.0</ele><time>2026-04-03T17:25:46.693Z</time></trkpt><trkpt lat="45.518793" lon="11.5649011"><ele>31.0</ele><time>2026-04-03T17:25:47.696Z</time></trkpt><trkpt lat="45.5187008" lon="11.5649381"><ele>31.0</ele><time>2026-04-03T17:25:48.702Z</time></trkpt><trkpt lat="45.5185993" lon="11.5649783"><ele>31.0</ele><time>2026-04-03T17:25:49.699Z</time></trkpt><trkpt lat="45.5184945" lon="11.5650159"><ele>31.200000000000003</ele><time>2026-04-03T17:25:50.703Z</time></trkpt><trkpt lat="45.5183937" lon="11.5650579"><ele>31.400000000000002</ele><time>2026-04-03T17:25:51.695Z</time></trkpt><trkpt lat="45.5182929" lon="11.5651019"><ele>31.6</ele><time>2026-04-03T17:25:52.698Z</time></trkpt><trkpt lat="45.5181922" lon="11.5651412"><ele>31.8</ele><time>2026-04-03T17:25:53.697Z</time></trkpt><trkpt lat="45.5180908" lon="11.5651819"><ele>32.0</ele><time>2026-04-03T17:25:54.699Z</time></trkpt><trkpt lat="45.5179838" lon="11.5652235"><ele>32.0</ele><time>2026-04-03T17:25:55.705Z</time></trkpt><trkpt lat="45.5178721" lon="11.5652621"><ele>32.0</ele><time>2026-04-03T17:25:56.706Z</time></trkpt><trkpt lat="45.5177665" lon="11.5653063"><ele>32.0</ele><time>2026-04-03T17:25:57.704Z</time></trkpt><trkpt lat="45.5176609" lon="11.5653474"><ele>32.0</ele><time>2026-04-03T17:25:58.707Z</time></trkpt><trkpt lat="45.5175581" lon="11.5653875"><ele>32.0</ele><time>2026-04-03T17:25:59.697Z</time></trkpt><trkpt lat="45.5174615" lon="11.5654208"><ele>31.833333333333332</ele><time>2026-04-03T17:26:00.699Z</time></trkpt><trkpt lat="45.5173744" lon="11.5654514"><ele>31.666666666666664</ele><time>2026-04-03T17:26:01.71Z</time></trkpt><trkpt lat="45.5172958" lon="11.56548"><ele>31.5</ele><time>2026-04-03T17:26:02.696Z</time></trkpt><trkpt lat="45.517226" lon="11.5655072"><ele>31.333333333333336</ele><time>2026-04-03T17:26:03.697Z</time></trkpt><trkpt lat="45.5171585" lon="11.5655315"><ele>31.166666666666668</ele><time>2026-04-03T17:26:04.694Z</time></trkpt><trkpt lat="45.5170954" lon="11.5655553"><ele>31.0</ele><time>2026-04-03T17:26:05.694Z</time></trkpt><trkpt lat="45.5169804" lon="11.5655883"><ele>30.833333333333336</ele><time>2026-04-03T17:26:07.7Z</time></trkpt><trkpt lat="45.5169089" lon="11.5655256"><ele>30.666666666666668</ele><time>2026-04-03T17:26:09.699Z</time></trkpt><trkpt lat="45.516862" lon="11.5654437"><ele>30.5</ele><time>2026-04-03T17:26:11.697Z</time></trkpt><trkpt lat="45.5168181" lon="11.5653545"><ele>30.333333333333336</ele><time>2026-04-03T17:26:13.703Z</time></trkpt><trkpt lat="45.5167333" lon="11.5652119"><ele>30.166666666666668</ele><time>2026-04-03T17:26:15.709Z</time></trkpt><trkpt lat="45.5166586" lon="11.5651831"><ele>30.0</ele><time>2026-04-03T17:26:16.701Z</time></trkpt><trkpt lat="45.5165752" lon="11.565213"><ele>30.0</ele><time>2026-04-03T17:26:17.704Z</time></trkpt><trkpt lat="45.5165013" lon="11.5652864"><ele>30.0</ele><time>2026-04-03T17:26:18.691Z</time></trkpt><trkpt lat="45.5164462" lon="11.5653817"><ele>30.0</ele><time>2026-04-03T17:26:19.722Z</time></trkpt><trkpt lat="45.5164181" lon="11.5655104"><ele>30.0</ele><time>2026-04-03T17:26:20.687Z</time></trkpt><trkpt lat="45.5163987" lon="11.5656427"><ele>30.0</ele><time>2026-04-03T17:26:21.689Z</time></trkpt><trkpt lat="45.5163647" lon="11.5657658"><ele>29.833333333333332</ele><time>2026-04-03T17:26:22.689Z</time></trkpt><trkpt lat="45.5163215" lon="11.5658781"><ele>29.666666666666664</ele><time>2026-04-03T17:26:23.692Z</time></trkpt><trkpt lat="45.5162777" lon="11.5659732"><ele>29.5</ele><time>2026-04-03T17:26:24.679Z</time></trkpt><trkpt lat="45.5162292" lon="11.5660649"><ele>29.333333333333332</ele><time>2026-04-03T17:26:25.678Z</time></trkpt><trkpt lat="45.5161477" lon="11.5661998"><ele>29.166666666666664</ele><time>2026-04-03T17:26:27.653Z</time></trkpt><trkpt lat="45.5161051" lon="11.5662862"><ele>29.0</ele><time>2026-04-03T17:26:28.655Z</time></trkpt><trkpt lat="45.5160418" lon="11.5663198"><ele>29.4</ele><time>2026-04-03T17:26:29.662Z</time></trkpt><trkpt lat="45.515959" lon="11.5662689"><ele>29.799999999999997</ele><time>2026-04-03T17:26:30.678Z</time></trkpt><trkpt lat="45.5158506" lon="11.5662181"><ele>30.200000000000003</ele><time>2026-04-03T17:26:31.704Z</time></trkpt><trkpt lat="45.5157544" lon="11.5661592"><ele>30.6</ele><time>2026-04-03T17:26:32.695Z</time></trkpt><trkpt lat="45.5156662" lon="11.5661176"><ele>31.0</ele><time>2026-04-03T17:26:33.704Z</time></trkpt><trkpt lat="45.5155894" lon="11.5660895"><ele>31.000000000000004</ele><time>2026-04-03T17:26:34.704Z</time></trkpt><trkpt lat="45.5155131" lon="11.5660647"><ele>31.0</ele><time>2026-04-03T17:26:35.707Z</time></trkpt><trkpt lat="45.5154378" lon="11.5660476"><ele>31.0</ele><time>2026-04-03T17:26:36.704Z</time></trkpt><trkpt lat="45.5153707" lon="11.5660362"><ele>31.0</ele><time>2026-04-03T17:26:37.714Z</time></trkpt><trkpt lat="45.5152767" lon="11.5660166"><ele>31.000000000000004</ele><time>2026-04-03T17:26:39.71Z</time></trkpt><trkpt lat="45.515191" lon="11.5660049"><ele>31.0</ele><time>2026-04-03T17:26:41.706Z</time></trkpt><trkpt lat="45.5150872" lon="11.5660027"><ele>31.0</ele><time>2026-04-03T17:26:43.701Z</time></trkpt><trkpt lat="45.5149713" lon="11.5659902"><ele>31.0</ele><time>2026-04-03T17:26:45.708Z</time></trkpt><trkpt lat="45.5148487" lon="11.5659745"><ele>31.0</ele><time>2026-04-03T17:26:47.716Z</time></trkpt><trkpt lat="45.5147231" lon="11.5659541"><ele>31.0</ele><time>2026-04-03T17:26:49.727Z</time></trkpt><trkpt lat="45.5146591" lon="11.5659414"><ele>31.0</ele><time>2026-04-03T17:26:50.704Z</time></trkpt><trkpt lat="45.5145903" lon="11.5659308"><ele>31.000000000000004</ele><time>2026-04-03T17:26:51.713Z</time></trkpt><trkpt lat="45.5145176" lon="11.5659145"><ele>31.0</ele><time>2026-04-03T17:26:52.713Z</time></trkpt><trkpt lat="45.5144414" lon="11.5659031"><ele>31.0</ele><time>2026-04-03T17:26:53.708Z</time></trkpt><trkpt lat="45.5143637" lon="11.5658912"><ele>31.0</ele><time>2026-04-03T17:26:54.709Z</time></trkpt><trkpt lat="45.5142851" lon="11.5658738"><ele>31.000000000000004</ele><time>2026-04-03T17:26:55.71Z</time></trkpt><trkpt lat="45.5142028" lon="11.5658587"><ele>31.0</ele><time>2026-04-03T17:26:56.712Z</time></trkpt><trkpt lat="45.5141149" lon="11.5658444"><ele>31.000000000000004</ele><time>2026-04-03T17:26:57.712Z</time></trkpt><trkpt lat="45.5140287" lon="11.5658284"><ele>31.0</ele><time>2026-04-03T17:26:58.717Z</time></trkpt><trkpt lat="45.5139466" lon="11.5658133"><ele>31.0</ele><time>2026-04-03T17:26:59.711Z</time></trkpt><trkpt lat="45.5138635" lon="11.5658017"><ele>31.0</ele><time>2026-04-03T17:27:00.709Z</time></trkpt><trkpt lat="45.5137813" lon="11.5657882"><ele>31.000000000000004</ele><time>2026-04-03T17:27:01.72Z</time></trkpt><trkpt lat="45.5136997" lon="11.5657754"><ele>31.0</ele><time>2026-04-03T17:27:02.706Z</time></trkpt><trkpt lat="45.5136219" lon="11.5657675"><ele>30.833333333333336</ele><time>2026-04-03T17:27:03.717Z</time></trkpt><trkpt lat="45.5135389" lon="11.5657579"><ele>30.666666666666668</ele><time>2026-04-03T17:27:04.713Z</time></trkpt><trkpt lat="45.5134523" lon="11.5657451"><ele>30.5</ele><time>2026-04-03T17:27:05.71Z</time></trkpt><trkpt lat="45.5133632" lon="11.5657304"><ele>30.333333333333336</ele><time>2026-04-03T17:27:06.707Z</time></trkpt><trkpt lat="45.513278" lon="11.5657196"><ele>30.166666666666668</ele><time>2026-04-03T17:27:07.713Z</time></trkpt><trkpt lat="45.513194" lon="11.5657144"><ele>30.0</ele><time>2026-04-03T17:27:08.713Z</time></trkpt><trkpt lat="45.5131031" lon="11.5657091"><ele>30.0</ele><time>2026-04-03T17:27:09.704Z</time></trkpt><trkpt lat="45.5130154" lon="11.5657017"><ele>30.0</ele><time>2026-04-03T17:27:10.715Z</time></trkpt><trkpt lat="45.5129264" lon="11.5657068"><ele>30.0</ele><time>2026-04-03T17:27:11.705Z</time></trkpt><trkpt lat="45.5128369" lon="11.565715"><ele>30.0</ele><time>2026-04-03T17:27:12.705Z</time></trkpt><trkpt lat="45.512744" lon="11.5657146"><ele>30.0</ele><time>2026-04-03T17:27:13.709Z</time></trkpt><trkpt lat="45.5126521" lon="11.5657124"><ele>30.0</ele><time>2026-04-03T17:27:14.708Z</time></trkpt><trkpt lat="45.5125636" lon="11.5657148"><ele>30.0</ele><time>2026-04-03T17:27:15.71Z</time></trkpt><trkpt lat="45.5124751" lon="11.5657177"><ele>30.0</ele><time>2026-04-03T17:27:16.708Z</time></trkpt><trkpt lat="45.5123876" lon="11.5657215"><ele>30.0</ele><time>2026-04-03T17:27:17.711Z</time></trkpt><trkpt lat="45.5123044" lon="11.565719"><ele>30.0</ele><time>2026-04-03T17:27:18.714Z</time></trkpt><trkpt lat="45.5122294" lon="11.5657121"><ele>30.0</ele><time>2026-04-03T17:27:19.705Z</time></trkpt><trkpt lat="45.5121616" lon="11.5656885"><ele>30.0</ele><time>2026-04-03T17:27:20.715Z</time></trkpt><trkpt lat="45.5120939" lon="11.5656373"><ele>30.0</ele><time>2026-04-03T17:27:21.704Z</time></trkpt><trkpt lat="45.5120361" lon="11.5655531"><ele>30.0</ele><time>2026-04-03T17:27:22.711Z</time></trkpt><trkpt lat="45.5119725" lon="11.5654678"><ele>30.0</ele><time>2026-04-03T17:27:23.708Z</time></trkpt><trkpt lat="45.5119084" lon="11.5653798"><ele>30.0</ele><time>2026-04-03T17:27:24.71Z</time></trkpt><trkpt lat="45.5118407" lon="11.5652902"><ele>30.0</ele><time>2026-04-03T17:27:25.71Z</time></trkpt><trkpt lat="45.5117634" lon="11.5652016"><ele>29.8</ele><time>2026-04-03T17:27:26.709Z</time></trkpt><trkpt lat="45.5116882" lon="11.5651165"><ele>29.6</ele><time>2026-04-03T17:27:27.711Z</time></trkpt><trkpt lat="45.5116066" lon="11.5650297"><ele>29.4</ele><time>2026-04-03T17:27:28.709Z</time></trkpt><trkpt lat="45.5115229" lon="11.5649393"><ele>29.2</ele><time>2026-04-03T17:27:29.713Z</time></trkpt><trkpt lat="45.5114338" lon="11.5648487"><ele>29.0</ele><time>2026-04-03T17:27:30.712Z</time></trkpt><trkpt lat="45.5113389" lon="11.5647576"><ele>29.0</ele><time>2026-04-03T17:27:31.723Z</time></trkpt><trkpt lat="45.5112458" lon="11.5646657"><ele>29.0</ele><time>2026-04-03T17:27:32.71Z</time></trkpt><trkpt lat="45.5111487" lon="11.5645743"><ele>29.0</ele><time>2026-04-03T17:27:33.707Z</time></trkpt><trkpt lat="45.5110564" lon="11.5644775"><ele>29.0</ele><time>2026-04-03T17:27:34.709Z</time></trkpt><trkpt lat="45.5109704" lon="11.5643724"><ele>29.0</ele><time>2026-04-03T17:27:35.707Z</time></trkpt><trkpt lat="45.510896" lon="11.5642513"><ele>29.0</ele><time>2026-04-03T17:27:36.715Z</time></trkpt><trkpt lat="45.5108295" lon="11.5641225"><ele>29.0</ele><time>2026-04-03T17:27:37.712Z</time></trkpt><trkpt lat="45.5107649" lon="11.5639924"><ele>29.0</ele><time>2026-04-03T17:27:38.709Z</time></trkpt><trkpt lat="45.5106966" lon="11.5638636"><ele>29.0</ele><time>2026-04-03T17:27:39.707Z</time></trkpt><trkpt lat="45.5106195" lon="11.5637443"><ele>29.0</ele><time>2026-04-03T17:27:40.707Z</time></trkpt><trkpt lat="45.510535" lon="11.5636299"><ele>29.0</ele><time>2026-04-03T17:27:41.706Z</time></trkpt><trkpt lat="45.5104435" lon="11.5635262"><ele>29.0</ele><time>2026-04-03T17:27:42.708Z</time></trkpt><trkpt lat="45.5103523" lon="11.5634278"><ele>29.0</ele><time>2026-04-03T17:27:43.708Z</time></trkpt><trkpt lat="45.5102697" lon="11.5633366"><ele>29.0</ele><time>2026-04-03T17:27:44.703Z</time></trkpt><trkpt lat="45.5101838" lon="11.5632564"><ele>29.0</ele><time>2026-04-03T17:27:45.707Z</time></trkpt><trkpt lat="45.510095" lon="11.5631838"><ele>29.0</ele><time>2026-04-03T17:27:46.706Z</time></trkpt><trkpt lat="45.5100051" lon="11.5631078"><ele>29.0</ele><time>2026-04-03T17:27:47.706Z</time></trkpt><trkpt lat="45.5099138" lon="11.5630272"><ele>29.0</ele><time>2026-04-03T17:27:48.71Z</time></trkpt><trkpt lat="45.5098198" lon="11.562947"><ele>29.0</ele><time>2026-04-03T17:27:49.709Z</time></trkpt><trkpt lat="45.5097211" lon="11.5628671"><ele>29.0</ele><time>2026-04-03T17:27:50.705Z</time></trkpt><trkpt lat="45.5096242" lon="11.5627803"><ele>29.0</ele><time>2026-04-03T17:27:51.715Z</time></trkpt><trkpt lat="45.509524" lon="11.5626867"><ele>28.75</ele><time>2026-04-03T17:27:52.706Z</time></trkpt><trkpt lat="45.5094246" lon="11.562594"><ele>28.5</ele><time>2026-04-03T17:27:53.705Z</time></trkpt><trkpt lat="45.5093213" lon="11.5625045"><ele>28.25</ele><time>2026-04-03T17:27:54.71Z</time></trkpt><trkpt lat="45.5092119" lon="11.5624284"><ele>28.0</ele><time>2026-04-03T17:27:55.709Z</time></trkpt><trkpt lat="45.5091041" lon="11.5623509"><ele>28.0</ele><time>2026-04-03T17:27:56.713Z</time></trkpt><trkpt lat="45.5089974" lon="11.562276"><ele>28.0</ele><time>2026-04-03T17:27:57.71Z</time></trkpt><trkpt lat="45.508892" lon="11.5621908"><ele>28.0</ele><time>2026-04-03T17:27:58.706Z</time></trkpt><trkpt lat="45.5087943" lon="11.5620769"><ele>28.0</ele><time>2026-04-03T17:27:59.704Z</time></trkpt><trkpt lat="45.5087052" lon="11.5619463"><ele>28.5</ele><time>2026-04-03T17:28:00.713Z</time></trkpt><trkpt lat="45.5086261" lon="11.5618073"><ele>29.0</ele><time>2026-04-03T17:28:01.721Z</time></trkpt><trkpt lat="45.5085466" lon="11.5616662"><ele>29.5</ele><time>2026-04-03T17:28:02.708Z</time></trkpt><trkpt lat="45.508457" lon="11.561536"><ele>30.0</ele><time>2026-04-03T17:28:03.712Z</time></trkpt><trkpt lat="45.5083649" lon="11.56141"><ele>30.0</ele><time>2026-04-03T17:28:04.71Z</time></trkpt><trkpt lat="45.5082706" lon="11.5612815"><ele>30.0</ele><time>2026-04-03T17:28:05.714Z</time></trkpt><trkpt lat="45.5081782" lon="11.5611637"><ele>30.0</ele><time>2026-04-03T17:28:06.711Z</time></trkpt><trkpt lat="45.5080841" lon="11.5610483"><ele>30.0</ele><time>2026-04-03T17:28:07.715Z</time></trkpt><trkpt lat="45.5079906" lon="11.5609335"><ele>29.75</ele><time>2026-04-03T17:28:08.71Z</time></trkpt><trkpt lat="45.5078955" lon="11.5608244"><ele>29.5</ele><time>2026-04-03T17:28:09.711Z</time></trkpt><trkpt lat="45.5077977" lon="11.5607148"><ele>29.25</ele><time>2026-04-03T17:28:10.713Z</time></trkpt><trkpt lat="45.507702" lon="11.560601"><ele>29.0</ele><time>2026-04-03T17:28:11.715Z</time></trkpt><trkpt lat="45.5076021" lon="11.560489"><ele>29.0</ele><time>2026-04-03T17:28:12.714Z</time></trkpt><trkpt lat="45.5075023" lon="11.5603749"><ele>29.0</ele><time>2026-04-03T17:28:13.717Z</time></trkpt><trkpt lat="45.5074009" lon="11.560267"><ele>29.0</ele><time>2026-04-03T17:28:14.715Z</time></trkpt><trkpt lat="45.507299" lon="11.560152"><ele>29.0</ele><time>2026-04-03T17:28:15.71Z</time></trkpt><trkpt lat="45.5071976" lon="11.5600398"><ele>28.75</ele><time>2026-04-03T17:28:16.717Z</time></trkpt><trkpt lat="45.5070977" lon="11.5599247"><ele>28.5</ele><time>2026-04-03T17:28:17.712Z</time></trkpt><trkpt lat="45.5069981" lon="11.5598034"><ele>28.25</ele><time>2026-04-03T17:28:18.714Z</time></trkpt><trkpt lat="45.5068998" lon="11.5596772"><ele>28.0</ele><time>2026-04-03T17:28:19.709Z</time></trkpt><trkpt lat="45.5068035" lon="11.5595458"><ele>27.5</ele><time>2026-04-03T17:28:20.712Z</time></trkpt><trkpt lat="45.5067112" lon="11.5594089"><ele>27.0</ele><time>2026-04-03T17:28:21.71Z</time></trkpt><trkpt lat="45.5066203" lon="11.5592704"><ele>26.5</ele><time>2026-04-03T17:28:22.723Z</time></trkpt><trkpt lat="45.5065295" lon="11.5591319"><ele>26.0</ele><time>2026-04-03T17:28:23.713Z</time></trkpt><trkpt lat="45.5064351" lon="11.5589985"><ele>26.0</ele><time>2026-04-03T17:28:24.72Z</time></trkpt><trkpt lat="45.506341" lon="11.5588644"><ele>26.0</ele><time>2026-04-03T17:28:25.713Z</time></trkpt><trkpt lat="45.5062477" lon="11.5587305"><ele>26.0</ele><time>2026-04-03T17:28:26.711Z</time></trkpt><trkpt lat="45.506153" lon="11.5585998"><ele>26.0</ele><time>2026-04-03T17:28:27.717Z</time></trkpt><trkpt lat="45.5060607" lon="11.5584699"><ele>26.5</ele><time>2026-04-03T17:28:28.721Z</time></trkpt><trkpt lat="45.5059745" lon="11.5583315"><ele>27.0</ele><time>2026-04-03T17:28:29.717Z</time></trkpt><trkpt lat="45.5058943" lon="11.5581823"><ele>27.5</ele><time>2026-04-03T17:28:30.717Z</time></trkpt><trkpt lat="45.5058191" lon="11.5580256"><ele>28.0</ele><time>2026-04-03T17:28:31.724Z</time></trkpt><trkpt lat="45.5057441" lon="11.5578686"><ele>28.0</ele><time>2026-04-03T17:28:32.716Z</time></trkpt><trkpt lat="45.5056653" lon="11.5577171"><ele>28.0</ele><time>2026-04-03T17:28:33.719Z</time></trkpt><trkpt lat="45.5055879" lon="11.5575685"><ele>28.0</ele><time>2026-04-03T17:28:34.717Z</time></trkpt><trkpt lat="45.5055073" lon="11.5574232"><ele>28.0</ele><time>2026-04-03T17:28:35.713Z</time></trkpt><trkpt lat="45.5054206" lon="11.5572822"><ele>28.0</ele><time>2026-04-03T17:28:36.709Z</time></trkpt><trkpt lat="45.5053334" lon="11.5571407"><ele>28.0</ele><time>2026-04-03T17:28:37.717Z</time></trkpt><trkpt lat="45.5052432" lon="11.5570067"><ele>28.0</ele><time>2026-04-03T17:28:38.708Z</time></trkpt><trkpt lat="45.505151" lon="11.5568698"><ele>28.0</ele><time>2026-04-03T17:28:39.711Z</time></trkpt><trkpt lat="45.5050591" lon="11.5567329"><ele>28.0</ele><time>2026-04-03T17:28:40.716Z</time></trkpt><trkpt lat="45.5049705" lon="11.556594"><ele>28.0</ele><time>2026-04-03T17:28:41.71Z</time></trkpt><trkpt lat="45.5048801" lon="11.5564606"><ele>28.0</ele><time>2026-04-03T17:28:42.717Z</time></trkpt><trkpt lat="45.5047826" lon="11.5563414"><ele>28.0</ele><time>2026-04-03T17:28:43.714Z</time></trkpt><trkpt lat="45.5046791" lon="11.556253"><ele>29.000000000000004</ele><time>2026-04-03T17:28:44.714Z</time></trkpt><trkpt lat="45.5045754" lon="11.5561978"><ele>30.0</ele><time>2026-04-03T17:28:45.708Z</time></trkpt><trkpt lat="45.5044842" lon="11.5561557"><ele>31.0</ele><time>2026-04-03T17:28:46.708Z</time></trkpt><trkpt lat="45.5044035" lon="11.5561176"><ele>32.0</ele><time>2026-04-03T17:28:47.71Z</time></trkpt><trkpt lat="45.5043327" lon="11.5560887"><ele>33.0</ele><time>2026-04-03T17:28:48.709Z</time></trkpt><trkpt lat="45.5042713" lon="11.5560575"><ele>34.0</ele><time>2026-04-03T17:28:49.712Z</time></trkpt><trkpt lat="45.504173" lon="11.5560036"><ele>34.0</ele><time>2026-04-03T17:28:51.713Z</time></trkpt><trkpt lat="45.5040926" lon="11.5559575"><ele>34.0</ele><time>2026-04-03T17:28:53.726Z</time></trkpt><trkpt lat="45.5039994" lon="11.555898"><ele>34.0</ele><time>2026-04-03T17:28:55.7Z</time></trkpt><trkpt lat="45.5039322" lon="11.5558544"><ele>34.0</ele><time>2026-04-03T17:28:57.701Z</time></trkpt><trkpt lat="45.503874" lon="11.5558121"><ele>34.0</ele><time>2026-04-03T17:29:01.703Z</time></trkpt><trkpt lat="45.5037933" lon="11.5557506"><ele>34.0</ele><time>2026-04-03T17:29:03.694Z</time></trkpt><trkpt lat="45.5037248" lon="11.5557321"><ele>33.25</ele><time>2026-04-03T17:29:37.807Z</time></trkpt><trkpt lat="45.5036167" lon="11.555692"><ele>32.5</ele><time>2026-04-03T17:29:39.705Z</time></trkpt><trkpt lat="45.5035518" lon="11.5555968"><ele>31.75</ele><time>2026-04-03T17:29:40.705Z</time></trkpt><trkpt lat="45.5034838" lon="11.555448"><ele>31.0</ele><time>2026-04-03T17:29:41.697Z</time></trkpt><trkpt lat="45.5033913" lon="11.5553207"><ele>31.0</ele><time>2026-04-03T17:29:42.701Z</time></trkpt><trkpt lat="45.5032702" lon="11.5552042"><ele>31.0</ele><time>2026-04-03T17:29:43.707Z</time></trkpt><trkpt lat="45.5031379" lon="11.5551153"><ele>31.0</ele><time>2026-04-03T17:29:44.705Z</time></trkpt><trkpt lat="45.5030069" lon="11.5550205"><ele>31.0</ele><time>2026-04-03T17:29:45.706Z</time></trkpt><trkpt lat="45.5028703" lon="11.554933"><ele>30.0</ele><time>2026-04-03T17:29:46.706Z</time></trkpt><trkpt lat="45.5027299" lon="11.5548509"><ele>29.0</ele><time>2026-04-03T17:29:47.709Z</time></trkpt><trkpt lat="45.5026064" lon="11.5547686"><ele>28.0</ele><time>2026-04-03T17:29:48.712Z</time></trkpt><trkpt lat="45.5024826" lon="11.5546951"><ele>27.0</ele><time>2026-04-03T17:29:49.709Z</time></trkpt><trkpt lat="45.5023567" lon="11.5546156"><ele>26.75</ele><time>2026-04-03T17:29:50.709Z</time></trkpt><trkpt lat="45.5022394" lon="11.5545318"><ele>26.5</ele><time>2026-04-03T17:29:51.707Z</time></trkpt><trkpt lat="45.5021149" lon="11.5544478"><ele>26.25</ele><time>2026-04-03T17:29:52.713Z</time></trkpt><trkpt lat="45.5019893" lon="11.5543759"><ele>26.0</ele><time>2026-04-03T17:29:53.713Z</time></trkpt><trkpt lat="45.501867" lon="11.5542944"><ele>25.75</ele><time>2026-04-03T17:29:54.711Z</time></trkpt><trkpt lat="45.5017447" lon="11.5542137"><ele>25.5</ele><time>2026-04-03T17:29:55.726Z</time></trkpt><trkpt lat="45.5016219" lon="11.5541358"><ele>25.25</ele><time>2026-04-03T17:29:56.708Z</time></trkpt><trkpt lat="45.5014991" lon="11.5540602"><ele>25.0</ele><time>2026-04-03T17:29:57.713Z</time></trkpt><trkpt lat="45.5013739" lon="11.5539817"><ele>25.0</ele><time>2026-04-03T17:29:58.707Z</time></trkpt><trkpt lat="45.5012395" lon="11.5539037"><ele>25.0</ele><time>2026-04-03T17:29:59.713Z</time></trkpt><trkpt lat="45.5011115" lon="11.5538333"><ele>25.0</ele><time>2026-04-03T17:30:00.713Z</time></trkpt><trkpt lat="45.5009742" lon="11.5537829"><ele>25.0</ele><time>2026-04-03T17:30:01.737Z</time></trkpt><trkpt lat="45.5008329" lon="11.553745"><ele>25.0</ele><time>2026-04-03T17:30:02.716Z</time></trkpt><trkpt lat="45.500685" lon="11.5537103"><ele>25.0</ele><time>2026-04-03T17:30:03.723Z</time></trkpt><trkpt lat="45.5005458" lon="11.553686"><ele>25.0</ele><time>2026-04-03T17:30:04.723Z</time></trkpt><trkpt lat="45.5003999" lon="11.553665"><ele>25.0</ele><time>2026-04-03T17:30:05.722Z</time></trkpt><trkpt lat="45.5002592" lon="11.5536507"><ele>24.75</ele><time>2026-04-03T17:30:06.711Z</time></trkpt><trkpt lat="45.5001164" lon="11.5536333"><ele>24.5</ele><time>2026-04-03T17:30:07.719Z</time></trkpt><trkpt lat="45.4999745" lon="11.5536096"><ele>24.25</ele><time>2026-04-03T17:30:08.719Z</time></trkpt><trkpt lat="45.4998259" lon="11.5535662"><ele>24.0</ele><time>2026-04-03T17:30:09.711Z</time></trkpt><trkpt lat="45.4996767" lon="11.5535208"><ele>24.25</ele><time>2026-04-03T17:30:10.719Z</time></trkpt><trkpt lat="45.499529" lon="11.5534639"><ele>24.5</ele><time>2026-04-03T17:30:11.716Z</time></trkpt><trkpt lat="45.4993798" lon="11.5534106"><ele>24.75</ele><time>2026-04-03T17:30:12.71Z</time></trkpt><trkpt lat="45.4992436" lon="11.5533577"><ele>25.0</ele><time>2026-04-03T17:30:13.71Z</time></trkpt><trkpt lat="45.4991108" lon="11.5533103"><ele>25.0</ele><time>2026-04-03T17:30:14.713Z</time></trkpt><trkpt lat="45.4989826" lon="11.5532583"><ele>25.0</ele><time>2026-04-03T17:30:15.714Z</time></trkpt><trkpt lat="45.4988504" lon="11.5532185"><ele>25.0</ele><time>2026-04-03T17:30:16.721Z</time></trkpt><trkpt lat="45.4987192" lon="11.5531677"><ele>25.0</ele><time>2026-04-03T17:30:17.712Z</time></trkpt><trkpt lat="45.4985758" lon="11.5531253"><ele>25.5</ele><time>2026-04-03T17:30:18.718Z</time></trkpt><trkpt lat="45.498439" lon="11.5530825"><ele>26.0</ele><time>2026-04-03T17:30:19.717Z</time></trkpt><trkpt lat="45.4982971" lon="11.55303"><ele>26.5</ele><time>2026-04-03T17:30:20.71Z</time></trkpt><trkpt lat="45.4981605" lon="11.5529962"><ele>27.0</ele><time>2026-04-03T17:30:21.711Z</time></trkpt><trkpt lat="45.4980249" lon="11.5529899"><ele>28.75</ele><time>2026-04-03T17:30:22.709Z</time></trkpt><trkpt lat="45.4978903" lon="11.5530357"><ele>30.5</ele><time>2026-04-03T17:30:23.712Z</time></trkpt><trkpt lat="45.4977576" lon="11.5530971"><ele>32.25</ele><time>2026-04-03T17:30:24.71Z</time></trkpt><trkpt lat="45.497634" lon="11.553166"><ele>34.0</ele><time>2026-04-03T17:30:25.704Z</time></trkpt><trkpt lat="45.4975099" lon="11.5531896"><ele>34.0</ele><time>2026-04-03T17:30:26.717Z</time></trkpt><trkpt lat="45.4973713" lon="11.5531708"><ele>34.0</ele><time>2026-04-03T17:30:27.701Z</time></trkpt><trkpt lat="45.4972487" lon="11.5531038"><ele>34.0</ele><time>2026-04-03T17:30:28.705Z</time></trkpt><trkpt lat="45.4971303" lon="11.5530373"><ele>34.0</ele><time>2026-04-03T17:30:29.705Z</time></trkpt><trkpt lat="45.4970188" lon="11.5529726"><ele>33.75</ele><time>2026-04-03T17:30:30.706Z</time></trkpt><trkpt lat="45.4969108" lon="11.5529038"><ele>33.5</ele><time>2026-04-03T17:30:31.725Z</time></trkpt><trkpt lat="45.4968215" lon="11.5528131"><ele>33.25</ele><time>2026-04-03T17:30:32.707Z</time></trkpt><trkpt lat="45.4967349" lon="11.5526891"><ele>33.0</ele><time>2026-04-03T17:30:33.704Z</time></trkpt><trkpt lat="45.4966579" lon="11.5525335"><ele>33.0</ele><time>2026-04-03T17:30:34.707Z</time></trkpt><trkpt lat="45.4965805" lon="11.5523795"><ele>33.0</ele><time>2026-04-03T17:30:35.707Z</time></trkpt><trkpt lat="45.4965054" lon="11.5522292"><ele>33.0</ele><time>2026-04-03T17:30:36.699Z</time></trkpt><trkpt lat="45.4964326" lon="11.5520915"><ele>33.0</ele><time>2026-04-03T17:30:37.706Z</time></trkpt><trkpt lat="45.4963706" lon="11.5519491"><ele>34.5</ele><time>2026-04-03T17:30:38.699Z</time></trkpt><trkpt lat="45.4963209" lon="11.5518009"><ele>36.0</ele><time>2026-04-03T17:30:39.696Z</time></trkpt><trkpt lat="45.4962829" lon="11.5516426"><ele>37.5</ele><time>2026-04-03T17:30:40.702Z</time></trkpt><trkpt lat="45.4962545" lon="11.551478"><ele>39.0</ele><time>2026-04-03T17:30:41.701Z</time></trkpt><trkpt lat="45.4962363" lon="11.5513084"><ele>36.75</ele><time>2026-04-03T17:30:42.702Z</time></trkpt><trkpt lat="45.49622" lon="11.5511387"><ele>34.5</ele><time>2026-04-03T17:30:43.702Z</time></trkpt><trkpt lat="45.4961928" lon="11.5509657"><ele>32.25</ele><time>2026-04-03T17:30:44.703Z</time></trkpt><trkpt lat="45.4961646" lon="11.550798"><ele>30.0</ele><time>2026-04-03T17:30:45.697Z</time></trkpt><trkpt lat="45.4961285" lon="11.5506301"><ele>30.0</ele><time>2026-04-03T17:30:46.689Z</time></trkpt><trkpt lat="45.4960775" lon="11.5504796"><ele>30.0</ele><time>2026-04-03T17:30:47.701Z</time></trkpt><trkpt lat="45.4959975" lon="11.5503501"><ele>30.0</ele><time>2026-04-03T17:30:48.696Z</time></trkpt><trkpt lat="45.4959061" lon="11.5502294"><ele>30.0</ele><time>2026-04-03T17:30:49.696Z</time></trkpt><trkpt lat="45.4958211" lon="11.550104"><ele>33.0</ele><time>2026-04-03T17:30:50.697Z</time></trkpt><trkpt lat="45.4957341" lon="11.5499783"><ele>36.0</ele><time>2026-04-03T17:30:51.702Z</time></trkpt><trkpt lat="45.4956609" lon="11.5498425"><ele>39.0</ele><time>2026-04-03T17:30:52.703Z</time></trkpt><trkpt lat="45.4955865" lon="11.5497079"><ele>42.0</ele><time>2026-04-03T17:30:53.702Z</time></trkpt><trkpt lat="45.4955149" lon="11.5495708"><ele>45.0</ele><time>2026-04-03T17:30:54.702Z</time></trkpt><trkpt lat="45.4954511" lon="11.5494243"><ele>48.0</ele><time>2026-04-03T17:30:55.703Z</time></trkpt><trkpt lat="45.4953936" lon="11.5492749"><ele>51.0</ele><time>2026-04-03T17:30:56.702Z</time></trkpt><trkpt lat="45.4953394" lon="11.5491272"><ele>54.0</ele><time>2026-04-03T17:30:57.72Z</time></trkpt><trkpt lat="45.4952938" lon="11.5489767"><ele>47.5</ele><time>2026-04-03T17:30:58.711Z</time></trkpt><trkpt lat="45.4952419" lon="11.5488173"><ele>41.0</ele><time>2026-04-03T17:30:59.707Z</time></trkpt><trkpt lat="45.4951764" lon="11.5486533"><ele>34.5</ele><time>2026-04-03T17:31:00.705Z</time></trkpt><trkpt lat="45.4951078" lon="11.5484853"><ele>28.0</ele><time>2026-04-03T17:31:01.717Z</time></trkpt><trkpt lat="45.4950388" lon="11.5483094"><ele>28.0</ele><time>2026-04-03T17:31:02.703Z</time></trkpt><trkpt lat="45.4949692" lon="11.5481463"><ele>28.0</ele><time>2026-04-03T17:31:03.706Z</time></trkpt><trkpt lat="45.4948983" lon="11.5479823"><ele>28.0</ele><time>2026-04-03T17:31:04.707Z</time></trkpt><trkpt lat="45.494826" lon="11.5478097"><ele>28.0</ele><time>2026-04-03T17:31:05.703Z</time></trkpt><trkpt lat="45.494764" lon="11.5476422"><ele>27.5</ele><time>2026-04-03T17:31:06.703Z</time></trkpt><trkpt lat="45.4947111" lon="11.5474735"><ele>27.0</ele><time>2026-04-03T17:31:07.71Z</time></trkpt><trkpt lat="45.4946612" lon="11.5473077"><ele>26.5</ele><time>2026-04-03T17:31:08.703Z</time></trkpt><trkpt lat="45.4946074" lon="11.5471309"><ele>26.0</ele><time>2026-04-03T17:31:09.704Z</time></trkpt><trkpt lat="45.4945447" lon="11.5469535"><ele>26.0</ele><time>2026-04-03T17:31:10.706Z</time></trkpt><trkpt lat="45.4944734" lon="11.5467735"><ele>26.0</ele><time>2026-04-03T17:31:11.703Z</time></trkpt><trkpt lat="45.4944089" lon="11.5466037"><ele>26.0</ele><time>2026-04-03T17:31:12.713Z</time></trkpt><trkpt lat="45.4943379" lon="11.5464424"><ele>26.0</ele><time>2026-04-03T17:31:13.705Z</time></trkpt><trkpt lat="45.4942617" lon="11.5462905"><ele>25.75</ele><time>2026-04-03T17:31:14.714Z</time></trkpt><trkpt lat="45.4941686" lon="11.5461285"><ele>25.5</ele><time>2026-04-03T17:31:15.711Z</time></trkpt><trkpt lat="45.494059" lon="11.5459962"><ele>25.25</ele><time>2026-04-03T17:31:16.709Z</time></trkpt><trkpt lat="45.4939448" lon="11.5458903"><ele>25.0</ele><time>2026-04-03T17:31:17.708Z</time></trkpt><trkpt lat="45.4938313" lon="11.5458142"><ele>25.0</ele><time>2026-04-03T17:31:18.707Z</time></trkpt><trkpt lat="45.4937124" lon="11.5457357"><ele>25.0</ele><time>2026-04-03T17:31:19.707Z</time></trkpt><trkpt lat="45.4936008" lon="11.545639"><ele>25.0</ele><time>2026-04-03T17:31:20.708Z</time></trkpt><trkpt lat="45.4934958" lon="11.5455319"><ele>25.0</ele><time>2026-04-03T17:31:21.71Z</time></trkpt><trkpt lat="45.4933937" lon="11.5454293"><ele>25.75</ele><time>2026-04-03T17:31:22.71Z</time></trkpt><trkpt lat="45.4933019" lon="11.5453302"><ele>26.5</ele><time>2026-04-03T17:31:23.707Z</time></trkpt><trkpt lat="45.493211" lon="11.5452233"><ele>27.25</ele><time>2026-04-03T17:31:24.707Z</time></trkpt><trkpt lat="45.4931302" lon="11.5451005"><ele>28.0</ele><time>2026-04-03T17:31:25.704Z</time></trkpt><trkpt lat="45.4930533" lon="11.5449652"><ele>28.0</ele><time>2026-04-03T17:31:26.708Z</time></trkpt><trkpt lat="45.4929849" lon="11.5448383"><ele>27.999999999999996</ele><time>2026-04-03T17:31:27.714Z</time></trkpt><trkpt lat="45.4929026" lon="11.5447392"><ele>27.999999999999996</ele><time>2026-04-03T17:31:28.708Z</time></trkpt><trkpt lat="45.4928076" lon="11.5446731"><ele>28.0</ele><time>2026-04-03T17:31:29.713Z</time></trkpt><trkpt lat="45.4926957" lon="11.5446722"><ele>28.0</ele><time>2026-04-03T17:31:30.708Z</time></trkpt><trkpt lat="45.4925859" lon="11.5447278"><ele>29.5</ele><time>2026-04-03T17:31:31.717Z</time></trkpt><trkpt lat="45.4924692" lon="11.5447992"><ele>31.0</ele><time>2026-04-03T17:31:32.701Z</time></trkpt><trkpt lat="45.4923454" lon="11.5448705"><ele>32.5</ele><time>2026-04-03T17:31:33.705Z</time></trkpt><trkpt lat="45.4922258" lon="11.5449471"><ele>34.0</ele><time>2026-04-03T17:31:34.703Z</time></trkpt><trkpt lat="45.4921104" lon="11.5450317"><ele>35.5</ele><time>2026-04-03T17:31:35.709Z</time></trkpt><trkpt lat="45.4919929" lon="11.5451098"><ele>37.0</ele><time>2026-04-03T17:31:36.7Z</time></trkpt><trkpt lat="45.4918762" lon="11.545171"><ele>38.5</ele><time>2026-04-03T17:31:37.71Z</time></trkpt><trkpt lat="45.4917469" lon="11.5451971"><ele>40.0</ele><time>2026-04-03T17:31:38.709Z</time></trkpt><trkpt lat="45.4916095" lon="11.545184"><ele>40.0</ele><time>2026-04-03T17:31:39.71Z</time></trkpt><trkpt lat="45.4914773" lon="11.5451338"><ele>40.0</ele><time>2026-04-03T17:31:40.709Z</time></trkpt><trkpt lat="45.4913557" lon="11.5450608"><ele>40.0</ele><time>2026-04-03T17:31:41.709Z</time></trkpt><trkpt lat="45.4912424" lon="11.5449887"><ele>40.0</ele><time>2026-04-03T17:31:42.706Z</time></trkpt><trkpt lat="45.4911264" lon="11.5449122"><ele>37.0</ele><time>2026-04-03T17:31:43.703Z</time></trkpt><trkpt lat="45.4910151" lon="11.5448292"><ele>34.0</ele><time>2026-04-03T17:31:44.703Z</time></trkpt><trkpt lat="45.4909026" lon="11.5447433"><ele>31.0</ele><time>2026-04-03T17:31:45.701Z</time></trkpt><trkpt lat="45.4907917" lon="11.5446514"><ele>28.0</ele><time>2026-04-03T17:31:46.709Z</time></trkpt><trkpt lat="45.4906752" lon="11.5445638"><ele>27.75</ele><time>2026-04-03T17:31:47.705Z</time></trkpt><trkpt lat="45.4905627" lon="11.5444721"><ele>27.5</ele><time>2026-04-03T17:31:48.716Z</time></trkpt><trkpt lat="45.4904519" lon="11.5443803"><ele>27.25</ele><time>2026-04-03T17:31:49.709Z</time></trkpt><trkpt lat="45.4903414" lon="11.5442836"><ele>27.0</ele><time>2026-04-03T17:31:50.709Z</time></trkpt><trkpt lat="45.4902412" lon="11.5441727"><ele>27.0</ele><time>2026-04-03T17:31:51.712Z</time></trkpt><trkpt lat="45.4901457" lon="11.5440645"><ele>27.000000000000004</ele><time>2026-04-03T17:31:52.704Z</time></trkpt><trkpt lat="45.4900612" lon="11.5439517"><ele>27.000000000000004</ele><time>2026-04-03T17:31:53.707Z</time></trkpt><trkpt lat="45.4899905" lon="11.5438388"><ele>27.0</ele><time>2026-04-03T17:31:54.702Z</time></trkpt><trkpt lat="45.489939" lon="11.5437188"><ele>27.0</ele><time>2026-04-03T17:31:55.697Z</time></trkpt><trkpt lat="45.4899067" lon="11.543603"><ele>26.400000000000002</ele><time>2026-04-03T17:31:56.701Z</time></trkpt><trkpt lat="45.4898726" lon="11.5435253"><ele>25.800000000000004</ele><time>2026-04-03T17:31:57.709Z</time></trkpt><trkpt lat="45.4898175" lon="11.5434725"><ele>25.2</ele><time>2026-04-03T17:31:58.713Z</time></trkpt><trkpt lat="45.4896651" lon="11.5434341"><ele>24.6</ele><time>2026-04-03T17:32:00.716Z</time></trkpt><trkpt lat="45.4895533" lon="11.5434408"><ele>24.0</ele><time>2026-04-03T17:32:01.717Z</time></trkpt><trkpt lat="45.48944" lon="11.5434175"><ele>24.0</ele><time>2026-04-03T17:32:02.703Z</time></trkpt><trkpt lat="45.489319" lon="11.5433854"><ele>24.0</ele><time>2026-04-03T17:32:03.708Z</time></trkpt><trkpt lat="45.4891949" lon="11.5433492"><ele>24.0</ele><time>2026-04-03T17:32:04.706Z</time></trkpt><trkpt lat="45.4890688" lon="11.543307"><ele>24.0</ele><time>2026-04-03T17:32:05.702Z</time></trkpt><trkpt lat="45.4889413" lon="11.5432576"><ele>24.0</ele><time>2026-04-03T17:32:06.707Z</time></trkpt><trkpt lat="45.4888139" lon="11.5432112"><ele>24.0</ele><time>2026-04-03T17:32:07.709Z</time></trkpt><trkpt lat="45.4886888" lon="11.5431704"><ele>24.0</ele><time>2026-04-03T17:32:08.714Z</time></trkpt><trkpt lat="45.4885637" lon="11.5431282"><ele>24.0</ele><time>2026-04-03T17:32:09.71Z</time></trkpt><trkpt lat="45.4884364" lon="11.5430858"><ele>23.75</ele><time>2026-04-03T17:32:10.708Z</time></trkpt><trkpt lat="45.48831" lon="11.5430462"><ele>23.5</ele><time>2026-04-03T17:32:11.707Z</time></trkpt><trkpt lat="45.4881804" lon="11.5430024"><ele>23.25</ele><time>2026-04-03T17:32:12.711Z</time></trkpt><trkpt lat="45.4880509" lon="11.5429593"><ele>23.0</ele><time>2026-04-03T17:32:13.707Z</time></trkpt><trkpt lat="45.4879214" lon="11.5429157"><ele>22.75</ele><time>2026-04-03T17:32:14.713Z</time></trkpt><trkpt lat="45.4877864" lon="11.542872"><ele>22.5</ele><time>2026-04-03T17:32:15.709Z</time></trkpt><trkpt lat="45.4876525" lon="11.5428257"><ele>22.25</ele><time>2026-04-03T17:32:16.721Z</time></trkpt><trkpt lat="45.4875194" lon="11.5427793"><ele>22.0</ele><time>2026-04-03T17:32:17.711Z</time></trkpt><trkpt lat="45.4873775" lon="11.5427248"><ele>22.0</ele><time>2026-04-03T17:32:18.703Z</time></trkpt><trkpt lat="45.4872496" lon="11.5426752"><ele>22.0</ele><time>2026-04-03T17:32:19.719Z</time></trkpt><trkpt lat="45.4871198" lon="11.5426266"><ele>22.0</ele><time>2026-04-03T17:32:20.716Z</time></trkpt><trkpt lat="45.4869895" lon="11.5425804"><ele>22.0</ele><time>2026-04-03T17:32:21.725Z</time></trkpt><trkpt lat="45.4868579" lon="11.5425288"><ele>22.25</ele><time>2026-04-03T17:32:22.72Z</time></trkpt><trkpt lat="45.4867215" lon="11.5424763"><ele>22.5</ele><time>2026-04-03T17:32:23.718Z</time></trkpt><trkpt lat="45.4865928" lon="11.5424281"><ele>22.75</ele><time>2026-04-03T17:32:24.718Z</time></trkpt><trkpt lat="45.4864624" lon="11.5423857"><ele>23.0</ele><time>2026-04-03T17:32:25.72Z</time></trkpt><trkpt lat="45.486322" lon="11.5423371"><ele>23.0</ele><time>2026-04-03T17:32:26.722Z</time></trkpt><trkpt lat="45.4861869" lon="11.5422856"><ele>23.0</ele><time>2026-04-03T17:32:27.724Z</time></trkpt><trkpt lat="45.4860514" lon="11.5422403"><ele>23.0</ele><time>2026-04-03T17:32:28.721Z</time></trkpt><trkpt lat="45.4859195" lon="11.5421896"><ele>23.0</ele><time>2026-04-03T17:32:29.729Z</time></trkpt><trkpt lat="45.4857889" lon="11.5421443"><ele>23.0</ele><time>2026-04-03T17:32:30.714Z</time></trkpt><trkpt lat="45.485662" lon="11.5420907"><ele>23.0</ele><time>2026-04-03T17:32:31.727Z</time></trkpt><trkpt lat="45.4855298" lon="11.5420484"><ele>23.0</ele><time>2026-04-03T17:32:32.716Z</time></trkpt><trkpt lat="45.4854015" lon="11.5419995"><ele>23.0</ele><time>2026-04-03T17:32:33.716Z</time></trkpt><trkpt lat="45.4852665" lon="11.5419494"><ele>23.5</ele><time>2026-04-03T17:32:34.716Z</time></trkpt><trkpt lat="45.4851406" lon="11.5418953"><ele>24.0</ele><time>2026-04-03T17:32:35.722Z</time></trkpt><trkpt lat="45.4850127" lon="11.5418326"><ele>24.5</ele><time>2026-04-03T17:32:36.718Z</time></trkpt><trkpt lat="45.4848881" lon="11.5417538"><ele>25.0</ele><time>2026-04-03T17:32:37.711Z</time></trkpt><trkpt lat="45.4847724" lon="11.5416575"><ele>25.0</ele><time>2026-04-03T17:32:38.716Z</time></trkpt><trkpt lat="45.4846581" lon="11.5415335"><ele>25.0</ele><time>2026-04-03T17:32:39.716Z</time></trkpt><trkpt lat="45.4845496" lon="11.5414033"><ele>25.0</ele><time>2026-04-03T17:32:40.713Z</time></trkpt><trkpt lat="45.4844507" lon="11.5412536"><ele>25.0</ele><time>2026-04-03T17:32:41.711Z</time></trkpt><trkpt lat="45.4843533" lon="11.5410842"><ele>24.75</ele><time>2026-04-03T17:32:42.714Z</time></trkpt><trkpt lat="45.4842707" lon="11.5409055"><ele>24.5</ele><time>2026-04-03T17:32:43.71Z</time></trkpt><trkpt lat="45.484203" lon="11.5407186"><ele>24.25</ele><time>2026-04-03T17:32:44.718Z</time></trkpt><trkpt lat="45.4841407" lon="11.5405336"><ele>24.0</ele><time>2026-04-03T17:32:45.712Z</time></trkpt><trkpt lat="45.4840849" lon="11.540333"><ele>23.25</ele><time>2026-04-03T17:32:46.713Z</time></trkpt><trkpt lat="45.4840319" lon="11.5401334"><ele>22.5</ele><time>2026-04-03T17:32:47.707Z</time></trkpt><trkpt lat="45.4839789" lon="11.5399426"><ele>21.75</ele><time>2026-04-03T17:32:48.709Z</time></trkpt><trkpt lat="45.4839268" lon="11.5397595"><ele>21.0</ele><time>2026-04-03T17:32:49.72Z</time></trkpt><trkpt lat="45.4838701" lon="11.539571"><ele>21.0</ele><time>2026-04-03T17:32:50.719Z</time></trkpt><trkpt lat="45.4838081" lon="11.5393846"><ele>21.0</ele><time>2026-04-03T17:32:51.713Z</time></trkpt><trkpt lat="45.4837438" lon="11.5391796"><ele>21.0</ele><time>2026-04-03T17:32:52.715Z</time></trkpt><trkpt lat="45.4836477" lon="11.5388012"><ele>21.5</ele><time>2026-04-03T17:32:54.712Z</time></trkpt><trkpt lat="45.4835939" lon="11.5386164"><ele>22.0</ele><time>2026-04-03T17:32:55.713Z</time></trkpt><trkpt lat="45.4835438" lon="11.5384334"><ele>22.5</ele><time>2026-04-03T17:32:56.718Z</time></trkpt><trkpt lat="45.4834934" lon="11.5382551"><ele>23.0</ele><time>2026-04-03T17:32:57.714Z</time></trkpt><trkpt lat="45.4834431" lon="11.5380792"><ele>23.0</ele><time>2026-04-03T17:32:58.717Z</time></trkpt><trkpt lat="45.4833864" lon="11.5379037"><ele>23.0</ele><time>2026-04-03T17:32:59.711Z</time></trkpt><trkpt lat="45.4833302" lon="11.5377334"><ele>23.0</ele><time>2026-04-03T17:33:00.718Z</time></trkpt><trkpt lat="45.483273" lon="11.5375573"><ele>23.0</ele><time>2026-04-03T17:33:01.723Z</time></trkpt><trkpt lat="45.4832088" lon="11.5373849"><ele>23.25</ele><time>2026-04-03T17:33:02.716Z</time></trkpt><trkpt lat="45.4831316" lon="11.537242"><ele>23.5</ele><time>2026-04-03T17:33:03.708Z</time></trkpt><trkpt lat="45.4830351" lon="11.5371313"><ele>23.75</ele><time>2026-04-03T17:33:04.713Z</time></trkpt><trkpt lat="45.4829175" lon="11.5370451"><ele>24.0</ele><time>2026-04-03T17:33:05.71Z</time></trkpt><trkpt lat="45.4827922" lon="11.5369837"><ele>27.5</ele><time>2026-04-03T17:33:06.707Z</time></trkpt><trkpt lat="45.4826627" lon="11.5369268"><ele>31.0</ele><time>2026-04-03T17:33:07.712Z</time></trkpt><trkpt lat="45.4825379" lon="11.5368903"><ele>34.5</ele><time>2026-04-03T17:33:08.705Z</time></trkpt><trkpt lat="45.4824163" lon="11.5368825"><ele>38.0</ele><time>2026-04-03T17:33:09.719Z</time></trkpt><trkpt lat="45.4822861" lon="11.5369117"><ele>38.0</ele><time>2026-04-03T17:33:10.713Z</time></trkpt><trkpt lat="45.4821509" lon="11.5369821"><ele>38.0</ele><time>2026-04-03T17:33:11.707Z</time></trkpt><trkpt lat="45.4820169" lon="11.5370665"><ele>38.0</ele><time>2026-04-03T17:33:12.701Z</time></trkpt><trkpt lat="45.4818823" lon="11.5371588"><ele>38.0</ele><time>2026-04-03T17:33:13.704Z</time></trkpt><trkpt lat="45.4817552" lon="11.5372521"><ele>36.5</ele><time>2026-04-03T17:33:14.698Z</time></trkpt><trkpt lat="45.4816299" lon="11.5373434"><ele>35.0</ele><time>2026-04-03T17:33:15.697Z</time></trkpt><trkpt lat="45.4814967" lon="11.5374299"><ele>33.5</ele><time>2026-04-03T17:33:16.701Z</time></trkpt><trkpt lat="45.4813616" lon="11.5374971"><ele>32.0</ele><time>2026-04-03T17:33:17.691Z</time></trkpt><trkpt lat="45.4812288" lon="11.5375568"><ele>37.0</ele><time>2026-04-03T17:33:18.699Z</time></trkpt><trkpt lat="45.4810945" lon="11.5376313"><ele>42.0</ele><time>2026-04-03T17:33:19.71Z</time></trkpt><trkpt lat="45.4809694" lon="11.5377012"><ele>47.0</ele><time>2026-04-03T17:33:20.706Z</time></trkpt><trkpt lat="45.4808417" lon="11.5377712"><ele>52.0</ele><time>2026-04-03T17:33:21.712Z</time></trkpt><trkpt lat="45.4807158" lon="11.5378423"><ele>51.75</ele><time>2026-04-03T17:33:22.708Z</time></trkpt><trkpt lat="45.4805971" lon="11.5379275"><ele>51.5</ele><time>2026-04-03T17:33:23.709Z</time></trkpt><trkpt lat="45.4804727" lon="11.5380185"><ele>51.25</ele><time>2026-04-03T17:33:24.705Z</time></trkpt><trkpt lat="45.480353" lon="11.5381072"><ele>51.0</ele><time>2026-04-03T17:33:25.702Z</time></trkpt><trkpt lat="45.4802294" lon="11.5382019"><ele>51.0</ele><time>2026-04-03T17:33:26.698Z</time></trkpt><trkpt lat="45.4801087" lon="11.538313"><ele>51.0</ele><time>2026-04-03T17:33:27.699Z</time></trkpt><trkpt lat="45.4799904" lon="11.5384339"><ele>51.0</ele><time>2026-04-03T17:33:28.701Z</time></trkpt><trkpt lat="45.4798763" lon="11.5385522"><ele>51.0</ele><time>2026-04-03T17:33:29.704Z</time></trkpt><trkpt lat="45.479758" lon="11.5386758"><ele>50.5</ele><time>2026-04-03T17:33:30.697Z</time></trkpt><trkpt lat="45.4796412" lon="11.5387957"><ele>50.0</ele><time>2026-04-03T17:33:31.718Z</time></trkpt><trkpt lat="45.4795298" lon="11.5389143"><ele>49.5</ele><time>2026-04-03T17:33:32.699Z</time></trkpt><trkpt lat="45.4794283" lon="11.5390503"><ele>49.0</ele><time>2026-04-03T17:33:33.694Z</time></trkpt><trkpt lat="45.4793265" lon="11.539174"><ele>49.0</ele><time>2026-04-03T17:33:34.695Z</time></trkpt><trkpt lat="45.4792182" lon="11.5393067"><ele>49.0</ele><time>2026-04-03T17:33:35.701Z</time></trkpt><trkpt lat="45.4791079" lon="11.5394317"><ele>49.0</ele><time>2026-04-03T17:33:36.699Z</time></trkpt><trkpt lat="45.4790098" lon="11.5395526"><ele>49.0</ele><time>2026-04-03T17:33:37.697Z</time></trkpt><trkpt lat="45.4789046" lon="11.5396699"><ele>48.75</ele><time>2026-04-03T17:33:38.7Z</time></trkpt><trkpt lat="45.4787993" lon="11.5397878"><ele>48.5</ele><time>2026-04-03T17:33:39.694Z</time></trkpt><trkpt lat="45.4786932" lon="11.5398847"><ele>48.25</ele><time>2026-04-03T17:33:40.694Z</time></trkpt><trkpt lat="45.4785881" lon="11.5399792"><ele>48.0</ele><time>2026-04-03T17:33:41.698Z</time></trkpt><trkpt lat="45.4784763" lon="11.5400582"><ele>48.0</ele><time>2026-04-03T17:33:42.699Z</time></trkpt><trkpt lat="45.4783587" lon="11.5401388"><ele>48.0</ele><time>2026-04-03T17:33:43.701Z</time></trkpt><trkpt lat="45.4782516" lon="11.5402339"><ele>48.0</ele><time>2026-04-03T17:33:44.696Z</time></trkpt><trkpt lat="45.4781538" lon="11.5403251"><ele>48.0</ele><time>2026-04-03T17:33:45.697Z</time></trkpt><trkpt lat="45.4780618" lon="11.5404178"><ele>43.5</ele><time>2026-04-03T17:33:46.699Z</time></trkpt><trkpt lat="45.4779711" lon="11.5405112"><ele>39.0</ele><time>2026-04-03T17:33:47.699Z</time></trkpt><trkpt lat="45.4778808" lon="11.5406181"><ele>34.5</ele><time>2026-04-03T17:33:48.703Z</time></trkpt><trkpt lat="45.4777971" lon="11.5407294"><ele>30.0</ele><time>2026-04-03T17:33:49.706Z</time></trkpt><trkpt lat="45.4777089" lon="11.5408467"><ele>30.0</ele><time>2026-04-03T17:33:50.706Z</time></trkpt><trkpt lat="45.4776209" lon="11.5409648"><ele>30.0</ele><time>2026-04-03T17:33:51.712Z</time></trkpt><trkpt lat="45.4775248" lon="11.5410861"><ele>30.0</ele><time>2026-04-03T17:33:52.712Z</time></trkpt><trkpt lat="45.4774305" lon="11.5412125"><ele>30.0</ele><time>2026-04-03T17:33:53.71Z</time></trkpt><trkpt lat="45.4773268" lon="11.541342"><ele>28.0</ele><time>2026-04-03T17:33:54.713Z</time></trkpt><trkpt lat="45.4772236" lon="11.5414629"><ele>26.0</ele><time>2026-04-03T17:33:55.712Z</time></trkpt><trkpt lat="45.4771156" lon="11.5415641"><ele>24.0</ele><time>2026-04-03T17:33:56.713Z</time></trkpt><trkpt lat="45.4770017" lon="11.5416469"><ele>22.0</ele><time>2026-04-03T17:33:57.711Z</time></trkpt><trkpt lat="45.4768842" lon="11.5417083"><ele>22.0</ele><time>2026-04-03T17:33:58.709Z</time></trkpt><trkpt lat="45.4767596" lon="11.5417537"><ele>22.0</ele><time>2026-04-03T17:33:59.714Z</time></trkpt><trkpt lat="45.4766317" lon="11.5417752"><ele>22.0</ele><time>2026-04-03T17:34:00.71Z</time></trkpt><trkpt lat="45.4764992" lon="11.5417773"><ele>22.0</ele><time>2026-04-03T17:34:01.722Z</time></trkpt><trkpt lat="45.4763683" lon="11.5417679"><ele>22.5</ele><time>2026-04-03T17:34:02.718Z</time></trkpt><trkpt lat="45.4762332" lon="11.5417527"><ele>23.0</ele><time>2026-04-03T17:34:03.713Z</time></trkpt><trkpt lat="45.4761057" lon="11.541741"><ele>23.5</ele><time>2026-04-03T17:34:04.708Z</time></trkpt><trkpt lat="45.4759816" lon="11.5417323"><ele>24.0</ele><time>2026-04-03T17:34:05.707Z</time></trkpt><trkpt lat="45.4758611" lon="11.541722"><ele>24.0</ele><time>2026-04-03T17:34:06.712Z</time></trkpt><trkpt lat="45.4757443" lon="11.5417115"><ele>24.0</ele><time>2026-04-03T17:34:07.712Z</time></trkpt><trkpt lat="45.4756306" lon="11.5417038"><ele>24.0</ele><time>2026-04-03T17:34:08.711Z</time></trkpt><trkpt lat="45.4755241" lon="11.5416985"><ele>24.0</ele><time>2026-04-03T17:34:09.714Z</time></trkpt><trkpt lat="45.4754154" lon="11.5416983"><ele>24.0</ele><time>2026-04-03T17:34:10.711Z</time></trkpt><trkpt lat="45.4753113" lon="11.5416951"><ele>24.4</ele><time>2026-04-03T17:34:11.711Z</time></trkpt><trkpt lat="45.4752078" lon="11.5416915"><ele>24.799999999999997</ele><time>2026-04-03T17:34:12.711Z</time></trkpt><trkpt lat="45.4751028" lon="11.5416822"><ele>25.200000000000003</ele><time>2026-04-03T17:34:13.71Z</time></trkpt><trkpt lat="45.4750004" lon="11.5416818"><ele>25.6</ele><time>2026-04-03T17:34:14.695Z</time></trkpt><trkpt lat="45.4749005" lon="11.5416774"><ele>26.0</ele><time>2026-04-03T17:34:15.708Z</time></trkpt><trkpt lat="45.4747932" lon="11.5416841"><ele>26.0</ele><time>2026-04-03T17:34:16.71Z</time></trkpt><trkpt lat="45.4746842" lon="11.541695"><ele>26.0</ele><time>2026-04-03T17:34:17.709Z</time></trkpt><trkpt lat="45.4745722" lon="11.541709"><ele>26.0</ele><time>2026-04-03T17:34:18.711Z</time></trkpt><trkpt lat="45.4744603" lon="11.5417211"><ele>26.0</ele><time>2026-04-03T17:34:19.714Z</time></trkpt><trkpt lat="45.4743479" lon="11.5417337"><ele>26.0</ele><time>2026-04-03T17:34:20.713Z</time></trkpt><trkpt lat="45.47423" lon="11.5417486"><ele>26.25</ele><time>2026-04-03T17:34:21.715Z</time></trkpt><trkpt lat="45.4741064" lon="11.5417639"><ele>26.5</ele><time>2026-04-03T17:34:22.714Z</time></trkpt><trkpt lat="45.4739861" lon="11.541775"><ele>26.75</ele><time>2026-04-03T17:34:23.707Z</time></trkpt><trkpt lat="45.4738592" lon="11.541779"><ele>27.0</ele><time>2026-04-03T17:34:24.713Z</time></trkpt><trkpt lat="45.4737365" lon="11.5417789"><ele>27.0</ele><time>2026-04-03T17:34:25.713Z</time></trkpt><trkpt lat="45.4736206" lon="11.5417818"><ele>27.0</ele><time>2026-04-03T17:34:26.714Z</time></trkpt><trkpt lat="45.4734988" lon="11.5417775"><ele>27.0</ele><time>2026-04-03T17:34:27.71Z</time></trkpt><trkpt lat="45.4733784" lon="11.5417775"><ele>27.0</ele><time>2026-04-03T17:34:28.705Z</time></trkpt><trkpt lat="45.4732562" lon="11.5417692"><ele>27.0</ele><time>2026-04-03T17:34:29.71Z</time></trkpt><trkpt lat="45.4731324" lon="11.541764"><ele>27.0</ele><time>2026-04-03T17:34:30.71Z</time></trkpt><trkpt lat="45.4730088" lon="11.5417445"><ele>27.0</ele><time>2026-04-03T17:34:31.723Z</time></trkpt><trkpt lat="45.4728838" lon="11.5417154"><ele>27.0</ele><time>2026-04-03T17:34:32.711Z</time></trkpt><trkpt lat="45.4727627" lon="11.5416711"><ele>26.0</ele><time>2026-04-03T17:34:33.719Z</time></trkpt><trkpt lat="45.4726442" lon="11.5416159"><ele>25.0</ele><time>2026-04-03T17:34:34.713Z</time></trkpt><trkpt lat="45.4725257" lon="11.541551"><ele>24.0</ele><time>2026-04-03T17:34:35.711Z</time></trkpt><trkpt lat="45.4724095" lon="11.5414768"><ele>23.0</ele><time>2026-04-03T17:34:36.713Z</time></trkpt><trkpt lat="45.4722915" lon="11.5413984"><ele>23.0</ele><time>2026-04-03T17:34:37.712Z</time></trkpt><trkpt lat="45.4721722" lon="11.5413203"><ele>23.0</ele><time>2026-04-03T17:34:38.713Z</time></trkpt><trkpt lat="45.4720507" lon="11.5412483"><ele>23.0</ele><time>2026-04-03T17:34:39.71Z</time></trkpt><trkpt lat="45.4719311" lon="11.5411762"><ele>23.0</ele><time>2026-04-03T17:34:40.712Z</time></trkpt><trkpt lat="45.4718142" lon="11.541105"><ele>22.75</ele><time>2026-04-03T17:34:41.71Z</time></trkpt><trkpt lat="45.4717035" lon="11.5410346"><ele>22.5</ele><time>2026-04-03T17:34:42.709Z</time></trkpt><trkpt lat="45.4715948" lon="11.5409603"><ele>22.25</ele><time>2026-04-03T17:34:43.712Z</time></trkpt><trkpt lat="45.4714867" lon="11.540895"><ele>22.0</ele><time>2026-04-03T17:34:44.71Z</time></trkpt><trkpt lat="45.4713754" lon="11.5408415"><ele>22.0</ele><time>2026-04-03T17:34:45.709Z</time></trkpt><trkpt lat="45.4712625" lon="11.5407889"><ele>22.0</ele><time>2026-04-03T17:34:46.712Z</time></trkpt><trkpt lat="45.4711493" lon="11.5407297"><ele>22.0</ele><time>2026-04-03T17:34:47.712Z</time></trkpt><trkpt lat="45.4710427" lon="11.5406553"><ele>22.0</ele><time>2026-04-03T17:34:48.711Z</time></trkpt><trkpt lat="45.4709384" lon="11.5405813"><ele>22.0</ele><time>2026-04-03T17:34:49.713Z</time></trkpt><trkpt lat="45.4708337" lon="11.5405177"><ele>22.0</ele><time>2026-04-03T17:34:50.712Z</time></trkpt><trkpt lat="45.4707343" lon="11.540457"><ele>22.0</ele><time>2026-04-03T17:34:51.71Z</time></trkpt><trkpt lat="45.4706452" lon="11.5404045"><ele>22.0</ele><time>2026-04-03T17:34:52.711Z</time></trkpt><trkpt lat="45.4705623" lon="11.540358"><ele>22.0</ele><time>2026-04-03T17:34:53.71Z</time></trkpt><trkpt lat="45.4704893" lon="11.5403138"><ele>22.333333333333332</ele><time>2026-04-03T17:34:54.706Z</time></trkpt><trkpt lat="45.4704207" lon="11.5402745"><ele>22.666666666666664</ele><time>2026-04-03T17:34:55.721Z</time></trkpt><trkpt lat="45.4703564" lon="11.540146"><ele>23.0</ele><time>2026-04-03T17:34:57.709Z</time></trkpt><trkpt lat="45.4703672" lon="11.5400457"><ele>23.333333333333332</ele><time>2026-04-03T17:34:58.713Z</time></trkpt><trkpt lat="45.4703922" lon="11.5399387"><ele>23.666666666666668</ele><time>2026-04-03T17:34:59.701Z</time></trkpt><trkpt lat="45.4704323" lon="11.5398318"><ele>24.0</ele><time>2026-04-03T17:35:00.706Z</time></trkpt><trkpt lat="45.4704956" lon="11.5397435"><ele>24.166666666666668</ele><time>2026-04-03T17:35:01.72Z</time></trkpt><trkpt lat="45.4705592" lon="11.539662"><ele>24.333333333333336</ele><time>2026-04-03T17:35:02.712Z</time></trkpt><trkpt lat="45.4706198" lon="11.539592"><ele>24.5</ele><time>2026-04-03T17:35:03.714Z</time></trkpt><trkpt lat="45.4706751" lon="11.5395325"><ele>24.666666666666668</ele><time>2026-04-03T17:35:04.722Z</time></trkpt><trkpt lat="45.4707392" lon="11.5395"><ele>24.833333333333336</ele><time>2026-04-03T17:35:05.708Z</time></trkpt><trkpt lat="45.4708399" lon="11.5394374"><ele>25.0</ele><time>2026-04-03T17:35:07.71Z</time></trkpt><trkpt lat="45.4707799" lon="11.5393421"><ele>26.8</ele><time>2026-04-03T17:35:09.711Z</time></trkpt><trkpt lat="45.4706996" lon="11.5393028"><ele>28.6</ele><time>2026-04-03T17:35:10.705Z</time></trkpt><trkpt lat="45.4706074" lon="11.5392578"><ele>30.4</ele><time>2026-04-03T17:35:11.709Z</time></trkpt><trkpt lat="45.4705116" lon="11.5392087"><ele>32.2</ele><time>2026-04-03T17:35:12.703Z</time></trkpt><trkpt lat="45.4704027" lon="11.5391688"><ele>34.0</ele><time>2026-04-03T17:35:13.705Z</time></trkpt><trkpt lat="45.4702872" lon="11.5391328"><ele>34.0</ele><time>2026-04-03T17:35:14.697Z</time></trkpt><trkpt lat="45.4701631" lon="11.5391281"><ele>34.0</ele><time>2026-04-03T17:35:15.714Z</time></trkpt><trkpt lat="45.4700352" lon="11.5391675"><ele>34.0</ele><time>2026-04-03T17:35:16.709Z</time></trkpt><trkpt lat="45.4699065" lon="11.5392164"><ele>34.0</ele><time>2026-04-03T17:35:17.708Z</time></trkpt><trkpt lat="45.4697781" lon="11.5392533"><ele>34.0</ele><time>2026-04-03T17:35:18.706Z</time></trkpt><trkpt lat="45.4696512" lon="11.5392613"><ele>34.0</ele><time>2026-04-03T17:35:19.707Z</time></trkpt><trkpt lat="45.4695267" lon="11.539241"><ele>34.0</ele><time>2026-04-03T17:35:20.704Z</time></trkpt><trkpt lat="45.4693983" lon="11.5392053"><ele>34.0</ele><time>2026-04-03T17:35:21.713Z</time></trkpt><trkpt lat="45.4692717" lon="11.5391667"><ele>33.5</ele><time>2026-04-03T17:35:22.709Z</time></trkpt><trkpt lat="45.4691499" lon="11.5391329"><ele>33.0</ele><time>2026-04-03T17:35:23.704Z</time></trkpt><trkpt lat="45.4690257" lon="11.5391101"><ele>32.5</ele><time>2026-04-03T17:35:24.709Z</time></trkpt><trkpt lat="45.4689003" lon="11.5390954"><ele>32.0</ele><time>2026-04-03T17:35:25.713Z</time></trkpt><trkpt lat="45.4687712" lon="11.539093"><ele>32.0</ele><time>2026-04-03T17:35:26.715Z</time></trkpt><trkpt lat="45.4686458" lon="11.5390814"><ele>32.0</ele><time>2026-04-03T17:35:27.706Z</time></trkpt><trkpt lat="45.468527" lon="11.5390526"><ele>32.0</ele><time>2026-04-03T17:35:28.709Z</time></trkpt><trkpt lat="45.4684198" lon="11.5389886"><ele>32.0</ele><time>2026-04-03T17:35:29.703Z</time></trkpt><trkpt lat="45.4683225" lon="11.5389106"><ele>32.0</ele><time>2026-04-03T17:35:30.706Z</time></trkpt><trkpt lat="45.4682362" lon="11.5388301"><ele>32.0</ele><time>2026-04-03T17:35:31.719Z</time></trkpt><trkpt lat="45.4681386" lon="11.5387856"><ele>32.0</ele><time>2026-04-03T17:35:32.703Z</time></trkpt><trkpt lat="45.4680367" lon="11.5387889"><ele>32.0</ele><time>2026-04-03T17:35:33.71Z</time></trkpt><trkpt lat="45.4679374" lon="11.5388502"><ele>32.0</ele><time>2026-04-03T17:35:34.709Z</time></trkpt><trkpt lat="45.467852" lon="11.538954"><ele>31.8</ele><time>2026-04-03T17:35:35.713Z</time></trkpt><trkpt lat="45.4677657" lon="11.5390439"><ele>31.6</ele><time>2026-04-03T17:35:36.706Z</time></trkpt><trkpt lat="45.4676768" lon="11.539093"><ele>31.400000000000002</ele><time>2026-04-03T17:35:37.71Z</time></trkpt><trkpt lat="45.4675738" lon="11.5390896"><ele>31.200000000000003</ele><time>2026-04-03T17:35:38.7Z</time></trkpt><trkpt lat="45.467466" lon="11.5390615"><ele>31.0</ele><time>2026-04-03T17:35:39.707Z</time></trkpt><trkpt lat="45.4673639" lon="11.5390234"><ele>31.0</ele><time>2026-04-03T17:35:40.708Z</time></trkpt><trkpt lat="45.4672616" lon="11.5390057"><ele>31.0</ele><time>2026-04-03T17:35:41.707Z</time></trkpt><trkpt lat="45.4671614" lon="11.5390134"><ele>31.0</ele><time>2026-04-03T17:35:42.713Z</time></trkpt><trkpt lat="45.4670626" lon="11.5390731"><ele>31.0</ele><time>2026-04-03T17:35:43.714Z</time></trkpt><trkpt lat="45.4669717" lon="11.539183"><ele>31.0</ele><time>2026-04-03T17:35:44.702Z</time></trkpt><trkpt lat="45.4668883" lon="11.539304"><ele>30.4</ele><time>2026-04-03T17:35:45.708Z</time></trkpt><trkpt lat="45.4668067" lon="11.5394126"><ele>29.8</ele><time>2026-04-03T17:35:46.703Z</time></trkpt><trkpt lat="45.4667171" lon="11.5395103"><ele>29.199999999999996</ele><time>2026-04-03T17:35:47.711Z</time></trkpt><trkpt lat="45.4666322" lon="11.5396004"><ele>28.599999999999998</ele><time>2026-04-03T17:35:48.71Z</time></trkpt><trkpt lat="45.46654" lon="11.5396787"><ele>28.0</ele><time>2026-04-03T17:35:49.709Z</time></trkpt><trkpt lat="45.466441" lon="11.5397464"><ele>28.0</ele><time>2026-04-03T17:35:50.71Z</time></trkpt><trkpt lat="45.4663341" lon="11.539805"><ele>28.0</ele><time>2026-04-03T17:35:51.706Z</time></trkpt><trkpt lat="45.4662264" lon="11.5398544"><ele>28.0</ele><time>2026-04-03T17:35:52.711Z</time></trkpt><trkpt lat="45.4661107" lon="11.5398852"><ele>28.0</ele><time>2026-04-03T17:35:53.713Z</time></trkpt><trkpt lat="45.4659906" lon="11.5398882"><ele>29.0</ele><time>2026-04-03T17:35:54.711Z</time></trkpt><trkpt lat="45.4658696" lon="11.539881"><ele>30.0</ele><time>2026-04-03T17:35:55.712Z</time></trkpt><trkpt lat="45.4657421" lon="11.539867"><ele>31.0</ele><time>2026-04-03T17:35:56.713Z</time></trkpt><trkpt lat="45.46561" lon="11.5398558"><ele>32.0</ele><time>2026-04-03T17:35:57.711Z</time></trkpt><trkpt lat="45.4654799" lon="11.5398509"><ele>32.75</ele><time>2026-04-03T17:35:58.713Z</time></trkpt><trkpt lat="45.4653492" lon="11.5398512"><ele>33.5</ele><time>2026-04-03T17:35:59.713Z</time></trkpt><trkpt lat="45.4652224" lon="11.5398602"><ele>34.25</ele><time>2026-04-03T17:36:00.712Z</time></trkpt><trkpt lat="45.4650978" lon="11.5398769"><ele>35.0</ele><time>2026-04-03T17:36:01.726Z</time></trkpt><trkpt lat="45.4649776" lon="11.5398968"><ele>35.0</ele><time>2026-04-03T17:36:02.713Z</time></trkpt><trkpt lat="45.4648606" lon="11.5399127"><ele>35.0</ele><time>2026-04-03T17:36:03.712Z</time></trkpt><trkpt lat="45.4647432" lon="11.5399194"><ele>35.0</ele><time>2026-04-03T17:36:04.708Z</time></trkpt><trkpt lat="45.4646229" lon="11.5399174"><ele>35.0</ele><time>2026-04-03T17:36:05.706Z</time></trkpt><trkpt lat="45.4645001" lon="11.5399006"><ele>34.0</ele><time>2026-04-03T17:36:06.718Z</time></trkpt><trkpt lat="45.4643743" lon="11.5398771"><ele>33.0</ele><time>2026-04-03T17:36:07.71Z</time></trkpt><trkpt lat="45.4642496" lon="11.5398483"><ele>32.0</ele><time>2026-04-03T17:36:08.709Z</time></trkpt><trkpt lat="45.4641222" lon="11.5398166"><ele>31.0</ele><time>2026-04-03T17:36:09.709Z</time></trkpt><trkpt lat="45.4639991" lon="11.5397849"><ele>31.0</ele><time>2026-04-03T17:36:10.704Z</time></trkpt><trkpt lat="45.4638763" lon="11.5397515"><ele>31.0</ele><time>2026-04-03T17:36:11.707Z</time></trkpt><trkpt lat="45.4637527" lon="11.5397306"><ele>31.0</ele><time>2026-04-03T17:36:12.704Z</time></trkpt><trkpt lat="45.4636282" lon="11.5397115"><ele>31.0</ele><time>2026-04-03T17:36:13.704Z</time></trkpt><trkpt lat="45.4634969" lon="11.5396893"><ele>30.0</ele><time>2026-04-03T17:36:14.704Z</time></trkpt><trkpt lat="45.463362" lon="11.5396565"><ele>29.0</ele><time>2026-04-03T17:36:15.706Z</time></trkpt><trkpt lat="45.4632266" lon="11.53963"><ele>28.0</ele><time>2026-04-03T17:36:16.709Z</time></trkpt><trkpt lat="45.4630937" lon="11.5396016"><ele>27.0</ele><time>2026-04-03T17:36:17.706Z</time></trkpt><trkpt lat="45.4629675" lon="11.539573"><ele>29.75</ele><time>2026-04-03T17:36:18.706Z</time></trkpt><trkpt lat="45.4628479" lon="11.5395342"><ele>32.5</ele><time>2026-04-03T17:36:19.706Z</time></trkpt><trkpt lat="45.4627314" lon="11.539485"><ele>35.25</ele><time>2026-04-03T17:36:20.702Z</time></trkpt><trkpt lat="45.4626239" lon="11.5394199"><ele>38.0</ele><time>2026-04-03T17:36:21.698Z</time></trkpt><trkpt lat="45.4625241" lon="11.5393472"><ele>38.0</ele><time>2026-04-03T17:36:22.704Z</time></trkpt><trkpt lat="45.4624287" lon="11.5392679"><ele>38.0</ele><time>2026-04-03T17:36:23.703Z</time></trkpt><trkpt lat="45.4623376" lon="11.5391734"><ele>38.0</ele><time>2026-04-03T17:36:24.707Z</time></trkpt><trkpt lat="45.4622586" lon="11.5390771"><ele>38.0</ele><time>2026-04-03T17:36:25.708Z</time></trkpt><trkpt lat="45.4621722" lon="11.539008"><ele>38.0</ele><time>2026-04-03T17:36:26.712Z</time></trkpt><trkpt lat="45.462072" lon="11.5389926"><ele>38.25</ele><time>2026-04-03T17:36:27.707Z</time></trkpt><trkpt lat="45.4619543" lon="11.539033"><ele>38.5</ele><time>2026-04-03T17:36:28.701Z</time></trkpt><trkpt lat="45.4618418" lon="11.5390922"><ele>38.75</ele><time>2026-04-03T17:36:29.696Z</time></trkpt><trkpt lat="45.461727" lon="11.5391645"><ele>39.0</ele><time>2026-04-03T17:36:30.693Z</time></trkpt><trkpt lat="45.4616065" lon="11.5392279"><ele>39.0</ele><time>2026-04-03T17:36:31.711Z</time></trkpt><trkpt lat="45.4614878" lon="11.5392837"><ele>39.0</ele><time>2026-04-03T17:36:32.706Z</time></trkpt><trkpt lat="45.4613712" lon="11.539345"><ele>39.0</ele><time>2026-04-03T17:36:33.699Z</time></trkpt><trkpt lat="45.4612622" lon="11.5394049"><ele>39.0</ele><time>2026-04-03T17:36:34.701Z</time></trkpt><trkpt lat="45.4611528" lon="11.5394591"><ele>37.0</ele><time>2026-04-03T17:36:35.706Z</time></trkpt><trkpt lat="45.4610481" lon="11.5395022"><ele>35.0</ele><time>2026-04-03T17:36:36.704Z</time></trkpt><trkpt lat="45.4609422" lon="11.5395355"><ele>33.0</ele><time>2026-04-03T17:36:37.716Z</time></trkpt><trkpt lat="45.4608359" lon="11.5395669"><ele>31.0</ele><time>2026-04-03T17:36:38.698Z</time></trkpt><trkpt lat="45.4607317" lon="11.5395988"><ele>29.0</ele><time>2026-04-03T17:36:39.702Z</time></trkpt><trkpt lat="45.4606294" lon="11.5396283"><ele>28.999999999999996</ele><time>2026-04-03T17:36:40.701Z</time></trkpt><trkpt lat="45.4605318" lon="11.5396486"><ele>29.0</ele><time>2026-04-03T17:36:41.711Z</time></trkpt><trkpt lat="45.4604402" lon="11.5396689"><ele>29.0</ele><time>2026-04-03T17:36:42.704Z</time></trkpt><trkpt lat="45.4603518" lon="11.5396895"><ele>29.0</ele><time>2026-04-03T17:36:43.71Z</time></trkpt><trkpt lat="45.4602687" lon="11.5397076"><ele>28.999999999999996</ele><time>2026-04-03T17:36:44.711Z</time></trkpt><trkpt lat="45.4601904" lon="11.5397319"><ele>29.0</ele><time>2026-04-03T17:36:45.709Z</time></trkpt><trkpt lat="45.46011" lon="11.5397508"><ele>30.142857142857146</ele><time>2026-04-03T17:36:46.701Z</time></trkpt><trkpt lat="45.4600324" lon="11.539774"><ele>31.285714285714285</ele><time>2026-04-03T17:36:47.713Z</time></trkpt><trkpt lat="45.4599511" lon="11.5397937"><ele>32.42857142857143</ele><time>2026-04-03T17:36:48.711Z</time></trkpt><trkpt lat="45.4598705" lon="11.5398114"><ele>33.57142857142857</ele><time>2026-04-03T17:36:49.719Z</time></trkpt><trkpt lat="45.4598018" lon="11.5398291"><ele>34.714285714285715</ele><time>2026-04-03T17:36:50.71Z</time></trkpt><trkpt lat="45.4597375" lon="11.5398426"><ele>35.85714285714286</ele><time>2026-04-03T17:36:51.71Z</time></trkpt><trkpt lat="45.4596754" lon="11.5398598"><ele>37.0</ele><time>2026-04-03T17:36:52.702Z</time></trkpt><trkpt lat="45.4595569" lon="11.5398907"><ele>37.42857142857143</ele><time>2026-04-03T17:36:54.705Z</time></trkpt><trkpt lat="45.4594886" lon="11.5399036"><ele>37.857142857142854</ele><time>2026-04-03T17:36:55.701Z</time></trkpt><trkpt lat="45.4594175" lon="11.5399198"><ele>38.285714285714285</ele><time>2026-04-03T17:36:56.699Z</time></trkpt><trkpt lat="45.4593421" lon="11.5399366"><ele>38.714285714285715</ele><time>2026-04-03T17:36:57.704Z</time></trkpt><trkpt lat="45.4592746" lon="11.5399621"><ele>39.142857142857146</ele><time>2026-04-03T17:36:58.704Z</time></trkpt><trkpt lat="45.4592136" lon="11.5399984"><ele>39.57142857142857</ele><time>2026-04-03T17:36:59.711Z</time></trkpt><trkpt lat="45.4591698" lon="11.5400648"><ele>40.0</ele><time>2026-04-03T17:37:00.709Z</time></trkpt><trkpt lat="45.4591526" lon="11.540161"><ele>40.0</ele><time>2026-04-03T17:37:01.72Z</time></trkpt><trkpt lat="45.459148" lon="11.5402755"><ele>40.0</ele><time>2026-04-03T17:37:02.711Z</time></trkpt><trkpt lat="45.4591402" lon="11.540395"><ele>40.0</ele><time>2026-04-03T17:37:03.711Z</time></trkpt><trkpt lat="45.4591355" lon="11.5405226"><ele>40.0</ele><time>2026-04-03T17:37:04.71Z</time></trkpt><trkpt lat="45.4591433" lon="11.5406536"><ele>40.0</ele><time>2026-04-03T17:37:05.715Z</time></trkpt><trkpt lat="45.4591594" lon="11.5407895"><ele>40.0</ele><time>2026-04-03T17:37:06.72Z</time></trkpt><trkpt lat="45.4591788" lon="11.5409274"><ele>37.6</ele><time>2026-04-03T17:37:07.714Z</time></trkpt><trkpt lat="45.4592028" lon="11.5410604"><ele>35.2</ele><time>2026-04-03T17:37:08.729Z</time></trkpt><trkpt lat="45.459233" lon="11.5411906"><ele>32.8</ele><time>2026-04-03T17:37:09.72Z</time></trkpt><trkpt lat="45.4592701" lon="11.5413226"><ele>30.4</ele><time>2026-04-03T17:37:10.72Z</time></trkpt><trkpt lat="45.4593055" lon="11.5414597"><ele>28.0</ele><time>2026-04-03T17:37:11.714Z</time></trkpt><trkpt lat="45.4593275" lon="11.5415998"><ele>28.0</ele><time>2026-04-03T17:37:12.714Z</time></trkpt><trkpt lat="45.4593436" lon="11.5417383"><ele>27.999999999999996</ele><time>2026-04-03T17:37:13.714Z</time></trkpt><trkpt lat="45.4593536" lon="11.5418727"><ele>27.999999999999996</ele><time>2026-04-03T17:37:14.717Z</time></trkpt><trkpt lat="45.4593687" lon="11.5419936"><ele>28.0</ele><time>2026-04-03T17:37:15.716Z</time></trkpt><trkpt lat="45.4594114" lon="11.5420859"><ele>28.0</ele><time>2026-04-03T17:37:16.711Z</time></trkpt><trkpt lat="45.4594909" lon="11.5421652"><ele>28.75</ele><time>2026-04-03T17:37:17.711Z</time></trkpt><trkpt lat="45.4596044" lon="11.5422601"><ele>29.5</ele><time>2026-04-03T17:37:18.703Z</time></trkpt><trkpt lat="45.4597198" lon="11.5423709"><ele>30.25</ele><time>2026-04-03T17:37:19.696Z</time></trkpt><trkpt lat="45.4598229" lon="11.542487"><ele>31.0</ele><time>2026-04-03T17:37:20.7Z</time></trkpt><trkpt lat="45.4599158" lon="11.5425965"><ele>31.0</ele><time>2026-04-03T17:37:21.696Z</time></trkpt><trkpt lat="45.4600019" lon="11.5427114"><ele>31.0</ele><time>2026-04-03T17:37:22.704Z</time></trkpt><trkpt lat="45.4600803" lon="11.542833"><ele>31.0</ele><time>2026-04-03T17:37:23.698Z</time></trkpt><trkpt lat="45.4601507" lon="11.5429561"><ele>31.0</ele><time>2026-04-03T17:37:24.697Z</time></trkpt><trkpt lat="45.4602179" lon="11.5430893"><ele>30.0</ele><time>2026-04-03T17:37:25.7Z</time></trkpt><trkpt lat="45.4602827" lon="11.5432294"><ele>29.0</ele><time>2026-04-03T17:37:26.705Z</time></trkpt><trkpt lat="45.4603479" lon="11.5433697"><ele>28.0</ele><time>2026-04-03T17:37:27.705Z</time></trkpt><trkpt lat="45.4604223" lon="11.5434982"><ele>27.0</ele><time>2026-04-03T17:37:28.703Z</time></trkpt><trkpt lat="45.4605015" lon="11.543611"><ele>28.6</ele><time>2026-04-03T17:37:29.704Z</time></trkpt><trkpt lat="45.4605932" lon="11.543717"><ele>30.200000000000003</ele><time>2026-04-03T17:37:30.709Z</time></trkpt><trkpt lat="45.46068" lon="11.5438039"><ele>31.8</ele><time>2026-04-03T17:37:31.71Z</time></trkpt><trkpt lat="45.4607615" lon="11.5438908"><ele>33.4</ele><time>2026-04-03T17:37:32.704Z</time></trkpt><trkpt lat="45.4608332" lon="11.543978"><ele>35.0</ele><time>2026-04-03T17:37:33.699Z</time></trkpt><trkpt lat="45.46089" lon="11.5440775"><ele>35.0</ele><time>2026-04-03T17:37:34.708Z</time></trkpt><trkpt lat="45.4609244" lon="11.5441892"><ele>35.0</ele><time>2026-04-03T17:37:35.706Z</time></trkpt><trkpt lat="45.4609368" lon="11.5443132"><ele>35.0</ele><time>2026-04-03T17:37:36.702Z</time></trkpt><trkpt lat="45.4609295" lon="11.5444473"><ele>35.0</ele><time>2026-04-03T17:37:37.706Z</time></trkpt><trkpt lat="45.4609045" lon="11.5445883"><ele>35.0</ele><time>2026-04-03T17:37:38.708Z</time></trkpt><trkpt lat="45.4608761" lon="11.5447252"><ele>34.83333333333333</ele><time>2026-04-03T17:37:39.712Z</time></trkpt><trkpt lat="45.4608459" lon="11.5448669"><ele>34.666666666666664</ele><time>2026-04-03T17:37:40.709Z</time></trkpt><trkpt lat="45.4608122" lon="11.5449863"><ele>34.5</ele><time>2026-04-03T17:37:41.703Z</time></trkpt><trkpt lat="45.4607744" lon="11.5450949"><ele>34.333333333333336</ele><time>2026-04-03T17:37:42.712Z</time></trkpt><trkpt lat="45.4607404" lon="11.5451974"><ele>34.16666666666667</ele><time>2026-04-03T17:37:43.704Z</time></trkpt><trkpt lat="45.4607109" lon="11.5452961"><ele>34.0</ele><time>2026-04-03T17:37:44.706Z</time></trkpt><trkpt lat="45.4606849" lon="11.5453992"><ele>34.0</ele><time>2026-04-03T17:37:45.709Z</time></trkpt><trkpt lat="45.4606553" lon="11.5455005"><ele>34.0</ele><time>2026-04-03T17:37:46.703Z</time></trkpt><trkpt lat="45.4606217" lon="11.5455836"><ele>34.0</ele><time>2026-04-03T17:37:47.719Z</time></trkpt><trkpt lat="45.4565721" lon="11.5487805"><ele>44.333333333333336</ele><time>2026-04-03T17:39:16.695Z</time></trkpt><trkpt lat="45.4565136" lon="11.5488178"><ele>54.66666666666667</ele><time>2026-04-03T17:39:17.691Z</time></trkpt><trkpt lat="45.4564155" lon="11.5489179"><ele>65.0</ele><time>2026-04-03T17:39:19.687Z</time></trkpt><trkpt lat="45.4563126" lon="11.5490172"><ele>75.33333333333333</ele><time>2026-04-03T17:39:21.689Z</time></trkpt><trkpt lat="45.4562627" lon="11.5490786"><ele>85.66666666666667</ele><time>2026-04-03T17:39:22.69Z</time></trkpt><trkpt lat="45.4562058" lon="11.5491404"><ele>96.0</ele><time>2026-04-03T17:39:23.697Z</time></trkpt><trkpt lat="45.4561446" lon="11.5492142"><ele>96.0</ele><time>2026-04-03T17:39:24.685Z</time></trkpt><trkpt lat="45.4560854" lon="11.5492706"><ele>96.0</ele><time>2026-04-03T17:39:25.691Z</time></trkpt><trkpt lat="45.4559366" lon="11.5494995"><ele>96.0</ele><time>2026-04-03T17:39:29.686Z</time></trkpt><trkpt lat="45.4558697" lon="11.5495873"><ele>96.0</ele><time>2026-04-03T17:39:31.697Z</time></trkpt><trkpt lat="45.4557959" lon="11.54968"><ele>102.0</ele><time>2026-04-03T17:39:33.693Z</time></trkpt><trkpt lat="45.4557147" lon="11.5497816"><ele>108.0</ele><time>2026-04-03T17:39:35.69Z</time></trkpt><trkpt lat="45.4556181" lon="11.5499126"><ele>114.0</ele><time>2026-04-03T17:39:37.689Z</time></trkpt><trkpt lat="45.4555592" lon="11.5499873"><ele>120.0</ele><time>2026-04-03T17:39:38.691Z</time></trkpt><trkpt lat="45.4555116" lon="11.5500621"><ele>126.0</ele><time>2026-04-03T17:39:39.689Z</time></trkpt><trkpt lat="45.4554628" lon="11.5501276"><ele>123.5</ele><time>2026-04-03T17:39:40.689Z</time></trkpt><trkpt lat="45.4553784" lon="11.550237"><ele>121.0</ele><time>2026-04-03T17:39:42.692Z</time></trkpt><trkpt lat="45.4552784" lon="11.5503283"><ele>118.5</ele><time>2026-04-03T17:39:44.694Z</time></trkpt><trkpt lat="45.4551813" lon="11.5504117"><ele>116.0</ele><time>2026-04-03T17:39:46.693Z</time></trkpt><trkpt lat="45.455043" lon="11.5505803"><ele>125.5</ele><time>2026-04-03T17:39:49.692Z</time></trkpt><trkpt lat="45.4549512" lon="11.5506471"><ele>135.0</ele><time>2026-04-03T17:39:51.688Z</time></trkpt><trkpt lat="45.4548427" lon="11.5506566"><ele>144.5</ele><time>2026-04-03T17:39:53.688Z</time></trkpt><trkpt lat="45.4547457" lon="11.5506565"><ele>154.0</ele><time>2026-04-03T17:39:55.688Z</time></trkpt><trkpt lat="45.4548921" lon="11.550891"><ele>154.0</ele><time>2026-04-03T17:40:19.684Z</time></trkpt><trkpt lat="45.4550375" lon="11.5510058"><ele>154.0</ele><time>2026-04-03T17:40:21.692Z</time></trkpt><trkpt lat="45.4551219" lon="11.5510356"><ele>154.0</ele><time>2026-04-03T17:40:22.689Z</time></trkpt><trkpt lat="45.4551909" lon="11.5510602"><ele>154.0</ele><time>2026-04-03T17:40:23.69Z</time></trkpt><trkpt lat="45.455265" lon="11.5510748"><ele>154.0</ele><time>2026-04-03T17:40:24.692Z</time></trkpt><trkpt lat="45.4553432" lon="11.551075"><ele>154.0</ele><time>2026-04-03T17:40:25.69Z</time></trkpt><trkpt lat="45.45542" lon="11.5510744"><ele>154.0</ele><time>2026-04-03T17:40:26.691Z</time></trkpt><trkpt lat="45.4555028" lon="11.5511085"><ele>154.0</ele><time>2026-04-03T17:40:28.701Z</time></trkpt><trkpt lat="45.4554389" lon="11.5512166"><ele>154.0</ele><time>2026-04-03T17:40:31.703Z</time></trkpt><trkpt lat="45.4553444" lon="11.5512632"><ele>154.0</ele><time>2026-04-03T17:40:33.692Z</time></trkpt><trkpt lat="45.4552714" lon="11.5513385"><ele>164.0</ele><time>2026-04-03T17:40:35.691Z</time></trkpt><trkpt lat="45.4551903" lon="11.5514128"><ele>174.0</ele><time>2026-04-03T17:40:37.703Z</time></trkpt><trkpt lat="45.4550963" lon="11.5514865"><ele>184.0</ele><time>2026-04-03T17:40:39.702Z</time></trkpt><trkpt lat="45.454981" lon="11.5515789"><ele>194.0</ele><time>2026-04-03T17:40:41.698Z</time></trkpt><trkpt lat="45.4548398" lon="11.551688"><ele>194.00000000000003</ele><time>2026-04-03T17:40:43.693Z</time></trkpt><trkpt lat="45.4547664" lon="11.5517463"><ele>194.0</ele><time>2026-04-03T17:40:44.709Z</time></trkpt><trkpt lat="45.4546914" lon="11.5517953"><ele>194.0</ele><time>2026-04-03T17:40:45.69Z</time></trkpt><trkpt lat="45.4546076" lon="11.5518218"><ele>194.0</ele><time>2026-04-03T17:40:46.694Z</time></trkpt><trkpt lat="45.4545186" lon="11.5518372"><ele>194.00000000000003</ele><time>2026-04-03T17:40:47.691Z</time></trkpt><trkpt lat="45.4544352" lon="11.5518443"><ele>194.0</ele><time>2026-04-03T17:40:48.69Z</time></trkpt><trkpt lat="45.4543542" lon="11.5518352"><ele>196.66666666666669</ele><time>2026-04-03T17:40:49.686Z</time></trkpt><trkpt lat="45.4542784" lon="11.5518085"><ele>199.33333333333334</ele><time>2026-04-03T17:40:50.689Z</time></trkpt><trkpt lat="45.4542066" lon="11.5517619"><ele>202.0</ele><time>2026-04-03T17:40:51.692Z</time></trkpt><trkpt lat="45.4541306" lon="11.5516967"><ele>204.66666666666669</ele><time>2026-04-03T17:40:52.689Z</time></trkpt><trkpt lat="45.4540616" lon="11.5516074"><ele>207.33333333333334</ele><time>2026-04-03T17:40:53.692Z</time></trkpt><trkpt lat="45.4539933" lon="11.5515316"><ele>210.0</ele><time>2026-04-03T17:40:54.691Z</time></trkpt><trkpt lat="45.4539302" lon="11.551444"><ele>210.0</ele><time>2026-04-03T17:40:55.691Z</time></trkpt><trkpt lat="45.4538837" lon="11.5513458"><ele>210.0</ele><time>2026-04-03T17:40:56.688Z</time></trkpt><trkpt lat="45.4538466" lon="11.5512672"><ele>210.0</ele><time>2026-04-03T17:40:57.698Z</time></trkpt><trkpt lat="45.4537923" lon="11.5511733"><ele>210.0</ele><time>2026-04-03T17:40:59.702Z</time></trkpt><trkpt lat="45.4538404" lon="11.5512797"><ele>210.0</ele><time>2026-04-03T17:41:17.721Z</time></trkpt><trkpt lat="45.4538475" lon="11.5515109"><ele>210.0</ele><time>2026-04-03T17:41:19.696Z</time></trkpt><trkpt lat="45.4538645" lon="11.5516637"><ele>210.0</ele><time>2026-04-03T17:41:20.692Z</time></trkpt><trkpt lat="45.4539006" lon="11.5519544"><ele>210.0</ele><time>2026-04-03T17:41:22.692Z</time></trkpt><trkpt lat="45.4539222" lon="11.5520817"><ele>210.0</ele><time>2026-04-03T17:41:23.694Z</time></trkpt><trkpt lat="45.4539452" lon="11.5522027"><ele>214.83333333333334</ele><time>2026-04-03T17:41:24.689Z</time></trkpt><trkpt lat="45.4539831" lon="11.5523202"><ele>219.66666666666669</ele><time>2026-04-03T17:41:25.681Z</time></trkpt><trkpt lat="45.4540179" lon="11.5524444"><ele>224.5</ele><time>2026-04-03T17:41:26.689Z</time></trkpt><trkpt lat="45.4540516" lon="11.5525634"><ele>229.33333333333334</ele><time>2026-04-03T17:41:27.692Z</time></trkpt><trkpt lat="45.4541001" lon="11.5526645"><ele>234.16666666666669</ele><time>2026-04-03T17:41:28.688Z</time></trkpt><trkpt lat="45.4541595" lon="11.5527325"><ele>239.0</ele><time>2026-04-03T17:41:29.685Z</time></trkpt><trkpt lat="45.4542225" lon="11.5527906"><ele>239.00000000000003</ele><time>2026-04-03T17:41:30.682Z</time></trkpt><trkpt lat="45.4542894" lon="11.5528289"><ele>239.0</ele><time>2026-04-03T17:41:31.69Z</time></trkpt><trkpt lat="45.4543661" lon="11.5528369"><ele>239.0</ele><time>2026-04-03T17:41:32.685Z</time></trkpt><trkpt lat="45.4544434" lon="11.5528357"><ele>239.0</ele><time>2026-04-03T17:41:33.686Z</time></trkpt><trkpt lat="45.4545204" lon="11.55284"><ele>239.00000000000003</ele><time>2026-04-03T17:41:34.699Z</time></trkpt><trkpt lat="45.4545945" lon="11.5528454"><ele>239.0</ele><time>2026-04-03T17:41:35.691Z</time></trkpt><trkpt lat="45.4546701" lon="11.5528542"><ele>238.25</ele><time>2026-04-03T17:41:36.698Z</time></trkpt><trkpt lat="45.4547373" lon="11.5528634"><ele>237.5</ele><time>2026-04-03T17:41:37.685Z</time></trkpt><trkpt lat="45.4548037" lon="11.5528792"><ele>236.75</ele><time>2026-04-03T17:41:38.693Z</time></trkpt><trkpt lat="45.4550626" lon="11.5529124"><ele>236.0</ele><time>2026-04-03T17:41:42.696Z</time></trkpt><trkpt lat="45.455136" lon="11.5529247"><ele>242.66666666666669</ele><time>2026-04-03T17:41:43.69Z</time></trkpt><trkpt lat="45.4552117" lon="11.5529322"><ele>249.33333333333334</ele><time>2026-04-03T17:41:44.693Z</time></trkpt><trkpt lat="45.4552919" lon="11.5529297"><ele>256.0</ele><time>2026-04-03T17:41:45.69Z</time></trkpt><trkpt lat="45.4553747" lon="11.5529142"><ele>262.6666666666667</ele><time>2026-04-03T17:41:46.696Z</time></trkpt><trkpt lat="45.4554582" lon="11.5529075"><ele>269.3333333333333</ele><time>2026-04-03T17:41:47.688Z</time></trkpt><trkpt lat="45.4555463" lon="11.5528969"><ele>276.0</ele><time>2026-04-03T17:41:48.684Z</time></trkpt><trkpt lat="45.4556369" lon="11.5528777"><ele>276.0</ele><time>2026-04-03T17:41:49.69Z</time></trkpt><trkpt lat="45.4557592" lon="11.5528929"><ele>276.0</ele><time>2026-04-03T17:41:51.7Z</time></trkpt><trkpt lat="45.4556882" lon="11.5529298"><ele>276.0</ele><time>2026-04-03T17:43:06.713Z</time></trkpt><trkpt lat="45.4554286" lon="11.5531048"><ele>276.0</ele><time>2026-04-03T17:43:09.704Z</time></trkpt><trkpt lat="45.4552997" lon="11.5531917"><ele>276.0</ele><time>2026-04-03T17:43:10.692Z</time></trkpt><trkpt lat="45.4551678" lon="11.553282"><ele>276.0</ele><time>2026-04-03T17:43:11.693Z</time></trkpt><trkpt lat="45.4550453" lon="11.5533519"><ele>276.0</ele><time>2026-04-03T17:43:12.693Z</time></trkpt><trkpt lat="45.4549203" lon="11.5534067"><ele>276.0</ele><time>2026-04-03T17:43:13.69Z</time></trkpt><trkpt lat="45.4547953" lon="11.5534584"><ele>276.0</ele><time>2026-04-03T17:43:14.696Z</time></trkpt><trkpt lat="45.4546758" lon="11.5534958"><ele>276.0</ele><time>2026-04-03T17:43:15.695Z</time></trkpt><trkpt lat="45.4545611" lon="11.5535305"><ele>276.0</ele><time>2026-04-03T17:43:16.696Z</time></trkpt><trkpt lat="45.4544473" lon="11.5535634"><ele>275.8</ele><time>2026-04-03T17:43:17.694Z</time></trkpt><trkpt lat="45.4543344" lon="11.553595"><ele>275.6</ele><time>2026-04-03T17:43:18.698Z</time></trkpt><trkpt lat="45.4542238" lon="11.5536128"><ele>275.4</ele><time>2026-04-03T17:43:19.708Z</time></trkpt><trkpt lat="45.4541139" lon="11.5536223"><ele>275.2</ele><time>2026-04-03T17:43:20.692Z</time></trkpt><trkpt lat="45.4540136" lon="11.5536216"><ele>275.0</ele><time>2026-04-03T17:43:21.701Z</time></trkpt><trkpt lat="45.4539111" lon="11.5535938"><ele>275.0</ele><time>2026-04-03T17:43:22.701Z</time></trkpt><trkpt lat="45.4538092" lon="11.5535558"><ele>275.0</ele><time>2026-04-03T17:43:23.692Z</time></trkpt><trkpt lat="45.4537052" lon="11.5535277"><ele>275.0</ele><time>2026-04-03T17:43:24.706Z</time></trkpt><trkpt lat="45.4536103" lon="11.5534964"><ele>275.0</ele><time>2026-04-03T17:43:25.7Z</time></trkpt><trkpt lat="45.4535218" lon="11.5534694"><ele>275.0</ele><time>2026-04-03T17:43:26.71Z</time></trkpt><trkpt lat="45.4534411" lon="11.5534464"><ele>276.5</ele><time>2026-04-03T17:43:27.707Z</time></trkpt><trkpt lat="45.4533479" lon="11.5534404"><ele>278.0</ele><time>2026-04-03T17:43:28.712Z</time></trkpt><trkpt lat="45.4531329" lon="11.5534523"><ele>279.5</ele><time>2026-04-03T17:43:30.706Z</time></trkpt><trkpt lat="45.4530248" lon="11.5534391"><ele>281.0</ele><time>2026-04-03T17:43:31.727Z</time></trkpt><trkpt lat="45.4529245" lon="11.5534316"><ele>281.0</ele><time>2026-04-03T17:43:32.715Z</time></trkpt><trkpt lat="45.4528265" lon="11.5534396"><ele>281.0</ele><time>2026-04-03T17:43:33.722Z</time></trkpt><trkpt lat="45.4527425" lon="11.553468"><ele>281.0</ele><time>2026-04-03T17:43:34.725Z</time></trkpt><trkpt lat="45.4526778" lon="11.5535408"><ele>281.0</ele><time>2026-04-03T17:43:35.722Z</time></trkpt><trkpt lat="45.4526425" lon="11.5536265"><ele>281.0</ele><time>2026-04-03T17:43:36.721Z</time></trkpt><trkpt lat="45.4526282" lon="11.5537171"><ele>281.0</ele><time>2026-04-03T17:43:37.721Z</time></trkpt><trkpt lat="45.4525875" lon="11.5538569"><ele>283.83333333333337</ele><time>2026-04-03T17:43:39.712Z</time></trkpt><trkpt lat="45.452551" lon="11.5539344"><ele>286.6666666666667</ele><time>2026-04-03T17:43:40.711Z</time></trkpt><trkpt lat="45.4525031" lon="11.5540109"><ele>289.5</ele><time>2026-04-03T17:43:41.71Z</time></trkpt><trkpt lat="45.452439" lon="11.5541048"><ele>292.3333333333333</ele><time>2026-04-03T17:43:42.708Z</time></trkpt><trkpt lat="45.4523692" lon="11.5541935"><ele>295.16666666666663</ele><time>2026-04-03T17:43:43.703Z</time></trkpt><trkpt lat="45.4522952" lon="11.5543057"><ele>298.0</ele><time>2026-04-03T17:43:44.709Z</time></trkpt><trkpt lat="45.452221" lon="11.5544177"><ele>298.0</ele><time>2026-04-03T17:43:45.708Z</time></trkpt><trkpt lat="45.4521309" lon="11.5545192"><ele>298.0</ele><time>2026-04-03T17:43:46.705Z</time></trkpt><trkpt lat="45.452032" lon="11.5546005"><ele>298.0</ele><time>2026-04-03T17:43:47.71Z</time></trkpt><trkpt lat="45.451938" lon="11.5546339"><ele>298.0</ele><time>2026-04-03T17:43:48.709Z</time></trkpt><trkpt lat="45.451844" lon="11.5546666"><ele>298.0</ele><time>2026-04-03T17:43:49.718Z</time></trkpt><trkpt lat="45.4516496" lon="11.5547384"><ele>300.0</ele><time>2026-04-03T17:43:51.721Z</time></trkpt><trkpt lat="45.45155" lon="11.5547673"><ele>302.0</ele><time>2026-04-03T17:43:52.72Z</time></trkpt><trkpt lat="45.451445" lon="11.5548019"><ele>304.0</ele><time>2026-04-03T17:43:53.715Z</time></trkpt><trkpt lat="45.4513413" lon="11.5548384"><ele>306.0</ele><time>2026-04-03T17:43:54.708Z</time></trkpt><trkpt lat="45.4512361" lon="11.5548765"><ele>308.0</ele><time>2026-04-03T17:43:55.707Z</time></trkpt><trkpt lat="45.4511254" lon="11.5549236"><ele>308.0</ele><time>2026-04-03T17:43:56.704Z</time></trkpt><trkpt lat="45.4510085" lon="11.5549678"><ele>308.0</ele><time>2026-04-03T17:43:57.707Z</time></trkpt><trkpt lat="45.4508886" lon="11.5549998"><ele>308.0</ele><time>2026-04-03T17:43:58.707Z</time></trkpt><trkpt lat="45.4507721" lon="11.5550246"><ele>308.0</ele><time>2026-04-03T17:43:59.71Z</time></trkpt><trkpt lat="45.4506645" lon="11.5550433"><ele>308.0</ele><time>2026-04-03T17:44:00.713Z</time></trkpt><trkpt lat="45.4505649" lon="11.5550577"><ele>308.0</ele><time>2026-04-03T17:44:01.709Z</time></trkpt><trkpt lat="45.4504869" lon="11.5550611"><ele>308.0</ele><time>2026-04-03T17:44:02.701Z</time></trkpt><trkpt lat="45.4503923" lon="11.5551032"><ele>308.0</ele><time>2026-04-03T17:44:04.716Z</time></trkpt><trkpt lat="45.450403" lon="11.5551974"><ele>308.0</ele><time>2026-04-03T17:44:06.72Z</time></trkpt><trkpt lat="45.4504594" lon="11.5552385"><ele>308.0</ele><time>2026-04-03T17:44:07.72Z</time></trkpt><trkpt lat="45.4505487" lon="11.5552575"><ele>308.0</ele><time>2026-04-03T17:44:08.711Z</time></trkpt><trkpt lat="45.4506493" lon="11.5552729"><ele>308.0</ele><time>2026-04-03T17:44:09.711Z</time></trkpt><trkpt lat="45.4507455" lon="11.5552944"><ele>308.0</ele><time>2026-04-03T17:44:10.706Z</time></trkpt><trkpt lat="45.450959" lon="11.5553487"><ele>308.0</ele><time>2026-04-03T17:44:12.694Z</time></trkpt><trkpt lat="45.4510678" lon="11.5554094"><ele>311.0</ele><time>2026-04-03T17:44:13.709Z</time></trkpt><trkpt lat="45.4511618" lon="11.5554813"><ele>314.0</ele><time>2026-04-03T17:44:14.707Z</time></trkpt><trkpt lat="45.4512298" lon="11.5555595"><ele>317.0</ele><time>2026-04-03T17:44:15.725Z</time></trkpt><trkpt lat="45.4512699" lon="11.5556497"><ele>320.0</ele><time>2026-04-03T17:44:16.708Z</time></trkpt><trkpt lat="45.4512974" lon="11.5557538"><ele>323.0</ele><time>2026-04-03T17:44:17.717Z</time></trkpt><trkpt lat="45.451331" lon="11.5558683"><ele>326.0</ele><time>2026-04-03T17:44:18.716Z</time></trkpt><trkpt lat="45.4513649" lon="11.5559648"><ele>326.0</ele><time>2026-04-03T17:44:19.712Z</time></trkpt><trkpt lat="45.4513959" lon="11.5560482"><ele>326.0</ele><time>2026-04-03T17:44:20.717Z</time></trkpt><trkpt lat="45.451423" lon="11.5561616"><ele>326.0</ele><time>2026-04-03T17:44:22.716Z</time></trkpt><trkpt lat="45.4514659" lon="11.5562654"><ele>326.0</ele><time>2026-04-03T17:44:24.715Z</time></trkpt><trkpt lat="45.4516031" lon="11.556313"><ele>326.0</ele><time>2026-04-03T17:44:26.726Z</time></trkpt><trkpt lat="45.4517103" lon="11.5562976"><ele>326.0</ele><time>2026-04-03T17:44:27.718Z</time></trkpt><trkpt lat="45.45183" lon="11.5562605"><ele>326.0</ele><time>2026-04-03T17:44:28.721Z</time></trkpt><trkpt lat="45.4519405" lon="11.5562079"><ele>326.0</ele><time>2026-04-03T17:44:29.721Z</time></trkpt><trkpt lat="45.4520472" lon="11.5561556"><ele>326.0</ele><time>2026-04-03T17:44:30.715Z</time></trkpt><trkpt lat="45.4521486" lon="11.5561259"><ele>327.0</ele><time>2026-04-03T17:44:31.732Z</time></trkpt><trkpt lat="45.4523379" lon="11.5561957"><ele>328.0</ele><time>2026-04-03T17:44:33.722Z</time></trkpt><trkpt lat="45.4524233" lon="11.5562674"><ele>329.0</ele><time>2026-04-03T17:44:34.728Z</time></trkpt><trkpt lat="45.4525053" lon="11.5563308"><ele>330.0</ele><time>2026-04-03T17:44:35.721Z</time></trkpt><trkpt lat="45.4525784" lon="11.556378"><ele>330.0</ele><time>2026-04-03T17:44:36.726Z</time></trkpt><trkpt lat="45.4526422" lon="11.5564102"><ele>330.0</ele><time>2026-04-03T17:44:37.72Z</time></trkpt><trkpt lat="45.4527155" lon="11.556478"><ele>330.0</ele><time>2026-04-03T17:44:39.721Z</time></trkpt><trkpt lat="45.4527037" lon="11.556372"><ele>330.0</ele><time>2026-04-03T17:47:44.724Z</time></trkpt><trkpt lat="45.4528338" lon="11.5562233"><ele>330.0</ele><time>2026-04-03T17:47:47.725Z</time></trkpt><trkpt lat="45.4528824" lon="11.556145"><ele>330.0</ele><time>2026-04-03T17:47:48.726Z</time></trkpt><trkpt lat="45.4529231" lon="11.5560469"><ele>330.0</ele><time>2026-04-03T17:47:49.728Z</time></trkpt><trkpt lat="45.452999" lon="11.5558262"><ele>330.0</ele><time>2026-04-03T17:47:51.718Z</time></trkpt><trkpt lat="45.45304" lon="11.5557082"><ele>330.0</ele><time>2026-04-03T17:47:52.726Z</time></trkpt><trkpt lat="45.4530861" lon="11.5555889"><ele>330.0</ele><time>2026-04-03T17:47:53.712Z</time></trkpt><trkpt lat="45.4531426" lon="11.555482"><ele>329.6</ele><time>2026-04-03T17:47:54.728Z</time></trkpt><trkpt lat="45.4532027" lon="11.5553894"><ele>329.2</ele><time>2026-04-03T17:47:55.714Z</time></trkpt><trkpt lat="45.4532738" lon="11.5553211"><ele>328.79999999999995</ele><time>2026-04-03T17:47:56.714Z</time></trkpt><trkpt lat="45.4533567" lon="11.5552706"><ele>328.4</ele><time>2026-04-03T17:47:57.724Z</time></trkpt><trkpt lat="45.4534519" lon="11.5552609"><ele>328.0</ele><time>2026-04-03T17:47:58.719Z</time></trkpt><trkpt lat="45.4535547" lon="11.5552905"><ele>328.0</ele><time>2026-04-03T17:47:59.722Z</time></trkpt><trkpt lat="45.4536436" lon="11.5553625"><ele>328.0</ele><time>2026-04-03T17:48:00.721Z</time></trkpt><trkpt lat="45.4537302" lon="11.5556056"><ele>328.0</ele><time>2026-04-03T17:48:02.712Z</time></trkpt><trkpt lat="45.453836" lon="11.5560081"><ele>329.25</ele><time>2026-04-03T17:48:05.721Z</time></trkpt><trkpt lat="45.4539874" lon="11.556188"><ele>330.5</ele><time>2026-04-03T17:48:07.714Z</time></trkpt><trkpt lat="45.4540819" lon="11.5562343"><ele>331.75</ele><time>2026-04-03T17:48:08.713Z</time></trkpt><trkpt lat="45.4541814" lon="11.556247"><ele>333.0</ele><time>2026-04-03T17:48:09.716Z</time></trkpt><trkpt lat="45.4542826" lon="11.5562409"><ele>333.0</ele><time>2026-04-03T17:48:10.711Z</time></trkpt><trkpt lat="45.454388" lon="11.556215"><ele>333.0</ele><time>2026-04-03T17:48:11.709Z</time></trkpt><trkpt lat="45.4544956" lon="11.5561935"><ele>333.0</ele><time>2026-04-03T17:48:12.708Z</time></trkpt><trkpt lat="45.4546041" lon="11.5561902"><ele>333.0</ele><time>2026-04-03T17:48:13.717Z</time></trkpt><trkpt lat="45.4547191" lon="11.556211"><ele>333.0</ele><time>2026-04-03T17:48:14.713Z</time></trkpt><trkpt lat="45.4548244" lon="11.5562666"><ele>331.5</ele><time>2026-04-03T17:48:15.725Z</time></trkpt><trkpt lat="45.4549214" lon="11.5563765"><ele>330.0</ele><time>2026-04-03T17:48:16.712Z</time></trkpt><trkpt lat="45.4550168" lon="11.5565168"><ele>328.5</ele><time>2026-04-03T17:48:17.707Z</time></trkpt><trkpt lat="45.4551038" lon="11.5566657"><ele>327.0</ele><time>2026-04-03T17:48:18.711Z</time></trkpt><trkpt lat="45.4551981" lon="11.5568016"><ele>327.0</ele><time>2026-04-03T17:48:19.717Z</time></trkpt><trkpt lat="45.4552958" lon="11.5569242"><ele>327.0</ele><time>2026-04-03T17:48:20.721Z</time></trkpt><trkpt lat="45.4553791" lon="11.5570377"><ele>327.0</ele><time>2026-04-03T17:48:21.719Z</time></trkpt><trkpt lat="45.4554403" lon="11.5571642"><ele>327.0</ele><time>2026-04-03T17:48:22.727Z</time></trkpt><trkpt lat="45.4554658" lon="11.5573062"><ele>327.75</ele><time>2026-04-03T17:48:23.723Z</time></trkpt><trkpt lat="45.4554359" lon="11.5574652"><ele>328.5</ele><time>2026-04-03T17:48:24.715Z</time></trkpt><trkpt lat="45.4553968" lon="11.557622"><ele>329.25</ele><time>2026-04-03T17:48:25.718Z</time></trkpt><trkpt lat="45.4553794" lon="11.5577716"><ele>330.0</ele><time>2026-04-03T17:48:26.717Z</time></trkpt><trkpt lat="45.4554434" lon="11.5580308"><ele>330.2</ele><time>2026-04-03T17:48:28.727Z</time></trkpt><trkpt lat="45.4555327" lon="11.5581133"><ele>330.4</ele><time>2026-04-03T17:48:29.712Z</time></trkpt><trkpt lat="45.4556312" lon="11.5581745"><ele>330.6</ele><time>2026-04-03T17:48:30.719Z</time></trkpt><trkpt lat="45.4557344" lon="11.558227"><ele>330.8</ele><time>2026-04-03T17:48:31.721Z</time></trkpt><trkpt lat="45.4558328" lon="11.5582774"><ele>331.0</ele><time>2026-04-03T17:48:32.708Z</time></trkpt><trkpt lat="45.4559394" lon="11.5583276"><ele>331.0</ele><time>2026-04-03T17:48:33.709Z</time></trkpt><trkpt lat="45.4560443" lon="11.5583695"><ele>331.0</ele><time>2026-04-03T17:48:34.707Z</time></trkpt><trkpt lat="45.4561476" lon="11.5584094"><ele>331.0</ele><time>2026-04-03T17:48:35.701Z</time></trkpt><trkpt lat="45.4562543" lon="11.5584524"><ele>331.0</ele><time>2026-04-03T17:48:36.701Z</time></trkpt><trkpt lat="45.4563604" lon="11.5584922"><ele>331.0</ele><time>2026-04-03T17:48:37.701Z</time></trkpt><trkpt lat="45.4564683" lon="11.5585211"><ele>329.0</ele><time>2026-04-03T17:48:38.689Z</time></trkpt><trkpt lat="45.4565838" lon="11.5585482"><ele>327.0</ele><time>2026-04-03T17:48:39.697Z</time></trkpt><trkpt lat="45.4567009" lon="11.5585658"><ele>325.0</ele><time>2026-04-03T17:48:40.695Z</time></trkpt><trkpt lat="45.4568238" lon="11.5585836"><ele>323.0</ele><time>2026-04-03T17:48:41.698Z</time></trkpt><trkpt lat="45.4569494" lon="11.5585944"><ele>323.0</ele><time>2026-04-03T17:48:42.698Z</time></trkpt><trkpt lat="45.4570802" lon="11.5586028"><ele>323.0</ele><time>2026-04-03T17:48:43.698Z</time></trkpt><trkpt lat="45.4572116" lon="11.5586162"><ele>323.0</ele><time>2026-04-03T17:48:44.696Z</time></trkpt><trkpt lat="45.4573449" lon="11.5586319"><ele>323.0</ele><time>2026-04-03T17:48:45.698Z</time></trkpt><trkpt lat="45.4574734" lon="11.5586471"><ele>321.0</ele><time>2026-04-03T17:48:46.703Z</time></trkpt><trkpt lat="45.4575963" lon="11.558678"><ele>319.0</ele><time>2026-04-03T17:48:47.706Z</time></trkpt><trkpt lat="45.4578387" lon="11.5587786"><ele>317.0</ele><time>2026-04-03T17:48:49.717Z</time></trkpt><trkpt lat="45.4579583" lon="11.5588358"><ele>321.25</ele><time>2026-04-03T17:48:50.718Z</time></trkpt><trkpt lat="45.4580784" lon="11.5588915"><ele>325.5</ele><time>2026-04-03T17:48:51.716Z</time></trkpt><trkpt lat="45.4581975" lon="11.5589454"><ele>329.75</ele><time>2026-04-03T17:48:52.721Z</time></trkpt><trkpt lat="45.4583147" lon="11.5589957"><ele>334.0</ele><time>2026-04-03T17:48:53.717Z</time></trkpt><trkpt lat="45.4584411" lon="11.5590299"><ele>334.0</ele><time>2026-04-03T17:48:54.717Z</time></trkpt><trkpt lat="45.4585769" lon="11.5590438"><ele>334.0</ele><time>2026-04-03T17:48:55.719Z</time></trkpt><trkpt lat="45.4587134" lon="11.5590137"><ele>334.0</ele><time>2026-04-03T17:48:56.721Z</time></trkpt><trkpt lat="45.4588579" lon="11.5589636"><ele>334.0</ele><time>2026-04-03T17:48:57.723Z</time></trkpt><trkpt lat="45.4590058" lon="11.5589112"><ele>335.25</ele><time>2026-04-03T17:48:58.726Z</time></trkpt><trkpt lat="45.4591499" lon="11.5588635"><ele>336.5</ele><time>2026-04-03T17:48:59.734Z</time></trkpt><trkpt lat="45.4592862" lon="11.5588396"><ele>337.75</ele><time>2026-04-03T17:49:00.717Z</time></trkpt><trkpt lat="45.4594237" lon="11.5588017"><ele>339.0</ele><time>2026-04-03T17:49:01.728Z</time></trkpt><trkpt lat="45.4595603" lon="11.5587605"><ele>339.25</ele><time>2026-04-03T17:49:02.713Z</time></trkpt><trkpt lat="45.459698" lon="11.5587079"><ele>339.5</ele><time>2026-04-03T17:49:03.72Z</time></trkpt><trkpt lat="45.4598222" lon="11.5586539"><ele>339.75</ele><time>2026-04-03T17:49:04.713Z</time></trkpt><trkpt lat="45.4599379" lon="11.558574"><ele>340.0</ele><time>2026-04-03T17:49:05.715Z</time></trkpt><trkpt lat="45.4600391" lon="11.558497"><ele>340.0</ele><time>2026-04-03T17:49:06.712Z</time></trkpt><trkpt lat="45.460122" lon="11.5584121"><ele>340.0</ele><time>2026-04-03T17:49:07.711Z</time></trkpt><trkpt lat="45.4601833" lon="11.5583546"><ele>340.0</ele><time>2026-04-03T17:49:08.727Z</time></trkpt><trkpt lat="45.460333" lon="11.5584432"><ele>340.0</ele><time>2026-04-03T17:49:11.724Z</time></trkpt><trkpt lat="45.4603234" lon="11.5585707"><ele>340.0</ele><time>2026-04-03T17:49:12.721Z</time></trkpt><trkpt lat="45.4602834" lon="11.5587333"><ele>340.0</ele><time>2026-04-03T17:49:13.713Z</time></trkpt><trkpt lat="45.4602289" lon="11.5589055"><ele>340.0</ele><time>2026-04-03T17:49:14.714Z</time></trkpt><trkpt lat="45.4601767" lon="11.5590858"><ele>340.0</ele><time>2026-04-03T17:49:15.716Z</time></trkpt><trkpt lat="45.4601309" lon="11.5592724"><ele>340.0</ele><time>2026-04-03T17:49:16.71Z</time></trkpt><trkpt lat="45.460098" lon="11.5594646"><ele>341.75</ele><time>2026-04-03T17:49:17.716Z</time></trkpt><trkpt lat="45.4600788" lon="11.5596713"><ele>343.5</ele><time>2026-04-03T17:49:18.702Z</time></trkpt><trkpt lat="45.4600692" lon="11.5598757"><ele>345.25</ele><time>2026-04-03T17:49:19.71Z</time></trkpt><trkpt lat="45.4600754" lon="11.5600759"><ele>347.0</ele><time>2026-04-03T17:49:20.708Z</time></trkpt><trkpt lat="45.4600912" lon="11.5602754"><ele>346.25</ele><time>2026-04-03T17:49:21.71Z</time></trkpt><trkpt lat="45.4600986" lon="11.5604566"><ele>345.5</ele><time>2026-04-03T17:49:22.717Z</time></trkpt><trkpt lat="45.4600894" lon="11.5606265"><ele>344.75</ele><time>2026-04-03T17:49:23.704Z</time></trkpt><trkpt lat="45.4600557" lon="11.5607854"><ele>344.0</ele><time>2026-04-03T17:49:24.71Z</time></trkpt><trkpt lat="45.4599965" lon="11.5609268"><ele>344.0</ele><time>2026-04-03T17:49:25.699Z</time></trkpt><trkpt lat="45.4599318" lon="11.5610626"><ele>344.0</ele><time>2026-04-03T17:49:26.708Z</time></trkpt><trkpt lat="45.4598864" lon="11.5612112"><ele>344.0</ele><time>2026-04-03T17:49:27.703Z</time></trkpt><trkpt lat="45.4598681" lon="11.5613822"><ele>344.0</ele><time>2026-04-03T17:49:28.715Z</time></trkpt><trkpt lat="45.4598717" lon="11.5615562"><ele>342.6666666666667</ele><time>2026-04-03T17:49:29.703Z</time></trkpt><trkpt lat="45.4599301" lon="11.5618999"><ele>341.3333333333333</ele><time>2026-04-03T17:49:31.72Z</time></trkpt><trkpt lat="45.4599588" lon="11.5620624"><ele>340.0</ele><time>2026-04-03T17:49:32.71Z</time></trkpt><trkpt lat="45.4599922" lon="11.5622151"><ele>339.4</ele><time>2026-04-03T17:49:33.707Z</time></trkpt><trkpt lat="45.4600391" lon="11.5623481"><ele>338.8</ele><time>2026-04-03T17:49:34.713Z</time></trkpt><trkpt lat="45.4601215" lon="11.5624433"><ele>338.20000000000005</ele><time>2026-04-03T17:49:35.717Z</time></trkpt><trkpt lat="45.4602344" lon="11.5624888"><ele>337.6</ele><time>2026-04-03T17:49:36.711Z</time></trkpt><trkpt lat="45.4603432" lon="11.5625116"><ele>337.0</ele><time>2026-04-03T17:49:37.714Z</time></trkpt><trkpt lat="45.4604374" lon="11.562565"><ele>336.8</ele><time>2026-04-03T17:49:38.714Z</time></trkpt><trkpt lat="45.4604934" lon="11.5626611"><ele>336.6</ele><time>2026-04-03T17:49:39.721Z</time></trkpt><trkpt lat="45.4604946" lon="11.562799"><ele>336.40000000000003</ele><time>2026-04-03T17:49:40.718Z</time></trkpt><trkpt lat="45.4604435" lon="11.5629636"><ele>336.20000000000005</ele><time>2026-04-03T17:49:41.719Z</time></trkpt><trkpt lat="45.4603938" lon="11.5631275"><ele>336.0</ele><time>2026-04-03T17:49:42.712Z</time></trkpt><trkpt lat="45.460358" lon="11.563309"><ele>336.0</ele><time>2026-04-03T17:49:43.718Z</time></trkpt><trkpt lat="45.4603369" lon="11.5634937"><ele>336.0</ele><time>2026-04-03T17:49:44.719Z</time></trkpt><trkpt lat="45.4603304" lon="11.5636679"><ele>336.0</ele><time>2026-04-03T17:49:45.712Z</time></trkpt><trkpt lat="45.4603438" lon="11.5638337"><ele>336.0</ele><time>2026-04-03T17:49:46.715Z</time></trkpt><trkpt lat="45.460364" lon="11.5639766"><ele>335.0</ele><time>2026-04-03T17:49:47.711Z</time></trkpt><trkpt lat="45.4603701" lon="11.5640977"><ele>334.0</ele><time>2026-04-03T17:49:48.717Z</time></trkpt><trkpt lat="45.4603481" lon="11.5642008"><ele>333.0</ele><time>2026-04-03T17:49:49.724Z</time></trkpt><trkpt lat="45.4602837" lon="11.5642925"><ele>332.0</ele><time>2026-04-03T17:49:50.718Z</time></trkpt><trkpt lat="45.4601157" lon="11.5644786"><ele>330.20000000000005</ele><time>2026-04-03T17:49:52.705Z</time></trkpt><trkpt lat="45.4600316" lon="11.5645473"><ele>328.4</ele><time>2026-04-03T17:49:53.716Z</time></trkpt><trkpt lat="45.4599422" lon="11.5645776"><ele>326.6</ele><time>2026-04-03T17:49:54.719Z</time></trkpt><trkpt lat="45.4598412" lon="11.5645776"><ele>324.79999999999995</ele><time>2026-04-03T17:49:55.711Z</time></trkpt><trkpt lat="45.4597497" lon="11.5645635"><ele>323.0</ele><time>2026-04-03T17:49:56.71Z</time></trkpt><trkpt lat="45.4596732" lon="11.5645329"><ele>324.79999999999995</ele><time>2026-04-03T17:49:57.715Z</time></trkpt><trkpt lat="45.4596428" lon="11.5644459"><ele>326.6</ele><time>2026-04-03T17:49:58.721Z</time></trkpt><trkpt lat="45.4596447" lon="11.5643075"><ele>328.4</ele><time>2026-04-03T17:49:59.713Z</time></trkpt><trkpt lat="45.4596601" lon="11.5641528"><ele>330.20000000000005</ele><time>2026-04-03T17:50:00.724Z</time></trkpt><trkpt lat="45.4596686" lon="11.5639847"><ele>332.0</ele><time>2026-04-03T17:50:01.719Z</time></trkpt><trkpt lat="45.4596554" lon="11.5638346"><ele>331.8</ele><time>2026-04-03T17:50:02.708Z</time></trkpt><trkpt lat="45.4596039" lon="11.5637216"><ele>331.6</ele><time>2026-04-03T17:50:03.711Z</time></trkpt><trkpt lat="45.4595272" lon="11.5636462"><ele>331.40000000000003</ele><time>2026-04-03T17:50:04.708Z</time></trkpt><trkpt lat="45.4594383" lon="11.5635741"><ele>331.20000000000005</ele><time>2026-04-03T17:50:05.717Z</time></trkpt><trkpt lat="45.4593494" lon="11.5635147"><ele>331.0</ele><time>2026-04-03T17:50:06.714Z</time></trkpt><trkpt lat="45.4592579" lon="11.5634689"><ele>331.0</ele><time>2026-04-03T17:50:07.714Z</time></trkpt><trkpt lat="45.4591646" lon="11.5634538"><ele>331.0</ele><time>2026-04-03T17:50:08.704Z</time></trkpt><trkpt lat="45.4590799" lon="11.5634536"><ele>331.0</ele><time>2026-04-03T17:50:09.706Z</time></trkpt><trkpt lat="45.4590004" lon="11.5634536"><ele>331.0</ele><time>2026-04-03T17:50:10.706Z</time></trkpt><trkpt lat="45.4589175" lon="11.5634628"><ele>331.0</ele><time>2026-04-03T17:50:12.705Z</time></trkpt><trkpt lat="45.459059" lon="11.5636798"><ele>328.2</ele><time>2026-04-03T17:50:16.708Z</time></trkpt><trkpt lat="45.4591355" lon="11.5637448"><ele>325.40000000000003</ele><time>2026-04-03T17:50:17.705Z</time></trkpt><trkpt lat="45.4592116" lon="11.563809"><ele>322.6</ele><time>2026-04-03T17:50:18.712Z</time></trkpt><trkpt lat="45.4592837" lon="11.5638966"><ele>319.8</ele><time>2026-04-03T17:50:19.703Z</time></trkpt><trkpt lat="45.4593399" lon="11.5640015"><ele>317.0</ele><time>2026-04-03T17:50:20.715Z</time></trkpt><trkpt lat="45.4593804" lon="11.5641173"><ele>317.0</ele><time>2026-04-03T17:50:21.714Z</time></trkpt><trkpt lat="45.4593962" lon="11.5642554"><ele>317.0</ele><time>2026-04-03T17:50:22.711Z</time></trkpt><trkpt lat="45.4593968" lon="11.564395"><ele>317.0</ele><time>2026-04-03T17:50:23.706Z</time></trkpt><trkpt lat="45.4593921" lon="11.5645216"><ele>317.0</ele><time>2026-04-03T17:50:24.705Z</time></trkpt><trkpt lat="45.4593922" lon="11.5646265"><ele>317.0</ele><time>2026-04-03T17:50:25.712Z</time></trkpt><trkpt lat="45.4593941" lon="11.5647177"><ele>317.0</ele><time>2026-04-03T17:50:26.714Z</time></trkpt><trkpt lat="45.4593989" lon="11.5648117"><ele>317.8571428571429</ele><time>2026-04-03T17:50:27.713Z</time></trkpt><trkpt lat="45.4594163" lon="11.5649091"><ele>318.7142857142857</ele><time>2026-04-03T17:50:28.722Z</time></trkpt><trkpt lat="45.4594398" lon="11.5650169"><ele>319.57142857142856</ele><time>2026-04-03T17:50:29.715Z</time></trkpt><trkpt lat="45.459478" lon="11.5651176"><ele>320.42857142857144</ele><time>2026-04-03T17:50:30.715Z</time></trkpt><trkpt lat="45.4595185" lon="11.5652025"><ele>321.2857142857143</ele><time>2026-04-03T17:50:31.731Z</time></trkpt><trkpt lat="45.4595684" lon="11.5652695"><ele>322.14285714285717</ele><time>2026-04-03T17:50:32.708Z</time></trkpt><trkpt lat="45.459635" lon="11.5653243"><ele>323.0</ele><time>2026-04-03T17:50:33.712Z</time></trkpt><trkpt lat="45.4597722" lon="11.5654373"><ele>320.6666666666667</ele><time>2026-04-03T17:50:35.707Z</time></trkpt><trkpt lat="45.4598229" lon="11.5655321"><ele>318.33333333333337</ele><time>2026-04-03T17:50:36.712Z</time></trkpt><trkpt lat="45.4598605" lon="11.5656535"><ele>316.0</ele><time>2026-04-03T17:50:37.714Z</time></trkpt><trkpt lat="45.4598889" lon="11.565776"><ele>313.6666666666667</ele><time>2026-04-03T17:50:38.719Z</time></trkpt><trkpt lat="45.4599143" lon="11.5658958"><ele>311.3333333333333</ele><time>2026-04-03T17:50:39.703Z</time></trkpt><trkpt lat="45.4599284" lon="11.5660113"><ele>309.0</ele><time>2026-04-03T17:50:40.717Z</time></trkpt><trkpt lat="45.4599254" lon="11.5661186"><ele>305.8333333333333</ele><time>2026-04-03T17:50:41.716Z</time></trkpt><trkpt lat="45.4598757" lon="11.5662477"><ele>302.6666666666667</ele><time>2026-04-03T17:50:43.713Z</time></trkpt><trkpt lat="45.4599081" lon="11.5663327"><ele>299.5</ele><time>2026-04-03T17:50:46.716Z</time></trkpt><trkpt lat="45.4600004" lon="11.5663389"><ele>296.33333333333337</ele><time>2026-04-03T17:50:48.704Z</time></trkpt><trkpt lat="45.4600649" lon="11.5663429"><ele>293.1666666666667</ele><time>2026-04-03T17:50:49.71Z</time></trkpt><trkpt lat="45.460143" lon="11.5663444"><ele>290.0</ele><time>2026-04-03T17:50:50.7Z</time></trkpt><trkpt lat="45.4602194" lon="11.5663509"><ele>290.0</ele><time>2026-04-03T17:50:51.709Z</time></trkpt><trkpt lat="45.460285" lon="11.5663608"><ele>290.0</ele><time>2026-04-03T17:50:52.71Z</time></trkpt><trkpt lat="45.4603527" lon="11.5663778"><ele>290.0</ele><time>2026-04-03T17:50:53.71Z</time></trkpt><trkpt lat="45.4604208" lon="11.5663949"><ele>290.0</ele><time>2026-04-03T17:50:54.709Z</time></trkpt><trkpt lat="45.4606082" lon="11.566419"><ele>290.0</ele><time>2026-04-03T17:50:57.708Z</time></trkpt><trkpt lat="45.4606746" lon="11.5664056"><ele>289.2</ele><time>2026-04-03T17:50:58.704Z</time></trkpt><trkpt lat="45.4607424" lon="11.5663752"><ele>288.4</ele><time>2026-04-03T17:50:59.701Z</time></trkpt><trkpt lat="45.4608045" lon="11.5663303"><ele>287.6</ele><time>2026-04-03T17:51:00.703Z</time></trkpt><trkpt lat="45.4609063" lon="11.566261"><ele>286.8</ele><time>2026-04-03T17:51:02.712Z</time></trkpt><trkpt lat="45.4609862" lon="11.5663016"><ele>286.0</ele><time>2026-04-03T17:51:04.706Z</time></trkpt><trkpt lat="45.4610406" lon="11.5664437"><ele>286.0</ele><time>2026-04-03T17:51:06.697Z</time></trkpt><trkpt lat="45.4610691" lon="11.5666133"><ele>286.0</ele><time>2026-04-03T17:51:08.707Z</time></trkpt><trkpt lat="45.4610919" lon="11.5667726"><ele>286.0</ele><time>2026-04-03T17:51:10.702Z</time></trkpt><trkpt lat="45.4611029" lon="11.5669231"><ele>286.0</ele><time>2026-04-03T17:51:12.699Z</time></trkpt><trkpt lat="45.4610788" lon="11.5670715"><ele>286.0</ele><time>2026-04-03T17:51:14.695Z</time></trkpt><trkpt lat="45.4610261" lon="11.567215"><ele>282.0</ele><time>2026-04-03T17:51:16.703Z</time></trkpt><trkpt lat="45.460912" lon="11.5674676"><ele>278.0</ele><time>2026-04-03T17:51:20.698Z</time></trkpt><trkpt lat="45.4608527" lon="11.5675729"><ele>274.0</ele><time>2026-04-03T17:51:22.693Z</time></trkpt><trkpt lat="45.4608147" lon="11.5676599"><ele>270.0</ele><time>2026-04-03T17:51:24.701Z</time></trkpt><trkpt lat="45.4607472" lon="11.5677617"><ele>271.2</ele><time>2026-04-03T17:51:26.704Z</time></trkpt><trkpt lat="45.4606611" lon="11.5678764"><ele>272.4</ele><time>2026-04-03T17:51:28.705Z</time></trkpt><trkpt lat="45.4605831" lon="11.5679757"><ele>273.6</ele><time>2026-04-03T17:51:30.706Z</time></trkpt><trkpt lat="45.4605091" lon="11.5680564"><ele>274.8</ele><time>2026-04-03T17:51:32.701Z</time></trkpt><trkpt lat="45.460438" lon="11.5681437"><ele>276.0</ele><time>2026-04-03T17:51:34.697Z</time></trkpt><trkpt lat="45.4603709" lon="11.5682331"><ele>269.0</ele><time>2026-04-03T17:51:36.694Z</time></trkpt><trkpt lat="45.4603013" lon="11.5683279"><ele>262.0</ele><time>2026-04-03T17:51:38.699Z</time></trkpt><trkpt lat="45.4601689" lon="11.5685311"><ele>255.0</ele><time>2026-04-03T17:51:42.706Z</time></trkpt><trkpt lat="45.4601079" lon="11.5686511"><ele>248.0</ele><time>2026-04-03T17:51:44.705Z</time></trkpt><trkpt lat="45.4600296" lon="11.5687538"><ele>248.0</ele><time>2026-04-03T17:51:46.704Z</time></trkpt><trkpt lat="45.4599292" lon="11.5687661"><ele>248.0</ele><time>2026-04-03T17:51:48.697Z</time></trkpt><trkpt lat="45.4598354" lon="11.568761"><ele>248.0</ele><time>2026-04-03T17:51:50.7Z</time></trkpt><trkpt lat="45.4597409" lon="11.5688369"><ele>248.0</ele><time>2026-04-03T17:51:52.699Z</time></trkpt><trkpt lat="45.4596857" lon="11.5689656"><ele>248.0</ele><time>2026-04-03T17:51:54.7Z</time></trkpt><trkpt lat="45.4596434" lon="11.5691361"><ele>243.2</ele><time>2026-04-03T17:51:56.704Z</time></trkpt><trkpt lat="45.4595663" lon="11.5692515"><ele>238.4</ele><time>2026-04-03T17:51:58.712Z</time></trkpt><trkpt lat="45.4594799" lon="11.5692923"><ele>233.59999999999997</ele><time>2026-04-03T17:52:00.702Z</time></trkpt><trkpt lat="45.4593419" lon="11.5693781"><ele>228.79999999999998</ele><time>2026-04-03T17:52:04.723Z</time></trkpt><trkpt lat="45.4592844" lon="11.5694596"><ele>224.0</ele><time>2026-04-03T17:52:06.709Z</time></trkpt><trkpt lat="45.4592479" lon="11.5695548"><ele>222.14285714285714</ele><time>2026-04-03T17:52:08.705Z</time></trkpt><trkpt lat="45.4592436" lon="11.5696806"><ele>220.28571428571428</ele><time>2026-04-03T17:52:10.706Z</time></trkpt><trkpt lat="45.4592357" lon="11.5697902"><ele>218.42857142857144</ele><time>2026-04-03T17:52:12.708Z</time></trkpt><trkpt lat="45.4592437" lon="11.5698846"><ele>216.57142857142856</ele><time>2026-04-03T17:52:14.709Z</time></trkpt><trkpt lat="45.4592567" lon="11.5699962"><ele>214.71428571428572</ele><time>2026-04-03T17:52:16.707Z</time></trkpt><trkpt lat="45.4592655" lon="11.570092"><ele>212.85714285714286</ele><time>2026-04-03T17:52:18.706Z</time></trkpt><trkpt lat="45.4592823" lon="11.5701821"><ele>211.0</ele><time>2026-04-03T17:52:20.709Z</time></trkpt><trkpt lat="45.4593" lon="11.5702744"><ele>209.5</ele><time>2026-04-03T17:52:22.714Z</time></trkpt><trkpt lat="45.4592816" lon="11.5704881"><ele>208.0</ele><time>2026-04-03T17:52:27.705Z</time></trkpt><trkpt lat="45.45925" lon="11.5705682"><ele>206.5</ele><time>2026-04-03T17:52:30.697Z</time></trkpt><trkpt lat="45.4591876" lon="11.5706049"><ele>205.0</ele><time>2026-04-03T17:53:20.697Z</time></trkpt><trkpt lat="45.4590059" lon="11.5707434"><ele>205.0</ele><time>2026-04-03T17:53:24.68Z</time></trkpt><trkpt lat="45.4589016" lon="11.5707936"><ele>205.0</ele><time>2026-04-03T17:53:26.698Z</time></trkpt><trkpt lat="45.4587988" lon="11.5708267"><ele>205.0</ele><time>2026-04-03T17:53:28.7Z</time></trkpt><trkpt lat="45.4586961" lon="11.5708545"><ele>205.0</ele><time>2026-04-03T17:53:30.701Z</time></trkpt><trkpt lat="45.4586108" lon="11.5709045"><ele>205.0</ele><time>2026-04-03T17:53:32.696Z</time></trkpt><trkpt lat="45.4585087" lon="11.5709665"><ele>201.75</ele><time>2026-04-03T17:53:34.693Z</time></trkpt><trkpt lat="45.4584083" lon="11.5710329"><ele>198.5</ele><time>2026-04-03T17:53:36.7Z</time></trkpt><trkpt lat="45.4583149" lon="11.5711179"><ele>195.25</ele><time>2026-04-03T17:53:38.698Z</time></trkpt><trkpt lat="45.4582359" lon="11.5712069"><ele>192.0</ele><time>2026-04-03T17:53:40.692Z</time></trkpt><trkpt lat="45.4580699" lon="11.5712891"><ele>192.0</ele><time>2026-04-03T17:53:44.694Z</time></trkpt><trkpt lat="45.4579837" lon="11.571339"><ele>192.0</ele><time>2026-04-03T17:53:46.696Z</time></trkpt><trkpt lat="45.4578959" lon="11.5713793"><ele>192.0</ele><time>2026-04-03T17:53:48.696Z</time></trkpt><trkpt lat="45.4578111" lon="11.5714147"><ele>192.0</ele><time>2026-04-03T17:53:50.701Z</time></trkpt><trkpt lat="45.4577285" lon="11.5714499"><ele>192.0</ele><time>2026-04-03T17:54:04.696Z</time></trkpt><trkpt lat="45.4575768" lon="11.5716775"><ele>186.0</ele><time>2026-04-03T17:54:08.705Z</time></trkpt><trkpt lat="45.4575055" lon="11.57183"><ele>180.0</ele><time>2026-04-03T17:54:10.696Z</time></trkpt><trkpt lat="45.457469" lon="11.5719037"><ele>174.0</ele><time>2026-04-03T17:54:11.694Z</time></trkpt><trkpt lat="45.4573945" lon="11.5720489"><ele>168.0</ele><time>2026-04-03T17:54:13.696Z</time></trkpt><trkpt lat="45.4573574" lon="11.5721273"><ele>162.0</ele><time>2026-04-03T17:54:14.701Z</time></trkpt><trkpt lat="45.4573158" lon="11.5722141"><ele>162.0</ele><time>2026-04-03T17:54:15.701Z</time></trkpt><trkpt lat="45.4572775" lon="11.5723125"><ele>162.0</ele><time>2026-04-03T17:54:16.697Z</time></trkpt><trkpt lat="45.4572379" lon="11.5724166"><ele>162.0</ele><time>2026-04-03T17:54:17.701Z</time></trkpt><trkpt lat="45.4571956" lon="11.5725226"><ele>162.0</ele><time>2026-04-03T17:54:18.697Z</time></trkpt><trkpt lat="45.4571488" lon="11.5726375"><ele>162.0</ele><time>2026-04-03T17:54:19.695Z</time></trkpt><trkpt lat="45.4570976" lon="11.5727459"><ele>162.0</ele><time>2026-04-03T17:54:20.7Z</time></trkpt><trkpt lat="45.4570383" lon="11.5728463"><ele>158.6</ele><time>2026-04-03T17:54:21.695Z</time></trkpt><trkpt lat="45.4569819" lon="11.5729521"><ele>155.2</ele><time>2026-04-03T17:54:22.694Z</time></trkpt><trkpt lat="45.4569351" lon="11.5730646"><ele>151.8</ele><time>2026-04-03T17:54:23.699Z</time></trkpt><trkpt lat="45.4568967" lon="11.5731866"><ele>148.4</ele><time>2026-04-03T17:54:24.699Z</time></trkpt><trkpt lat="45.4568631" lon="11.5733124"><ele>145.0</ele><time>2026-04-03T17:54:25.692Z</time></trkpt><trkpt lat="45.4568055" lon="11.5735803"><ele>143.2</ele><time>2026-04-03T17:54:27.695Z</time></trkpt><trkpt lat="45.4567849" lon="11.5737155"><ele>141.4</ele><time>2026-04-03T17:54:28.703Z</time></trkpt><trkpt lat="45.4567714" lon="11.5738487"><ele>139.6</ele><time>2026-04-03T17:54:29.699Z</time></trkpt><trkpt lat="45.4567639" lon="11.573983"><ele>137.8</ele><time>2026-04-03T17:54:30.694Z</time></trkpt><trkpt lat="45.456765" lon="11.5741204"><ele>136.0</ele><time>2026-04-03T17:54:31.705Z</time></trkpt><trkpt lat="45.456768" lon="11.5742591"><ele>136.0</ele><time>2026-04-03T17:54:32.696Z</time></trkpt><trkpt lat="45.4567725" lon="11.5743894"><ele>136.0</ele><time>2026-04-03T17:54:33.697Z</time></trkpt><trkpt lat="45.4567762" lon="11.574519"><ele>136.0</ele><time>2026-04-03T17:54:34.698Z</time></trkpt><trkpt lat="45.4567847" lon="11.574652"><ele>136.0</ele><time>2026-04-03T17:54:35.693Z</time></trkpt><trkpt lat="45.4567998" lon="11.5747864"><ele>136.0</ele><time>2026-04-03T17:54:36.69Z</time></trkpt><trkpt lat="45.4568133" lon="11.5749247"><ele>132.6</ele><time>2026-04-03T17:54:37.688Z</time></trkpt><trkpt lat="45.4568303" lon="11.5750674"><ele>129.2</ele><time>2026-04-03T17:54:38.694Z</time></trkpt><trkpt lat="45.4568459" lon="11.5752122"><ele>125.80000000000001</ele><time>2026-04-03T17:54:39.708Z</time></trkpt><trkpt lat="45.4568597" lon="11.5753491"><ele>122.4</ele><time>2026-04-03T17:54:40.698Z</time></trkpt><trkpt lat="45.4568658" lon="11.5754791"><ele>119.0</ele><time>2026-04-03T17:54:41.703Z</time></trkpt><trkpt lat="45.4568728" lon="11.5755942"><ele>115.80000000000001</ele><time>2026-04-03T17:54:42.702Z</time></trkpt><trkpt lat="45.4568876" lon="11.5757068"><ele>112.60000000000001</ele><time>2026-04-03T17:54:43.706Z</time></trkpt><trkpt lat="45.456911" lon="11.5758186"><ele>109.4</ele><time>2026-04-03T17:54:44.696Z</time></trkpt><trkpt lat="45.4569455" lon="11.5759239"><ele>106.2</ele><time>2026-04-03T17:54:45.7Z</time></trkpt><trkpt lat="45.4569861" lon="11.5760317"><ele>103.0</ele><time>2026-04-03T17:54:46.7Z</time></trkpt><trkpt lat="45.4570686" lon="11.5762724"><ele>105.0</ele><time>2026-04-03T17:54:48.7Z</time></trkpt><trkpt lat="45.4571111" lon="11.576403"><ele>107.0</ele><time>2026-04-03T17:54:49.694Z</time></trkpt><trkpt lat="45.4571581" lon="11.5765389"><ele>109.00000000000001</ele><time>2026-04-03T17:54:50.69Z</time></trkpt><trkpt lat="45.4572001" lon="11.5766822"><ele>111.0</ele><time>2026-04-03T17:54:51.699Z</time></trkpt><trkpt lat="45.4572258" lon="11.576825"><ele>113.0</ele><time>2026-04-03T17:54:52.701Z</time></trkpt><trkpt lat="45.4572467" lon="11.5769737"><ele>108.2</ele><time>2026-04-03T17:54:53.704Z</time></trkpt><trkpt lat="45.4572672" lon="11.577113"><ele>103.4</ele><time>2026-04-03T17:54:54.7Z</time></trkpt><trkpt lat="45.4572838" lon="11.5772521"><ele>98.60000000000001</ele><time>2026-04-03T17:54:55.707Z</time></trkpt><trkpt lat="45.4572974" lon="11.5773874"><ele>93.80000000000001</ele><time>2026-04-03T17:54:56.701Z</time></trkpt><trkpt lat="45.4573168" lon="11.5775253"><ele>89.0</ele><time>2026-04-03T17:54:57.701Z</time></trkpt><trkpt lat="45.4573451" lon="11.5776664"><ele>89.0</ele><time>2026-04-03T17:54:58.709Z</time></trkpt><trkpt lat="45.4573797" lon="11.5777976"><ele>89.0</ele><time>2026-04-03T17:54:59.699Z</time></trkpt><trkpt lat="45.4574262" lon="11.5779242"><ele>89.0</ele><time>2026-04-03T17:55:00.707Z</time></trkpt><trkpt lat="45.4574792" lon="11.5780435"><ele>89.0</ele><time>2026-04-03T17:55:01.713Z</time></trkpt><trkpt lat="45.4575401" lon="11.578162"><ele>89.0</ele><time>2026-04-03T17:55:02.7Z</time></trkpt><trkpt lat="45.4576021" lon="11.5782803"><ele>84.0</ele><time>2026-04-03T17:55:03.702Z</time></trkpt><trkpt lat="45.4576662" lon="11.5783922"><ele>79.0</ele><time>2026-04-03T17:55:04.695Z</time></trkpt><trkpt lat="45.4577335" lon="11.5785004"><ele>74.0</ele><time>2026-04-03T17:55:05.697Z</time></trkpt><trkpt lat="45.4577985" lon="11.5786052"><ele>69.0</ele><time>2026-04-03T17:55:06.705Z</time></trkpt><trkpt lat="45.4578652" lon="11.5787188"><ele>64.0</ele><time>2026-04-03T17:55:07.703Z</time></trkpt><trkpt lat="45.4579887" lon="11.5789315"><ele>63.71428571428571</ele><time>2026-04-03T17:55:09.697Z</time></trkpt><trkpt lat="45.4580343" lon="11.5790196"><ele>63.42857142857142</ele><time>2026-04-03T17:55:10.708Z</time></trkpt><trkpt lat="45.4580595" lon="11.5791074"><ele>63.14285714285714</ele><time>2026-04-03T17:55:11.697Z</time></trkpt><trkpt lat="45.4580553" lon="11.5792044"><ele>62.85714285714286</ele><time>2026-04-03T17:55:12.702Z</time></trkpt><trkpt lat="45.4580265" lon="11.5792994"><ele>62.57142857142858</ele><time>2026-04-03T17:55:13.697Z</time></trkpt><trkpt lat="45.4579876" lon="11.5793951"><ele>62.28571428571429</ele><time>2026-04-03T17:55:14.699Z</time></trkpt><trkpt lat="45.4579509" lon="11.5794963"><ele>62.0</ele><time>2026-04-03T17:55:15.707Z</time></trkpt><trkpt lat="45.4579285" lon="11.5796003"><ele>60.0</ele><time>2026-04-03T17:55:16.709Z</time></trkpt><trkpt lat="45.4579262" lon="11.5797006"><ele>58.00000000000001</ele><time>2026-04-03T17:55:17.705Z</time></trkpt><trkpt lat="45.4579417" lon="11.5797984"><ele>56.0</ele><time>2026-04-03T17:55:18.709Z</time></trkpt><trkpt lat="45.4579681" lon="11.5798983"><ele>54.0</ele><time>2026-04-03T17:55:19.705Z</time></trkpt><trkpt lat="45.4579971" lon="11.5799963"><ele>52.0</ele><time>2026-04-03T17:55:20.708Z</time></trkpt><trkpt lat="45.4580237" lon="11.5800916"><ele>50.0</ele><time>2026-04-03T17:55:21.699Z</time></trkpt><trkpt lat="45.4580451" lon="11.5801776"><ele>48.0</ele><time>2026-04-03T17:55:22.701Z</time></trkpt><trkpt lat="45.4580693" lon="11.5803281"><ele>46.8</ele><time>2026-04-03T17:55:24.7Z</time></trkpt><trkpt lat="45.4580639" lon="11.5804193"><ele>45.599999999999994</ele><time>2026-04-03T17:55:25.707Z</time></trkpt><trkpt lat="45.4580598" lon="11.5805206"><ele>44.400000000000006</ele><time>2026-04-03T17:55:26.707Z</time></trkpt><trkpt lat="45.4580595" lon="11.5806337"><ele>43.2</ele><time>2026-04-03T17:55:27.714Z</time></trkpt><trkpt lat="45.4580612" lon="11.5807495"><ele>42.0</ele><time>2026-04-03T17:55:28.71Z</time></trkpt><trkpt lat="45.4580602" lon="11.5810073"><ele>42.0</ele><time>2026-04-03T17:55:30.71Z</time></trkpt><trkpt lat="45.4580691" lon="11.58113"><ele>42.0</ele><time>2026-04-03T17:55:31.717Z</time></trkpt><trkpt lat="45.4580765" lon="11.5812404"><ele>42.0</ele><time>2026-04-03T17:55:32.709Z</time></trkpt><trkpt lat="45.4580822" lon="11.5813473"><ele>42.0</ele><time>2026-04-03T17:55:33.708Z</time></trkpt><trkpt lat="45.4580889" lon="11.5814533"><ele>42.0</ele><time>2026-04-03T17:55:34.708Z</time></trkpt><trkpt lat="45.4580941" lon="11.5815628"><ele>42.0</ele><time>2026-04-03T17:55:35.707Z</time></trkpt><trkpt lat="45.458099" lon="11.5816717"><ele>41.833333333333336</ele><time>2026-04-03T17:55:36.71Z</time></trkpt><trkpt lat="45.4581068" lon="11.58178"><ele>41.666666666666664</ele><time>2026-04-03T17:55:37.703Z</time></trkpt><trkpt lat="45.4581159" lon="11.5818887"><ele>41.5</ele><time>2026-04-03T17:55:38.705Z</time></trkpt><trkpt lat="45.4581277" lon="11.5820024"><ele>41.33333333333333</ele><time>2026-04-03T17:55:39.702Z</time></trkpt><trkpt lat="45.4581408" lon="11.582121"><ele>41.166666666666664</ele><time>2026-04-03T17:55:40.696Z</time></trkpt><trkpt lat="45.4581514" lon="11.5822409"><ele>41.0</ele><time>2026-04-03T17:55:41.708Z</time></trkpt><trkpt lat="45.4581638" lon="11.5823601"><ele>40.5</ele><time>2026-04-03T17:55:42.703Z</time></trkpt><trkpt lat="45.458171" lon="11.5824769"><ele>40.0</ele><time>2026-04-03T17:55:43.705Z</time></trkpt><trkpt lat="45.4581809" lon="11.5825917"><ele>39.5</ele><time>2026-04-03T17:55:44.704Z</time></trkpt><trkpt lat="45.4581881" lon="11.5827099"><ele>39.0</ele><time>2026-04-03T17:55:45.705Z</time></trkpt><trkpt lat="45.4581937" lon="11.5828281"><ele>38.5</ele><time>2026-04-03T17:55:46.705Z</time></trkpt><trkpt lat="45.4581971" lon="11.5829502"><ele>38.0</ele><time>2026-04-03T17:55:47.708Z</time></trkpt><trkpt lat="45.4582002" lon="11.5830717"><ele>37.33333333333333</ele><time>2026-04-03T17:55:48.71Z</time></trkpt><trkpt lat="45.4582031" lon="11.5831907"><ele>36.666666666666664</ele><time>2026-04-03T17:55:49.709Z</time></trkpt><trkpt lat="45.458219" lon="11.5833996"><ele>36.0</ele><time>2026-04-03T17:55:51.706Z</time></trkpt><trkpt lat="45.4582449" lon="11.5834879"><ele>35.333333333333336</ele><time>2026-04-03T17:55:52.712Z</time></trkpt><trkpt lat="45.4582974" lon="11.583544"><ele>34.66666666666667</ele><time>2026-04-03T17:55:53.708Z</time></trkpt><trkpt lat="45.4583773" lon="11.5835612"><ele>34.0</ele><time>2026-04-03T17:55:54.705Z</time></trkpt><trkpt lat="45.4584687" lon="11.5835575"><ele>34.0</ele><time>2026-04-03T17:55:55.703Z</time></trkpt><trkpt lat="45.458557" lon="11.5835466"><ele>34.0</ele><time>2026-04-03T17:55:56.703Z</time></trkpt><trkpt lat="45.4586416" lon="11.5835399"><ele>34.0</ele><time>2026-04-03T17:55:57.705Z</time></trkpt><trkpt lat="45.4587299" lon="11.5835394"><ele>34.0</ele><time>2026-04-03T17:55:58.705Z</time></trkpt><trkpt lat="45.4588171" lon="11.5835447"><ele>34.0</ele><time>2026-04-03T17:55:59.707Z</time></trkpt><trkpt lat="45.4588986" lon="11.5835549"><ele>34.0</ele><time>2026-04-03T17:56:00.721Z</time></trkpt><trkpt lat="45.4589702" lon="11.5835656"><ele>35.5</ele><time>2026-04-03T17:56:01.715Z</time></trkpt><trkpt lat="45.4590341" lon="11.5835729"><ele>37.0</ele><time>2026-04-03T17:56:02.704Z</time></trkpt><trkpt lat="45.4591119" lon="11.5835924"><ele>38.5</ele><time>2026-04-03T17:56:04.703Z</time></trkpt><trkpt lat="45.4591569" lon="11.5836791"><ele>40.0</ele><time>2026-04-03T17:56:06.7Z</time></trkpt><trkpt lat="45.4591877" lon="11.5838547"><ele>41.5</ele><time>2026-04-03T17:56:08.703Z</time></trkpt><trkpt lat="45.4592137" lon="11.5839732"><ele>43.0</ele><time>2026-04-03T17:56:09.703Z</time></trkpt><trkpt lat="45.4592432" lon="11.5840953"><ele>43.0</ele><time>2026-04-03T17:56:10.711Z</time></trkpt><trkpt lat="45.4592958" lon="11.5843449"><ele>43.0</ele><time>2026-04-03T17:56:12.716Z</time></trkpt><trkpt lat="45.4593204" lon="11.5844711"><ele>43.0</ele><time>2026-04-03T17:56:13.706Z</time></trkpt><trkpt lat="45.4593451" lon="11.5846002"><ele>43.0</ele><time>2026-04-03T17:56:14.708Z</time></trkpt><trkpt lat="45.4593699" lon="11.5847287"><ele>41.8</ele><time>2026-04-03T17:56:15.704Z</time></trkpt><trkpt lat="45.4593959" lon="11.5848619"><ele>40.599999999999994</ele><time>2026-04-03T17:56:16.702Z</time></trkpt><trkpt lat="45.4594229" lon="11.5850023"><ele>39.400000000000006</ele><time>2026-04-03T17:56:17.703Z</time></trkpt><trkpt lat="45.4594502" lon="11.585139"><ele>38.2</ele><time>2026-04-03T17:56:18.699Z</time></trkpt><trkpt lat="45.4594842" lon="11.5852801"><ele>37.0</ele><time>2026-04-03T17:56:19.701Z</time></trkpt><trkpt lat="45.4595154" lon="11.5854173"><ele>35.800000000000004</ele><time>2026-04-03T17:56:20.706Z</time></trkpt><trkpt lat="45.4595463" lon="11.5855545"><ele>34.6</ele><time>2026-04-03T17:56:21.707Z</time></trkpt><trkpt lat="45.4595769" lon="11.5856849"><ele>33.400000000000006</ele><time>2026-04-03T17:56:22.703Z</time></trkpt><trkpt lat="45.4596009" lon="11.5858115"><ele>32.2</ele><time>2026-04-03T17:56:23.709Z</time></trkpt><trkpt lat="45.4596219" lon="11.5859406"><ele>31.0</ele><time>2026-04-03T17:56:24.709Z</time></trkpt><trkpt lat="45.4596358" lon="11.5860755"><ele>32.833333333333336</ele><time>2026-04-03T17:56:25.709Z</time></trkpt><trkpt lat="45.4596441" lon="11.5862025"><ele>34.66666666666667</ele><time>2026-04-03T17:56:26.713Z</time></trkpt><trkpt lat="45.4596484" lon="11.5863201"><ele>36.5</ele><time>2026-04-03T17:56:27.71Z</time></trkpt><trkpt lat="45.4596512" lon="11.5864292"><ele>38.333333333333336</ele><time>2026-04-03T17:56:28.714Z</time></trkpt><trkpt lat="45.4596557" lon="11.5865318"><ele>40.166666666666664</ele><time>2026-04-03T17:56:29.711Z</time></trkpt><trkpt lat="45.459659" lon="11.5866253"><ele>42.0</ele><time>2026-04-03T17:56:30.708Z</time></trkpt><trkpt lat="45.4596695" lon="11.5867742"><ele>42.0</ele><time>2026-04-03T17:56:32.705Z</time></trkpt><trkpt lat="45.4596497" lon="11.5869583"><ele>42.0</ele><time>2026-04-03T19:21:48.721Z</time></trkpt><trkpt lat="45.4597229" lon="11.5872085"><ele>42.0</ele><time>2026-04-03T19:22:44.725Z</time></trkpt><trkpt lat="45.4597381" lon="11.5873387"><ele>42.0</ele><time>2026-04-03T19:22:47.729Z</time></trkpt><trkpt lat="45.4597564" lon="11.5872342"><ele>42.0</ele><time>2026-04-03T19:22:54.729Z</time></trkpt><trkpt lat="45.4597577" lon="11.5871337"><ele>42.0</ele><time>2026-04-03T19:22:57.731Z</time></trkpt><trkpt lat="45.4597336" lon="11.5870497"><ele>42.0</ele><time>2026-04-03T19:23:02.722Z</time></trkpt><trkpt lat="45.459659" lon="11.5868482"><ele>42.0</ele><time>2026-04-03T19:23:16.716Z</time></trkpt><trkpt lat="45.4596494" lon="11.5866864"><ele>42.0</ele><time>2026-04-03T19:23:18.719Z</time></trkpt><trkpt lat="45.459642" lon="11.5865907"><ele>42.0</ele><time>2026-04-03T19:23:19.731Z</time></trkpt><trkpt lat="45.4596382" lon="11.5864257"><ele>42.0</ele><time>2026-04-03T19:23:21.724Z</time></trkpt><trkpt lat="45.4596292" lon="11.5862972"><ele>42.0</ele><time>2026-04-03T19:23:23.724Z</time></trkpt><trkpt lat="45.4596144" lon="11.5860731"><ele>42.0</ele><time>2026-04-03T19:23:27.726Z</time></trkpt><trkpt lat="45.4596074" lon="11.5859413"><ele>41.166666666666664</ele><time>2026-04-03T19:23:29.727Z</time></trkpt><trkpt lat="45.4596033" lon="11.5858084"><ele>40.333333333333336</ele><time>2026-04-03T19:23:31.727Z</time></trkpt><trkpt lat="45.45959" lon="11.5856925"><ele>39.5</ele><time>2026-04-03T19:23:33.726Z</time></trkpt><trkpt lat="45.4595784" lon="11.5855955"><ele>38.66666666666667</ele><time>2026-04-03T19:23:35.731Z</time></trkpt><trkpt lat="45.4595487" lon="11.5854932"><ele>37.833333333333336</ele><time>2026-04-03T19:23:37.722Z</time></trkpt><trkpt lat="45.4595158" lon="11.5853734"><ele>37.0</ele><time>2026-04-03T19:23:39.724Z</time></trkpt><trkpt lat="45.4594857" lon="11.5852572"><ele>37.0</ele><time>2026-04-03T19:23:41.718Z</time></trkpt><trkpt lat="45.459454" lon="11.5851378"><ele>37.0</ele><time>2026-04-03T19:23:44.728Z</time></trkpt><trkpt lat="45.4594166" lon="11.5849161"><ele>37.0</ele><time>2026-04-03T19:23:49.721Z</time></trkpt><trkpt lat="45.4593804" lon="11.5847659"><ele>37.0</ele><time>2026-04-03T19:23:51.721Z</time></trkpt><trkpt lat="45.4593436" lon="11.5846013"><ele>37.0</ele><time>2026-04-03T19:23:53.725Z</time></trkpt><trkpt lat="45.4593217" lon="11.5845149"><ele>37.0</ele><time>2026-04-03T19:23:54.72Z</time></trkpt><trkpt lat="45.4592989" lon="11.5844262"><ele>37.0</ele><time>2026-04-03T19:23:55.722Z</time></trkpt><trkpt lat="45.4592762" lon="11.5843424"><ele>37.0</ele><time>2026-04-03T19:23:56.722Z</time></trkpt><trkpt lat="45.4592379" lon="11.5841714"><ele>37.0</ele><time>2026-04-03T19:23:58.732Z</time></trkpt><trkpt lat="45.459219" lon="11.5840835"><ele>37.0</ele><time>2026-04-03T19:23:59.728Z</time></trkpt><trkpt lat="45.4591982" lon="11.5839956"><ele>37.0</ele><time>2026-04-03T19:24:00.73Z</time></trkpt><trkpt lat="45.4591786" lon="11.5839088"><ele>38.5</ele><time>2026-04-03T19:24:01.727Z</time></trkpt><trkpt lat="45.4591537" lon="11.5838246"><ele>40.0</ele><time>2026-04-03T19:24:02.73Z</time></trkpt><trkpt lat="45.4591085" lon="11.5836595"><ele>41.5</ele><time>2026-04-03T19:24:04.723Z</time></trkpt><trkpt lat="45.4590563" lon="11.5835243"><ele>43.0</ele><time>2026-04-03T19:24:06.723Z</time></trkpt><trkpt lat="45.4588712" lon="11.583512"><ele>43.599999999999994</ele><time>2026-04-03T19:24:09.72Z</time></trkpt><trkpt lat="45.4587887" lon="11.5835114"><ele>44.199999999999996</ele><time>2026-04-03T19:24:10.719Z</time></trkpt><trkpt lat="45.4587117" lon="11.5835119"><ele>44.8</ele><time>2026-04-03T19:24:11.722Z</time></trkpt><trkpt lat="45.4586451" lon="11.5835088"><ele>45.4</ele><time>2026-04-03T19:24:12.721Z</time></trkpt><trkpt lat="45.458528" lon="11.5834993"><ele>46.0</ele><time>2026-04-03T19:24:14.72Z</time></trkpt><trkpt lat="45.4584027" lon="11.5834836"><ele>43.599999999999994</ele><time>2026-04-03T19:24:16.724Z</time></trkpt><trkpt lat="45.458296" lon="11.5834498"><ele>41.199999999999996</ele><time>2026-04-03T19:24:18.723Z</time></trkpt><trkpt lat="45.4582021" lon="11.5833533"><ele>38.8</ele><time>2026-04-03T19:24:20.723Z</time></trkpt><trkpt lat="45.4581777" lon="11.583171"><ele>36.4</ele><time>2026-04-03T19:24:22.723Z</time></trkpt><trkpt lat="45.4581781" lon="11.5830751"><ele>34.0</ele><time>2026-04-03T19:24:23.722Z</time></trkpt><trkpt lat="45.4581821" lon="11.5829807"><ele>35.0</ele><time>2026-04-03T19:24:24.721Z</time></trkpt><trkpt lat="45.4581819" lon="11.5828045"><ele>36.0</ele><time>2026-04-03T19:24:26.724Z</time></trkpt><trkpt lat="45.4581815" lon="11.5826378"><ele>37.0</ele><time>2026-04-03T19:24:28.733Z</time></trkpt><trkpt lat="45.4581776" lon="11.5823728"><ele>38.0</ele><time>2026-04-03T19:24:31.728Z</time></trkpt><trkpt lat="45.4581717" lon="11.5822809"><ele>38.0</ele><time>2026-04-03T19:24:32.722Z</time></trkpt><trkpt lat="45.4581666" lon="11.5821796"><ele>38.0</ele><time>2026-04-03T19:24:33.73Z</time></trkpt><trkpt lat="45.4581609" lon="11.5820792"><ele>38.0</ele><time>2026-04-03T19:24:34.725Z</time></trkpt><trkpt lat="45.4581495" lon="11.5819814"><ele>38.0</ele><time>2026-04-03T19:24:35.727Z</time></trkpt><trkpt lat="45.4581384" lon="11.581878"><ele>38.0</ele><time>2026-04-03T19:24:36.726Z</time></trkpt><trkpt lat="45.4581287" lon="11.5817659"><ele>38.0</ele><time>2026-04-03T19:24:37.723Z</time></trkpt><trkpt lat="45.4581156" lon="11.5816543"><ele>38.0</ele><time>2026-04-03T19:24:38.723Z</time></trkpt><trkpt lat="45.458105" lon="11.58153"><ele>38.75</ele><time>2026-04-03T19:24:39.718Z</time></trkpt><trkpt lat="45.4580938" lon="11.5813798"><ele>39.5</ele><time>2026-04-03T19:24:40.722Z</time></trkpt><trkpt lat="45.4580818" lon="11.5811934"><ele>40.25</ele><time>2026-04-03T19:24:41.718Z</time></trkpt><trkpt lat="45.45807" lon="11.5809545"><ele>41.0</ele><time>2026-04-03T19:24:42.72Z</time></trkpt><trkpt lat="45.4580595" lon="11.5807003"><ele>41.199999999999996</ele><time>2026-04-03T19:24:43.723Z</time></trkpt><trkpt lat="45.4580586" lon="11.5805102"><ele>41.4</ele><time>2026-04-03T19:24:44.719Z</time></trkpt><trkpt lat="45.4580646" lon="11.5803843"><ele>41.6</ele><time>2026-04-03T19:24:45.717Z</time></trkpt><trkpt lat="45.4580654" lon="11.5802404"><ele>41.8</ele><time>2026-04-03T19:24:47.718Z</time></trkpt><trkpt lat="45.4580371" lon="11.5801294"><ele>42.0</ele><time>2026-04-03T19:24:50.722Z</time></trkpt><trkpt lat="45.4579817" lon="11.5799241"><ele>42.833333333333336</ele><time>2026-04-03T19:24:54.715Z</time></trkpt><trkpt lat="45.4579621" lon="11.5798385"><ele>43.666666666666664</ele><time>2026-04-03T19:24:55.725Z</time></trkpt><trkpt lat="45.457941" lon="11.579747"><ele>44.5</ele><time>2026-04-03T19:24:56.715Z</time></trkpt><trkpt lat="45.4579145" lon="11.5795939"><ele>45.33333333333333</ele><time>2026-04-03T19:24:58.728Z</time></trkpt><trkpt lat="45.457908" lon="11.5794782"><ele>46.166666666666664</ele><time>2026-04-03T19:25:00.723Z</time></trkpt><trkpt lat="45.4579359" lon="11.5793977"><ele>47.0</ele><time>2026-04-03T19:25:03.72Z</time></trkpt><trkpt lat="45.4579694" lon="11.5792954"><ele>50.0</ele><time>2026-04-03T19:25:06.721Z</time></trkpt><trkpt lat="45.4580037" lon="11.5791187"><ele>53.0</ele><time>2026-04-03T19:25:08.718Z</time></trkpt><trkpt lat="45.4580129" lon="11.5790094"><ele>56.0</ele><time>2026-04-03T19:25:09.722Z</time></trkpt><trkpt lat="45.4580044" lon="11.5789059"><ele>59.0</ele><time>2026-04-03T19:25:10.718Z</time></trkpt><trkpt lat="45.4579744" lon="11.5788027"><ele>62.0</ele><time>2026-04-03T19:25:11.722Z</time></trkpt><trkpt lat="45.4578316" lon="11.5785454"><ele>62.5</ele><time>2026-04-03T19:25:13.716Z</time></trkpt><trkpt lat="45.4577381" lon="11.5784082"><ele>63.0</ele><time>2026-04-03T19:25:14.717Z</time></trkpt><trkpt lat="45.4576539" lon="11.5782792"><ele>63.5</ele><time>2026-04-03T19:25:15.71Z</time></trkpt><trkpt lat="45.4575778" lon="11.5781582"><ele>64.0</ele><time>2026-04-03T19:25:16.71Z</time></trkpt><trkpt lat="45.4573851" lon="11.5777677"><ele>69.0</ele><time>2026-04-03T19:25:19.727Z</time></trkpt><trkpt lat="45.4573308" lon="11.5776299"><ele>74.0</ele><time>2026-04-03T19:25:20.719Z</time></trkpt><trkpt lat="45.4572854" lon="11.5774943"><ele>79.0</ele><time>2026-04-03T19:25:21.719Z</time></trkpt><trkpt lat="45.4572512" lon="11.5773543"><ele>84.0</ele><time>2026-04-03T19:25:22.718Z</time></trkpt><trkpt lat="45.4572249" lon="11.5772162"><ele>89.0</ele><time>2026-04-03T19:25:23.715Z</time></trkpt><trkpt lat="45.4572058" lon="11.5770752"><ele>93.80000000000001</ele><time>2026-04-03T19:25:24.719Z</time></trkpt><trkpt lat="45.4571897" lon="11.5769313"><ele>98.60000000000001</ele><time>2026-04-03T19:25:25.718Z</time></trkpt><trkpt lat="45.4571768" lon="11.5767895"><ele>103.4</ele><time>2026-04-03T19:25:26.715Z</time></trkpt><trkpt lat="45.4571587" lon="11.5766646"><ele>108.2</ele><time>2026-04-03T19:25:27.725Z</time></trkpt><trkpt lat="45.4571423" lon="11.5765503"><ele>113.0</ele><time>2026-04-03T19:25:28.728Z</time></trkpt><trkpt lat="45.4571196" lon="11.5764341"><ele>110.5</ele><time>2026-04-03T19:25:29.719Z</time></trkpt><trkpt lat="45.45709" lon="11.5763138"><ele>108.0</ele><time>2026-04-03T19:25:30.72Z</time></trkpt><trkpt lat="45.4570526" lon="11.5761901"><ele>105.5</ele><time>2026-04-03T19:25:31.721Z</time></trkpt><trkpt lat="45.4570121" lon="11.5760635"><ele>103.0</ele><time>2026-04-03T19:25:32.707Z</time></trkpt><trkpt lat="45.4569471" lon="11.57583"><ele>103.00000000000001</ele><time>2026-04-03T19:25:34.717Z</time></trkpt><trkpt lat="45.4569162" lon="11.5757181"><ele>103.0</ele><time>2026-04-03T19:25:35.72Z</time></trkpt><trkpt lat="45.4568934" lon="11.5756154"><ele>103.0</ele><time>2026-04-03T19:25:36.719Z</time></trkpt><trkpt lat="45.4568762" lon="11.5755237"><ele>103.0</ele><time>2026-04-03T19:25:37.717Z</time></trkpt><trkpt lat="45.4568647" lon="11.5754283"><ele>103.00000000000001</ele><time>2026-04-03T19:25:38.721Z</time></trkpt><trkpt lat="45.4568564" lon="11.5753145"><ele>103.0</ele><time>2026-04-03T19:25:39.72Z</time></trkpt><trkpt lat="45.4568509" lon="11.5751765"><ele>106.2</ele><time>2026-04-03T19:25:40.722Z</time></trkpt><trkpt lat="45.4568449" lon="11.5750358"><ele>109.4</ele><time>2026-04-03T19:25:41.715Z</time></trkpt><trkpt lat="45.4568324" lon="11.5748937"><ele>112.60000000000001</ele><time>2026-04-03T19:25:42.712Z</time></trkpt><trkpt lat="45.4568199" lon="11.5747465"><ele>115.80000000000001</ele><time>2026-04-03T19:25:43.717Z</time></trkpt><trkpt lat="45.4568126" lon="11.5746002"><ele>119.0</ele><time>2026-04-03T19:25:44.71Z</time></trkpt><trkpt lat="45.4568054" lon="11.574451"><ele>122.4</ele><time>2026-04-03T19:25:45.718Z</time></trkpt><trkpt lat="45.456807" lon="11.5743119"><ele>125.80000000000001</ele><time>2026-04-03T19:25:46.708Z</time></trkpt><trkpt lat="45.4568082" lon="11.5741637"><ele>129.2</ele><time>2026-04-03T19:25:47.708Z</time></trkpt><trkpt lat="45.456817" lon="11.5740256"><ele>132.6</ele><time>2026-04-03T19:25:48.712Z</time></trkpt><trkpt lat="45.4568337" lon="11.5739019"><ele>136.0</ele><time>2026-04-03T19:25:49.708Z</time></trkpt><trkpt lat="45.4568467" lon="11.5737782"><ele>138.25</ele><time>2026-04-03T19:25:50.714Z</time></trkpt><trkpt lat="45.4568606" lon="11.5736506"><ele>140.5</ele><time>2026-04-03T19:25:51.705Z</time></trkpt><trkpt lat="45.4568808" lon="11.5735203"><ele>142.75</ele><time>2026-04-03T19:25:52.71Z</time></trkpt><trkpt lat="45.4569096" lon="11.5733828"><ele>145.0</ele><time>2026-04-03T19:25:53.707Z</time></trkpt><trkpt lat="45.4569911" lon="11.5730764"><ele>145.0</ele><time>2026-04-03T19:25:55.706Z</time></trkpt><trkpt lat="45.457036" lon="11.5729264"><ele>145.0</ele><time>2026-04-03T19:25:56.704Z</time></trkpt><trkpt lat="45.4570748" lon="11.5728052"><ele>145.0</ele><time>2026-04-03T19:25:57.699Z</time></trkpt><trkpt lat="45.4571188" lon="11.5727094"><ele>145.0</ele><time>2026-04-03T19:25:58.71Z</time></trkpt><trkpt lat="45.4571796" lon="11.5726256"><ele>145.0</ele><time>2026-04-03T19:25:59.703Z</time></trkpt><trkpt lat="45.4572489" lon="11.5725312"><ele>147.4</ele><time>2026-04-03T19:26:00.701Z</time></trkpt><trkpt lat="45.4573124" lon="11.5724139"><ele>149.8</ele><time>2026-04-03T19:26:01.7Z</time></trkpt><trkpt lat="45.4573685" lon="11.5722902"><ele>152.2</ele><time>2026-04-03T19:26:02.701Z</time></trkpt><trkpt lat="45.4574078" lon="11.5721692"><ele>154.6</ele><time>2026-04-03T19:26:03.702Z</time></trkpt><trkpt lat="45.4574361" lon="11.572067"><ele>157.0</ele><time>2026-04-03T19:26:04.701Z</time></trkpt><trkpt lat="45.4575049" lon="11.5719344"><ele>157.0</ele><time>2026-04-03T19:26:06.702Z</time></trkpt><trkpt lat="45.4575843" lon="11.5718047"><ele>157.0</ele><time>2026-04-03T19:26:08.706Z</time></trkpt><trkpt lat="45.4576253" lon="11.5717308"><ele>157.0</ele><time>2026-04-03T19:26:09.71Z</time></trkpt><trkpt lat="45.4576662" lon="11.5716525"><ele>157.0</ele><time>2026-04-03T19:26:10.707Z</time></trkpt><trkpt lat="45.4577054" lon="11.571572"><ele>157.0</ele><time>2026-04-03T19:26:11.703Z</time></trkpt><trkpt lat="45.4577427" lon="11.5714899"><ele>157.0</ele><time>2026-04-03T19:26:12.708Z</time></trkpt><trkpt lat="45.4577809" lon="11.5714171"><ele>168.66666666666669</ele><time>2026-04-03T19:26:13.707Z</time></trkpt><trkpt lat="45.4579645" lon="11.5713045"><ele>180.33333333333334</ele><time>2026-04-03T19:26:17.706Z</time></trkpt><trkpt lat="45.4580269" lon="11.5712749"><ele>192.0</ele><time>2026-04-03T19:26:35.709Z</time></trkpt><trkpt lat="45.4582116" lon="11.5712228"><ele>188.8</ele><time>2026-04-03T19:26:40.715Z</time></trkpt><trkpt lat="45.4583059" lon="11.5711614"><ele>185.6</ele><time>2026-04-03T19:26:42.706Z</time></trkpt><trkpt lat="45.4583949" lon="11.5710904"><ele>182.4</ele><time>2026-04-03T19:26:44.707Z</time></trkpt><trkpt lat="45.4585027" lon="11.5710313"><ele>179.20000000000002</ele><time>2026-04-03T19:26:46.703Z</time></trkpt><trkpt lat="45.4586101" lon="11.5709807"><ele>176.0</ele><time>2026-04-03T19:26:48.706Z</time></trkpt><trkpt lat="45.4587016" lon="11.5709433"><ele>183.25</ele><time>2026-04-03T19:26:50.703Z</time></trkpt><trkpt lat="45.4587904" lon="11.5709048"><ele>190.5</ele><time>2026-04-03T19:26:52.705Z</time></trkpt><trkpt lat="45.4588749" lon="11.570866"><ele>197.75</ele><time>2026-04-03T19:26:54.707Z</time></trkpt><trkpt lat="45.4589674" lon="11.5708316"><ele>205.0</ele><time>2026-04-03T19:26:56.706Z</time></trkpt><trkpt lat="45.4591574" lon="11.570736"><ele>205.0</ele><time>2026-04-03T19:27:00.705Z</time></trkpt><trkpt lat="45.4592305" lon="11.570667"><ele>205.0</ele><time>2026-04-03T19:27:02.699Z</time></trkpt><trkpt lat="45.4591759" lon="11.5707594"><ele>205.0</ele><time>2026-04-03T19:27:42.698Z</time></trkpt><trkpt lat="45.4590962" lon="11.5709189"><ele>205.0</ele><time>2026-04-03T19:27:44.693Z</time></trkpt><trkpt lat="45.4590696" lon="11.5710385"><ele>205.0</ele><time>2026-04-03T19:27:46.697Z</time></trkpt><trkpt lat="45.4590062" lon="11.5711733"><ele>202.83333333333331</ele><time>2026-04-03T19:27:48.707Z</time></trkpt><trkpt lat="45.458932" lon="11.5713216"><ele>200.66666666666666</ele><time>2026-04-03T19:27:50.705Z</time></trkpt><trkpt lat="45.4588374" lon="11.5714121"><ele>198.5</ele><time>2026-04-03T19:27:52.71Z</time></trkpt><trkpt lat="45.4587879" lon="11.571479"><ele>196.33333333333331</ele><time>2026-04-03T19:27:54.709Z</time></trkpt><trkpt lat="45.4587382" lon="11.5715363"><ele>194.16666666666666</ele><time>2026-04-03T19:27:56.705Z</time></trkpt><trkpt lat="45.4586916" lon="11.5716192"><ele>192.0</ele><time>2026-04-03T19:27:58.717Z</time></trkpt><trkpt lat="45.4586369" lon="11.5717281"><ele>192.0</ele><time>2026-04-03T19:28:01.707Z</time></trkpt><trkpt lat="45.4585936" lon="11.571859"><ele>192.0</ele><time>2026-04-03T19:28:03.707Z</time></trkpt><trkpt lat="45.4585563" lon="11.572095"><ele>192.0</ele><time>2026-04-03T19:28:07.708Z</time></trkpt><trkpt lat="45.4585384" lon="11.5722003"><ele>192.0</ele><time>2026-04-03T19:28:10.707Z</time></trkpt><trkpt lat="45.4585163" lon="11.5723259"><ele>192.0</ele><time>2026-04-03T19:28:13.721Z</time></trkpt><trkpt lat="45.4585231" lon="11.5724275"><ele>195.39999999999998</ele><time>2026-04-03T19:28:15.714Z</time></trkpt><trkpt lat="45.4585355" lon="11.5725427"><ele>198.79999999999998</ele><time>2026-04-03T19:28:17.721Z</time></trkpt><trkpt lat="45.4586053" lon="11.5726352"><ele>202.2</ele><time>2026-04-03T19:28:20.727Z</time></trkpt><trkpt lat="45.4586747" lon="11.5726841"><ele>205.6</ele><time>2026-04-03T19:28:22.712Z</time></trkpt><trkpt lat="45.4587608" lon="11.5727147"><ele>209.0</ele><time>2026-04-03T19:28:24.718Z</time></trkpt><trkpt lat="45.4588951" lon="11.5728033"><ele>211.50000000000003</ele><time>2026-04-03T19:28:28.723Z</time></trkpt><trkpt lat="45.458943" lon="11.572886"><ele>214.0</ele><time>2026-04-03T19:28:30.722Z</time></trkpt><trkpt lat="45.458968" lon="11.5729785"><ele>216.5</ele><time>2026-04-03T19:28:32.712Z</time></trkpt><trkpt lat="45.4589329" lon="11.5730802"><ele>219.0</ele><time>2026-04-03T19:28:34.712Z</time></trkpt><trkpt lat="45.4588942" lon="11.5731666"><ele>221.50000000000003</ele><time>2026-04-03T19:28:36.712Z</time></trkpt><trkpt lat="45.4588483" lon="11.5732388"><ele>224.0</ele><time>2026-04-03T19:28:51.729Z</time></trkpt><trkpt lat="45.4587367" lon="11.5734252"><ele>224.0</ele><time>2026-04-03T19:28:56.72Z</time></trkpt><trkpt lat="45.4585922" lon="11.5736798"><ele>224.0</ele><time>2026-04-03T19:29:01.727Z</time></trkpt><trkpt lat="45.4585682" lon="11.5737753"><ele>224.0</ele><time>2026-04-03T19:29:03.729Z</time></trkpt><trkpt lat="45.4586747" lon="11.573746"><ele>224.0</ele><time>2026-04-03T19:33:59.736Z</time></trkpt><trkpt lat="45.458812" lon="11.5736741"><ele>229.0</ele><time>2026-04-03T19:34:01.733Z</time></trkpt><trkpt lat="45.4589123" lon="11.5736317"><ele>234.0</ele><time>2026-04-03T19:34:02.728Z</time></trkpt><trkpt lat="45.4590293" lon="11.5735759"><ele>239.0</ele><time>2026-04-03T19:34:03.733Z</time></trkpt><trkpt lat="45.4591386" lon="11.5735102"><ele>244.0</ele><time>2026-04-03T19:34:04.731Z</time></trkpt><trkpt lat="45.4592293" lon="11.5734338"><ele>244.0</ele><time>2026-04-03T19:34:05.743Z</time></trkpt><trkpt lat="45.4592985" lon="11.5733346"><ele>244.0</ele><time>2026-04-03T19:34:06.737Z</time></trkpt><trkpt lat="45.4593631" lon="11.5731962"><ele>244.0</ele><time>2026-04-03T19:34:07.732Z</time></trkpt><trkpt lat="45.4594437" lon="11.5730611"><ele>244.0</ele><time>2026-04-03T19:34:08.734Z</time></trkpt><trkpt lat="45.4595323" lon="11.5729264"><ele>244.2</ele><time>2026-04-03T19:34:09.734Z</time></trkpt><trkpt lat="45.4596154" lon="11.5728097"><ele>244.39999999999998</ele><time>2026-04-03T19:34:10.738Z</time></trkpt><trkpt lat="45.4596841" lon="11.572708"><ele>244.6</ele><time>2026-04-03T19:34:11.734Z</time></trkpt><trkpt lat="45.4597379" lon="11.572631"><ele>244.8</ele><time>2026-04-03T19:34:12.739Z</time></trkpt><trkpt lat="45.4598283" lon="11.5725554"><ele>245.0</ele><time>2026-04-03T19:34:14.734Z</time></trkpt><trkpt lat="45.4599339" lon="11.5724885"><ele>248.8</ele><time>2026-04-03T19:34:16.734Z</time></trkpt><trkpt lat="45.4600048" lon="11.5724647"><ele>252.6</ele><time>2026-04-03T19:34:17.733Z</time></trkpt><trkpt lat="45.4600815" lon="11.5724558"><ele>256.4</ele><time>2026-04-03T19:34:18.739Z</time></trkpt><trkpt lat="45.4601657" lon="11.5724676"><ele>260.2</ele><time>2026-04-03T19:34:19.728Z</time></trkpt><trkpt lat="45.4602568" lon="11.5725051"><ele>264.0</ele><time>2026-04-03T19:34:20.733Z</time></trkpt><trkpt lat="45.4604329" lon="11.572589"><ele>263.0</ele><time>2026-04-03T19:34:22.727Z</time></trkpt><trkpt lat="45.4605181" lon="11.5726028"><ele>262.0</ele><time>2026-04-03T19:34:23.735Z</time></trkpt><trkpt lat="45.4606007" lon="11.5726244"><ele>261.0</ele><time>2026-04-03T19:34:24.735Z</time></trkpt><trkpt lat="45.460678" lon="11.5726601"><ele>260.0</ele><time>2026-04-03T19:34:25.726Z</time></trkpt><trkpt lat="45.4607488" lon="11.5727146"><ele>259.0</ele><time>2026-04-03T19:34:26.733Z</time></trkpt><trkpt lat="45.4608076" lon="11.5727942"><ele>258.0</ele><time>2026-04-03T19:34:27.737Z</time></trkpt><trkpt lat="45.4608582" lon="11.5729026"><ele>258.0</ele><time>2026-04-03T19:34:28.738Z</time></trkpt><trkpt lat="45.4608846" lon="11.5730199"><ele>258.0</ele><time>2026-04-03T19:34:29.731Z</time></trkpt><trkpt lat="45.4609058" lon="11.5731068"><ele>258.0</ele><time>2026-04-03T19:34:30.734Z</time></trkpt><trkpt lat="45.4609685" lon="11.5731936"><ele>258.0</ele><time>2026-04-03T19:34:32.734Z</time></trkpt><trkpt lat="45.461071" lon="11.5731705"><ele>258.0</ele><time>2026-04-03T19:34:34.735Z</time></trkpt><trkpt lat="45.461195" lon="11.573111"><ele>258.0</ele><time>2026-04-03T19:34:36.731Z</time></trkpt><trkpt lat="45.461275" lon="11.5730781"><ele>258.0</ele><time>2026-04-03T19:34:37.729Z</time></trkpt><trkpt lat="45.4613663" lon="11.5730347"><ele>258.0</ele><time>2026-04-03T19:34:38.725Z</time></trkpt><trkpt lat="45.4614368" lon="11.5729839"><ele>258.0</ele><time>2026-04-03T19:34:39.724Z</time></trkpt><trkpt lat="45.4614877" lon="11.57291"><ele>258.0</ele><time>2026-04-03T19:34:40.73Z</time></trkpt><trkpt lat="45.4615342" lon="11.572817"><ele>258.0</ele><time>2026-04-03T19:34:41.728Z</time></trkpt><trkpt lat="45.4616326" lon="11.5725792"><ele>260.6</ele><time>2026-04-03T19:34:43.726Z</time></trkpt><trkpt lat="45.4616832" lon="11.5724554"><ele>263.20000000000005</ele><time>2026-04-03T19:34:44.725Z</time></trkpt><trkpt lat="45.4617335" lon="11.5723373"><ele>265.8</ele><time>2026-04-03T19:34:45.727Z</time></trkpt><trkpt lat="45.461796" lon="11.5722518"><ele>268.40000000000003</ele><time>2026-04-03T19:34:46.726Z</time></trkpt><trkpt lat="45.4618801" lon="11.5721893"><ele>271.0</ele><time>2026-04-03T19:34:47.725Z</time></trkpt><trkpt lat="45.4619754" lon="11.5721739"><ele>271.0</ele><time>2026-04-03T19:34:48.726Z</time></trkpt><trkpt lat="45.4620836" lon="11.5722085"><ele>271.0</ele><time>2026-04-03T19:34:49.725Z</time></trkpt><trkpt lat="45.4622012" lon="11.5722657"><ele>271.0</ele><time>2026-04-03T19:34:50.72Z</time></trkpt><trkpt lat="45.4623168" lon="11.5723043"><ele>271.0</ele><time>2026-04-03T19:34:51.732Z</time></trkpt><trkpt lat="45.4624253" lon="11.5723387"><ele>269.25</ele><time>2026-04-03T19:34:52.725Z</time></trkpt><trkpt lat="45.4625385" lon="11.5723748"><ele>267.5</ele><time>2026-04-03T19:34:53.735Z</time></trkpt><trkpt lat="45.4626498" lon="11.5724308"><ele>265.75</ele><time>2026-04-03T19:34:54.737Z</time></trkpt><trkpt lat="45.4627569" lon="11.5724923"><ele>264.0</ele><time>2026-04-03T19:34:55.738Z</time></trkpt><trkpt lat="45.4628591" lon="11.572552"><ele>264.1666666666667</ele><time>2026-04-03T19:34:56.735Z</time></trkpt><trkpt lat="45.4629497" lon="11.5725894"><ele>264.3333333333333</ele><time>2026-04-03T19:34:57.741Z</time></trkpt><trkpt lat="45.4630255" lon="11.5726058"><ele>264.5</ele><time>2026-04-03T19:34:58.748Z</time></trkpt><trkpt lat="45.4630931" lon="11.5725798"><ele>264.66666666666663</ele><time>2026-04-03T19:34:59.733Z</time></trkpt><trkpt lat="45.4631446" lon="11.5725262"><ele>264.8333333333333</ele><time>2026-04-03T19:35:00.745Z</time></trkpt><trkpt lat="45.4631879" lon="11.5724339"><ele>265.0</ele><time>2026-04-03T19:35:01.729Z</time></trkpt><trkpt lat="45.4632125" lon="11.5723451"><ele>265.0</ele><time>2026-04-03T19:35:02.73Z</time></trkpt><trkpt lat="45.4632461" lon="11.5720618"><ele>265.0</ele><time>2026-04-03T19:35:05.725Z</time></trkpt><trkpt lat="45.4632668" lon="11.5719221"><ele>265.0</ele><time>2026-04-03T19:35:07.733Z</time></trkpt><trkpt lat="45.4632806" lon="11.5718304"><ele>265.0</ele><time>2026-04-03T19:35:15.727Z</time></trkpt><trkpt lat="45.4632873" lon="11.5716932"><ele>267.25</ele><time>2026-04-03T19:35:17.732Z</time></trkpt><trkpt lat="45.4632988" lon="11.5715356"><ele>269.5</ele><time>2026-04-03T19:35:18.729Z</time></trkpt><trkpt lat="45.4633339" lon="11.5713512"><ele>271.75</ele><time>2026-04-03T19:35:19.729Z</time></trkpt><trkpt lat="45.4633811" lon="11.5711759"><ele>274.0</ele><time>2026-04-03T19:35:20.724Z</time></trkpt><trkpt lat="45.4634165" lon="11.5709941"><ele>275.75</ele><time>2026-04-03T19:35:21.729Z</time></trkpt><trkpt lat="45.463434" lon="11.5708319"><ele>277.5</ele><time>2026-04-03T19:35:22.724Z</time></trkpt><trkpt lat="45.4634467" lon="11.570671"><ele>279.25</ele><time>2026-04-03T19:35:23.728Z</time></trkpt><trkpt lat="45.4634467" lon="11.5703601"><ele>281.0</ele><time>2026-04-03T19:35:25.725Z</time></trkpt><trkpt lat="45.46344" lon="11.570227"><ele>281.6666666666667</ele><time>2026-04-03T19:35:26.733Z</time></trkpt><trkpt lat="45.4634262" lon="11.5701003"><ele>282.33333333333337</ele><time>2026-04-03T19:35:27.726Z</time></trkpt><trkpt lat="45.4634059" lon="11.5699737"><ele>283.0</ele><time>2026-04-03T19:35:28.732Z</time></trkpt><trkpt lat="45.4633792" lon="11.5698598"><ele>283.6666666666667</ele><time>2026-04-03T19:35:29.72Z</time></trkpt><trkpt lat="45.4633475" lon="11.5697534"><ele>284.3333333333333</ele><time>2026-04-03T19:35:30.716Z</time></trkpt><trkpt lat="45.4633021" lon="11.5696457"><ele>285.0</ele><time>2026-04-03T19:35:31.716Z</time></trkpt><trkpt lat="45.4632562" lon="11.5695338"><ele>286.4</ele><time>2026-04-03T19:35:32.718Z</time></trkpt><trkpt lat="45.4632108" lon="11.5694157"><ele>287.8</ele><time>2026-04-03T19:35:33.718Z</time></trkpt><trkpt lat="45.4631755" lon="11.5692812"><ele>289.2</ele><time>2026-04-03T19:35:34.716Z</time></trkpt><trkpt lat="45.4631546" lon="11.5691357"><ele>290.6</ele><time>2026-04-03T19:35:35.709Z</time></trkpt><trkpt lat="45.4631482" lon="11.5689844"><ele>292.0</ele><time>2026-04-03T19:35:36.717Z</time></trkpt><trkpt lat="45.4631644" lon="11.5688181"><ele>293.75</ele><time>2026-04-03T19:35:37.713Z</time></trkpt><trkpt lat="45.4631986" lon="11.5686478"><ele>295.5</ele><time>2026-04-03T19:35:38.717Z</time></trkpt><trkpt lat="45.4632556" lon="11.5684727"><ele>297.25</ele><time>2026-04-03T19:35:39.717Z</time></trkpt><trkpt lat="45.4633135" lon="11.5683298"><ele>299.0</ele><time>2026-04-03T19:35:40.721Z</time></trkpt><trkpt lat="45.4633632" lon="11.5681968"><ele>299.0</ele><time>2026-04-03T19:35:41.717Z</time></trkpt><trkpt lat="45.4634179" lon="11.5680614"><ele>299.0</ele><time>2026-04-03T19:35:42.726Z</time></trkpt><trkpt lat="45.4634789" lon="11.5679257"><ele>299.0</ele><time>2026-04-03T19:35:43.726Z</time></trkpt><trkpt lat="45.463542" lon="11.5677875"><ele>299.0</ele><time>2026-04-03T19:35:44.725Z</time></trkpt><trkpt lat="45.4636938" lon="11.5675836"><ele>299.4</ele><time>2026-04-03T19:35:46.733Z</time></trkpt><trkpt lat="45.4637957" lon="11.5675464"><ele>299.79999999999995</ele><time>2026-04-03T19:35:47.724Z</time></trkpt><trkpt lat="45.4639008" lon="11.5675447"><ele>300.20000000000005</ele><time>2026-04-03T19:35:48.722Z</time></trkpt><trkpt lat="45.4640137" lon="11.567558"><ele>300.6</ele><time>2026-04-03T19:35:49.724Z</time></trkpt><trkpt lat="45.4641227" lon="11.5675972"><ele>301.0</ele><time>2026-04-03T19:35:50.725Z</time></trkpt><trkpt lat="45.464219" lon="11.5676544"><ele>301.0</ele><time>2026-04-03T19:35:51.723Z</time></trkpt><trkpt lat="45.4643148" lon="11.5676989"><ele>301.0</ele><time>2026-04-03T19:35:52.725Z</time></trkpt><trkpt lat="45.464408" lon="11.5677117"><ele>301.0</ele><time>2026-04-03T19:35:53.736Z</time></trkpt><trkpt lat="45.4644788" lon="11.5676985"><ele>301.0</ele><time>2026-04-03T19:35:54.735Z</time></trkpt><trkpt lat="45.4645465" lon="11.5676673"><ele>301.0</ele><time>2026-04-03T19:35:55.735Z</time></trkpt><trkpt lat="45.4646109" lon="11.5676384"><ele>301.0</ele><time>2026-04-03T19:35:56.736Z</time></trkpt><trkpt lat="45.4647167" lon="11.567608"><ele>298.75</ele><time>2026-04-03T19:35:58.747Z</time></trkpt><trkpt lat="45.4648027" lon="11.5675219"><ele>296.5</ele><time>2026-04-03T19:36:00.741Z</time></trkpt><trkpt lat="45.4648471" lon="11.5674381"><ele>294.25</ele><time>2026-04-03T19:36:15.741Z</time></trkpt><trkpt lat="45.4650582" lon="11.5672076"><ele>292.0</ele><time>2026-04-03T19:36:18.73Z</time></trkpt><trkpt lat="45.465182" lon="11.5671445"><ele>292.0</ele><time>2026-04-03T19:36:19.735Z</time></trkpt><trkpt lat="45.4653042" lon="11.5671086"><ele>292.0</ele><time>2026-04-03T19:36:20.735Z</time></trkpt><trkpt lat="45.4654299" lon="11.5671003"><ele>292.0</ele><time>2026-04-03T19:36:21.737Z</time></trkpt><trkpt lat="45.4655558" lon="11.5671078"><ele>292.0</ele><time>2026-04-03T19:36:22.734Z</time></trkpt><trkpt lat="45.4656926" lon="11.5671197"><ele>291.0</ele><time>2026-04-03T19:36:23.745Z</time></trkpt><trkpt lat="45.4658309" lon="11.5671373"><ele>290.0</ele><time>2026-04-03T19:36:24.742Z</time></trkpt><trkpt lat="45.465972" lon="11.5671535"><ele>289.0</ele><time>2026-04-03T19:36:25.742Z</time></trkpt><trkpt lat="45.4661065" lon="11.5671689"><ele>288.0</ele><time>2026-04-03T19:36:26.734Z</time></trkpt><trkpt lat="45.4662323" lon="11.5672032"><ele>287.75</ele><time>2026-04-03T19:36:27.74Z</time></trkpt><trkpt lat="45.4663528" lon="11.567259"><ele>287.5</ele><time>2026-04-03T19:36:28.74Z</time></trkpt><trkpt lat="45.4664467" lon="11.5673344"><ele>287.25</ele><time>2026-04-03T19:36:29.736Z</time></trkpt><trkpt lat="45.4665491" lon="11.5673583"><ele>287.0</ele><time>2026-04-03T19:36:30.734Z</time></trkpt><trkpt lat="45.4666656" lon="11.5673619"><ele>287.0</ele><time>2026-04-03T19:36:31.742Z</time></trkpt><trkpt lat="45.4667827" lon="11.5673278"><ele>287.0</ele><time>2026-04-03T19:36:32.736Z</time></trkpt><trkpt lat="45.4668797" lon="11.5672708"><ele>287.0</ele><time>2026-04-03T19:36:33.735Z</time></trkpt><trkpt lat="45.466957" lon="11.5671931"><ele>287.0</ele><time>2026-04-03T19:36:34.738Z</time></trkpt><trkpt lat="45.4670025" lon="11.5670993"><ele>287.0</ele><time>2026-04-03T19:36:35.742Z</time></trkpt><trkpt lat="45.4670102" lon="11.5670037"><ele>287.6666666666667</ele><time>2026-04-03T19:36:36.73Z</time></trkpt><trkpt lat="45.4669965" lon="11.5668996"><ele>288.33333333333337</ele><time>2026-04-03T19:36:37.736Z</time></trkpt><trkpt lat="45.466982" lon="11.5666905"><ele>289.0</ele><time>2026-04-03T19:36:39.731Z</time></trkpt><trkpt lat="45.4669835" lon="11.5665925"><ele>289.6666666666667</ele><time>2026-04-03T19:36:40.735Z</time></trkpt><trkpt lat="45.4669762" lon="11.5664994"><ele>290.3333333333333</ele><time>2026-04-03T19:36:41.727Z</time></trkpt><trkpt lat="45.4669788" lon="11.5663979"><ele>291.0</ele><time>2026-04-03T19:36:42.719Z</time></trkpt><trkpt lat="45.466985" lon="11.5662901"><ele>289.8</ele><time>2026-04-03T19:36:43.726Z</time></trkpt><trkpt lat="45.4670068" lon="11.5661635"><ele>288.6</ele><time>2026-04-03T19:36:44.716Z</time></trkpt><trkpt lat="45.4670374" lon="11.5660312"><ele>287.4</ele><time>2026-04-03T19:36:45.724Z</time></trkpt><trkpt lat="45.467077" lon="11.5658928"><ele>286.2</ele><time>2026-04-03T19:36:46.726Z</time></trkpt><trkpt lat="45.467118" lon="11.5657531"><ele>285.0</ele><time>2026-04-03T19:36:47.724Z</time></trkpt><trkpt lat="45.4671539" lon="11.5656145"><ele>285.0</ele><time>2026-04-03T19:36:48.726Z</time></trkpt><trkpt lat="45.4671964" lon="11.5654911"><ele>285.0</ele><time>2026-04-03T19:36:49.72Z</time></trkpt><trkpt lat="45.4672403" lon="11.5653915"><ele>285.0</ele><time>2026-04-03T19:36:50.717Z</time></trkpt><trkpt lat="45.4673069" lon="11.5652931"><ele>285.0</ele><time>2026-04-03T19:36:51.715Z</time></trkpt><trkpt lat="45.4673775" lon="11.565209"><ele>285.0</ele><time>2026-04-03T19:36:52.716Z</time></trkpt><trkpt lat="45.4674391" lon="11.5651387"><ele>285.0</ele><time>2026-04-03T19:36:53.72Z</time></trkpt><trkpt lat="45.4674897" lon="11.5650839"><ele>284.8</ele><time>2026-04-03T19:36:54.722Z</time></trkpt><trkpt lat="45.4675719" lon="11.5650445"><ele>284.6</ele><time>2026-04-03T19:36:56.726Z</time></trkpt><trkpt lat="45.4676636" lon="11.5650615"><ele>284.4</ele><time>2026-04-03T19:37:05.717Z</time></trkpt><trkpt lat="45.4678223" lon="11.5651498"><ele>284.2</ele><time>2026-04-03T19:37:10.719Z</time></trkpt><trkpt lat="45.4679054" lon="11.5651609"><ele>284.0</ele><time>2026-04-03T19:37:12.727Z</time></trkpt><trkpt lat="45.4679781" lon="11.5651587"><ele>282.6666666666667</ele><time>2026-04-03T19:37:14.729Z</time></trkpt><trkpt lat="45.4680323" lon="11.5652113"><ele>281.33333333333337</ele><time>2026-04-03T19:37:16.728Z</time></trkpt><trkpt lat="45.4681036" lon="11.5652563"><ele>280.0</ele><time>2026-04-03T19:37:18.724Z</time></trkpt><trkpt lat="45.4682035" lon="11.5652001"><ele>278.6666666666667</ele><time>2026-04-03T19:37:20.724Z</time></trkpt><trkpt lat="45.4682548" lon="11.5651466"><ele>277.3333333333333</ele><time>2026-04-03T19:37:21.725Z</time></trkpt><trkpt lat="45.4683094" lon="11.5650869"><ele>276.0</ele><time>2026-04-03T19:37:22.724Z</time></trkpt><trkpt lat="45.4683759" lon="11.5650478"><ele>276.0</ele><time>2026-04-03T19:37:23.726Z</time></trkpt><trkpt lat="45.4684398" lon="11.5650219"><ele>276.0</ele><time>2026-04-03T19:37:24.718Z</time></trkpt><trkpt lat="45.4685083" lon="11.5650162"><ele>276.0</ele><time>2026-04-03T19:37:25.726Z</time></trkpt><trkpt lat="45.4685794" lon="11.565021"><ele>276.0</ele><time>2026-04-03T19:37:26.718Z</time></trkpt><trkpt lat="45.4687706" lon="11.5650143"><ele>276.0</ele><time>2026-04-03T19:37:29.733Z</time></trkpt><trkpt lat="45.4688428" lon="11.5650183"><ele>274.3333333333333</ele><time>2026-04-03T19:37:30.729Z</time></trkpt><trkpt lat="45.4689255" lon="11.5650199"><ele>272.6666666666667</ele><time>2026-04-03T19:37:31.729Z</time></trkpt><trkpt lat="45.4690132" lon="11.565022"><ele>271.0</ele><time>2026-04-03T19:37:32.724Z</time></trkpt><trkpt lat="45.4691016" lon="11.565026"><ele>269.33333333333337</ele><time>2026-04-03T19:37:33.726Z</time></trkpt><trkpt lat="45.4691914" lon="11.5650258"><ele>267.6666666666667</ele><time>2026-04-03T19:37:34.725Z</time></trkpt><trkpt lat="45.4692899" lon="11.5650242"><ele>266.0</ele><time>2026-04-03T19:37:35.725Z</time></trkpt><trkpt lat="45.4693865" lon="11.5650257"><ele>266.0</ele><time>2026-04-03T19:37:36.726Z</time></trkpt><trkpt lat="45.4694784" lon="11.5650207"><ele>266.0</ele><time>2026-04-03T19:37:37.732Z</time></trkpt><trkpt lat="45.4695775" lon="11.5650031"><ele>266.0</ele><time>2026-04-03T19:37:38.724Z</time></trkpt><trkpt lat="45.4696773" lon="11.5649787"><ele>266.0</ele><time>2026-04-03T19:37:39.731Z</time></trkpt><trkpt lat="45.4697745" lon="11.5649524"><ele>266.0</ele><time>2026-04-03T19:37:40.73Z</time></trkpt><trkpt lat="45.4698653" lon="11.5649254"><ele>265.1666666666667</ele><time>2026-04-03T19:37:41.722Z</time></trkpt><trkpt lat="45.4699586" lon="11.5649023"><ele>264.33333333333337</ele><time>2026-04-03T19:37:42.726Z</time></trkpt><trkpt lat="45.4700552" lon="11.5648763"><ele>263.5</ele><time>2026-04-03T19:37:43.727Z</time></trkpt><trkpt lat="45.470145" lon="11.5648517"><ele>262.6666666666667</ele><time>2026-04-03T19:37:44.723Z</time></trkpt><trkpt lat="45.4702279" lon="11.5648317"><ele>261.8333333333333</ele><time>2026-04-03T19:37:45.726Z</time></trkpt><trkpt lat="45.4703016" lon="11.5648104"><ele>261.0</ele><time>2026-04-03T19:37:46.723Z</time></trkpt><trkpt lat="45.470367" lon="11.5647965"><ele>261.0</ele><time>2026-04-03T19:37:47.72Z</time></trkpt><trkpt lat="45.4704287" lon="11.5646687"><ele>261.0</ele><time>2026-04-03T19:38:42.721Z</time></trkpt><trkpt lat="45.4706109" lon="11.5644895"><ele>261.0</ele><time>2026-04-03T19:38:48.716Z</time></trkpt><trkpt lat="45.4707001" lon="11.5644311"><ele>261.0</ele><time>2026-04-03T19:38:50.719Z</time></trkpt><trkpt lat="45.4708084" lon="11.5643958"><ele>257.6</ele><time>2026-04-03T19:38:52.713Z</time></trkpt><trkpt lat="45.4709088" lon="11.5643662"><ele>254.20000000000002</ele><time>2026-04-03T19:38:54.709Z</time></trkpt><trkpt lat="45.4710111" lon="11.5642981"><ele>250.79999999999998</ele><time>2026-04-03T19:38:56.712Z</time></trkpt><trkpt lat="45.4711061" lon="11.5642222"><ele>247.39999999999998</ele><time>2026-04-03T19:38:58.722Z</time></trkpt><trkpt lat="45.4711792" lon="11.5641261"><ele>244.0</ele><time>2026-04-03T19:39:00.717Z</time></trkpt><trkpt lat="45.4711825" lon="11.5640166"><ele>244.0</ele><time>2026-04-03T19:39:02.718Z</time></trkpt><trkpt lat="45.4711436" lon="11.5638761"><ele>243.99999999999997</ele><time>2026-04-03T19:39:04.711Z</time></trkpt><trkpt lat="45.4711117" lon="11.563795"><ele>243.99999999999997</ele><time>2026-04-03T19:39:05.717Z</time></trkpt><trkpt lat="45.4710424" lon="11.5636406"><ele>244.0</ele><time>2026-04-03T19:39:07.718Z</time></trkpt><trkpt lat="45.4709683" lon="11.5635065"><ele>244.0</ele><time>2026-04-03T19:39:09.722Z</time></trkpt><trkpt lat="45.4709225" lon="11.5634402"><ele>240.66666666666666</ele><time>2026-04-03T19:39:10.715Z</time></trkpt><trkpt lat="45.470875" lon="11.5633779"><ele>237.33333333333331</ele><time>2026-04-03T19:39:11.723Z</time></trkpt><trkpt lat="45.4708157" lon="11.5633106"><ele>234.0</ele><time>2026-04-03T19:39:12.719Z</time></trkpt><trkpt lat="45.4707533" lon="11.5632319"><ele>230.66666666666669</ele><time>2026-04-03T19:39:13.714Z</time></trkpt><trkpt lat="45.4706853" lon="11.5631466"><ele>227.33333333333334</ele><time>2026-04-03T19:39:14.723Z</time></trkpt><trkpt lat="45.4706217" lon="11.5630627"><ele>224.0</ele><time>2026-04-03T19:39:15.723Z</time></trkpt><trkpt lat="45.4705692" lon="11.5629671"><ele>225.00000000000003</ele><time>2026-04-03T19:39:16.72Z</time></trkpt><trkpt lat="45.4705132" lon="11.5628524"><ele>226.0</ele><time>2026-04-03T19:39:17.718Z</time></trkpt><trkpt lat="45.4704604" lon="11.5627356"><ele>227.0</ele><time>2026-04-03T19:39:18.727Z</time></trkpt><trkpt lat="45.4704066" lon="11.5626265"><ele>228.0</ele><time>2026-04-03T19:39:19.72Z</time></trkpt><trkpt lat="45.4703623" lon="11.5625324"><ele>229.00000000000003</ele><time>2026-04-03T19:39:20.727Z</time></trkpt><trkpt lat="45.4703314" lon="11.5624527"><ele>230.0</ele><time>2026-04-03T19:39:21.725Z</time></trkpt><trkpt lat="45.4702796" lon="11.5623969"><ele>230.0</ele><time>2026-04-03T19:39:23.717Z</time></trkpt><trkpt lat="45.4702113" lon="11.5624173"><ele>230.0</ele><time>2026-04-03T19:39:25.726Z</time></trkpt><trkpt lat="45.4701474" lon="11.5624015"><ele>230.0</ele><time>2026-04-03T19:39:26.727Z</time></trkpt><trkpt lat="45.469982" lon="11.5623083"><ele>230.0</ele><time>2026-04-03T19:39:28.728Z</time></trkpt><trkpt lat="45.4699051" lon="11.5622666"><ele>230.0</ele><time>2026-04-03T19:39:29.725Z</time></trkpt><trkpt lat="45.469828" lon="11.5622352"><ele>229.99999999999997</ele><time>2026-04-03T19:39:30.725Z</time></trkpt><trkpt lat="45.4697544" lon="11.5622165"><ele>230.0</ele><time>2026-04-03T19:39:31.727Z</time></trkpt><trkpt lat="45.4696818" lon="11.5621998"><ele>229.99999999999997</ele><time>2026-04-03T19:39:32.722Z</time></trkpt><trkpt lat="45.4696116" lon="11.5621996"><ele>229.99999999999997</ele><time>2026-04-03T19:39:33.732Z</time></trkpt><trkpt lat="45.4695459" lon="11.5622181"><ele>230.0</ele><time>2026-04-03T19:39:34.717Z</time></trkpt><trkpt lat="45.4694742" lon="11.5622414"><ele>229.99999999999997</ele><time>2026-04-03T19:39:35.718Z</time></trkpt><trkpt lat="45.4694024" lon="11.5622698"><ele>229.99999999999997</ele><time>2026-04-03T19:39:36.717Z</time></trkpt><trkpt lat="45.4693327" lon="11.5623032"><ele>234.4</ele><time>2026-04-03T19:39:37.711Z</time></trkpt><trkpt lat="45.46927" lon="11.5623307"><ele>238.8</ele><time>2026-04-03T19:39:38.715Z</time></trkpt><trkpt lat="45.469158" lon="11.5623263"><ele>243.2</ele><time>2026-04-03T19:39:40.719Z</time></trkpt><trkpt lat="45.4691751" lon="11.5624447"><ele>247.6</ele><time>2026-04-03T19:39:45.71Z</time></trkpt><trkpt lat="45.469245" lon="11.5625669"><ele>252.0</ele><time>2026-04-03T19:39:47.71Z</time></trkpt><trkpt lat="45.4693799" lon="11.5627216"><ele>252.0</ele><time>2026-04-03T19:39:50.71Z</time></trkpt><trkpt lat="45.469307" lon="11.5626592"><ele>252.0</ele><time>2026-04-03T19:41:57.709Z</time></trkpt><trkpt lat="45.469181" lon="11.5624468"><ele>252.0</ele><time>2026-04-03T19:42:01.7Z</time></trkpt><trkpt lat="45.4691241" lon="11.5623041"><ele>252.0</ele><time>2026-04-03T19:42:03.696Z</time></trkpt><trkpt lat="45.4691933" lon="11.5622628"><ele>252.0</ele><time>2026-04-03T19:42:07.702Z</time></trkpt><trkpt lat="45.4692865" lon="11.5623032"><ele>252.0</ele><time>2026-04-03T19:42:10.699Z</time></trkpt><trkpt lat="45.4693804" lon="11.5622935"><ele>252.0</ele><time>2026-04-03T19:42:12.701Z</time></trkpt><trkpt lat="45.4695009" lon="11.5622349"><ele>252.0</ele><time>2026-04-03T19:42:14.703Z</time></trkpt><trkpt lat="45.4696265" lon="11.5622006"><ele>252.0</ele><time>2026-04-03T19:42:16.706Z</time></trkpt><trkpt lat="45.4697451" lon="11.5622183"><ele>247.6</ele><time>2026-04-03T19:42:18.708Z</time></trkpt><trkpt lat="45.469933" lon="11.5622858"><ele>243.2</ele><time>2026-04-03T19:42:21.712Z</time></trkpt><trkpt lat="45.4700036" lon="11.5623093"><ele>238.8</ele><time>2026-04-03T19:42:22.704Z</time></trkpt><trkpt lat="45.4700748" lon="11.562345"><ele>234.4</ele><time>2026-04-03T19:42:23.713Z</time></trkpt><trkpt lat="45.4701388" lon="11.5623866"><ele>230.0</ele><time>2026-04-03T19:42:24.712Z</time></trkpt><trkpt lat="45.4702045" lon="11.5624162"><ele>230.00000000000003</ele><time>2026-04-03T19:42:25.715Z</time></trkpt><trkpt lat="45.4702653" lon="11.5624495"><ele>230.0</ele><time>2026-04-03T19:42:26.713Z</time></trkpt><trkpt lat="45.4703767" lon="11.5624766"><ele>230.0</ele><time>2026-04-03T19:42:28.717Z</time></trkpt><trkpt lat="45.4704503" lon="11.5624393"><ele>230.0</ele><time>2026-04-03T19:42:30.716Z</time></trkpt><trkpt lat="45.4704812" lon="11.5623547"><ele>230.00000000000003</ele><time>2026-04-03T19:42:34.717Z</time></trkpt><trkpt lat="45.4705313" lon="11.5622817"><ele>230.0</ele><time>2026-04-03T19:42:36.717Z</time></trkpt><trkpt lat="45.4705817" lon="11.5621806"><ele>227.25</ele><time>2026-04-03T19:42:38.72Z</time></trkpt><trkpt lat="45.4706153" lon="11.5620578"><ele>224.5</ele><time>2026-04-03T19:42:40.717Z</time></trkpt><trkpt lat="45.4706555" lon="11.5618179"><ele>221.75</ele><time>2026-04-03T19:42:44.719Z</time></trkpt><trkpt lat="45.4706863" lon="11.56169"><ele>219.0</ele><time>2026-04-03T19:42:46.725Z</time></trkpt><trkpt lat="45.4707136" lon="11.5615524"><ele>219.0</ele><time>2026-04-03T19:42:48.716Z</time></trkpt><trkpt lat="45.4707278" lon="11.5614047"><ele>218.99999999999997</ele><time>2026-04-03T19:42:50.716Z</time></trkpt><trkpt lat="45.4707507" lon="11.5612475"><ele>218.99999999999997</ele><time>2026-04-03T19:42:52.721Z</time></trkpt><trkpt lat="45.4707422" lon="11.5610807"><ele>219.0</ele><time>2026-04-03T19:42:54.729Z</time></trkpt><trkpt lat="45.4707351" lon="11.5609904"><ele>219.0</ele><time>2026-04-03T19:42:55.723Z</time></trkpt><trkpt lat="45.4707142" lon="11.5608246"><ele>219.5</ele><time>2026-04-03T19:42:57.725Z</time></trkpt><trkpt lat="45.4706765" lon="11.5607174"><ele>220.0</ele><time>2026-04-03T19:42:59.72Z</time></trkpt><trkpt lat="45.470601" lon="11.5606719"><ele>220.5</ele><time>2026-04-03T19:43:02.721Z</time></trkpt><trkpt lat="45.470365" lon="11.5606627"><ele>221.0</ele><time>2026-04-03T19:43:15.722Z</time></trkpt><trkpt lat="45.4702458" lon="11.5606338"><ele>221.0</ele><time>2026-04-03T19:43:16.725Z</time></trkpt><trkpt lat="45.4701264" lon="11.5606061"><ele>221.0</ele><time>2026-04-03T19:43:17.721Z</time></trkpt><trkpt lat="45.4700005" lon="11.5606096"><ele>221.0</ele><time>2026-04-03T19:43:18.715Z</time></trkpt><trkpt lat="45.4698722" lon="11.5606244"><ele>221.0</ele><time>2026-04-03T19:43:19.713Z</time></trkpt><trkpt lat="45.4697416" lon="11.5606796"><ele>221.0</ele><time>2026-04-03T19:43:20.714Z</time></trkpt><trkpt lat="45.4696154" lon="11.5607447"><ele>221.0</ele><time>2026-04-03T19:43:21.715Z</time></trkpt><trkpt lat="45.469497" lon="11.5608285"><ele>221.0</ele><time>2026-04-03T19:43:22.714Z</time></trkpt><trkpt lat="45.4693888" lon="11.5609196"><ele>221.0</ele><time>2026-04-03T19:43:23.717Z</time></trkpt><trkpt lat="45.4691792" lon="11.5611185"><ele>222.60000000000002</ele><time>2026-04-03T19:43:25.722Z</time></trkpt><trkpt lat="45.4690823" lon="11.5611984"><ele>224.20000000000002</ele><time>2026-04-03T19:43:26.725Z</time></trkpt><trkpt lat="45.4689822" lon="11.5612721"><ele>225.79999999999998</ele><time>2026-04-03T19:43:27.72Z</time></trkpt><trkpt lat="45.4688794" lon="11.5613193"><ele>227.39999999999998</ele><time>2026-04-03T19:43:28.734Z</time></trkpt><trkpt lat="45.4687797" lon="11.5613228"><ele>229.0</ele><time>2026-04-03T19:43:29.723Z</time></trkpt><trkpt lat="45.4686817" lon="11.5612721"><ele>230.75</ele><time>2026-04-03T19:43:30.721Z</time></trkpt><trkpt lat="45.4685924" lon="11.5611687"><ele>232.5</ele><time>2026-04-03T19:43:31.72Z</time></trkpt><trkpt lat="45.4685171" lon="11.5610289"><ele>234.25</ele><time>2026-04-03T19:43:32.723Z</time></trkpt><trkpt lat="45.4684321" lon="11.560899"><ele>236.0</ele><time>2026-04-03T19:43:33.72Z</time></trkpt><trkpt lat="45.4683419" lon="11.5607908"><ele>236.0</ele><time>2026-04-03T19:43:34.723Z</time></trkpt><trkpt lat="45.4682392" lon="11.5606882"><ele>236.0</ele><time>2026-04-03T19:43:35.718Z</time></trkpt><trkpt lat="45.4681282" lon="11.5605898"><ele>236.0</ele><time>2026-04-03T19:43:36.721Z</time></trkpt><trkpt lat="45.4680127" lon="11.5604954"><ele>236.0</ele><time>2026-04-03T19:43:37.717Z</time></trkpt><trkpt lat="45.4678877" lon="11.5603907"><ele>237.33333333333334</ele><time>2026-04-03T19:43:38.713Z</time></trkpt><trkpt lat="45.4677542" lon="11.5602653"><ele>238.66666666666669</ele><time>2026-04-03T19:43:39.72Z</time></trkpt><trkpt lat="45.467625" lon="11.5601434"><ele>240.0</ele><time>2026-04-03T19:43:40.717Z</time></trkpt><trkpt lat="45.4675066" lon="11.5600206"><ele>240.0</ele><time>2026-04-03T19:43:41.725Z</time></trkpt><trkpt lat="45.4673799" lon="11.5598951"><ele>240.0</ele><time>2026-04-03T19:43:42.715Z</time></trkpt><trkpt lat="45.4672462" lon="11.5597631"><ele>240.0</ele><time>2026-04-03T19:43:43.715Z</time></trkpt><trkpt lat="45.4671061" lon="11.5596376"><ele>236.33333333333331</ele><time>2026-04-03T19:43:44.716Z</time></trkpt><trkpt lat="45.4668319" lon="11.5594299"><ele>232.66666666666666</ele><time>2026-04-03T19:43:46.721Z</time></trkpt><trkpt lat="45.4667132" lon="11.5593548"><ele>229.0</ele><time>2026-04-03T19:43:47.733Z</time></trkpt><trkpt lat="45.4665909" lon="11.5593189"><ele>229.0</ele><time>2026-04-03T19:43:48.734Z</time></trkpt><trkpt lat="45.4665036" lon="11.5593499"><ele>229.0</ele><time>2026-04-03T19:43:49.727Z</time></trkpt><trkpt lat="45.4663926" lon="11.5594447"><ele>229.0</ele><time>2026-04-03T19:43:50.726Z</time></trkpt><trkpt lat="45.4662825" lon="11.5595448"><ele>229.0</ele><time>2026-04-03T19:43:51.724Z</time></trkpt><trkpt lat="45.4661694" lon="11.5596709"><ele>235.5</ele><time>2026-04-03T19:43:52.723Z</time></trkpt><trkpt lat="45.4660439" lon="11.5597848"><ele>242.0</ele><time>2026-04-03T19:43:53.718Z</time></trkpt><trkpt lat="45.4659235" lon="11.5598692"><ele>248.5</ele><time>2026-04-03T19:43:54.708Z</time></trkpt><trkpt lat="45.4657966" lon="11.5599382"><ele>255.0</ele><time>2026-04-03T19:43:55.711Z</time></trkpt><trkpt lat="45.465675" lon="11.5599959"><ele>255.0</ele><time>2026-04-03T19:43:56.716Z</time></trkpt><trkpt lat="45.4655587" lon="11.5600501"><ele>255.0</ele><time>2026-04-03T19:43:57.713Z</time></trkpt><trkpt lat="45.4654484" lon="11.5600829"><ele>255.0</ele><time>2026-04-03T19:43:58.724Z</time></trkpt><trkpt lat="45.4653437" lon="11.5601187"><ele>255.0</ele><time>2026-04-03T19:43:59.712Z</time></trkpt><trkpt lat="45.4652564" lon="11.5601479"><ele>255.0</ele><time>2026-04-03T19:44:00.707Z</time></trkpt><trkpt lat="45.4651684" lon="11.5601752"><ele>255.5</ele><time>2026-04-03T19:44:01.715Z</time></trkpt><trkpt lat="45.465098" lon="11.5601982"><ele>256.0</ele><time>2026-04-03T19:44:02.714Z</time></trkpt><trkpt lat="45.4649865" lon="11.5602087"><ele>256.5</ele><time>2026-04-03T19:44:04.713Z</time></trkpt><trkpt lat="45.4648836" lon="11.560128"><ele>257.0</ele><time>2026-04-03T19:44:06.71Z</time></trkpt><trkpt lat="45.4648134" lon="11.5598986"><ele>257.0</ele><time>2026-04-03T19:44:09.717Z</time></trkpt><trkpt lat="45.4648426" lon="11.5598108"><ele>257.0</ele><time>2026-04-03T19:44:10.715Z</time></trkpt><trkpt lat="45.4648735" lon="11.5597248"><ele>257.0</ele><time>2026-04-03T19:44:11.726Z</time></trkpt><trkpt lat="45.4649085" lon="11.5596243"><ele>257.0</ele><time>2026-04-03T19:44:12.712Z</time></trkpt><trkpt lat="45.46494" lon="11.5595167"><ele>257.0</ele><time>2026-04-03T19:44:13.71Z</time></trkpt><trkpt lat="45.4649674" lon="11.5594001"><ele>257.0</ele><time>2026-04-03T19:44:14.714Z</time></trkpt><trkpt lat="45.4649951" lon="11.5592856"><ele>256.1666666666667</ele><time>2026-04-03T19:44:15.707Z</time></trkpt><trkpt lat="45.4650122" lon="11.5591698"><ele>255.33333333333334</ele><time>2026-04-03T19:44:16.712Z</time></trkpt><trkpt lat="45.4650167" lon="11.5590468"><ele>254.5</ele><time>2026-04-03T19:44:17.711Z</time></trkpt><trkpt lat="45.4650119" lon="11.5589179"><ele>253.66666666666669</ele><time>2026-04-03T19:44:18.713Z</time></trkpt><trkpt lat="45.4650036" lon="11.5587946"><ele>252.83333333333334</ele><time>2026-04-03T19:44:19.71Z</time></trkpt><trkpt lat="45.4649843" lon="11.5586796"><ele>252.0</ele><time>2026-04-03T19:44:20.717Z</time></trkpt><trkpt lat="45.4649624" lon="11.5585687"><ele>251.33333333333334</ele><time>2026-04-03T19:44:21.712Z</time></trkpt><trkpt lat="45.464939" lon="11.5584648"><ele>250.66666666666669</ele><time>2026-04-03T19:44:22.711Z</time></trkpt><trkpt lat="45.4649072" lon="11.5583691"><ele>250.0</ele><time>2026-04-03T19:44:23.72Z</time></trkpt><trkpt lat="45.4648643" lon="11.5582732"><ele>249.33333333333334</ele><time>2026-04-03T19:44:24.716Z</time></trkpt><trkpt lat="45.4648243" lon="11.558177"><ele>248.66666666666669</ele><time>2026-04-03T19:44:25.727Z</time></trkpt><trkpt lat="45.4647772" lon="11.5580809"><ele>248.0</ele><time>2026-04-03T19:44:26.721Z</time></trkpt><trkpt lat="45.4647218" lon="11.5579896"><ele>251.8</ele><time>2026-04-03T19:44:27.722Z</time></trkpt><trkpt lat="45.4646009" lon="11.5578218"><ele>255.60000000000002</ele><time>2026-04-03T19:44:29.721Z</time></trkpt><trkpt lat="45.4645386" lon="11.557745"><ele>259.4</ele><time>2026-04-03T19:44:30.723Z</time></trkpt><trkpt lat="45.464481" lon="11.5576777"><ele>263.2</ele><time>2026-04-03T19:44:31.72Z</time></trkpt><trkpt lat="45.4644165" lon="11.5576182"><ele>267.0</ele><time>2026-04-03T19:44:32.715Z</time></trkpt><trkpt lat="45.4643571" lon="11.5575547"><ele>267.0</ele><time>2026-04-03T19:44:33.726Z</time></trkpt><trkpt lat="45.4643008" lon="11.5574915"><ele>267.0</ele><time>2026-04-03T19:44:34.72Z</time></trkpt><trkpt lat="45.4642273" lon="11.5573507"><ele>267.0</ele><time>2026-04-03T19:44:36.721Z</time></trkpt><trkpt lat="45.4641926" lon="11.5572707"><ele>267.0</ele><time>2026-04-03T19:44:37.718Z</time></trkpt><trkpt lat="45.4641677" lon="11.5570893"><ele>267.0</ele><time>2026-04-03T19:44:39.714Z</time></trkpt><trkpt lat="45.4641819" lon="11.5569781"><ele>266.8</ele><time>2026-04-03T19:44:40.721Z</time></trkpt><trkpt lat="45.4642155" lon="11.5568557"><ele>266.6</ele><time>2026-04-03T19:44:41.724Z</time></trkpt><trkpt lat="45.4642547" lon="11.5567252"><ele>266.40000000000003</ele><time>2026-04-03T19:44:42.718Z</time></trkpt><trkpt lat="45.4642966" lon="11.5565983"><ele>266.2</ele><time>2026-04-03T19:44:43.726Z</time></trkpt><trkpt lat="45.4643346" lon="11.5564709"><ele>266.0</ele><time>2026-04-03T19:44:44.722Z</time></trkpt><trkpt lat="45.4643477" lon="11.5563482"><ele>266.0</ele><time>2026-04-03T19:44:45.72Z</time></trkpt><trkpt lat="45.464362" lon="11.5562323"><ele>266.0</ele><time>2026-04-03T19:44:46.725Z</time></trkpt><trkpt lat="45.4643775" lon="11.556132"><ele>266.0</ele><time>2026-04-03T19:44:47.723Z</time></trkpt><trkpt lat="45.4644006" lon="11.5560332"><ele>266.0</ele><time>2026-04-03T19:44:48.73Z</time></trkpt><trkpt lat="45.4644725" lon="11.5558217"><ele>266.0</ele><time>2026-04-03T19:44:50.727Z</time></trkpt><trkpt lat="45.4645128" lon="11.5557333"><ele>266.1666666666667</ele><time>2026-04-03T19:44:51.725Z</time></trkpt><trkpt lat="45.464561" lon="11.5556426"><ele>266.33333333333337</ele><time>2026-04-03T19:44:52.725Z</time></trkpt><trkpt lat="45.4645915" lon="11.5555509"><ele>266.5</ele><time>2026-04-03T19:44:53.727Z</time></trkpt><trkpt lat="45.4646186" lon="11.5554606"><ele>266.6666666666667</ele><time>2026-04-03T19:44:54.718Z</time></trkpt><trkpt lat="45.4646448" lon="11.5553255"><ele>266.8333333333333</ele><time>2026-04-03T19:44:56.726Z</time></trkpt><trkpt lat="45.4645989" lon="11.5551815"><ele>267.0</ele><time>2026-04-03T19:45:07.716Z</time></trkpt><trkpt lat="45.4645831" lon="11.5550347"><ele>265.5</ele><time>2026-04-03T19:45:09.713Z</time></trkpt><trkpt lat="45.4645569" lon="11.5547771"><ele>264.0</ele><time>2026-04-03T19:45:12.716Z</time></trkpt><trkpt lat="45.4645088" lon="11.5546502"><ele>262.5</ele><time>2026-04-03T19:45:14.727Z</time></trkpt><trkpt lat="45.4644225" lon="11.5545083"><ele>261.0</ele><time>2026-04-03T19:45:16.726Z</time></trkpt><trkpt lat="45.4643738" lon="11.5544383"><ele>258.0</ele><time>2026-04-03T19:45:17.727Z</time></trkpt><trkpt lat="45.4643264" lon="11.5543768"><ele>255.0</ele><time>2026-04-03T19:45:18.73Z</time></trkpt><trkpt lat="45.464213" lon="11.5543424"><ele>252.0</ele><time>2026-04-03T19:45:20.732Z</time></trkpt><trkpt lat="45.4641401" lon="11.5543292"><ele>249.0</ele><time>2026-04-03T19:45:21.73Z</time></trkpt><trkpt lat="45.4640625" lon="11.5543088"><ele>246.0</ele><time>2026-04-03T19:45:22.731Z</time></trkpt><trkpt lat="45.4639824" lon="11.554281"><ele>243.0</ele><time>2026-04-03T19:45:23.736Z</time></trkpt><trkpt lat="45.4639091" lon="11.5542631"><ele>243.0</ele><time>2026-04-03T19:45:24.733Z</time></trkpt><trkpt lat="45.4638411" lon="11.5542374"><ele>243.0</ele><time>2026-04-03T19:45:25.733Z</time></trkpt><trkpt lat="45.4637673" lon="11.5542097"><ele>243.0</ele><time>2026-04-03T19:45:26.732Z</time></trkpt><trkpt lat="45.4636946" lon="11.5541898"><ele>243.0</ele><time>2026-04-03T19:45:27.73Z</time></trkpt><trkpt lat="45.4636189" lon="11.5541827"><ele>243.0</ele><time>2026-04-03T19:45:28.737Z</time></trkpt><trkpt lat="45.4635372" lon="11.5541819"><ele>243.0</ele><time>2026-04-03T19:45:29.732Z</time></trkpt><trkpt lat="45.4634677" lon="11.5541843"><ele>243.0</ele><time>2026-04-03T19:45:30.733Z</time></trkpt><trkpt lat="45.4633291" lon="11.5542149"><ele>243.0</ele><time>2026-04-03T19:45:32.728Z</time></trkpt><trkpt lat="45.4632672" lon="11.5542315"><ele>243.0</ele><time>2026-04-03T19:45:33.735Z</time></trkpt><trkpt lat="45.4631515" lon="11.5542949"><ele>243.0</ele><time>2026-04-03T19:45:35.722Z</time></trkpt><trkpt lat="45.4630947" lon="11.5543457"><ele>243.0</ele><time>2026-04-03T19:45:36.726Z</time></trkpt><trkpt lat="45.4630419" lon="11.5544091"><ele>243.0</ele><time>2026-04-03T19:45:37.724Z</time></trkpt><trkpt lat="45.4629858" lon="11.5544805"><ele>243.0</ele><time>2026-04-03T19:45:38.733Z</time></trkpt><trkpt lat="45.4629324" lon="11.5545542"><ele>243.71428571428572</ele><time>2026-04-03T19:45:39.729Z</time></trkpt><trkpt lat="45.4628827" lon="11.5546196"><ele>244.42857142857144</ele><time>2026-04-03T19:45:40.729Z</time></trkpt><trkpt lat="45.4628385" lon="11.5546992"><ele>245.14285714285717</ele><time>2026-04-03T19:45:41.732Z</time></trkpt><trkpt lat="45.4627975" lon="11.554778"><ele>245.85714285714286</ele><time>2026-04-03T19:45:42.725Z</time></trkpt><trkpt lat="45.4627557" lon="11.554848"><ele>246.5714285714286</ele><time>2026-04-03T19:45:43.734Z</time></trkpt><trkpt lat="45.4627069" lon="11.5549078"><ele>247.2857142857143</ele><time>2026-04-03T19:45:44.731Z</time></trkpt><trkpt lat="45.4626499" lon="11.5549644"><ele>248.0</ele><time>2026-04-03T19:45:45.725Z</time></trkpt><trkpt lat="45.4625468" lon="11.5550188"><ele>248.0</ele><time>2026-04-03T19:45:47.721Z</time></trkpt><trkpt lat="45.4624228" lon="11.5550498"><ele>248.0</ele><time>2026-04-03T19:45:49.722Z</time></trkpt><trkpt lat="45.4623487" lon="11.5550692"><ele>248.0</ele><time>2026-04-03T19:45:50.73Z</time></trkpt><trkpt lat="45.4622834" lon="11.5550929"><ele>248.0</ele><time>2026-04-03T19:45:51.724Z</time></trkpt><trkpt lat="45.4621375" lon="11.5551605"><ele>248.0</ele><time>2026-04-03T19:45:53.72Z</time></trkpt><trkpt lat="45.4620716" lon="11.5552004"><ele>246.16666666666669</ele><time>2026-04-03T19:45:54.714Z</time></trkpt><trkpt lat="45.4619729" lon="11.5551824"><ele>244.33333333333334</ele><time>2026-04-03T19:45:56.714Z</time></trkpt><trkpt lat="45.4619482" lon="11.5550737"><ele>242.5</ele><time>2026-04-03T19:45:58.72Z</time></trkpt><trkpt lat="45.4619168" lon="11.5549752"><ele>240.66666666666669</ele><time>2026-04-03T19:46:00.722Z</time></trkpt><trkpt lat="45.4618605" lon="11.5549038"><ele>238.83333333333334</ele><time>2026-04-03T19:46:03.715Z</time></trkpt><trkpt lat="45.461794" lon="11.5548705"><ele>237.0</ele><time>2026-04-03T19:46:06.723Z</time></trkpt><trkpt lat="45.461702" lon="11.5548534"><ele>237.0</ele><time>2026-04-03T19:46:09.73Z</time></trkpt><trkpt lat="45.461621" lon="11.5548618"><ele>237.0</ele><time>2026-04-03T19:46:11.723Z</time></trkpt><trkpt lat="45.4615416" lon="11.5548976"><ele>237.0</ele><time>2026-04-03T19:46:13.714Z</time></trkpt><trkpt lat="45.4613627" lon="11.5549664"><ele>237.0</ele><time>2026-04-03T19:46:42.722Z</time></trkpt><trkpt lat="45.4611648" lon="11.5550169"><ele>235.2</ele><time>2026-04-03T19:46:46.706Z</time></trkpt><trkpt lat="45.4610535" lon="11.5550662"><ele>233.39999999999998</ele><time>2026-04-03T19:46:48.705Z</time></trkpt><trkpt lat="45.4609876" lon="11.5550866"><ele>231.60000000000002</ele><time>2026-04-03T19:46:49.715Z</time></trkpt><trkpt lat="45.4608881" lon="11.5551282"><ele>229.8</ele><time>2026-04-03T19:46:51.715Z</time></trkpt><trkpt lat="45.4607909" lon="11.5551709"><ele>228.0</ele><time>2026-04-03T19:46:53.713Z</time></trkpt><trkpt lat="45.4607015" lon="11.555204"><ele>228.0</ele><time>2026-04-03T19:46:55.709Z</time></trkpt><trkpt lat="45.4606448" lon="11.5552493"><ele>228.0</ele><time>2026-04-03T19:48:12.718Z</time></trkpt><trkpt lat="45.4604978" lon="11.5553222"><ele>228.0</ele><time>2026-04-03T19:48:15.711Z</time></trkpt><trkpt lat="45.4604257" lon="11.5553788"><ele>228.0</ele><time>2026-04-03T19:48:16.695Z</time></trkpt><trkpt lat="45.4603435" lon="11.5554412"><ele>228.0</ele><time>2026-04-03T19:48:17.708Z</time></trkpt><trkpt lat="45.4602593" lon="11.5554977"><ele>233.0</ele><time>2026-04-03T19:48:18.713Z</time></trkpt><trkpt lat="45.4601774" lon="11.5555346"><ele>238.0</ele><time>2026-04-03T19:48:19.706Z</time></trkpt><trkpt lat="45.4600931" lon="11.5555497"><ele>243.0</ele><time>2026-04-03T19:48:20.712Z</time></trkpt><trkpt lat="45.4600071" lon="11.55558"><ele>248.0</ele><time>2026-04-03T19:48:21.707Z</time></trkpt><trkpt lat="45.4599159" lon="11.5556227"><ele>253.0</ele><time>2026-04-03T19:48:22.698Z</time></trkpt><trkpt lat="45.4598259" lon="11.5556706"><ele>252.99999999999997</ele><time>2026-04-03T19:48:23.71Z</time></trkpt><trkpt lat="45.4597452" lon="11.555713"><ele>253.0</ele><time>2026-04-03T19:48:24.705Z</time></trkpt><trkpt lat="45.4596833" lon="11.5557586"><ele>253.0</ele><time>2026-04-03T19:48:25.709Z</time></trkpt><trkpt lat="45.4596264" lon="11.5557994"><ele>253.0</ele><time>2026-04-03T19:48:26.701Z</time></trkpt><trkpt lat="45.4595692" lon="11.5557567"><ele>252.99999999999997</ele><time>2026-04-03T19:49:02.717Z</time></trkpt><trkpt lat="45.4597317" lon="11.5557185"><ele>253.0</ele><time>2026-04-03T19:49:12.689Z</time></trkpt><trkpt lat="45.4597899" lon="11.5556813"><ele>253.0</ele><time>2026-04-03T19:49:13.69Z</time></trkpt><trkpt lat="45.4598834" lon="11.5556416"><ele>253.0</ele><time>2026-04-03T19:49:15.693Z</time></trkpt><trkpt lat="45.459982" lon="11.5556116"><ele>253.0</ele><time>2026-04-03T19:49:17.699Z</time></trkpt><trkpt lat="45.4600702" lon="11.5555842"><ele>253.0</ele><time>2026-04-03T19:49:19.702Z</time></trkpt><trkpt lat="45.4601351" lon="11.5555726"><ele>253.0</ele><time>2026-04-03T19:49:26.712Z</time></trkpt><trkpt lat="45.4602754" lon="11.5555515"><ele>253.0</ele><time>2026-04-03T19:49:39.711Z</time></trkpt><trkpt lat="45.460371" lon="11.5554917"><ele>253.0</ele><time>2026-04-03T19:49:41.709Z</time></trkpt><trkpt lat="45.4604692" lon="11.555413"><ele>253.0</ele><time>2026-04-03T19:49:43.709Z</time></trkpt><trkpt lat="45.4605718" lon="11.5553433"><ele>253.0</ele><time>2026-04-03T19:49:45.711Z</time></trkpt><trkpt lat="45.460657" lon="11.5553045"><ele>253.0</ele><time>2026-04-03T19:49:47.713Z</time></trkpt><trkpt lat="45.4607967" lon="11.5551775"><ele>248.83333333333331</ele><time>2026-04-03T19:49:52.714Z</time></trkpt><trkpt lat="45.460863" lon="11.5551028"><ele>244.66666666666666</ele><time>2026-04-03T19:49:55.708Z</time></trkpt><trkpt lat="45.4609239" lon="11.5550514"><ele>240.5</ele><time>2026-04-03T19:49:57.717Z</time></trkpt><trkpt lat="45.4609679" lon="11.5549869"><ele>236.33333333333331</ele><time>2026-04-03T19:49:59.713Z</time></trkpt><trkpt lat="45.4610358" lon="11.5549094"><ele>232.16666666666666</ele><time>2026-04-03T19:50:02.715Z</time></trkpt><trkpt lat="45.4611012" lon="11.554848"><ele>228.0</ele><time>2026-04-03T19:50:05.715Z</time></trkpt><trkpt lat="45.4611857" lon="11.5548033"><ele>229.8</ele><time>2026-04-03T19:50:08.72Z</time></trkpt><trkpt lat="45.4613354" lon="11.5546915"><ele>231.60000000000002</ele><time>2026-04-03T19:50:13.721Z</time></trkpt><trkpt lat="45.4614156" lon="11.5546218"><ele>233.39999999999998</ele><time>2026-04-03T19:50:15.717Z</time></trkpt><trkpt lat="45.4614789" lon="11.5545427"><ele>235.2</ele><time>2026-04-03T19:50:17.715Z</time></trkpt><trkpt lat="45.4615499" lon="11.5544711"><ele>237.0</ele><time>2026-04-03T19:50:19.719Z</time></trkpt><trkpt lat="45.4616233" lon="11.554412"><ele>231.8</ele><time>2026-04-03T19:50:21.721Z</time></trkpt><trkpt lat="45.461693" lon="11.5543453"><ele>226.6</ele><time>2026-04-03T19:50:23.721Z</time></trkpt><trkpt lat="45.4617466" lon="11.5542868"><ele>221.4</ele><time>2026-04-03T19:50:25.721Z</time></trkpt><trkpt lat="45.4618037" lon="11.554231"><ele>216.20000000000002</ele><time>2026-04-03T19:50:27.722Z</time></trkpt><trkpt lat="45.4618692" lon="11.5541936"><ele>211.0</ele><time>2026-04-03T19:50:29.715Z</time></trkpt><trkpt lat="45.4620181" lon="11.5540986"><ele>211.0</ele><time>2026-04-03T19:50:35.717Z</time></trkpt><trkpt lat="45.4620912" lon="11.5540692"><ele>211.0</ele><time>2026-04-03T19:50:39.715Z</time></trkpt><trkpt lat="45.4621452" lon="11.5539804"><ele>211.0</ele><time>2026-04-03T19:50:43.717Z</time></trkpt><trkpt lat="45.4622157" lon="11.5538995"><ele>211.0</ele><time>2026-04-03T19:50:56.721Z</time></trkpt><trkpt lat="45.4623767" lon="11.5537342"><ele>211.0</ele><time>2026-04-03T19:51:57.719Z</time></trkpt><trkpt lat="45.4624341" lon="11.5536478"><ele>208.16666666666666</ele><time>2026-04-03T19:51:59.716Z</time></trkpt><trkpt lat="45.4624972" lon="11.5535632"><ele>205.33333333333331</ele><time>2026-04-03T19:52:01.727Z</time></trkpt><trkpt lat="45.4625687" lon="11.5534789"><ele>202.5</ele><time>2026-04-03T19:52:03.716Z</time></trkpt><trkpt lat="45.4626287" lon="11.5534003"><ele>199.66666666666669</ele><time>2026-04-03T19:52:05.721Z</time></trkpt><trkpt lat="45.4626878" lon="11.5533428"><ele>196.83333333333334</ele><time>2026-04-03T19:52:07.719Z</time></trkpt><trkpt lat="45.4627712" lon="11.5533624"><ele>194.0</ele><time>2026-04-03T19:52:13.721Z</time></trkpt><trkpt lat="45.4628654" lon="11.5533787"><ele>196.0</ele><time>2026-04-03T19:52:16.718Z</time></trkpt><trkpt lat="45.463024" lon="11.5533577"><ele>198.0</ele><time>2026-04-03T19:52:20.72Z</time></trkpt><trkpt lat="45.4630925" lon="11.5533306"><ele>200.0</ele><time>2026-04-03T19:52:22.715Z</time></trkpt><trkpt lat="45.4631653" lon="11.5532847"><ele>202.0</ele><time>2026-04-03T19:52:25.719Z</time></trkpt><trkpt lat="45.4632326" lon="11.5532309"><ele>204.0</ele><time>2026-04-03T19:52:28.728Z</time></trkpt><trkpt lat="45.4633032" lon="11.5531708"><ele>204.0</ele><time>2026-04-03T19:52:31.725Z</time></trkpt><trkpt lat="45.4633726" lon="11.5531369"><ele>204.0</ele><time>2026-04-03T19:52:34.723Z</time></trkpt><trkpt lat="45.4634276" lon="11.5530734"><ele>204.0</ele><time>2026-04-03T19:52:36.717Z</time></trkpt><trkpt lat="45.4634865" lon="11.5530096"><ele>204.0</ele><time>2026-04-03T19:52:38.725Z</time></trkpt><trkpt lat="45.4636426" lon="11.5528796"><ele>204.0</ele><time>2026-04-03T19:52:42.725Z</time></trkpt><trkpt lat="45.4636979" lon="11.5528334"><ele>199.5</ele><time>2026-04-03T19:52:43.725Z</time></trkpt><trkpt lat="45.4638091" lon="11.5527661"><ele>195.0</ele><time>2026-04-03T19:52:45.723Z</time></trkpt><trkpt lat="45.4639022" lon="11.5527143"><ele>190.5</ele><time>2026-04-03T19:52:47.732Z</time></trkpt><trkpt lat="45.4639649" lon="11.5526782"><ele>186.0</ele><time>2026-04-03T19:53:17.739Z</time></trkpt><trkpt lat="45.4640694" lon="11.5524833"><ele>186.0</ele><time>2026-04-03T19:53:21.719Z</time></trkpt><trkpt lat="45.4641193" lon="11.5524155"><ele>186.0</ele><time>2026-04-03T19:53:22.716Z</time></trkpt><trkpt lat="45.4641713" lon="11.5523581"><ele>186.0</ele><time>2026-04-03T19:53:23.72Z</time></trkpt><trkpt lat="45.4642779" lon="11.5523228"><ele>186.0</ele><time>2026-04-03T19:53:25.716Z</time></trkpt><trkpt lat="45.4643733" lon="11.5523271"><ele>186.0</ele><time>2026-04-03T19:53:27.722Z</time></trkpt><trkpt lat="45.4644754" lon="11.5522969"><ele>186.0</ele><time>2026-04-03T19:53:29.728Z</time></trkpt><trkpt lat="45.4645382" lon="11.5522876"><ele>185.20000000000002</ele><time>2026-04-03T19:53:30.722Z</time></trkpt><trkpt lat="45.4646609" lon="11.5522821"><ele>184.4</ele><time>2026-04-03T19:53:32.72Z</time></trkpt><trkpt lat="45.4647665" lon="11.5523529"><ele>183.6</ele><time>2026-04-03T19:53:34.723Z</time></trkpt><trkpt lat="45.4648362" lon="11.5524856"><ele>182.8</ele><time>2026-04-03T19:53:36.723Z</time></trkpt><trkpt lat="45.4649043" lon="11.5525588"><ele>182.0</ele><time>2026-04-03T19:53:38.736Z</time></trkpt><trkpt lat="45.4650126" lon="11.5526783"><ele>182.0</ele><time>2026-04-03T19:53:58.744Z</time></trkpt><trkpt lat="45.4650652" lon="11.5527618"><ele>182.0</ele><time>2026-04-03T19:54:00.73Z</time></trkpt><trkpt lat="45.4652009" lon="11.552931"><ele>182.0</ele><time>2026-04-03T19:54:04.72Z</time></trkpt><trkpt lat="45.4652725" lon="11.5530136"><ele>182.0</ele><time>2026-04-03T19:54:06.72Z</time></trkpt><trkpt lat="45.4653376" lon="11.5530703"><ele>182.0</ele><time>2026-04-03T19:54:08.719Z</time></trkpt><trkpt lat="45.4654191" lon="11.5531208"><ele>177.8</ele><time>2026-04-03T19:54:11.719Z</time></trkpt><trkpt lat="45.4654857" lon="11.5532064"><ele>173.6</ele><time>2026-04-03T19:54:13.713Z</time></trkpt><trkpt lat="45.4655686" lon="11.5533481"><ele>169.4</ele><time>2026-04-03T19:54:15.721Z</time></trkpt><trkpt lat="45.4655997" lon="11.5534289"><ele>165.20000000000002</ele><time>2026-04-03T19:54:16.725Z</time></trkpt><trkpt lat="45.4656513" lon="11.5535705"><ele>161.0</ele><time>2026-04-03T19:54:18.73Z</time></trkpt><trkpt lat="45.465698" lon="11.5537016"><ele>162.25</ele><time>2026-04-03T19:54:20.726Z</time></trkpt><trkpt lat="45.465743" lon="11.5538448"><ele>163.5</ele><time>2026-04-03T19:54:22.717Z</time></trkpt><trkpt lat="45.4658423" lon="11.5541248"><ele>164.75</ele><time>2026-04-03T19:54:26.723Z</time></trkpt><trkpt lat="45.4658918" lon="11.5542622"><ele>166.0</ele><time>2026-04-03T19:54:28.728Z</time></trkpt><trkpt lat="45.4659321" lon="11.5544075"><ele>166.0</ele><time>2026-04-03T19:54:30.722Z</time></trkpt><trkpt lat="45.4660067" lon="11.5544041"><ele>166.0</ele><time>2026-04-03T19:54:36.725Z</time></trkpt><trkpt lat="45.4660371" lon="11.5543242"><ele>166.0</ele><time>2026-04-03T19:54:38.726Z</time></trkpt><trkpt lat="45.4660843" lon="11.5542109"><ele>166.0</ele><time>2026-04-03T19:54:40.718Z</time></trkpt><trkpt lat="45.4661056" lon="11.554076"><ele>166.0</ele><time>2026-04-03T19:54:42.718Z</time></trkpt><trkpt lat="45.4661388" lon="11.5539321"><ele>166.0</ele><time>2026-04-03T19:54:44.72Z</time></trkpt><trkpt lat="45.4662945" lon="11.5538058"><ele>159.8</ele><time>2026-04-03T19:54:48.72Z</time></trkpt><trkpt lat="45.4664064" lon="11.5538237"><ele>153.60000000000002</ele><time>2026-04-03T19:54:50.719Z</time></trkpt><trkpt lat="45.4664907" lon="11.5539081"><ele>147.4</ele><time>2026-04-03T19:54:52.718Z</time></trkpt><trkpt lat="45.4665719" lon="11.5540214"><ele>141.2</ele><time>2026-04-03T19:54:54.72Z</time></trkpt><trkpt lat="45.4666333" lon="11.5541685"><ele>135.0</ele><time>2026-04-03T19:54:56.714Z</time></trkpt><trkpt lat="45.4666879" lon="11.5542979"><ele>135.0</ele><time>2026-04-03T19:54:58.723Z</time></trkpt><trkpt lat="45.4667464" lon="11.55444"><ele>135.0</ele><time>2026-04-03T19:55:00.72Z</time></trkpt><trkpt lat="45.4667982" lon="11.5545855"><ele>135.0</ele><time>2026-04-03T19:55:02.714Z</time></trkpt><trkpt lat="45.4668582" lon="11.554709"><ele>135.0</ele><time>2026-04-03T19:55:04.703Z</time></trkpt><trkpt lat="45.4669275" lon="11.5547964"><ele>135.0</ele><time>2026-04-03T19:55:06.71Z</time></trkpt><trkpt lat="45.4670722" lon="11.554959"><ele>131.83333333333334</ele><time>2026-04-03T19:55:10.707Z</time></trkpt><trkpt lat="45.4671607" lon="11.5549192"><ele>128.66666666666666</ele><time>2026-04-03T19:55:12.713Z</time></trkpt><trkpt lat="45.4672101" lon="11.5548261"><ele>125.5</ele><time>2026-04-03T19:55:14.706Z</time></trkpt><trkpt lat="45.4672165" lon="11.5547092"><ele>122.33333333333333</ele><time>2026-04-03T19:55:16.71Z</time></trkpt><trkpt lat="45.4672421" lon="11.5546021"><ele>119.16666666666666</ele><time>2026-04-03T19:55:18.706Z</time></trkpt><trkpt lat="45.4672925" lon="11.5544852"><ele>116.0</ele><time>2026-04-03T19:55:20.703Z</time></trkpt><trkpt lat="45.4673608" lon="11.5543922"><ele>112.0</ele><time>2026-04-03T19:55:22.702Z</time></trkpt><trkpt lat="45.4674424" lon="11.5543766"><ele>108.0</ele><time>2026-04-03T19:55:25.701Z</time></trkpt><trkpt lat="45.4674883" lon="11.5544768"><ele>104.0</ele><time>2026-04-03T19:55:28.719Z</time></trkpt><trkpt lat="45.4676885" lon="11.5543209"><ele>100.0</ele><time>2026-04-03T20:00:12.699Z</time></trkpt><trkpt lat="45.4677554" lon="11.5542803"><ele>100.00000000000001</ele><time>2026-04-03T20:00:13.714Z</time></trkpt><trkpt lat="45.4678251" lon="11.5542492"><ele>100.0</ele><time>2026-04-03T20:00:14.7Z</time></trkpt><trkpt lat="45.4678829" lon="11.5542105"><ele>100.0</ele><time>2026-04-03T20:00:15.706Z</time></trkpt><trkpt lat="45.467949" lon="11.554165"><ele>100.0</ele><time>2026-04-03T20:00:16.71Z</time></trkpt><trkpt lat="45.4680227" lon="11.5541067"><ele>100.00000000000001</ele><time>2026-04-03T20:00:17.708Z</time></trkpt><trkpt lat="45.4680955" lon="11.554021"><ele>100.0</ele><time>2026-04-03T20:00:18.704Z</time></trkpt><trkpt lat="45.4681649" lon="11.5539267"><ele>100.16666666666667</ele><time>2026-04-03T20:00:19.707Z</time></trkpt><trkpt lat="45.468228" lon="11.5538623"><ele>100.33333333333334</ele><time>2026-04-03T20:00:20.708Z</time></trkpt><trkpt lat="45.4682925" lon="11.5538273"><ele>100.5</ele><time>2026-04-03T20:00:21.702Z</time></trkpt><trkpt lat="45.4683646" lon="11.5537995"><ele>100.66666666666666</ele><time>2026-04-03T20:00:22.707Z</time></trkpt><trkpt lat="45.4684468" lon="11.5537718"><ele>100.83333333333333</ele><time>2026-04-03T20:00:23.706Z</time></trkpt><trkpt lat="45.4685436" lon="11.5537499"><ele>101.0</ele><time>2026-04-03T20:00:24.704Z</time></trkpt><trkpt lat="45.4686384" lon="11.5537199"><ele>101.0</ele><time>2026-04-03T20:00:25.707Z</time></trkpt><trkpt lat="45.4687243" lon="11.553707"><ele>101.0</ele><time>2026-04-03T20:00:26.711Z</time></trkpt><trkpt lat="45.4687907" lon="11.5537056"><ele>101.0</ele><time>2026-04-03T20:00:27.706Z</time></trkpt><trkpt lat="45.4688536" lon="11.5536961"><ele>101.0</ele><time>2026-04-03T20:00:28.72Z</time></trkpt><trkpt lat="45.4689633" lon="11.5536842"><ele>101.0</ele><time>2026-04-03T20:00:30.705Z</time></trkpt><trkpt lat="45.469117" lon="11.5536538"><ele>97.83333333333333</ele><time>2026-04-03T20:00:32.705Z</time></trkpt><trkpt lat="45.4692058" lon="11.5536261"><ele>94.66666666666666</ele><time>2026-04-03T20:00:33.709Z</time></trkpt><trkpt lat="45.4692831" lon="11.5535946"><ele>91.5</ele><time>2026-04-03T20:00:34.713Z</time></trkpt><trkpt lat="45.469356" lon="11.5535706"><ele>88.33333333333333</ele><time>2026-04-03T20:00:35.711Z</time></trkpt><trkpt lat="45.4694263" lon="11.5535664"><ele>85.16666666666666</ele><time>2026-04-03T20:00:36.705Z</time></trkpt><trkpt lat="45.469504" lon="11.5535813"><ele>82.0</ele><time>2026-04-03T20:00:37.709Z</time></trkpt><trkpt lat="45.4695888" lon="11.5535963"><ele>84.5</ele><time>2026-04-03T20:00:38.718Z</time></trkpt><trkpt lat="45.4696647" lon="11.5536012"><ele>87.0</ele><time>2026-04-03T20:00:39.711Z</time></trkpt><trkpt lat="45.469733" lon="11.5535778"><ele>89.5</ele><time>2026-04-03T20:00:40.708Z</time></trkpt><trkpt lat="45.4698021" lon="11.5535433"><ele>92.0</ele><time>2026-04-03T20:00:41.707Z</time></trkpt><trkpt lat="45.4698786" lon="11.5535019"><ele>94.50000000000001</ele><time>2026-04-03T20:00:42.7Z</time></trkpt><trkpt lat="45.469965" lon="11.5534628"><ele>97.0</ele><time>2026-04-03T20:00:43.705Z</time></trkpt><trkpt lat="45.4700405" lon="11.5534171"><ele>97.0</ele><time>2026-04-03T20:00:44.705Z</time></trkpt><trkpt lat="45.470092" lon="11.5533497"><ele>97.0</ele><time>2026-04-03T20:00:45.7Z</time></trkpt><trkpt lat="45.4701213" lon="11.5532015"><ele>97.0</ele><time>2026-04-03T20:00:47.705Z</time></trkpt><trkpt lat="45.4701203" lon="11.5530409"><ele>97.0</ele><time>2026-04-03T20:00:49.709Z</time></trkpt><trkpt lat="45.4701428" lon="11.5529123"><ele>97.0</ele><time>2026-04-03T20:00:51.705Z</time></trkpt><trkpt lat="45.4703538" lon="11.5528832"><ele>97.0</ele><time>2026-04-03T20:00:55.718Z</time></trkpt><trkpt lat="45.4704238" lon="11.5528732"><ele>97.0</ele><time>2026-04-03T20:00:56.711Z</time></trkpt><trkpt lat="45.470496" lon="11.552867"><ele>97.0</ele><time>2026-04-03T20:00:57.717Z</time></trkpt><trkpt lat="45.4705698" lon="11.5528716"><ele>97.0</ele><time>2026-04-03T20:00:58.723Z</time></trkpt><trkpt lat="45.4706344" lon="11.5528812"><ele>97.0</ele><time>2026-04-03T20:00:59.711Z</time></trkpt><trkpt lat="45.4706998" lon="11.5529173"><ele>97.0</ele><time>2026-04-03T20:01:00.716Z</time></trkpt><trkpt lat="45.4707665" lon="11.5529556"><ele>97.0</ele><time>2026-04-03T20:01:01.717Z</time></trkpt><trkpt lat="45.4708265" lon="11.553"><ele>99.66666666666667</ele><time>2026-04-03T20:01:02.708Z</time></trkpt><trkpt lat="45.4708846" lon="11.5530421"><ele>102.33333333333334</ele><time>2026-04-03T20:01:03.718Z</time></trkpt><trkpt lat="45.4709423" lon="11.5530951"><ele>105.0</ele><time>2026-04-03T20:01:04.712Z</time></trkpt><trkpt lat="45.4710074" lon="11.5531408"><ele>107.66666666666666</ele><time>2026-04-03T20:01:05.73Z</time></trkpt><trkpt lat="45.4710761" lon="11.5531933"><ele>110.33333333333333</ele><time>2026-04-03T20:01:06.721Z</time></trkpt><trkpt lat="45.4711463" lon="11.5532347"><ele>113.0</ele><time>2026-04-03T20:01:07.725Z</time></trkpt><trkpt lat="45.47127" lon="11.5532881"><ele>115.33333333333333</ele><time>2026-04-03T20:01:09.722Z</time></trkpt><trkpt lat="45.471335" lon="11.5533183"><ele>117.66666666666666</ele><time>2026-04-03T20:01:10.73Z</time></trkpt><trkpt lat="45.4713977" lon="11.5533529"><ele>120.0</ele><time>2026-04-03T20:01:11.726Z</time></trkpt><trkpt lat="45.4714657" lon="11.553388"><ele>122.33333333333334</ele><time>2026-04-03T20:01:12.728Z</time></trkpt><trkpt lat="45.4716162" lon="11.553437"><ele>124.66666666666667</ele><time>2026-04-03T20:01:14.717Z</time></trkpt><trkpt lat="45.4716872" lon="11.5534527"><ele>127.0</ele><time>2026-04-03T20:01:15.726Z</time></trkpt><trkpt lat="45.4717542" lon="11.5534564"><ele>127.0</ele><time>2026-04-03T20:01:16.722Z</time></trkpt><trkpt lat="45.4718186" lon="11.5534602"><ele>126.99999999999999</ele><time>2026-04-03T20:01:17.721Z</time></trkpt><trkpt lat="45.4719249" lon="11.553498"><ele>126.99999999999999</ele><time>2026-04-03T20:01:19.722Z</time></trkpt><trkpt lat="45.4720182" lon="11.5535593"><ele>127.0</ele><time>2026-04-03T20:01:21.716Z</time></trkpt><trkpt lat="45.4720932" lon="11.5536292"><ele>127.0</ele><time>2026-04-03T20:01:23.72Z</time></trkpt><trkpt lat="45.4721593" lon="11.5537019"><ele>127.0</ele><time>2026-04-03T20:01:25.722Z</time></trkpt><trkpt lat="45.4721645" lon="11.553578"><ele>127.0</ele><time>2026-04-03T20:02:18.734Z</time></trkpt><trkpt lat="45.4720877" lon="11.5533022"><ele>127.0</ele><time>2026-04-03T20:02:21.73Z</time></trkpt><trkpt lat="45.4720635" lon="11.5531954"><ele>127.0</ele><time>2026-04-03T20:02:22.726Z</time></trkpt><trkpt lat="45.4720339" lon="11.5530874"><ele>127.00000000000001</ele><time>2026-04-03T20:02:23.732Z</time></trkpt><trkpt lat="45.4720049" lon="11.5529853"><ele>127.0</ele><time>2026-04-03T20:02:24.733Z</time></trkpt><trkpt lat="45.4719761" lon="11.5528887"><ele>127.0</ele><time>2026-04-03T20:02:25.726Z</time></trkpt><trkpt lat="45.4719476" lon="11.5527953"><ele>127.0</ele><time>2026-04-03T20:02:26.732Z</time></trkpt><trkpt lat="45.4719185" lon="11.5526984"><ele>127.00000000000001</ele><time>2026-04-03T20:02:27.731Z</time></trkpt><trkpt lat="45.4718916" lon="11.552595"><ele>127.0</ele><time>2026-04-03T20:02:28.732Z</time></trkpt><trkpt lat="45.4718682" lon="11.5524833"><ele>126.66666666666667</ele><time>2026-04-03T20:02:29.726Z</time></trkpt><trkpt lat="45.4718526" lon="11.5523662"><ele>126.33333333333334</ele><time>2026-04-03T20:02:30.731Z</time></trkpt><trkpt lat="45.471837" lon="11.5522533"><ele>126.0</ele><time>2026-04-03T20:02:31.731Z</time></trkpt><trkpt lat="45.4718157" lon="11.5521384"><ele>125.66666666666666</ele><time>2026-04-03T20:02:32.727Z</time></trkpt><trkpt lat="45.4718147" lon="11.5520367"><ele>125.33333333333333</ele><time>2026-04-03T20:02:33.726Z</time></trkpt><trkpt lat="45.4718525" lon="11.5519"><ele>125.0</ele><time>2026-04-03T20:02:35.718Z</time></trkpt><trkpt lat="45.4719504" lon="11.5518182"><ele>123.75</ele><time>2026-04-03T20:02:37.725Z</time></trkpt><trkpt lat="45.4720079" lon="11.551768"><ele>122.5</ele><time>2026-04-03T20:02:38.72Z</time></trkpt><trkpt lat="45.4721099" lon="11.5517446"><ele>121.25</ele><time>2026-04-03T20:02:40.718Z</time></trkpt><trkpt lat="45.4723043" lon="11.5516179"><ele>120.0</ele><time>2026-04-03T20:02:44.723Z</time></trkpt><trkpt lat="45.472376" lon="11.5515352"><ele>118.83333333333333</ele><time>2026-04-03T20:02:46.723Z</time></trkpt><trkpt lat="45.4724224" lon="11.5514741"><ele>117.66666666666666</ele><time>2026-04-03T20:02:47.73Z</time></trkpt><trkpt lat="45.4724727" lon="11.5514079"><ele>116.5</ele><time>2026-04-03T20:02:48.712Z</time></trkpt><trkpt lat="45.4725307" lon="11.5513388"><ele>115.33333333333333</ele><time>2026-04-03T20:02:49.714Z</time></trkpt><trkpt lat="45.4726027" lon="11.5512729"><ele>114.16666666666666</ele><time>2026-04-03T20:02:50.717Z</time></trkpt><trkpt lat="45.472671" lon="11.5512185"><ele>113.0</ele><time>2026-04-03T20:02:51.719Z</time></trkpt><trkpt lat="45.4727515" lon="11.5511895"><ele>112.99999999999999</ele><time>2026-04-03T20:02:52.719Z</time></trkpt><trkpt lat="45.4728327" lon="11.5511639"><ele>113.0</ele><time>2026-04-03T20:02:53.716Z</time></trkpt><trkpt lat="45.4729123" lon="11.5511435"><ele>113.0</ele><time>2026-04-03T20:02:54.72Z</time></trkpt><trkpt lat="45.4729969" lon="11.5511258"><ele>113.0</ele><time>2026-04-03T20:02:55.714Z</time></trkpt><trkpt lat="45.4730719" lon="11.5510865"><ele>112.99999999999999</ele><time>2026-04-03T20:02:56.734Z</time></trkpt><trkpt lat="45.4731364" lon="11.5510368"><ele>113.0</ele><time>2026-04-03T20:02:57.735Z</time></trkpt><trkpt lat="45.4732005" lon="11.5509834"><ele>111.75</ele><time>2026-04-03T20:02:58.732Z</time></trkpt><trkpt lat="45.4733" lon="11.5509138"><ele>110.5</ele><time>2026-04-03T20:03:00.726Z</time></trkpt><trkpt lat="45.4733869" lon="11.5508748"><ele>109.25</ele><time>2026-04-03T20:03:02.729Z</time></trkpt><trkpt lat="45.4735828" lon="11.5508702"><ele>108.0</ele><time>2026-04-03T20:03:06.733Z</time></trkpt><trkpt lat="45.4736918" lon="11.5509207"><ele>108.0</ele><time>2026-04-03T20:03:08.735Z</time></trkpt><trkpt lat="45.4737463" lon="11.5509693"><ele>108.0</ele><time>2026-04-03T20:03:09.713Z</time></trkpt><trkpt lat="45.4737922" lon="11.5510328"><ele>108.0</ele><time>2026-04-03T20:03:10.727Z</time></trkpt><trkpt lat="45.4738584" lon="11.5511231"><ele>108.0</ele><time>2026-04-03T20:03:12.725Z</time></trkpt><trkpt lat="45.4739211" lon="11.5510754"><ele>108.0</ele><time>2026-04-03T20:03:15.73Z</time></trkpt><trkpt lat="45.4739381" lon="11.5509665"><ele>108.0</ele><time>2026-04-03T20:03:17.721Z</time></trkpt><trkpt lat="45.4739357" lon="11.5508241"><ele>105.60000000000001</ele><time>2026-04-03T20:03:19.729Z</time></trkpt><trkpt lat="45.4739195" lon="11.5506536"><ele>103.20000000000002</ele><time>2026-04-03T20:03:21.732Z</time></trkpt><trkpt lat="45.4739251" lon="11.5505231"><ele>100.8</ele><time>2026-04-03T20:03:23.722Z</time></trkpt><trkpt lat="45.4740597" lon="11.5504434"><ele>98.4</ele><time>2026-04-03T20:03:31.734Z</time></trkpt><trkpt lat="45.4741174" lon="11.5503836"><ele>96.0</ele><time>2026-04-03T20:03:33.732Z</time></trkpt><trkpt lat="45.474231" lon="11.5502726"><ele>95.8</ele><time>2026-04-03T20:03:35.789Z</time></trkpt><trkpt lat="45.4743024" lon="11.5501947"><ele>95.6</ele><time>2026-04-03T20:03:36.781Z</time></trkpt><trkpt lat="45.4743894" lon="11.5501149"><ele>95.4</ele><time>2026-04-03T20:03:37.796Z</time></trkpt><trkpt lat="45.4744799" lon="11.5500459"><ele>95.2</ele><time>2026-04-03T20:03:38.762Z</time></trkpt><trkpt lat="45.4745785" lon="11.549986"><ele>95.0</ele><time>2026-04-03T20:03:39.798Z</time></trkpt><trkpt lat="45.4746859" lon="11.5499229"><ele>95.0</ele><time>2026-04-03T20:03:40.773Z</time></trkpt><trkpt lat="45.4747774" lon="11.5498748"><ele>95.0</ele><time>2026-04-03T20:03:41.72Z</time></trkpt><trkpt lat="45.4748583" lon="11.5498304"><ele>95.0</ele><time>2026-04-03T20:03:42.75Z</time></trkpt><trkpt lat="45.4749268" lon="11.5497903"><ele>95.0</ele><time>2026-04-03T20:03:43.744Z</time></trkpt><trkpt lat="45.4749916" lon="11.5497456"><ele>95.0</ele><time>2026-04-03T20:03:44.724Z</time></trkpt><trkpt lat="45.4751162" lon="11.5496203"><ele>95.0</ele><time>2026-04-03T20:03:46.747Z</time></trkpt><trkpt lat="45.4751748" lon="11.5495479"><ele>95.0</ele><time>2026-04-03T20:03:47.755Z</time></trkpt><trkpt lat="45.4752308" lon="11.5494941"><ele>95.0</ele><time>2026-04-03T20:03:48.753Z</time></trkpt><trkpt lat="45.4752968" lon="11.5494725"><ele>95.0</ele><time>2026-04-03T20:03:49.709Z</time></trkpt><trkpt lat="45.4753694" lon="11.5494754"><ele>95.0</ele><time>2026-04-03T20:03:50.718Z</time></trkpt><trkpt lat="45.4754505" lon="11.5494498"><ele>95.0</ele><time>2026-04-03T20:03:51.712Z</time></trkpt><trkpt lat="45.4755394" lon="11.5494106"><ele>92.2</ele><time>2026-04-03T20:03:52.721Z</time></trkpt><trkpt lat="45.475622" lon="11.5493635"><ele>89.4</ele><time>2026-04-03T20:03:53.714Z</time></trkpt><trkpt lat="45.4756848" lon="11.5492981"><ele>86.6</ele><time>2026-04-03T20:03:54.706Z</time></trkpt><trkpt lat="45.475757" lon="11.5492167"><ele>83.8</ele><time>2026-04-03T20:03:55.708Z</time></trkpt><trkpt lat="45.4758312" lon="11.5491244"><ele>81.0</ele><time>2026-04-03T20:03:56.714Z</time></trkpt><trkpt lat="45.4759037" lon="11.5490189"><ele>81.0</ele><time>2026-04-03T20:03:57.716Z</time></trkpt><trkpt lat="45.4759856" lon="11.548928"><ele>81.0</ele><time>2026-04-03T20:03:58.704Z</time></trkpt><trkpt lat="45.4760652" lon="11.5488461"><ele>81.0</ele><time>2026-04-03T20:03:59.725Z</time></trkpt><trkpt lat="45.4761189" lon="11.5487767"><ele>81.0</ele><time>2026-04-03T20:04:00.712Z</time></trkpt><trkpt lat="45.476188" lon="11.5486307"><ele>81.0</ele><time>2026-04-03T20:04:02.713Z</time></trkpt><trkpt lat="45.4762192" lon="11.5484863"><ele>78.2</ele><time>2026-04-03T20:04:04.716Z</time></trkpt><trkpt lat="45.4762749" lon="11.5484074"><ele>75.39999999999999</ele><time>2026-04-03T20:04:06.714Z</time></trkpt><trkpt lat="45.4764401" lon="11.5483526"><ele>72.6</ele><time>2026-04-03T20:04:23.699Z</time></trkpt><trkpt lat="45.4765392" lon="11.5483433"><ele>69.8</ele><time>2026-04-03T20:04:24.705Z</time></trkpt><trkpt lat="45.4766263" lon="11.5483331"><ele>67.0</ele><time>2026-04-03T20:04:25.694Z</time></trkpt><trkpt lat="45.4767132" lon="11.5483639"><ele>67.0</ele><time>2026-04-03T20:04:26.708Z</time></trkpt><trkpt lat="45.4767831" lon="11.5483918"><ele>67.0</ele><time>2026-04-03T20:04:27.703Z</time></trkpt><trkpt lat="45.4769124" lon="11.5485025"><ele>67.0</ele><time>2026-04-03T20:04:29.726Z</time></trkpt><trkpt lat="45.4770184" lon="11.5485971"><ele>67.0</ele><time>2026-04-03T20:04:31.732Z</time></trkpt><trkpt lat="45.4770741" lon="11.5486849"><ele>67.0</ele><time>2026-04-03T20:04:32.709Z</time></trkpt><trkpt lat="45.4771415" lon="11.5487902"><ele>66.8</ele><time>2026-04-03T20:04:33.741Z</time></trkpt><trkpt lat="45.4772103" lon="11.5488935"><ele>66.6</ele><time>2026-04-03T20:04:34.703Z</time></trkpt><trkpt lat="45.477297" lon="11.5489972"><ele>66.39999999999999</ele><time>2026-04-03T20:04:35.733Z</time></trkpt><trkpt lat="45.4773875" lon="11.549102"><ele>66.2</ele><time>2026-04-03T20:04:36.716Z</time></trkpt><trkpt lat="45.4774681" lon="11.5491919"><ele>66.0</ele><time>2026-04-03T20:04:37.718Z</time></trkpt><trkpt lat="45.4775459" lon="11.5492655"><ele>66.0</ele><time>2026-04-03T20:04:38.722Z</time></trkpt><trkpt lat="45.4776228" lon="11.549337"><ele>66.0</ele><time>2026-04-03T20:04:39.718Z</time></trkpt><trkpt lat="45.477703" lon="11.5494088"><ele>66.0</ele><time>2026-04-03T20:04:40.73Z</time></trkpt><trkpt lat="45.4777794" lon="11.5494861"><ele>66.0</ele><time>2026-04-03T20:04:41.723Z</time></trkpt><trkpt lat="45.4778639" lon="11.5495685"><ele>66.0</ele><time>2026-04-03T20:04:42.745Z</time></trkpt><trkpt lat="45.4779477" lon="11.5496444"><ele>63.599999999999994</ele><time>2026-04-03T20:04:43.737Z</time></trkpt><trkpt lat="45.4780335" lon="11.5497113"><ele>61.199999999999996</ele><time>2026-04-03T20:04:44.73Z</time></trkpt><trkpt lat="45.4781169" lon="11.5497711"><ele>58.800000000000004</ele><time>2026-04-03T20:04:45.714Z</time></trkpt><trkpt lat="45.4782108" lon="11.5498377"><ele>56.400000000000006</ele><time>2026-04-03T20:04:46.71Z</time></trkpt><trkpt lat="45.4783073" lon="11.5499192"><ele>54.0</ele><time>2026-04-03T20:04:47.713Z</time></trkpt><trkpt lat="45.4783994" lon="11.5500109"><ele>54.0</ele><time>2026-04-03T20:04:48.714Z</time></trkpt><trkpt lat="45.4785498" lon="11.550134"><ele>54.0</ele><time>2026-04-03T20:04:50.733Z</time></trkpt><trkpt lat="45.4786732" lon="11.5501937"><ele>54.0</ele><time>2026-04-03T20:04:52.738Z</time></trkpt><trkpt lat="45.4787449" lon="11.5501897"><ele>54.0</ele><time>2026-04-03T20:04:53.737Z</time></trkpt><trkpt lat="45.478815" lon="11.5501479"><ele>51.5</ele><time>2026-04-03T20:04:54.734Z</time></trkpt><trkpt lat="45.4788967" lon="11.5500818"><ele>49.0</ele><time>2026-04-03T20:04:55.736Z</time></trkpt><trkpt lat="45.4789787" lon="11.5500146"><ele>46.5</ele><time>2026-04-03T20:04:56.747Z</time></trkpt><trkpt lat="45.4790593" lon="11.5499639"><ele>44.0</ele><time>2026-04-03T20:04:57.744Z</time></trkpt><trkpt lat="45.4791244" lon="11.5499345"><ele>41.5</ele><time>2026-04-03T20:04:58.744Z</time></trkpt><trkpt lat="45.4792177" lon="11.5498838"><ele>39.0</ele><time>2026-04-03T20:05:00.741Z</time></trkpt><trkpt lat="45.4791557" lon="11.5498165"><ele>39.0</ele><time>2026-04-03T20:05:27.726Z</time></trkpt><trkpt lat="45.4788362" lon="11.5495996"><ele>39.0</ele><time>2026-04-03T20:05:31.717Z</time></trkpt><trkpt lat="45.4787499" lon="11.5495346"><ele>40.2</ele><time>2026-04-03T20:05:32.709Z</time></trkpt><trkpt lat="45.4786695" lon="11.5494456"><ele>41.4</ele><time>2026-04-03T20:05:33.709Z</time></trkpt><trkpt lat="45.4785992" lon="11.5493368"><ele>42.6</ele><time>2026-04-03T20:05:34.711Z</time></trkpt><trkpt lat="45.4785525" lon="11.5492082"><ele>43.8</ele><time>2026-04-03T20:05:35.706Z</time></trkpt><trkpt lat="45.4785363" lon="11.549055"><ele>45.0</ele><time>2026-04-03T20:05:36.706Z</time></trkpt><trkpt lat="45.4785462" lon="11.548901"><ele>45.0</ele><time>2026-04-03T20:05:37.7Z</time></trkpt><trkpt lat="45.4785758" lon="11.5487252"><ele>45.0</ele><time>2026-04-03T20:05:38.712Z</time></trkpt><trkpt lat="45.478635" lon="11.5485285"><ele>45.0</ele><time>2026-04-03T20:05:39.704Z</time></trkpt><trkpt lat="45.4786955" lon="11.548304"><ele>45.0</ele><time>2026-04-03T20:05:40.717Z</time></trkpt><trkpt lat="45.4787555" lon="11.5480617"><ele>37.0</ele><time>2026-04-03T20:05:41.712Z</time></trkpt><trkpt lat="45.4788102" lon="11.5478085"><ele>29.0</ele><time>2026-04-03T20:05:42.715Z</time></trkpt><trkpt lat="45.4788586" lon="11.5475737"><ele>21.0</ele><time>2026-04-03T20:05:43.721Z</time></trkpt><trkpt lat="45.4789001" lon="11.5473533"><ele>21.0</ele><time>2026-04-03T20:05:44.717Z</time></trkpt><trkpt lat="45.4789432" lon="11.547128"><ele>21.0</ele><time>2026-04-03T20:05:45.723Z</time></trkpt><trkpt lat="45.4789843" lon="11.5469135"><ele>21.0</ele><time>2026-04-03T20:05:46.716Z</time></trkpt><trkpt lat="45.4790246" lon="11.5466954"><ele>21.333333333333332</ele><time>2026-04-03T20:05:47.717Z</time></trkpt><trkpt lat="45.4790625" lon="11.5464912"><ele>21.666666666666664</ele><time>2026-04-03T20:05:48.717Z</time></trkpt><trkpt lat="45.479153" lon="11.5461269"><ele>22.0</ele><time>2026-04-03T20:05:50.727Z</time></trkpt><trkpt lat="45.479229" lon="11.5459675"><ele>22.0</ele><time>2026-04-03T20:05:51.724Z</time></trkpt><trkpt lat="45.4793349" lon="11.5458271"><ele>22.0</ele><time>2026-04-03T20:05:52.717Z</time></trkpt><trkpt lat="45.4794302" lon="11.5456975"><ele>22.0</ele><time>2026-04-03T20:05:53.722Z</time></trkpt><trkpt lat="45.4795341" lon="11.5455532"><ele>22.0</ele><time>2026-04-03T20:05:54.721Z</time></trkpt><trkpt lat="45.4796324" lon="11.5454139"><ele>22.200000000000003</ele><time>2026-04-03T20:05:55.729Z</time></trkpt><trkpt lat="45.479715" lon="11.5452853"><ele>22.4</ele><time>2026-04-03T20:05:56.721Z</time></trkpt><trkpt lat="45.4797879" lon="11.5451659"><ele>22.6</ele><time>2026-04-03T20:05:57.721Z</time></trkpt><trkpt lat="45.4798412" lon="11.5450489"><ele>22.799999999999997</ele><time>2026-04-03T20:05:58.739Z</time></trkpt><trkpt lat="45.4798548" lon="11.5449294"><ele>23.0</ele><time>2026-04-03T20:05:59.733Z</time></trkpt><trkpt lat="45.4798193" lon="11.5448146"><ele>23.0</ele><time>2026-04-03T20:06:00.739Z</time></trkpt><trkpt lat="45.4797439" lon="11.5446911"><ele>23.0</ele><time>2026-04-03T20:06:01.73Z</time></trkpt><trkpt lat="45.4796355" lon="11.5445359"><ele>23.0</ele><time>2026-04-03T20:06:02.722Z</time></trkpt><trkpt lat="45.4795189" lon="11.5443547"><ele>23.0</ele><time>2026-04-03T20:06:03.723Z</time></trkpt><trkpt lat="45.4793924" lon="11.5441274"><ele>22.666666666666668</ele><time>2026-04-03T20:06:04.722Z</time></trkpt><trkpt lat="45.4792842" lon="11.5439029"><ele>22.333333333333332</ele><time>2026-04-03T20:06:05.729Z</time></trkpt><trkpt lat="45.4792027" lon="11.543713"><ele>22.0</ele><time>2026-04-03T20:06:06.721Z</time></trkpt><trkpt lat="45.4791278" lon="11.5435178"><ele>21.666666666666664</ele><time>2026-04-03T20:06:07.721Z</time></trkpt><trkpt lat="45.4790626" lon="11.5433284"><ele>21.333333333333332</ele><time>2026-04-03T20:06:08.72Z</time></trkpt><trkpt lat="45.4789951" lon="11.5431343"><ele>21.0</ele><time>2026-04-03T20:06:09.721Z</time></trkpt><trkpt lat="45.4788557" lon="11.5427358"><ele>21.0</ele><time>2026-04-03T20:06:11.724Z</time></trkpt><trkpt lat="45.4787902" lon="11.5425378"><ele>21.0</ele><time>2026-04-03T20:06:12.722Z</time></trkpt><trkpt lat="45.4787281" lon="11.5423459"><ele>21.0</ele><time>2026-04-03T20:06:13.733Z</time></trkpt><trkpt lat="45.4786606" lon="11.542142"><ele>20.666666666666668</ele><time>2026-04-03T20:06:14.727Z</time></trkpt><trkpt lat="45.4785886" lon="11.541943"><ele>20.333333333333336</ele><time>2026-04-03T20:06:15.722Z</time></trkpt><trkpt lat="45.4785226" lon="11.5417449"><ele>20.0</ele><time>2026-04-03T20:06:16.726Z</time></trkpt><trkpt lat="45.4784611" lon="11.5415457"><ele>20.0</ele><time>2026-04-03T20:06:17.724Z</time></trkpt><trkpt lat="45.4784064" lon="11.5413521"><ele>20.0</ele><time>2026-04-03T20:06:18.73Z</time></trkpt><trkpt lat="45.4783535" lon="11.5411762"><ele>20.0</ele><time>2026-04-03T20:06:19.722Z</time></trkpt><trkpt lat="45.4783061" lon="11.5410061"><ele>20.0</ele><time>2026-04-03T20:06:20.72Z</time></trkpt><trkpt lat="45.4782551" lon="11.5408524"><ele>21.0</ele><time>2026-04-03T20:06:21.727Z</time></trkpt><trkpt lat="45.4782101" lon="11.5407299"><ele>22.0</ele><time>2026-04-03T20:06:22.715Z</time></trkpt><trkpt lat="45.4781734" lon="11.5406387"><ele>23.0</ele><time>2026-04-03T20:06:23.715Z</time></trkpt><trkpt lat="45.4781044" lon="11.5405263"><ele>24.0</ele><time>2026-04-03T20:06:25.727Z</time></trkpt><trkpt lat="45.4779942" lon="11.5405903"><ele>25.0</ele><time>2026-04-03T20:06:27.732Z</time></trkpt><trkpt lat="45.4779147" lon="11.5406707"><ele>23.666666666666668</ele><time>2026-04-03T20:06:28.725Z</time></trkpt><trkpt lat="45.477817" lon="11.5407722"><ele>22.333333333333336</ele><time>2026-04-03T20:06:29.722Z</time></trkpt><trkpt lat="45.4777131" lon="11.5409061"><ele>21.0</ele><time>2026-04-03T20:06:30.719Z</time></trkpt><trkpt lat="45.4774775" lon="11.5412164"><ele>21.0</ele><time>2026-04-03T20:06:32.72Z</time></trkpt><trkpt lat="45.4773546" lon="11.5413732"><ele>21.0</ele><time>2026-04-03T20:06:33.718Z</time></trkpt><trkpt lat="45.4772321" lon="11.5415043"><ele>21.0</ele><time>2026-04-03T20:06:34.722Z</time></trkpt><trkpt lat="45.4770993" lon="11.5415934"><ele>21.333333333333332</ele><time>2026-04-03T20:06:35.717Z</time></trkpt><trkpt lat="45.4769556" lon="11.5416555"><ele>21.666666666666664</ele><time>2026-04-03T20:06:36.724Z</time></trkpt><trkpt lat="45.4768077" lon="11.5417125"><ele>22.0</ele><time>2026-04-03T20:06:37.715Z</time></trkpt><trkpt lat="45.4766401" lon="11.541753"><ele>22.0</ele><time>2026-04-03T20:06:38.713Z</time></trkpt><trkpt lat="45.4764798" lon="11.5417639"><ele>22.0</ele><time>2026-04-03T20:06:39.707Z</time></trkpt><trkpt lat="45.4763145" lon="11.5417688"><ele>22.0</ele><time>2026-04-03T20:06:40.708Z</time></trkpt><trkpt lat="45.4761601" lon="11.5417479"><ele>22.5</ele><time>2026-04-03T20:06:41.716Z</time></trkpt><trkpt lat="45.4760151" lon="11.5417247"><ele>23.0</ele><time>2026-04-03T20:06:42.719Z</time></trkpt><trkpt lat="45.4758841" lon="11.5417194"><ele>23.5</ele><time>2026-04-03T20:06:43.713Z</time></trkpt><trkpt lat="45.4757599" lon="11.5417182"><ele>24.0</ele><time>2026-04-03T20:06:44.731Z</time></trkpt><trkpt lat="45.4756341" lon="11.5417147"><ele>24.0</ele><time>2026-04-03T20:06:45.724Z</time></trkpt><trkpt lat="45.4755119" lon="11.541715"><ele>24.0</ele><time>2026-04-03T20:06:46.721Z</time></trkpt><trkpt lat="45.4753862" lon="11.5417197"><ele>24.0</ele><time>2026-04-03T20:06:47.721Z</time></trkpt><trkpt lat="45.4752532" lon="11.5417227"><ele>24.0</ele><time>2026-04-03T20:06:48.721Z</time></trkpt><trkpt lat="45.4751077" lon="11.5417143"><ele>24.0</ele><time>2026-04-03T20:06:49.722Z</time></trkpt><trkpt lat="45.4749623" lon="11.5417088"><ele>24.0</ele><time>2026-04-03T20:06:50.719Z</time></trkpt><trkpt lat="45.4748027" lon="11.5417136"><ele>24.0</ele><time>2026-04-03T20:06:51.729Z</time></trkpt><trkpt lat="45.4744224" lon="11.5417616"><ele>24.0</ele><time>2026-04-03T20:06:53.727Z</time></trkpt><trkpt lat="45.4742325" lon="11.5417871"><ele>24.0</ele><time>2026-04-03T20:06:54.723Z</time></trkpt><trkpt lat="45.4740465" lon="11.5418157"><ele>24.0</ele><time>2026-04-03T20:06:55.724Z</time></trkpt><trkpt lat="45.4738616" lon="11.5418251"><ele>25.0</ele><time>2026-04-03T20:06:56.718Z</time></trkpt><trkpt lat="45.4736805" lon="11.5418278"><ele>26.0</ele><time>2026-04-03T20:06:57.73Z</time></trkpt><trkpt lat="45.4735006" lon="11.5418347"><ele>27.0</ele><time>2026-04-03T20:06:58.725Z</time></trkpt><trkpt lat="45.473329" lon="11.5418149"><ele>27.0</ele><time>2026-04-03T20:06:59.72Z</time></trkpt><trkpt lat="45.4731604" lon="11.5417945"><ele>27.0</ele><time>2026-04-03T20:07:00.721Z</time></trkpt><trkpt lat="45.4729867" lon="11.5417526"><ele>27.0</ele><time>2026-04-03T20:07:01.723Z</time></trkpt><trkpt lat="45.4728076" lon="11.5416985"><ele>25.666666666666668</ele><time>2026-04-03T20:07:02.721Z</time></trkpt><trkpt lat="45.4726361" lon="11.5416192"><ele>24.333333333333336</ele><time>2026-04-03T20:07:03.726Z</time></trkpt><trkpt lat="45.4724636" lon="11.5415273"><ele>23.0</ele><time>2026-04-03T20:07:04.723Z</time></trkpt><trkpt lat="45.4723061" lon="11.5414271"><ele>23.0</ele><time>2026-04-03T20:07:05.717Z</time></trkpt><trkpt lat="45.4721616" lon="11.5413466"><ele>23.0</ele><time>2026-04-03T20:07:06.723Z</time></trkpt><trkpt lat="45.4720212" lon="11.5412584"><ele>23.0</ele><time>2026-04-03T20:07:07.721Z</time></trkpt><trkpt lat="45.4718796" lon="11.5411685"><ele>22.75</ele><time>2026-04-03T20:07:08.722Z</time></trkpt><trkpt lat="45.4717442" lon="11.5410868"><ele>22.5</ele><time>2026-04-03T20:07:09.726Z</time></trkpt><trkpt lat="45.4716158" lon="11.5410097"><ele>22.25</ele><time>2026-04-03T20:07:10.728Z</time></trkpt><trkpt lat="45.4714806" lon="11.5409269"><ele>22.0</ele><time>2026-04-03T20:07:11.724Z</time></trkpt><trkpt lat="45.4713467" lon="11.5408432"><ele>22.0</ele><time>2026-04-03T20:07:12.732Z</time></trkpt><trkpt lat="45.4710901" lon="11.5407032"><ele>22.0</ele><time>2026-04-03T20:07:14.722Z</time></trkpt><trkpt lat="45.4709759" lon="11.540636"><ele>22.0</ele><time>2026-04-03T20:07:15.725Z</time></trkpt><trkpt lat="45.4708575" lon="11.5405666"><ele>22.0</ele><time>2026-04-03T20:07:16.726Z</time></trkpt><trkpt lat="45.4707537" lon="11.5405115"><ele>22.0</ele><time>2026-04-03T20:07:17.725Z</time></trkpt><trkpt lat="45.4706448" lon="11.5404446"><ele>22.0</ele><time>2026-04-03T20:07:18.728Z</time></trkpt><trkpt lat="45.4705461" lon="11.5403861"><ele>22.0</ele><time>2026-04-03T20:07:19.721Z</time></trkpt><trkpt lat="45.4704503" lon="11.5403263"><ele>22.0</ele><time>2026-04-03T20:07:20.722Z</time></trkpt><trkpt lat="45.4703792" lon="11.540276"><ele>22.333333333333332</ele><time>2026-04-03T20:07:21.722Z</time></trkpt><trkpt lat="45.4703183" lon="11.5401388"><ele>22.666666666666664</ele><time>2026-04-03T20:07:23.731Z</time></trkpt><trkpt lat="45.4703367" lon="11.5400526"><ele>23.0</ele><time>2026-04-03T20:07:24.721Z</time></trkpt><trkpt lat="45.470364" lon="11.5399624"><ele>23.333333333333332</ele><time>2026-04-03T20:07:25.732Z</time></trkpt><trkpt lat="45.4703995" lon="11.5398801"><ele>23.666666666666668</ele><time>2026-04-03T20:07:26.727Z</time></trkpt><trkpt lat="45.4704308" lon="11.5397988"><ele>24.0</ele><time>2026-04-03T20:07:27.726Z</time></trkpt><trkpt lat="45.4704914" lon="11.5396552"><ele>24.25</ele><time>2026-04-03T20:07:29.726Z</time></trkpt><trkpt lat="45.4706201" lon="11.5396002"><ele>24.5</ele><time>2026-04-03T20:07:31.718Z</time></trkpt><trkpt lat="45.4706996" lon="11.539539"><ele>24.75</ele><time>2026-04-03T20:07:33.712Z</time></trkpt><trkpt lat="45.4706502" lon="11.5393438"><ele>25.0</ele><time>2026-04-03T20:07:37.715Z</time></trkpt><trkpt lat="45.4705509" lon="11.5392995"><ele>27.25</ele><time>2026-04-03T20:19:17.712Z</time></trkpt><trkpt lat="45.4703703" lon="11.5392391"><ele>29.5</ele><time>2026-04-03T20:19:21.707Z</time></trkpt><trkpt lat="45.4702524" lon="11.5392336"><ele>31.75</ele><time>2026-04-03T20:19:23.711Z</time></trkpt><trkpt lat="45.4701804" lon="11.5392347"><ele>34.0</ele><time>2026-04-03T20:19:24.715Z</time></trkpt><trkpt lat="45.4700663" lon="11.5392627"><ele>34.0</ele><time>2026-04-03T20:19:26.716Z</time></trkpt><trkpt lat="45.4699538" lon="11.53929"><ele>34.0</ele><time>2026-04-03T20:19:28.722Z</time></trkpt><trkpt lat="45.4698872" lon="11.5392965"><ele>34.0</ele><time>2026-04-03T20:19:29.717Z</time></trkpt><trkpt lat="45.4698133" lon="11.5393045"><ele>34.0</ele><time>2026-04-03T20:19:30.719Z</time></trkpt><trkpt lat="45.4697438" lon="11.5393028"><ele>34.0</ele><time>2026-04-03T20:19:31.721Z</time></trkpt><trkpt lat="45.4696635" lon="11.5392919"><ele>34.0</ele><time>2026-04-03T20:19:32.728Z</time></trkpt><trkpt lat="45.4695795" lon="11.5392735"><ele>33.66666666666667</ele><time>2026-04-03T20:19:33.726Z</time></trkpt><trkpt lat="45.4694979" lon="11.5392514"><ele>33.333333333333336</ele><time>2026-04-03T20:19:34.72Z</time></trkpt><trkpt lat="45.46942" lon="11.539224"><ele>33.0</ele><time>2026-04-03T20:19:35.725Z</time></trkpt><trkpt lat="45.4693459" lon="11.539195"><ele>32.666666666666664</ele><time>2026-04-03T20:19:36.721Z</time></trkpt><trkpt lat="45.4692716" lon="11.539172"><ele>32.33333333333333</ele><time>2026-04-03T20:19:37.729Z</time></trkpt><trkpt lat="45.4691947" lon="11.5391472"><ele>32.0</ele><time>2026-04-03T20:19:38.726Z</time></trkpt><trkpt lat="45.469025" lon="11.5391286"><ele>31.999999999999996</ele><time>2026-04-03T20:19:40.719Z</time></trkpt><trkpt lat="45.4689392" lon="11.5391251"><ele>32.0</ele><time>2026-04-03T20:19:41.719Z</time></trkpt><trkpt lat="45.4688558" lon="11.5391355"><ele>32.0</ele><time>2026-04-03T20:19:42.73Z</time></trkpt><trkpt lat="45.4687773" lon="11.5391284"><ele>32.0</ele><time>2026-04-03T20:19:43.718Z</time></trkpt><trkpt lat="45.4686894" lon="11.5391044"><ele>31.999999999999996</ele><time>2026-04-03T20:19:44.721Z</time></trkpt><trkpt lat="45.468598" lon="11.5390577"><ele>32.0</ele><time>2026-04-03T20:19:45.723Z</time></trkpt><trkpt lat="45.4685113" lon="11.538996"><ele>32.0</ele><time>2026-04-03T20:19:46.719Z</time></trkpt><trkpt lat="45.4684346" lon="11.5389378"><ele>32.0</ele><time>2026-04-03T20:19:47.719Z</time></trkpt><trkpt lat="45.4683649" lon="11.5388807"><ele>32.0</ele><time>2026-04-03T20:19:48.723Z</time></trkpt><trkpt lat="45.4682769" lon="11.5387995"><ele>32.0</ele><time>2026-04-03T20:19:50.722Z</time></trkpt><trkpt lat="45.4681755" lon="11.5387844"><ele>32.0</ele><time>2026-04-03T20:20:24.724Z</time></trkpt><trkpt lat="45.4680174" lon="11.5389284"><ele>31.75</ele><time>2026-04-03T20:20:26.724Z</time></trkpt><trkpt lat="45.4679115" lon="11.539012"><ele>31.5</ele><time>2026-04-03T20:20:27.728Z</time></trkpt><trkpt lat="45.4677968" lon="11.5390623"><ele>31.25</ele><time>2026-04-03T20:20:28.73Z</time></trkpt><trkpt lat="45.4676676" lon="11.5390577"><ele>31.0</ele><time>2026-04-03T20:20:29.726Z</time></trkpt><trkpt lat="45.4675304" lon="11.5390219"><ele>31.0</ele><time>2026-04-03T20:20:30.725Z</time></trkpt><trkpt lat="45.4673975" lon="11.5389956"><ele>31.0</ele><time>2026-04-03T20:20:31.718Z</time></trkpt><trkpt lat="45.4672651" lon="11.5389967"><ele>31.0</ele><time>2026-04-03T20:20:32.725Z</time></trkpt><trkpt lat="45.467137" lon="11.5390425"><ele>31.0</ele><time>2026-04-03T20:20:33.731Z</time></trkpt><trkpt lat="45.4670155" lon="11.5391464"><ele>30.0</ele><time>2026-04-03T20:20:34.724Z</time></trkpt><trkpt lat="45.4668961" lon="11.5393074"><ele>29.0</ele><time>2026-04-03T20:20:35.722Z</time></trkpt><trkpt lat="45.4667705" lon="11.5394746"><ele>28.0</ele><time>2026-04-03T20:20:36.726Z</time></trkpt><trkpt lat="45.4666385" lon="11.5396139"><ele>28.0</ele><time>2026-04-03T20:20:37.72Z</time></trkpt><trkpt lat="45.4665047" lon="11.5397065"><ele>28.0</ele><time>2026-04-03T20:20:38.725Z</time></trkpt><trkpt lat="45.4663761" lon="11.5397602"><ele>28.0</ele><time>2026-04-03T20:20:39.721Z</time></trkpt><trkpt lat="45.4662454" lon="11.5398101"><ele>28.0</ele><time>2026-04-03T20:20:40.724Z</time></trkpt><trkpt lat="45.4661216" lon="11.5398389"><ele>29.0</ele><time>2026-04-03T20:20:41.713Z</time></trkpt><trkpt lat="45.4659898" lon="11.5398486"><ele>30.0</ele><time>2026-04-03T20:20:42.717Z</time></trkpt><trkpt lat="45.4658554" lon="11.5398504"><ele>31.0</ele><time>2026-04-03T20:20:43.716Z</time></trkpt><trkpt lat="45.4657042" lon="11.5398507"><ele>32.0</ele><time>2026-04-03T20:20:44.718Z</time></trkpt><trkpt lat="45.4655373" lon="11.5398543"><ele>33.5</ele><time>2026-04-03T20:20:45.722Z</time></trkpt><trkpt lat="45.465183" lon="11.5398749"><ele>35.0</ele><time>2026-04-03T20:20:47.722Z</time></trkpt><trkpt lat="45.46502" lon="11.5398996"><ele>35.0</ele><time>2026-04-03T20:20:48.722Z</time></trkpt><trkpt lat="45.4648708" lon="11.5399302"><ele>35.0</ele><time>2026-04-03T20:20:49.722Z</time></trkpt><trkpt lat="45.4647343" lon="11.5399437"><ele>35.0</ele><time>2026-04-03T20:20:50.726Z</time></trkpt><trkpt lat="45.464597" lon="11.5399405"><ele>35.0</ele><time>2026-04-03T20:20:51.72Z</time></trkpt><trkpt lat="45.4644562" lon="11.5399143"><ele>33.666666666666664</ele><time>2026-04-03T20:20:52.719Z</time></trkpt><trkpt lat="45.4643074" lon="11.539881"><ele>32.333333333333336</ele><time>2026-04-03T20:20:53.718Z</time></trkpt><trkpt lat="45.4641497" lon="11.5398399"><ele>31.0</ele><time>2026-04-03T20:20:54.724Z</time></trkpt><trkpt lat="45.464003" lon="11.5397961"><ele>31.0</ele><time>2026-04-03T20:20:55.721Z</time></trkpt><trkpt lat="45.4638403" lon="11.5397588"><ele>31.0</ele><time>2026-04-03T20:20:56.72Z</time></trkpt><trkpt lat="45.46368" lon="11.5397317"><ele>31.0</ele><time>2026-04-03T20:20:57.729Z</time></trkpt><trkpt lat="45.4635313" lon="11.5397058"><ele>30.0</ele><time>2026-04-03T20:20:58.728Z</time></trkpt><trkpt lat="45.4633871" lon="11.5396799"><ele>29.0</ele><time>2026-04-03T20:20:59.72Z</time></trkpt><trkpt lat="45.4632569" lon="11.5396406"><ele>28.0</ele><time>2026-04-03T20:21:00.717Z</time></trkpt><trkpt lat="45.4631244" lon="11.5396082"><ele>27.0</ele><time>2026-04-03T20:21:01.717Z</time></trkpt><trkpt lat="45.4629967" lon="11.5395781"><ele>29.75</ele><time>2026-04-03T20:21:02.715Z</time></trkpt><trkpt lat="45.462882" lon="11.5395264"><ele>32.5</ele><time>2026-04-03T20:21:03.714Z</time></trkpt><trkpt lat="45.4627715" lon="11.5394548"><ele>35.25</ele><time>2026-04-03T20:21:04.719Z</time></trkpt><trkpt lat="45.4626619" lon="11.5393725"><ele>38.0</ele><time>2026-04-03T20:21:05.714Z</time></trkpt><trkpt lat="45.4625576" lon="11.5392804"><ele>38.0</ele><time>2026-04-03T20:21:06.725Z</time></trkpt><trkpt lat="45.462383" lon="11.5390793"><ele>38.0</ele><time>2026-04-03T20:21:08.709Z</time></trkpt><trkpt lat="45.4622895" lon="11.5389978"><ele>38.0</ele><time>2026-04-03T20:21:09.722Z</time></trkpt><trkpt lat="45.4621946" lon="11.5389642"><ele>38.0</ele><time>2026-04-03T20:21:10.719Z</time></trkpt><trkpt lat="45.4620927" lon="11.5389736"><ele>38.25</ele><time>2026-04-03T20:21:11.727Z</time></trkpt><trkpt lat="45.4619853" lon="11.5390141"><ele>38.5</ele><time>2026-04-03T20:21:12.718Z</time></trkpt><trkpt lat="45.4618709" lon="11.5390621"><ele>38.75</ele><time>2026-04-03T20:21:13.71Z</time></trkpt><trkpt lat="45.461749" lon="11.5391145"><ele>39.0</ele><time>2026-04-03T20:21:14.713Z</time></trkpt><trkpt lat="45.4616176" lon="11.5391792"><ele>39.0</ele><time>2026-04-03T20:21:15.714Z</time></trkpt><trkpt lat="45.4614783" lon="11.5392504"><ele>39.0</ele><time>2026-04-03T20:21:16.706Z</time></trkpt><trkpt lat="45.4613351" lon="11.539333"><ele>39.0</ele><time>2026-04-03T20:21:17.72Z</time></trkpt><trkpt lat="45.4611866" lon="11.5394234"><ele>36.5</ele><time>2026-04-03T20:21:18.714Z</time></trkpt><trkpt lat="45.4610521" lon="11.5394859"><ele>34.0</ele><time>2026-04-03T20:21:19.718Z</time></trkpt><trkpt lat="45.4609277" lon="11.5395344"><ele>31.5</ele><time>2026-04-03T20:21:20.716Z</time></trkpt><trkpt lat="45.4608008" lon="11.5395843"><ele>29.0</ele><time>2026-04-03T20:21:21.716Z</time></trkpt><trkpt lat="45.4606711" lon="11.5396332"><ele>29.0</ele><time>2026-04-03T20:21:22.716Z</time></trkpt><trkpt lat="45.460539" lon="11.5396812"><ele>29.0</ele><time>2026-04-03T20:21:23.718Z</time></trkpt><trkpt lat="45.4604126" lon="11.5397344"><ele>29.0</ele><time>2026-04-03T20:21:24.722Z</time></trkpt><trkpt lat="45.4602907" lon="11.5397776"><ele>29.0</ele><time>2026-04-03T20:21:25.721Z</time></trkpt><trkpt lat="45.4601675" lon="11.5398182"><ele>31.666666666666664</ele><time>2026-04-03T20:21:26.724Z</time></trkpt><trkpt lat="45.460038" lon="11.5398528"><ele>34.333333333333336</ele><time>2026-04-03T20:21:27.723Z</time></trkpt><trkpt lat="45.4597698" lon="11.5399218"><ele>37.0</ele><time>2026-04-03T20:21:29.72Z</time></trkpt><trkpt lat="45.4596415" lon="11.5399513"><ele>37.6</ele><time>2026-04-03T20:21:30.72Z</time></trkpt><trkpt lat="45.4595163" lon="11.539974"><ele>38.2</ele><time>2026-04-03T20:21:31.716Z</time></trkpt><trkpt lat="45.4594031" lon="11.5399866"><ele>38.8</ele><time>2026-04-03T20:21:32.713Z</time></trkpt><trkpt lat="45.4592982" lon="11.5399975"><ele>39.4</ele><time>2026-04-03T20:21:33.709Z</time></trkpt><trkpt lat="45.4592039" lon="11.5400243"><ele>40.0</ele><time>2026-04-03T20:21:34.715Z</time></trkpt><trkpt lat="45.4591265" lon="11.5400811"><ele>40.0</ele><time>2026-04-03T20:21:35.713Z</time></trkpt><trkpt lat="45.4590936" lon="11.5401747"><ele>40.0</ele><time>2026-04-03T20:21:36.722Z</time></trkpt><trkpt lat="45.4590803" lon="11.5403099"><ele>40.0</ele><time>2026-04-03T20:21:37.728Z</time></trkpt><trkpt lat="45.4590815" lon="11.5404842"><ele>40.0</ele><time>2026-04-03T20:21:38.729Z</time></trkpt><trkpt lat="45.4590911" lon="11.5406777"><ele>40.0</ele><time>2026-04-03T20:21:39.731Z</time></trkpt><trkpt lat="45.4591212" lon="11.5408932"><ele>36.0</ele><time>2026-04-03T20:21:40.728Z</time></trkpt><trkpt lat="45.4591607" lon="11.5410964"><ele>32.0</ele><time>2026-04-03T20:21:41.733Z</time></trkpt><trkpt lat="45.4592216" lon="11.5412943"><ele>28.0</ele><time>2026-04-03T20:21:42.732Z</time></trkpt><trkpt lat="45.4593002" lon="11.5414767"><ele>28.0</ele><time>2026-04-03T20:21:43.725Z</time></trkpt><trkpt lat="45.4593504" lon="11.5416368"><ele>27.999999999999996</ele><time>2026-04-03T20:21:44.725Z</time></trkpt><trkpt lat="45.4593619" lon="11.5417952"><ele>27.999999999999996</ele><time>2026-04-03T20:21:45.726Z</time></trkpt><trkpt lat="45.4593785" lon="11.5419272"><ele>28.0</ele><time>2026-04-03T20:21:46.725Z</time></trkpt><trkpt lat="45.4594027" lon="11.5420351"><ele>28.0</ele><time>2026-04-03T20:21:47.724Z</time></trkpt><trkpt lat="45.4594558" lon="11.5421325"><ele>29.0</ele><time>2026-04-03T20:21:48.736Z</time></trkpt><trkpt lat="45.4596619" lon="11.5423357"><ele>30.0</ele><time>2026-04-03T20:21:50.723Z</time></trkpt><trkpt lat="45.459787" lon="11.5424719"><ele>31.0</ele><time>2026-04-03T20:21:51.716Z</time></trkpt><trkpt lat="45.4599056" lon="11.5426109"><ele>31.0</ele><time>2026-04-03T20:21:52.717Z</time></trkpt><trkpt lat="45.4600113" lon="11.5427137"><ele>31.0</ele><time>2026-04-03T20:21:53.713Z</time></trkpt><trkpt lat="45.460109" lon="11.5428196"><ele>31.0</ele><time>2026-04-03T20:21:54.712Z</time></trkpt><trkpt lat="45.4601972" lon="11.542954"><ele>31.0</ele><time>2026-04-03T20:21:55.722Z</time></trkpt><trkpt lat="45.4602731" lon="11.5431176"><ele>30.0</ele><time>2026-04-03T20:21:56.714Z</time></trkpt><trkpt lat="45.4603658" lon="11.54327"><ele>29.0</ele><time>2026-04-03T20:21:57.717Z</time></trkpt><trkpt lat="45.4604486" lon="11.5434164"><ele>28.0</ele><time>2026-04-03T20:21:58.72Z</time></trkpt><trkpt lat="45.460535" lon="11.5435552"><ele>27.0</ele><time>2026-04-03T20:21:59.712Z</time></trkpt><trkpt lat="45.4606379" lon="11.5436912"><ele>28.333333333333332</ele><time>2026-04-03T20:22:00.727Z</time></trkpt><trkpt lat="45.4607371" lon="11.5437809"><ele>29.666666666666664</ele><time>2026-04-03T20:22:01.718Z</time></trkpt><trkpt lat="45.4608244" lon="11.543856"><ele>31.0</ele><time>2026-04-03T20:22:02.717Z</time></trkpt><trkpt lat="45.460871" lon="11.5439251"><ele>32.33333333333333</ele><time>2026-04-03T20:22:03.717Z</time></trkpt><trkpt lat="45.4609076" lon="11.5440134"><ele>33.666666666666664</ele><time>2026-04-03T20:22:04.722Z</time></trkpt><trkpt lat="45.4609271" lon="11.5440993"><ele>35.0</ele><time>2026-04-03T20:22:05.723Z</time></trkpt><trkpt lat="45.46093" lon="11.5441929"><ele>35.0</ele><time>2026-04-03T20:22:06.719Z</time></trkpt><trkpt lat="45.4609053" lon="11.5442865"><ele>35.0</ele><time>2026-04-03T20:22:07.727Z</time></trkpt><trkpt lat="45.4608864" lon="11.5443866"><ele>35.0</ele><time>2026-04-03T20:22:08.725Z</time></trkpt><trkpt lat="45.4608639" lon="11.5444814"><ele>35.0</ele><time>2026-04-03T20:22:09.718Z</time></trkpt><trkpt lat="45.4607939" lon="11.5447867"><ele>35.0</ele><time>2026-04-03T20:22:13.724Z</time></trkpt><trkpt lat="45.4607606" lon="11.5449609"><ele>34.8</ele><time>2026-04-03T20:22:15.72Z</time></trkpt><trkpt lat="45.4607291" lon="11.545088"><ele>34.6</ele><time>2026-04-03T20:22:17.718Z</time></trkpt><trkpt lat="45.4607017" lon="11.5452022"><ele>34.4</ele><time>2026-04-03T20:22:20.724Z</time></trkpt><trkpt lat="45.4606926" lon="11.5453202"><ele>34.2</ele><time>2026-04-03T20:22:47.715Z</time></trkpt><trkpt lat="45.4606365" lon="11.5455565"><ele>34.0</ele><time>2026-04-03T20:22:51.715Z</time></trkpt><trkpt lat="45.4605595" lon="11.5456862"><ele>34.0</ele><time>2026-04-03T20:22:53.711Z</time></trkpt><trkpt lat="45.4605204" lon="11.545763"><ele>34.0</ele><time>2026-04-03T20:22:54.718Z</time></trkpt><trkpt lat="45.460467" lon="11.5458509"><ele>34.0</ele><time>2026-04-03T20:22:55.711Z</time></trkpt><trkpt lat="45.460419" lon="11.5459367"><ele>34.0</ele><time>2026-04-03T20:22:56.71Z</time></trkpt><trkpt lat="45.4603577" lon="11.5460236"><ele>34.0</ele><time>2026-04-03T20:22:57.707Z</time></trkpt><trkpt lat="45.4602865" lon="11.5461033"><ele>34.0</ele><time>2026-04-03T20:22:58.715Z</time></trkpt><trkpt lat="45.4602115" lon="11.5461819"><ele>35.2</ele><time>2026-04-03T20:22:59.707Z</time></trkpt><trkpt lat="45.4601285" lon="11.5462504"><ele>36.4</ele><time>2026-04-03T20:23:00.705Z</time></trkpt><trkpt lat="45.4600415" lon="11.5463078"><ele>37.6</ele><time>2026-04-03T20:23:01.712Z</time></trkpt><trkpt lat="45.4599546" lon="11.5463652"><ele>38.8</ele><time>2026-04-03T20:23:02.709Z</time></trkpt><trkpt lat="45.4598684" lon="11.5464126"><ele>40.0</ele><time>2026-04-03T20:23:03.715Z</time></trkpt><trkpt lat="45.4597873" lon="11.5464602"><ele>40.0</ele><time>2026-04-03T20:23:04.709Z</time></trkpt><trkpt lat="45.4597067" lon="11.5465038"><ele>40.0</ele><time>2026-04-03T20:23:05.707Z</time></trkpt><trkpt lat="45.459628" lon="11.5465429"><ele>40.0</ele><time>2026-04-03T20:23:06.706Z</time></trkpt><trkpt lat="45.4595633" lon="11.5465774"><ele>40.0</ele><time>2026-04-03T20:23:07.703Z</time></trkpt><trkpt lat="45.4594973" lon="11.546597"><ele>40.0</ele><time>2026-04-03T20:23:08.712Z</time></trkpt><trkpt lat="45.4593798" lon="11.5466957"><ele>40.0</ele><time>2026-04-03T20:23:10.718Z</time></trkpt><trkpt lat="45.4593334" lon="11.5467675"><ele>40.5</ele><time>2026-04-03T20:23:11.711Z</time></trkpt><trkpt lat="45.4592937" lon="11.5468471"><ele>41.0</ele><time>2026-04-03T20:23:12.709Z</time></trkpt><trkpt lat="45.4591897" lon="11.5469472"><ele>41.5</ele><time>2026-04-03T20:23:14.707Z</time></trkpt><trkpt lat="45.45912" lon="11.5469791"><ele>42.0</ele><time>2026-04-03T20:23:15.72Z</time></trkpt><trkpt lat="45.4590395" lon="11.5470074"><ele>42.5</ele><time>2026-04-03T20:23:16.708Z</time></trkpt><trkpt lat="45.4589579" lon="11.5470335"><ele>43.0</ele><time>2026-04-03T20:23:17.719Z</time></trkpt><trkpt lat="45.4588677" lon="11.5470559"><ele>45.0</ele><time>2026-04-03T20:23:18.711Z</time></trkpt><trkpt lat="45.4587731" lon="11.5470688"><ele>47.0</ele><time>2026-04-03T20:23:19.707Z</time></trkpt><trkpt lat="45.4586892" lon="11.5471155"><ele>49.0</ele><time>2026-04-03T20:23:20.706Z</time></trkpt><trkpt lat="45.4586148" lon="11.5471889"><ele>51.0</ele><time>2026-04-03T20:23:21.708Z</time></trkpt><trkpt lat="45.4585455" lon="11.5472827"><ele>53.0</ele><time>2026-04-03T20:23:22.714Z</time></trkpt><trkpt lat="45.4584867" lon="11.5473882"><ele>53.0</ele><time>2026-04-03T20:23:23.709Z</time></trkpt><trkpt lat="45.4584382" lon="11.5475087"><ele>53.0</ele><time>2026-04-03T20:23:24.709Z</time></trkpt><trkpt lat="45.4583883" lon="11.5476272"><ele>53.0</ele><time>2026-04-03T20:23:25.71Z</time></trkpt><trkpt lat="45.4583399" lon="11.5477509"><ele>53.0</ele><time>2026-04-03T20:23:26.713Z</time></trkpt><trkpt lat="45.4582956" lon="11.5478827"><ele>53.0</ele><time>2026-04-03T20:23:27.715Z</time></trkpt><trkpt lat="45.4582568" lon="11.5480097"><ele>53.4</ele><time>2026-04-03T20:23:28.719Z</time></trkpt><trkpt lat="45.4582193" lon="11.5481147"><ele>53.8</ele><time>2026-04-03T20:23:29.712Z</time></trkpt><trkpt lat="45.4581089" lon="11.5482389"><ele>54.2</ele><time>2026-04-03T20:23:31.709Z</time></trkpt><trkpt lat="45.4580344" lon="11.5482604"><ele>54.6</ele><time>2026-04-03T20:23:32.704Z</time></trkpt><trkpt lat="45.457951" lon="11.5482856"><ele>55.0</ele><time>2026-04-03T20:23:33.712Z</time></trkpt><trkpt lat="45.4578613" lon="11.5483058"><ele>56.49999999999999</ele><time>2026-04-03T20:23:34.709Z</time></trkpt><trkpt lat="45.4577753" lon="11.548342"><ele>58.0</ele><time>2026-04-03T20:23:35.707Z</time></trkpt><trkpt lat="45.4576905" lon="11.5483916"><ele>59.5</ele><time>2026-04-03T20:23:36.721Z</time></trkpt><trkpt lat="45.457609" lon="11.5484382"><ele>61.0</ele><time>2026-04-03T20:23:37.706Z</time></trkpt><trkpt lat="45.4575417" lon="11.5484669"><ele>62.49999999999999</ele><time>2026-04-03T20:23:38.707Z</time></trkpt><trkpt lat="45.4574792" lon="11.54848"><ele>64.0</ele><time>2026-04-03T20:23:39.704Z</time></trkpt><trkpt lat="45.4573733" lon="11.5484715"><ele>63.99999999999999</ele><time>2026-04-03T20:23:41.705Z</time></trkpt><trkpt lat="45.4572837" lon="11.5484832"><ele>64.0</ele><time>2026-04-03T20:23:43.703Z</time></trkpt><trkpt lat="45.4571802" lon="11.5485411"><ele>64.0</ele><time>2026-04-03T20:23:45.709Z</time></trkpt><trkpt lat="45.4571192" lon="11.5485832"><ele>64.0</ele><time>2026-04-03T20:23:46.717Z</time></trkpt><trkpt lat="45.4570527" lon="11.5486206"><ele>63.99999999999999</ele><time>2026-04-03T20:23:47.713Z</time></trkpt><trkpt lat="45.4569875" lon="11.5486529"><ele>64.0</ele><time>2026-04-03T20:23:48.71Z</time></trkpt><trkpt lat="45.4569245" lon="11.5486843"><ele>73.0</ele><time>2026-04-03T20:23:49.712Z</time></trkpt><trkpt lat="45.456817" lon="11.5487351"><ele>82.0</ele><time>2026-04-03T20:23:51.717Z</time></trkpt><trkpt lat="45.4566124" lon="11.5488377"><ele>91.0</ele><time>2026-04-03T20:23:55.707Z</time></trkpt><trkpt lat="45.4565144" lon="11.5489124"><ele>100.0</ele><time>2026-04-03T20:23:57.716Z</time></trkpt><trkpt lat="45.4564592" lon="11.5489644"><ele>100.00000000000001</ele><time>2026-04-03T20:23:58.716Z</time></trkpt><trkpt lat="45.4563948" lon="11.5490232"><ele>100.0</ele><time>2026-04-03T20:23:59.713Z</time></trkpt><trkpt lat="45.4563256" lon="11.5490982"><ele>100.0</ele><time>2026-04-03T20:24:00.707Z</time></trkpt><trkpt lat="45.4562539" lon="11.5491817"><ele>100.0</ele><time>2026-04-03T20:24:01.713Z</time></trkpt><trkpt lat="45.4561797" lon="11.5492648"><ele>100.00000000000001</ele><time>2026-04-03T20:24:02.709Z</time></trkpt><trkpt lat="45.4561118" lon="11.5493452"><ele>100.0</ele><time>2026-04-03T20:24:03.712Z</time></trkpt><trkpt lat="45.4560518" lon="11.5494137"><ele>99.2</ele><time>2026-04-03T20:24:04.712Z</time></trkpt><trkpt lat="45.455974" lon="11.5495122"><ele>98.4</ele><time>2026-04-03T20:24:06.713Z</time></trkpt><trkpt lat="45.4558972" lon="11.5496116"><ele>97.6</ele><time>2026-04-03T20:24:08.704Z</time></trkpt><trkpt lat="45.4558094" lon="11.5497227"><ele>96.8</ele><time>2026-04-03T20:24:10.714Z</time></trkpt><trkpt lat="45.4557396" lon="11.549832"><ele>96.0</ele><time>2026-04-03T20:24:12.711Z</time></trkpt><trkpt lat="45.4555929" lon="11.5501003"><ele>98.85714285714285</ele><time>2026-04-03T20:24:16.712Z</time></trkpt><trkpt lat="45.4555439" lon="11.5501652"><ele>101.71428571428572</ele><time>2026-04-03T20:24:17.715Z</time></trkpt><trkpt lat="45.455489" lon="11.5502317"><ele>104.57142857142858</ele><time>2026-04-03T20:24:18.711Z</time></trkpt><trkpt lat="45.4554334" lon="11.5502973"><ele>107.42857142857143</ele><time>2026-04-03T20:24:19.714Z</time></trkpt><trkpt lat="45.4553706" lon="11.5503679"><ele>110.28571428571429</ele><time>2026-04-03T20:24:20.702Z</time></trkpt><trkpt lat="45.4553013" lon="11.5504323"><ele>113.14285714285715</ele><time>2026-04-03T20:24:21.71Z</time></trkpt><trkpt lat="45.4552393" lon="11.5504766"><ele>116.00000000000001</ele><time>2026-04-03T20:24:22.711Z</time></trkpt><trkpt lat="45.4551843" lon="11.550532"><ele>122.33333333333333</ele><time>2026-04-03T20:24:23.71Z</time></trkpt><trkpt lat="45.4551341" lon="11.5505896"><ele>128.66666666666666</ele><time>2026-04-03T20:24:24.709Z</time></trkpt><trkpt lat="45.4550797" lon="11.5506395"><ele>135.0</ele><time>2026-04-03T20:24:25.715Z</time></trkpt><trkpt lat="45.4550189" lon="11.5506781"><ele>141.33333333333334</ele><time>2026-04-03T20:24:26.705Z</time></trkpt><trkpt lat="45.4549517" lon="11.5506969"><ele>147.66666666666669</ele><time>2026-04-03T20:24:27.712Z</time></trkpt><trkpt lat="45.4548371" lon="11.5506947"><ele>154.0</ele><time>2026-04-03T20:24:29.71Z</time></trkpt><trkpt lat="45.4547582" lon="11.5506704"><ele>154.0</ele><time>2026-04-03T20:24:31.709Z</time></trkpt><trkpt lat="45.4547828" lon="11.5507774"><ele>154.0</ele><time>2026-04-03T20:24:37.713Z</time></trkpt><trkpt lat="45.4548991" lon="11.5509011"><ele>154.0</ele><time>2026-04-03T20:24:40.711Z</time></trkpt><trkpt lat="45.4549568" lon="11.5509714"><ele>154.0</ele><time>2026-04-03T20:24:41.717Z</time></trkpt><trkpt lat="45.4550122" lon="11.5510262"><ele>154.0</ele><time>2026-04-03T20:24:42.709Z</time></trkpt><trkpt lat="45.4550698" lon="11.5510645"><ele>154.0</ele><time>2026-04-03T20:24:43.71Z</time></trkpt><trkpt lat="45.4551312" lon="11.5510869"><ele>154.0</ele><time>2026-04-03T20:24:44.713Z</time></trkpt><trkpt lat="45.4551985" lon="11.5511098"><ele>154.0</ele><time>2026-04-03T20:24:45.709Z</time></trkpt><trkpt lat="45.4552702" lon="11.5511298"><ele>154.0</ele><time>2026-04-03T20:24:46.713Z</time></trkpt><trkpt lat="45.4553459" lon="11.5511379"><ele>154.0</ele><time>2026-04-03T20:24:47.71Z</time></trkpt><trkpt lat="45.4554226" lon="11.5511367"><ele>154.0</ele><time>2026-04-03T20:24:48.721Z</time></trkpt><trkpt lat="45.4554872" lon="11.5511446"><ele>154.0</ele><time>2026-04-03T20:24:49.715Z</time></trkpt><trkpt lat="45.4555191" lon="11.5512269"><ele>154.0</ele><time>2026-04-03T20:24:52.719Z</time></trkpt><trkpt lat="45.4554136" lon="11.5512903"><ele>162.0</ele><time>2026-04-03T20:24:54.71Z</time></trkpt><trkpt lat="45.4553363" lon="11.5513383"><ele>170.0</ele><time>2026-04-03T20:24:55.71Z</time></trkpt><trkpt lat="45.4552473" lon="11.5513949"><ele>178.0</ele><time>2026-04-03T20:24:56.709Z</time></trkpt><trkpt lat="45.4551567" lon="11.5514511"><ele>186.0</ele><time>2026-04-03T20:24:57.709Z</time></trkpt><trkpt lat="45.4550635" lon="11.5515072"><ele>194.0</ele><time>2026-04-03T20:24:58.711Z</time></trkpt><trkpt lat="45.4548689" lon="11.551629"><ele>194.0</ele><time>2026-04-03T20:25:00.718Z</time></trkpt><trkpt lat="45.4547694" lon="11.5516903"><ele>194.0</ele><time>2026-04-03T20:25:01.701Z</time></trkpt><trkpt lat="45.4546663" lon="11.5517511"><ele>194.0</ele><time>2026-04-03T20:25:02.724Z</time></trkpt><trkpt lat="45.4545628" lon="11.5517918"><ele>194.0</ele><time>2026-04-03T20:25:03.708Z</time></trkpt><trkpt lat="45.4544687" lon="11.5518139"><ele>194.0</ele><time>2026-04-03T20:25:04.702Z</time></trkpt><trkpt lat="45.4543926" lon="11.5518219"><ele>196.66666666666669</ele><time>2026-04-03T20:25:05.708Z</time></trkpt><trkpt lat="45.4543197" lon="11.5518225"><ele>199.33333333333334</ele><time>2026-04-03T20:25:06.708Z</time></trkpt><trkpt lat="45.4542539" lon="11.5517996"><ele>202.0</ele><time>2026-04-03T20:25:07.709Z</time></trkpt><trkpt lat="45.4541897" lon="11.5517755"><ele>204.66666666666669</ele><time>2026-04-03T20:25:08.712Z</time></trkpt><trkpt lat="45.4541228" lon="11.5517416"><ele>207.33333333333334</ele><time>2026-04-03T20:25:09.705Z</time></trkpt><trkpt lat="45.4540164" lon="11.5516278"><ele>210.0</ele><time>2026-04-03T20:25:11.712Z</time></trkpt><trkpt lat="45.4539658" lon="11.5515477"><ele>210.0</ele><time>2026-04-03T20:25:12.715Z</time></trkpt><trkpt lat="45.4539218" lon="11.5514558"><ele>210.0</ele><time>2026-04-03T20:25:13.718Z</time></trkpt><trkpt lat="45.4538768" lon="11.5513596"><ele>210.0</ele><time>2026-04-03T20:25:14.715Z</time></trkpt><trkpt lat="45.4538072" lon="11.5512514"><ele>210.0</ele><time>2026-04-03T20:25:16.717Z</time></trkpt><trkpt lat="45.4537534" lon="11.5513791"><ele>210.0</ele><time>2026-04-03T20:25:19.73Z</time></trkpt><trkpt lat="45.453784" lon="11.5516127"><ele>210.0</ele><time>2026-04-03T20:25:21.714Z</time></trkpt><trkpt lat="45.4538037" lon="11.5517561"><ele>210.0</ele><time>2026-04-03T20:25:22.712Z</time></trkpt><trkpt lat="45.4538329" lon="11.5519026"><ele>210.0</ele><time>2026-04-03T20:25:23.71Z</time></trkpt><trkpt lat="45.453862" lon="11.5520495"><ele>210.0</ele><time>2026-04-03T20:25:24.712Z</time></trkpt><trkpt lat="45.4538929" lon="11.5521968"><ele>210.0</ele><time>2026-04-03T20:25:25.705Z</time></trkpt><trkpt lat="45.4539239" lon="11.5523422"><ele>215.8</ele><time>2026-04-03T20:25:26.704Z</time></trkpt><trkpt lat="45.4539536" lon="11.5524786"><ele>221.6</ele><time>2026-04-03T20:25:27.703Z</time></trkpt><trkpt lat="45.4539853" lon="11.5526106"><ele>227.39999999999998</ele><time>2026-04-03T20:25:28.708Z</time></trkpt><trkpt lat="45.4540446" lon="11.552701"><ele>233.2</ele><time>2026-04-03T20:25:29.706Z</time></trkpt><trkpt lat="45.4541192" lon="11.5527709"><ele>239.0</ele><time>2026-04-03T20:25:30.701Z</time></trkpt><trkpt lat="45.4541942" lon="11.5528268"><ele>239.00000000000003</ele><time>2026-04-03T20:25:31.701Z</time></trkpt><trkpt lat="45.4542635" lon="11.5528718"><ele>239.0</ele><time>2026-04-03T20:25:32.702Z</time></trkpt><trkpt lat="45.4543368" lon="11.5529061"><ele>239.0</ele><time>2026-04-03T20:25:33.702Z</time></trkpt><trkpt lat="45.4544143" lon="11.5529171"><ele>239.0</ele><time>2026-04-03T20:25:34.703Z</time></trkpt><trkpt lat="45.454489" lon="11.5529146"><ele>239.00000000000003</ele><time>2026-04-03T20:25:35.707Z</time></trkpt><trkpt lat="45.4546087" lon="11.5529058"><ele>239.0</ele><time>2026-04-03T20:25:37.713Z</time></trkpt><trkpt lat="45.454699" lon="11.5529036"><ele>248.25</ele><time>2026-04-03T20:25:39.707Z</time></trkpt><trkpt lat="45.4547765" lon="11.5529121"><ele>257.5</ele><time>2026-04-03T20:25:41.71Z</time></trkpt><trkpt lat="45.4549844" lon="11.5529319"><ele>266.75</ele><time>2026-04-03T20:25:45.704Z</time></trkpt><trkpt lat="45.455108" lon="11.5529325"><ele>276.0</ele><time>2026-04-03T20:25:47.698Z</time></trkpt><trkpt lat="45.4551815" lon="11.5529287"><ele>276.0</ele><time>2026-04-03T20:25:48.7Z</time></trkpt><trkpt lat="45.4552639" lon="11.5529189"><ele>276.0</ele><time>2026-04-03T20:25:49.708Z</time></trkpt><trkpt lat="45.4553564" lon="11.5529033"><ele>276.0</ele><time>2026-04-03T20:25:50.697Z</time></trkpt><trkpt lat="45.4554586" lon="11.5528851"><ele>276.0</ele><time>2026-04-03T20:25:51.705Z</time></trkpt><trkpt lat="45.4555553" lon="11.5528599"><ele>276.0</ele><time>2026-04-03T20:25:52.707Z</time></trkpt><trkpt lat="45.4556471" lon="11.5528338"><ele>276.0</ele><time>2026-04-03T20:25:53.704Z</time></trkpt><trkpt lat="45.4557294" lon="11.5528149"><ele>276.0</ele><time>2026-04-03T20:25:54.709Z</time></trkpt><trkpt lat="45.455673" lon="11.5529172"><ele>276.0</ele><time>2026-04-03T20:25:59.699Z</time></trkpt><trkpt lat="45.4556035" lon="11.5529571"><ele>276.0</ele><time>2026-04-03T20:26:00.707Z</time></trkpt><trkpt lat="45.4555151" lon="11.5530171"><ele>276.0</ele><time>2026-04-03T20:26:01.701Z</time></trkpt><trkpt lat="45.4554107" lon="11.5530873"><ele>276.0</ele><time>2026-04-03T20:26:02.704Z</time></trkpt><trkpt lat="45.4551477" lon="11.5532419"><ele>276.0</ele><time>2026-04-03T20:26:04.698Z</time></trkpt><trkpt lat="45.4549993" lon="11.5533182"><ele>276.0</ele><time>2026-04-03T20:26:05.704Z</time></trkpt><trkpt lat="45.4548601" lon="11.5533877"><ele>276.0</ele><time>2026-04-03T20:26:06.703Z</time></trkpt><trkpt lat="45.4547224" lon="11.5534465"><ele>276.0</ele><time>2026-04-03T20:26:07.698Z</time></trkpt><trkpt lat="45.4545833" lon="11.5534949"><ele>276.0</ele><time>2026-04-03T20:26:08.712Z</time></trkpt><trkpt lat="45.4544497" lon="11.5535384"><ele>276.0</ele><time>2026-04-03T20:26:09.697Z</time></trkpt><trkpt lat="45.4543175" lon="11.5535734"><ele>275.75</ele><time>2026-04-03T20:26:10.698Z</time></trkpt><trkpt lat="45.454186" lon="11.5535981"><ele>275.5</ele><time>2026-04-03T20:26:11.698Z</time></trkpt><trkpt lat="45.4540677" lon="11.5536051"><ele>275.25</ele><time>2026-04-03T20:26:12.695Z</time></trkpt><trkpt lat="45.453956" lon="11.5535917"><ele>275.0</ele><time>2026-04-03T20:26:13.704Z</time></trkpt><trkpt lat="45.4538504" lon="11.5535691"><ele>277.2</ele><time>2026-04-03T20:26:14.7Z</time></trkpt><trkpt lat="45.4537379" lon="11.5535296"><ele>279.4</ele><time>2026-04-03T20:26:15.706Z</time></trkpt><trkpt lat="45.453634" lon="11.5534883"><ele>281.6</ele><time>2026-04-03T20:26:16.701Z</time></trkpt><trkpt lat="45.4535319" lon="11.5534473"><ele>283.8</ele><time>2026-04-03T20:26:17.703Z</time></trkpt><trkpt lat="45.4534346" lon="11.5534184"><ele>286.0</ele><time>2026-04-03T20:26:18.702Z</time></trkpt><trkpt lat="45.4533348" lon="11.5533981"><ele>286.0</ele><time>2026-04-03T20:26:19.713Z</time></trkpt><trkpt lat="45.4532408" lon="11.5533967"><ele>286.0</ele><time>2026-04-03T20:26:20.713Z</time></trkpt><trkpt lat="45.453152" lon="11.553403"><ele>286.0</ele><time>2026-04-03T20:26:21.71Z</time></trkpt><trkpt lat="45.4530677" lon="11.5534075"><ele>286.0</ele><time>2026-04-03T20:26:22.717Z</time></trkpt><trkpt lat="45.4529935" lon="11.5534115"><ele>286.0</ele><time>2026-04-03T20:26:23.714Z</time></trkpt><trkpt lat="45.452799" lon="11.5534639"><ele>285.16666666666663</ele><time>2026-04-03T20:26:28.714Z</time></trkpt><trkpt lat="45.4527638" lon="11.5535449"><ele>284.3333333333333</ele><time>2026-04-03T20:26:30.716Z</time></trkpt><trkpt lat="45.452757" lon="11.5536558"><ele>283.5</ele><time>2026-04-03T20:26:32.718Z</time></trkpt><trkpt lat="45.4527459" lon="11.5537457"><ele>282.6666666666667</ele><time>2026-04-03T20:28:57.728Z</time></trkpt><trkpt lat="45.4526574" lon="11.5539218"><ele>281.83333333333337</ele><time>2026-04-03T20:29:00.718Z</time></trkpt><trkpt lat="45.4525999" lon="11.5540008"><ele>281.0</ele><time>2026-04-03T20:29:01.708Z</time></trkpt><trkpt lat="45.4525275" lon="11.5540893"><ele>285.25</ele><time>2026-04-03T20:29:02.713Z</time></trkpt><trkpt lat="45.4524496" lon="11.554188"><ele>289.5</ele><time>2026-04-03T20:29:03.709Z</time></trkpt><trkpt lat="45.4523629" lon="11.5543135"><ele>293.75</ele><time>2026-04-03T20:29:04.706Z</time></trkpt><trkpt lat="45.4522581" lon="11.5544237"><ele>298.0</ele><time>2026-04-03T20:29:05.711Z</time></trkpt><trkpt lat="45.4521577" lon="11.5545435"><ele>300.5</ele><time>2026-04-03T20:29:06.716Z</time></trkpt><trkpt lat="45.4520353" lon="11.5546375"><ele>303.0</ele><time>2026-04-03T20:29:07.715Z</time></trkpt><trkpt lat="45.4518947" lon="11.5547031"><ele>305.5</ele><time>2026-04-03T20:29:08.727Z</time></trkpt><trkpt lat="45.4517476" lon="11.5547602"><ele>308.0</ele><time>2026-04-03T20:29:09.711Z</time></trkpt><trkpt lat="45.4516038" lon="11.5548012"><ele>308.0</ele><time>2026-04-03T20:29:10.71Z</time></trkpt><trkpt lat="45.4514871" lon="11.554843"><ele>308.0</ele><time>2026-04-03T20:29:11.71Z</time></trkpt><trkpt lat="45.4513604" lon="11.5548976"><ele>308.0</ele><time>2026-04-03T20:29:12.713Z</time></trkpt><trkpt lat="45.4512223" lon="11.5549383"><ele>308.0</ele><time>2026-04-03T20:29:13.712Z</time></trkpt><trkpt lat="45.4510971" lon="11.5549761"><ele>308.0</ele><time>2026-04-03T20:29:14.71Z</time></trkpt><trkpt lat="45.4509838" lon="11.5550001"><ele>308.0</ele><time>2026-04-03T20:29:15.705Z</time></trkpt><trkpt lat="45.4508707" lon="11.5550167"><ele>308.0</ele><time>2026-04-03T20:29:16.707Z</time></trkpt><trkpt lat="45.4507786" lon="11.5550443"><ele>308.0</ele><time>2026-04-03T20:29:17.707Z</time></trkpt><trkpt lat="45.4506887" lon="11.5550644"><ele>308.0</ele><time>2026-04-03T20:29:18.711Z</time></trkpt><trkpt lat="45.4505025" lon="11.5550925"><ele>306.8</ele><time>2026-04-03T20:29:20.712Z</time></trkpt><trkpt lat="45.4504269" lon="11.5551283"><ele>305.6</ele><time>2026-04-03T20:29:21.725Z</time></trkpt><trkpt lat="45.4503821" lon="11.5552606"><ele>304.4</ele><time>2026-04-03T20:29:23.712Z</time></trkpt><trkpt lat="45.4504497" lon="11.5553766"><ele>303.2</ele><time>2026-04-03T20:29:25.722Z</time></trkpt><trkpt lat="45.4505395" lon="11.5553827"><ele>302.0</ele><time>2026-04-03T20:29:26.721Z</time></trkpt><trkpt lat="45.4506491" lon="11.5553902"><ele>308.5</ele><time>2026-04-03T20:29:27.71Z</time></trkpt><trkpt lat="45.4507613" lon="11.5554238"><ele>315.0</ele><time>2026-04-03T20:29:28.708Z</time></trkpt><trkpt lat="45.4508796" lon="11.5554524"><ele>321.5</ele><time>2026-04-03T20:29:29.712Z</time></trkpt><trkpt lat="45.451002" lon="11.5554867"><ele>328.0</ele><time>2026-04-03T20:29:30.714Z</time></trkpt><trkpt lat="45.4511137" lon="11.5555313"><ele>328.0</ele><time>2026-04-03T20:29:31.709Z</time></trkpt><trkpt lat="45.4512062" lon="11.5555878"><ele>328.0</ele><time>2026-04-03T20:29:32.72Z</time></trkpt><trkpt lat="45.4512882" lon="11.5556555"><ele>328.0</ele><time>2026-04-03T20:29:33.716Z</time></trkpt><trkpt lat="45.4513431" lon="11.5557489"><ele>328.0</ele><time>2026-04-03T20:29:34.717Z</time></trkpt><trkpt lat="45.4513917" lon="11.5558628"><ele>328.0</ele><time>2026-04-03T20:29:35.72Z</time></trkpt><trkpt lat="45.4514272" lon="11.5559571"><ele>328.0</ele><time>2026-04-03T20:29:36.716Z</time></trkpt><trkpt lat="45.4514597" lon="11.5560618"><ele>328.0</ele><time>2026-04-03T20:29:38.721Z</time></trkpt><trkpt lat="45.451392" lon="11.5560944"><ele>328.0</ele><time>2026-04-03T20:29:42.717Z</time></trkpt><trkpt lat="45.4512167" lon="11.5559125"><ele>328.0</ele><time>2026-04-03T20:29:46.718Z</time></trkpt><trkpt lat="45.4511545" lon="11.5558821"><ele>328.0</ele><time>2026-04-03T20:29:47.71Z</time></trkpt><trkpt lat="45.4510817" lon="11.5558705"><ele>328.0</ele><time>2026-04-03T20:29:48.712Z</time></trkpt><trkpt lat="45.4510162" lon="11.5558786"><ele>328.0</ele><time>2026-04-03T20:29:49.706Z</time></trkpt><trkpt lat="45.4509494" lon="11.5558967"><ele>328.0</ele><time>2026-04-03T20:29:50.714Z</time></trkpt><trkpt lat="45.4508727" lon="11.555921"><ele>328.0</ele><time>2026-04-03T20:29:51.718Z</time></trkpt><trkpt lat="45.4507869" lon="11.5559453"><ele>328.0</ele><time>2026-04-03T20:29:52.718Z</time></trkpt><trkpt lat="45.4506919" lon="11.5559689"><ele>328.0</ele><time>2026-04-03T20:29:53.722Z</time></trkpt><trkpt lat="45.4505935" lon="11.556002"><ele>328.0</ele><time>2026-04-03T20:29:54.717Z</time></trkpt><trkpt lat="45.4504892" lon="11.5560421"><ele>326.59999999999997</ele><time>2026-04-03T20:29:55.725Z</time></trkpt><trkpt lat="45.4503864" lon="11.5560899"><ele>325.2</ele><time>2026-04-03T20:29:56.72Z</time></trkpt><trkpt lat="45.4502914" lon="11.5561508"><ele>323.8</ele><time>2026-04-03T20:29:57.73Z</time></trkpt><trkpt lat="45.4501985" lon="11.5562214"><ele>322.4</ele><time>2026-04-03T20:29:58.713Z</time></trkpt><trkpt lat="45.4501139" lon="11.5563094"><ele>321.0</ele><time>2026-04-03T20:29:59.716Z</time></trkpt><trkpt lat="45.4500338" lon="11.5564159"><ele>321.25</ele><time>2026-04-03T20:30:00.711Z</time></trkpt><trkpt lat="45.4499577" lon="11.5565333"><ele>321.5</ele><time>2026-04-03T20:30:01.72Z</time></trkpt><trkpt lat="45.4498755" lon="11.5566566"><ele>321.75</ele><time>2026-04-03T20:30:02.717Z</time></trkpt><trkpt lat="45.449788" lon="11.5567745"><ele>322.0</ele><time>2026-04-03T20:30:03.717Z</time></trkpt><trkpt lat="45.4495797" lon="11.5569925"><ele>325.75</ele><time>2026-04-03T20:30:05.721Z</time></trkpt><trkpt lat="45.4494657" lon="11.5570901"><ele>329.5</ele><time>2026-04-03T20:30:06.715Z</time></trkpt><trkpt lat="45.4493454" lon="11.5571772"><ele>333.25</ele><time>2026-04-03T20:30:07.713Z</time></trkpt><trkpt lat="45.4492235" lon="11.5572644"><ele>337.0</ele><time>2026-04-03T20:30:08.718Z</time></trkpt><trkpt lat="45.4491038" lon="11.5573565"><ele>337.0</ele><time>2026-04-03T20:30:09.724Z</time></trkpt><trkpt lat="45.448988" lon="11.5574603"><ele>337.0</ele><time>2026-04-03T20:30:10.713Z</time></trkpt><trkpt lat="45.4488679" lon="11.5575651"><ele>337.0</ele><time>2026-04-03T20:30:11.72Z</time></trkpt><trkpt lat="45.4487415" lon="11.5576521"><ele>337.0</ele><time>2026-04-03T20:30:12.718Z</time></trkpt><trkpt lat="45.4486028" lon="11.5577081"><ele>335.3333333333333</ele><time>2026-04-03T20:30:13.71Z</time></trkpt><trkpt lat="45.4484528" lon="11.5577346"><ele>333.6666666666667</ele><time>2026-04-03T20:30:14.711Z</time></trkpt><trkpt lat="45.4482894" lon="11.5577331"><ele>332.0</ele><time>2026-04-03T20:30:15.716Z</time></trkpt><trkpt lat="45.4481388" lon="11.5576969"><ele>332.0</ele><time>2026-04-03T20:30:16.712Z</time></trkpt><trkpt lat="45.4479996" lon="11.5576484"><ele>332.0</ele><time>2026-04-03T20:30:17.723Z</time></trkpt><trkpt lat="45.4478749" lon="11.5576026"><ele>332.0</ele><time>2026-04-03T20:30:18.716Z</time></trkpt><trkpt lat="45.4477728" lon="11.5575595"><ele>332.0</ele><time>2026-04-03T20:30:19.714Z</time></trkpt><trkpt lat="45.4476934" lon="11.5575029"><ele>332.0</ele><time>2026-04-03T20:30:20.71Z</time></trkpt><trkpt lat="45.4476378" lon="11.5574388"><ele>332.0</ele><time>2026-04-03T20:30:21.716Z</time></trkpt><trkpt lat="45.4476083" lon="11.5573277"><ele>332.0</ele><time>2026-04-03T20:30:22.717Z</time></trkpt><trkpt lat="45.4475741" lon="11.557196"><ele>332.0</ele><time>2026-04-03T20:30:23.717Z</time></trkpt><trkpt lat="45.4475311" lon="11.5570418"><ele>332.0</ele><time>2026-04-03T20:30:24.718Z</time></trkpt><trkpt lat="45.447412" lon="11.5566941"><ele>331.75</ele><time>2026-04-03T20:30:26.722Z</time></trkpt><trkpt lat="45.4473475" lon="11.556521"><ele>331.5</ele><time>2026-04-03T20:30:27.727Z</time></trkpt><trkpt lat="45.4472834" lon="11.5563662"><ele>331.25</ele><time>2026-04-03T20:30:28.717Z</time></trkpt><trkpt lat="45.4472299" lon="11.5562277"><ele>331.0</ele><time>2026-04-03T20:30:29.718Z</time></trkpt><trkpt lat="45.4471843" lon="11.5561102"><ele>330.2857142857143</ele><time>2026-04-03T20:30:30.715Z</time></trkpt><trkpt lat="45.4471398" lon="11.5560132"><ele>329.57142857142856</ele><time>2026-04-03T20:30:31.724Z</time></trkpt><trkpt lat="45.4470979" lon="11.5559425"><ele>328.8571428571429</ele><time>2026-04-03T20:30:32.719Z</time></trkpt><trkpt lat="45.4469977" lon="11.5559007"><ele>328.1428571428571</ele><time>2026-04-03T20:30:34.721Z</time></trkpt><trkpt lat="45.4469365" lon="11.5559242"><ele>327.4285714285714</ele><time>2026-04-03T20:30:35.722Z</time></trkpt><trkpt lat="45.4468767" lon="11.5559562"><ele>326.7142857142857</ele><time>2026-04-03T20:30:36.718Z</time></trkpt><trkpt lat="45.4468139" lon="11.555987"><ele>326.0</ele><time>2026-04-03T20:30:37.716Z</time></trkpt><trkpt lat="45.44675" lon="11.5560153"><ele>330.5</ele><time>2026-04-03T20:30:38.713Z</time></trkpt><trkpt lat="45.4466498" lon="11.5560583"><ele>335.0</ele><time>2026-04-03T20:30:40.714Z</time></trkpt><trkpt lat="45.4466016" lon="11.5561187"><ele>339.5</ele><time>2026-04-03T20:30:42.721Z</time></trkpt><trkpt lat="45.4465353" lon="11.5561532"><ele>344.0</ele><time>2026-04-03T20:30:51.72Z</time></trkpt><trkpt lat="45.4463763" lon="11.5559439"><ele>344.0</ele><time>2026-04-03T20:31:23.714Z</time></trkpt><trkpt lat="45.4463089" lon="11.5558163"><ele>344.0</ele><time>2026-04-03T20:31:25.729Z</time></trkpt><trkpt lat="45.4462538" lon="11.5556975"><ele>344.0</ele><time>2026-04-03T20:31:27.724Z</time></trkpt><trkpt lat="45.4462066" lon="11.5555392"><ele>344.0</ele><time>2026-04-03T20:31:29.732Z</time></trkpt><trkpt lat="45.446188" lon="11.5554365"><ele>344.0</ele><time>2026-04-03T20:31:30.728Z</time></trkpt><trkpt lat="45.4461673" lon="11.5553436"><ele>346.00000000000006</ele><time>2026-04-03T20:31:31.73Z</time></trkpt><trkpt lat="45.4461464" lon="11.5552432"><ele>348.0</ele><time>2026-04-03T20:31:32.724Z</time></trkpt><trkpt lat="45.4461291" lon="11.5551341"><ele>350.0</ele><time>2026-04-03T20:31:33.727Z</time></trkpt><trkpt lat="45.4461123" lon="11.5550293"><ele>352.0</ele><time>2026-04-03T20:31:34.721Z</time></trkpt><trkpt lat="45.4460852" lon="11.5549349"><ele>354.0</ele><time>2026-04-03T20:31:35.722Z</time></trkpt><trkpt lat="45.446053" lon="11.5548352"><ele>356.00000000000006</ele><time>2026-04-03T20:31:36.724Z</time></trkpt><trkpt lat="45.4460288" lon="11.5547426"><ele>358.0</ele><time>2026-04-03T20:31:37.723Z</time></trkpt><trkpt lat="45.4459553" lon="11.5546047"><ele>359.2</ele><time>2026-04-03T20:31:39.72Z</time></trkpt><trkpt lat="45.4459029" lon="11.5545368"><ele>360.4</ele><time>2026-04-03T20:31:40.722Z</time></trkpt><trkpt lat="45.4458369" lon="11.5544593"><ele>361.59999999999997</ele><time>2026-04-03T20:31:41.721Z</time></trkpt><trkpt lat="45.4457809" lon="11.5543741"><ele>362.79999999999995</ele><time>2026-04-03T20:31:42.721Z</time></trkpt><trkpt lat="45.4457375" lon="11.5541661"><ele>364.0</ele><time>2026-04-03T20:31:44.723Z</time></trkpt><trkpt lat="45.4457198" lon="11.5540685"><ele>364.0</ele><time>2026-04-03T20:31:45.73Z</time></trkpt><trkpt lat="45.4456428" lon="11.5539276"><ele>364.0</ele><time>2026-04-03T20:31:47.724Z</time></trkpt><trkpt lat="45.4455201" lon="11.553883"><ele>364.0</ele><time>2026-04-03T20:31:49.721Z</time></trkpt><trkpt lat="45.4454446" lon="11.5538728"><ele>364.0</ele><time>2026-04-03T20:31:50.731Z</time></trkpt><trkpt lat="45.4453864" lon="11.5538384"><ele>364.0</ele><time>2026-04-03T20:31:51.728Z</time></trkpt><trkpt lat="45.4453422" lon="11.55371"><ele>362.66666666666663</ele><time>2026-04-03T20:31:53.727Z</time></trkpt><trkpt lat="45.4453633" lon="11.5536178"><ele>361.3333333333333</ele><time>2026-04-03T20:31:54.718Z</time></trkpt><trkpt lat="45.4454143" lon="11.5534553"><ele>360.0</ele><time>2026-04-03T20:31:56.72Z</time></trkpt><trkpt lat="45.4454578" lon="11.5533725"><ele>358.6666666666667</ele><time>2026-04-03T20:31:57.725Z</time></trkpt><trkpt lat="45.4454945" lon="11.5532981"><ele>357.33333333333337</ele><time>2026-04-03T20:31:58.729Z</time></trkpt><trkpt lat="45.4455262" lon="11.553133"><ele>356.0</ele><time>2026-04-03T20:32:00.722Z</time></trkpt><trkpt lat="45.4455305" lon="11.5530396"><ele>356.0</ele><time>2026-04-03T20:32:01.718Z</time></trkpt><trkpt lat="45.4455345" lon="11.552939"><ele>356.0</ele><time>2026-04-03T20:32:02.716Z</time></trkpt><trkpt lat="45.4455408" lon="11.5528411"><ele>356.0</ele><time>2026-04-03T20:32:03.719Z</time></trkpt><trkpt lat="45.445579" lon="11.5526452"><ele>356.0</ele><time>2026-04-03T20:32:06.724Z</time></trkpt><trkpt lat="45.445659" lon="11.5526692"><ele>356.0</ele><time>2026-04-03T20:32:40.723Z</time></trkpt><trkpt lat="45.4457867" lon="11.5525206"><ele>355.5</ele><time>2026-04-03T20:32:44.735Z</time></trkpt><trkpt lat="45.445857" lon="11.552377"><ele>355.0</ele><time>2026-04-03T20:32:46.731Z</time></trkpt><trkpt lat="45.445946" lon="11.5522649"><ele>354.5</ele><time>2026-04-03T20:32:48.725Z</time></trkpt><trkpt lat="45.4460574" lon="11.5521575"><ele>354.0</ele><time>2026-04-03T20:32:50.732Z</time></trkpt><trkpt lat="45.4461353" lon="11.5521223"><ele>354.0</ele><time>2026-04-03T20:32:51.734Z</time></trkpt><trkpt lat="45.4462038" lon="11.5521294"><ele>354.0</ele><time>2026-04-03T20:32:52.741Z</time></trkpt><trkpt lat="45.4462728" lon="11.5521778"><ele>354.0</ele><time>2026-04-03T20:32:53.732Z</time></trkpt><trkpt lat="45.4463447" lon="11.5522418"><ele>354.0</ele><time>2026-04-03T20:32:54.738Z</time></trkpt><trkpt lat="45.4464115" lon="11.5523108"><ele>354.0</ele><time>2026-04-03T20:32:55.736Z</time></trkpt><trkpt lat="45.4464744" lon="11.5523769"><ele>354.0</ele><time>2026-04-03T20:32:56.729Z</time></trkpt><trkpt lat="45.4465671" lon="11.5524548"><ele>353.0</ele><time>2026-04-03T20:32:58.722Z</time></trkpt><trkpt lat="45.4466544" lon="11.5524589"><ele>352.0</ele><time>2026-04-03T20:33:34.717Z</time></trkpt><trkpt lat="45.4467272" lon="11.5524288"><ele>351.0</ele><time>2026-04-03T20:33:35.718Z</time></trkpt><trkpt lat="45.4470048" lon="11.5523408"><ele>350.0</ele><time>2026-04-03T20:33:39.714Z</time></trkpt><trkpt lat="45.4471163" lon="11.5522824"><ele>348.5</ele><time>2026-04-03T20:33:41.717Z</time></trkpt><trkpt lat="45.4472393" lon="11.5522253"><ele>347.0</ele><time>2026-04-03T20:33:43.716Z</time></trkpt><trkpt lat="45.447301" lon="11.5522013"><ele>345.5</ele><time>2026-04-03T20:33:44.725Z</time></trkpt><trkpt lat="45.4473681" lon="11.5521817"><ele>344.0</ele><time>2026-04-03T20:33:45.718Z</time></trkpt><trkpt lat="45.44744" lon="11.5521695"><ele>342.5</ele><time>2026-04-03T20:33:46.727Z</time></trkpt><trkpt lat="45.4475127" lon="11.5521447"><ele>341.0</ele><time>2026-04-03T20:33:47.721Z</time></trkpt><trkpt lat="45.4475883" lon="11.5521163"><ele>341.0</ele><time>2026-04-03T20:33:48.718Z</time></trkpt><trkpt lat="45.4476665" lon="11.5520891"><ele>341.0</ele><time>2026-04-03T20:33:49.723Z</time></trkpt><trkpt lat="45.447733" lon="11.5520425"><ele>341.0</ele><time>2026-04-03T20:33:50.718Z</time></trkpt><trkpt lat="45.4477896" lon="11.5520029"><ele>341.0</ele><time>2026-04-03T20:33:51.721Z</time></trkpt><trkpt lat="45.4478697" lon="11.5520204"><ele>341.0</ele><time>2026-04-03T20:33:53.724Z</time></trkpt><trkpt lat="45.447955" lon="11.5520523"><ele>341.0</ele><time>2026-04-03T20:33:56.722Z</time></trkpt><trkpt lat="45.4479893" lon="11.5519415"><ele>335.5</ele><time>2026-04-03T20:33:59.726Z</time></trkpt><trkpt lat="45.4480611" lon="11.5517032"><ele>330.0</ele><time>2026-04-03T20:34:03.728Z</time></trkpt><trkpt lat="45.4480892" lon="11.5516123"><ele>324.5</ele><time>2026-04-03T20:34:11.728Z</time></trkpt><trkpt lat="45.4481127" lon="11.5515138"><ele>319.0</ele><time>2026-04-03T20:34:41.723Z</time></trkpt><trkpt lat="45.4481644" lon="11.5512351"><ele>322.0</ele><time>2026-04-03T20:34:44.724Z</time></trkpt><trkpt lat="45.4481788" lon="11.5510817"><ele>325.0</ele><time>2026-04-03T20:34:45.73Z</time></trkpt><trkpt lat="45.4481962" lon="11.5508974"><ele>328.0</ele><time>2026-04-03T20:34:46.722Z</time></trkpt><trkpt lat="45.4482059" lon="11.5507188"><ele>331.0</ele><time>2026-04-03T20:34:47.724Z</time></trkpt><trkpt lat="45.4482137" lon="11.550554"><ele>331.0</ele><time>2026-04-03T20:34:48.725Z</time></trkpt><trkpt lat="45.4482257" lon="11.5504032"><ele>331.0</ele><time>2026-04-03T20:34:49.731Z</time></trkpt><trkpt lat="45.4482497" lon="11.550259"><ele>331.0</ele><time>2026-04-03T20:34:50.722Z</time></trkpt><trkpt lat="45.4482776" lon="11.5501191"><ele>331.0</ele><time>2026-04-03T20:34:51.721Z</time></trkpt><trkpt lat="45.4483191" lon="11.5499832"><ele>331.0</ele><time>2026-04-03T20:34:52.725Z</time></trkpt><trkpt lat="45.4483716" lon="11.549852"><ele>335.5</ele><time>2026-04-03T20:34:53.725Z</time></trkpt><trkpt lat="45.4484368" lon="11.5497267"><ele>340.0</ele><time>2026-04-03T20:34:54.718Z</time></trkpt><trkpt lat="45.448515" lon="11.5496174"><ele>344.5</ele><time>2026-04-03T20:34:55.728Z</time></trkpt><trkpt lat="45.4486085" lon="11.5495259"><ele>349.0</ele><time>2026-04-03T20:34:56.726Z</time></trkpt><trkpt lat="45.4487242" lon="11.5494691"><ele>348.25</ele><time>2026-04-03T20:34:57.73Z</time></trkpt><trkpt lat="45.4488646" lon="11.5494774"><ele>347.5</ele><time>2026-04-03T20:34:58.728Z</time></trkpt><trkpt lat="45.4490054" lon="11.5495406"><ele>346.75</ele><time>2026-04-03T20:34:59.722Z</time></trkpt><trkpt lat="45.4491393" lon="11.549586"><ele>346.0</ele><time>2026-04-03T20:35:00.734Z</time></trkpt><trkpt lat="45.4492503" lon="11.5495819"><ele>346.0</ele><time>2026-04-03T20:35:01.733Z</time></trkpt><trkpt lat="45.4493308" lon="11.5495077"><ele>346.0</ele><time>2026-04-03T20:35:02.734Z</time></trkpt><trkpt lat="45.4493879" lon="11.5492205"><ele>346.0</ele><time>2026-04-03T20:35:04.732Z</time></trkpt><trkpt lat="45.4493986" lon="11.5490207"><ele>346.0</ele><time>2026-04-03T20:35:05.732Z</time></trkpt><trkpt lat="45.4494349" lon="11.5488327"><ele>343.0</ele><time>2026-04-03T20:35:06.73Z</time></trkpt><trkpt lat="45.4495093" lon="11.5486831"><ele>340.0</ele><time>2026-04-03T20:35:07.737Z</time></trkpt><trkpt lat="45.4496118" lon="11.5485875"><ele>337.0</ele><time>2026-04-03T20:35:08.735Z</time></trkpt><trkpt lat="45.4497126" lon="11.5485423"><ele>334.0</ele><time>2026-04-03T20:35:09.732Z</time></trkpt><trkpt lat="45.4498244" lon="11.5485249"><ele>333.4</ele><time>2026-04-03T20:35:10.73Z</time></trkpt><trkpt lat="45.4499263" lon="11.5485576"><ele>332.79999999999995</ele><time>2026-04-03T20:35:11.732Z</time></trkpt><trkpt lat="45.4500216" lon="11.5486216"><ele>332.20000000000005</ele><time>2026-04-03T20:35:12.735Z</time></trkpt><trkpt lat="45.4501003" lon="11.548703"><ele>331.6</ele><time>2026-04-03T20:35:13.727Z</time></trkpt><trkpt lat="45.4501814" lon="11.5487736"><ele>331.0</ele><time>2026-04-03T20:35:14.736Z</time></trkpt><trkpt lat="45.4502563" lon="11.5488046"><ele>331.0</ele><time>2026-04-03T20:35:15.727Z</time></trkpt><trkpt lat="45.4503287" lon="11.5487641"><ele>331.0</ele><time>2026-04-03T20:35:16.729Z</time></trkpt><trkpt lat="45.4503881" lon="11.5486619"><ele>331.0</ele><time>2026-04-03T20:35:17.731Z</time></trkpt><trkpt lat="45.4504198" lon="11.5485318"><ele>331.0</ele><time>2026-04-03T20:35:18.737Z</time></trkpt><trkpt lat="45.4504403" lon="11.5483958"><ele>331.0</ele><time>2026-04-03T20:35:19.736Z</time></trkpt><trkpt lat="45.4504579" lon="11.5482666"><ele>328.0</ele><time>2026-04-03T20:35:20.738Z</time></trkpt><trkpt lat="45.450481" lon="11.5481297"><ele>325.0</ele><time>2026-04-03T20:35:21.741Z</time></trkpt><trkpt lat="45.4505216" lon="11.5479921"><ele>322.0</ele><time>2026-04-03T20:35:22.742Z</time></trkpt><trkpt lat="45.4505723" lon="11.5478662"><ele>319.0</ele><time>2026-04-03T20:35:23.742Z</time></trkpt><trkpt lat="45.450729" lon="11.5476984"><ele>318.8</ele><time>2026-04-03T20:35:25.747Z</time></trkpt><trkpt lat="45.4508337" lon="11.5476803"><ele>318.59999999999997</ele><time>2026-04-03T20:35:26.737Z</time></trkpt><trkpt lat="45.4509471" lon="11.5476548"><ele>318.4</ele><time>2026-04-03T20:35:27.747Z</time></trkpt><trkpt lat="45.4510526" lon="11.5475958"><ele>318.2</ele><time>2026-04-03T20:35:28.746Z</time></trkpt><trkpt lat="45.4511249" lon="11.5474793"><ele>318.0</ele><time>2026-04-03T20:35:29.743Z</time></trkpt><trkpt lat="45.4511547" lon="11.5473286"><ele>318.0</ele><time>2026-04-03T20:35:30.735Z</time></trkpt><trkpt lat="45.4511616" lon="11.5471545"><ele>318.0</ele><time>2026-04-03T20:35:31.728Z</time></trkpt><trkpt lat="45.4511856" lon="11.5469779"><ele>318.0</ele><time>2026-04-03T20:35:32.727Z</time></trkpt><trkpt lat="45.4512194" lon="11.546802"><ele>318.0</ele><time>2026-04-03T20:35:33.729Z</time></trkpt><trkpt lat="45.4512562" lon="11.5466376"><ele>316.0</ele><time>2026-04-03T20:35:34.739Z</time></trkpt><trkpt lat="45.4512941" lon="11.5464727"><ele>314.0</ele><time>2026-04-03T20:35:35.733Z</time></trkpt><trkpt lat="45.4513349" lon="11.5463148"><ele>312.0</ele><time>2026-04-03T20:35:36.739Z</time></trkpt><trkpt lat="45.4513773" lon="11.546148"><ele>310.0</ele><time>2026-04-03T20:35:37.736Z</time></trkpt><trkpt lat="45.4514201" lon="11.5459781"><ele>310.0</ele><time>2026-04-03T20:35:38.739Z</time></trkpt><trkpt lat="45.4514618" lon="11.5458093"><ele>310.0</ele><time>2026-04-03T20:35:39.74Z</time></trkpt><trkpt lat="45.4515027" lon="11.5456505"><ele>310.0</ele><time>2026-04-03T20:35:40.739Z</time></trkpt><trkpt lat="45.4515423" lon="11.5455007"><ele>310.0</ele><time>2026-04-03T20:35:41.743Z</time></trkpt><trkpt lat="45.4515749" lon="11.5453702"><ele>309.2</ele><time>2026-04-03T20:35:42.736Z</time></trkpt><trkpt lat="45.4515922" lon="11.5452511"><ele>308.4</ele><time>2026-04-03T20:35:43.741Z</time></trkpt><trkpt lat="45.4515905" lon="11.545152"><ele>307.6</ele><time>2026-04-03T20:35:44.738Z</time></trkpt><trkpt lat="45.4514574" lon="11.5450344"><ele>306.8</ele><time>2026-04-03T20:35:46.731Z</time></trkpt><trkpt lat="45.4513463" lon="11.5449967"><ele>306.0</ele><time>2026-04-03T20:35:47.73Z</time></trkpt><trkpt lat="45.4512305" lon="11.5449437"><ele>304.0</ele><time>2026-04-03T20:35:48.728Z</time></trkpt><trkpt lat="45.4511179" lon="11.544866"><ele>302.0</ele><time>2026-04-03T20:35:49.73Z</time></trkpt><trkpt lat="45.4510139" lon="11.5447667"><ele>300.0</ele><time>2026-04-03T20:35:50.724Z</time></trkpt><trkpt lat="45.4508968" lon="11.5446442"><ele>298.0</ele><time>2026-04-03T20:35:51.734Z</time></trkpt><trkpt lat="45.4507738" lon="11.5445181"><ele>298.0</ele><time>2026-04-03T20:35:52.736Z</time></trkpt><trkpt lat="45.4506508" lon="11.5443964"><ele>298.0</ele><time>2026-04-03T20:35:53.737Z</time></trkpt><trkpt lat="45.4505197" lon="11.5442807"><ele>298.0</ele><time>2026-04-03T20:35:54.735Z</time></trkpt><trkpt lat="45.4503929" lon="11.5441715"><ele>299.25</ele><time>2026-04-03T20:35:55.728Z</time></trkpt><trkpt lat="45.4502763" lon="11.5440451"><ele>300.5</ele><time>2026-04-03T20:35:56.727Z</time></trkpt><trkpt lat="45.4501678" lon="11.5439119"><ele>301.75</ele><time>2026-04-03T20:35:57.738Z</time></trkpt><trkpt lat="45.4500464" lon="11.5437728"><ele>303.0</ele><time>2026-04-03T20:35:58.734Z</time></trkpt><trkpt lat="45.4499378" lon="11.543622"><ele>303.0</ele><time>2026-04-03T20:35:59.732Z</time></trkpt><trkpt lat="45.449834" lon="11.5434661"><ele>303.0</ele><time>2026-04-03T20:36:00.726Z</time></trkpt><trkpt lat="45.4497356" lon="11.543313"><ele>303.0</ele><time>2026-04-03T20:36:01.721Z</time></trkpt><trkpt lat="45.4496351" lon="11.543176"><ele>303.0</ele><time>2026-04-03T20:36:02.719Z</time></trkpt><trkpt lat="45.4495341" lon="11.5430236"><ele>308.6666666666667</ele><time>2026-04-03T20:36:03.719Z</time></trkpt><trkpt lat="45.4494321" lon="11.5428654"><ele>314.33333333333337</ele><time>2026-04-03T20:36:04.719Z</time></trkpt><trkpt lat="45.4493388" lon="11.5427141"><ele>320.0</ele><time>2026-04-03T20:36:05.717Z</time></trkpt><trkpt lat="45.4491844" lon="11.542448"><ele>320.0</ele><time>2026-04-03T20:36:07.723Z</time></trkpt><trkpt lat="45.4491225" lon="11.5423051"><ele>320.0</ele><time>2026-04-03T20:36:08.711Z</time></trkpt><trkpt lat="45.4490878" lon="11.5421541"><ele>320.0</ele><time>2026-04-03T20:36:09.722Z</time></trkpt><trkpt lat="45.4490524" lon="11.5419754"><ele>320.0</ele><time>2026-04-03T20:36:10.716Z</time></trkpt><trkpt lat="45.448999" lon="11.5417853"><ele>316.75</ele><time>2026-04-03T20:36:11.718Z</time></trkpt><trkpt lat="45.4489415" lon="11.5415887"><ele>313.5</ele><time>2026-04-03T20:36:12.72Z</time></trkpt><trkpt lat="45.4488843" lon="11.541411"><ele>310.25</ele><time>2026-04-03T20:36:13.719Z</time></trkpt><trkpt lat="45.4488245" lon="11.541249"><ele>307.0</ele><time>2026-04-03T20:36:14.722Z</time></trkpt><trkpt lat="45.4487604" lon="11.5411089"><ele>313.4</ele><time>2026-04-03T20:36:15.725Z</time></trkpt><trkpt lat="45.4487058" lon="11.5409503"><ele>319.79999999999995</ele><time>2026-04-03T20:36:16.73Z</time></trkpt><trkpt lat="45.4486727" lon="11.5408012"><ele>326.2</ele><time>2026-04-03T20:36:17.724Z</time></trkpt><trkpt lat="45.4486754" lon="11.5406714"><ele>332.59999999999997</ele><time>2026-04-03T20:36:18.728Z</time></trkpt><trkpt lat="45.448682" lon="11.5405806"><ele>339.0</ele><time>2026-04-03T20:36:29.744Z</time></trkpt><trkpt lat="45.4486405" lon="11.5407895"><ele>339.0</ele><time>2026-04-03T20:36:33.714Z</time></trkpt><trkpt lat="45.4486" lon="11.5408819"><ele>339.0</ele><time>2026-04-03T20:36:34.715Z</time></trkpt><trkpt lat="45.4485095" lon="11.5409921"><ele>339.0</ele><time>2026-04-03T20:36:36.716Z</time></trkpt><trkpt lat="45.4484408" lon="11.5410139"><ele>339.0</ele><time>2026-04-03T20:36:37.716Z</time></trkpt><trkpt lat="45.4483649" lon="11.5410444"><ele>339.0</ele><time>2026-04-03T20:36:38.722Z</time></trkpt><trkpt lat="45.4482532" lon="11.5411007"><ele>339.0</ele><time>2026-04-03T20:36:40.729Z</time></trkpt><trkpt lat="45.4481894" lon="11.5411147"><ele>339.0</ele><time>2026-04-03T20:36:41.718Z</time></trkpt><trkpt lat="45.4481243" lon="11.541134"><ele>339.0</ele><time>2026-04-03T20:36:42.718Z</time></trkpt><trkpt lat="45.448042" lon="11.5411577"><ele>339.0</ele><time>2026-04-03T20:36:44.722Z</time></trkpt><trkpt lat="45.4479862" lon="11.541097"><ele>339.0</ele><time>2026-04-03T20:36:57.742Z</time></trkpt><trkpt lat="45.4481344" lon="11.5411174"><ele>339.0</ele><time>2026-04-03T20:37:10.724Z</time></trkpt><trkpt lat="45.4481839" lon="11.5410599"><ele>339.0</ele><time>2026-04-03T20:37:20.737Z</time></trkpt><trkpt lat="45.4482011" lon="11.5407254"><ele>339.0</ele><time>2026-04-03T20:37:27.736Z</time></trkpt><trkpt lat="45.4481567" lon="11.5406539"><ele>339.0</ele><time>2026-04-03T20:37:29.73Z</time></trkpt><trkpt lat="45.4480713" lon="11.5405492"><ele>339.0</ele><time>2026-04-03T20:37:31.732Z</time></trkpt><trkpt lat="45.4480223" lon="11.5404791"><ele>342.79999999999995</ele><time>2026-04-03T20:37:32.725Z</time></trkpt><trkpt lat="45.4479387" lon="11.5404138"><ele>346.59999999999997</ele><time>2026-04-03T20:37:34.74Z</time></trkpt><trkpt lat="45.4478446" lon="11.54044"><ele>350.4</ele><time>2026-04-03T20:37:36.74Z</time></trkpt><trkpt lat="45.447788" lon="11.5404932"><ele>354.2</ele><time>2026-04-03T20:37:38.739Z</time></trkpt><trkpt lat="45.4477499" lon="11.5405865"><ele>358.0</ele><time>2026-04-03T20:37:47.732Z</time></trkpt><trkpt lat="45.4476232" lon="11.5407526"><ele>358.0</ele><time>2026-04-03T20:37:53.731Z</time></trkpt><trkpt lat="45.4475351" lon="11.5408233"><ele>358.0</ele><time>2026-04-03T20:37:55.721Z</time></trkpt><trkpt lat="45.4474541" lon="11.5408784"><ele>358.0</ele><time>2026-04-03T20:37:57.728Z</time></trkpt><trkpt lat="45.4473654" lon="11.5409412"><ele>358.0</ele><time>2026-04-03T20:37:59.723Z</time></trkpt><trkpt lat="45.4472782" lon="11.5409962"><ele>358.0</ele><time>2026-04-03T20:38:01.727Z</time></trkpt><trkpt lat="45.4472269" lon="11.5410815"><ele>358.0</ele><time>2026-04-03T20:38:07.718Z</time></trkpt><trkpt lat="45.447235" lon="11.5411977"><ele>358.0</ele><time>2026-04-03T20:38:09.724Z</time></trkpt><trkpt lat="45.447362" lon="11.5414946"><ele>358.0</ele><time>2026-04-03T20:38:12.72Z</time></trkpt><trkpt lat="45.4474195" lon="11.5415993"><ele>358.0</ele><time>2026-04-03T20:38:13.721Z</time></trkpt><trkpt lat="45.4474653" lon="11.5416788"><ele>357.8333333333333</ele><time>2026-04-03T20:38:14.719Z</time></trkpt><trkpt lat="45.4475233" lon="11.5417421"><ele>357.66666666666663</ele><time>2026-04-03T20:38:15.718Z</time></trkpt><trkpt lat="45.4475949" lon="11.5417808"><ele>357.5</ele><time>2026-04-03T20:38:16.719Z</time></trkpt><trkpt lat="45.4476757" lon="11.5418084"><ele>357.3333333333333</ele><time>2026-04-03T20:38:17.72Z</time></trkpt><trkpt lat="45.4477605" lon="11.541817"><ele>357.1666666666667</ele><time>2026-04-03T20:38:18.713Z</time></trkpt><trkpt lat="45.4478517" lon="11.5418289"><ele>357.0</ele><time>2026-04-03T20:38:19.713Z</time></trkpt><trkpt lat="45.4479434" lon="11.5418492"><ele>356.8333333333333</ele><time>2026-04-03T20:38:20.714Z</time></trkpt><trkpt lat="45.4480351" lon="11.541876"><ele>356.6666666666667</ele><time>2026-04-03T20:38:21.717Z</time></trkpt><trkpt lat="45.448122" lon="11.5419054"><ele>356.5</ele><time>2026-04-03T20:38:22.733Z</time></trkpt><trkpt lat="45.4482049" lon="11.541945"><ele>356.33333333333337</ele><time>2026-04-03T20:38:23.718Z</time></trkpt><trkpt lat="45.4482807" lon="11.5419856"><ele>356.1666666666667</ele><time>2026-04-03T20:38:24.728Z</time></trkpt><trkpt lat="45.4483376" lon="11.5420285"><ele>356.0</ele><time>2026-04-03T20:38:25.734Z</time></trkpt><trkpt lat="45.4484134" lon="11.5421334"><ele>356.0</ele><time>2026-04-03T20:38:27.733Z</time></trkpt><trkpt lat="45.448385" lon="11.5422203"><ele>356.0</ele><time>2026-04-03T20:38:45.737Z</time></trkpt><trkpt lat="45.4482585" lon="11.5422774"><ele>356.0</ele><time>2026-04-03T20:38:49.743Z</time></trkpt><trkpt lat="45.4481881" lon="11.5423266"><ele>356.0</ele><time>2026-04-03T20:38:51.744Z</time></trkpt><trkpt lat="45.4481256" lon="11.5423819"><ele>356.0</ele><time>2026-04-03T20:38:53.74Z</time></trkpt><trkpt lat="45.4480453" lon="11.5424257"><ele>356.0</ele><time>2026-04-03T20:38:56.739Z</time></trkpt><trkpt lat="45.4479803" lon="11.5424821"><ele>358.33333333333337</ele><time>2026-04-03T20:38:58.737Z</time></trkpt><trkpt lat="45.4478798" lon="11.5425366"><ele>360.6666666666667</ele><time>2026-04-03T20:39:00.733Z</time></trkpt><trkpt lat="45.4478213" lon="11.5425732"><ele>363.0</ele><time>2026-04-03T20:39:01.733Z</time></trkpt><trkpt lat="45.4477609" lon="11.5426174"><ele>365.3333333333333</ele><time>2026-04-03T20:39:02.736Z</time></trkpt><trkpt lat="45.4476958" lon="11.5426679"><ele>367.66666666666663</ele><time>2026-04-03T20:39:03.728Z</time></trkpt><trkpt lat="45.4476282" lon="11.5427116"><ele>370.0</ele><time>2026-04-03T20:39:04.746Z</time></trkpt><trkpt lat="45.4475637" lon="11.5427537"><ele>370.0</ele><time>2026-04-03T20:39:05.733Z</time></trkpt><trkpt lat="45.4474982" lon="11.5428077"><ele>370.0</ele><time>2026-04-03T20:39:06.73Z</time></trkpt><trkpt lat="45.4473401" lon="11.5429517"><ele>370.0</ele><time>2026-04-03T20:39:09.737Z</time></trkpt><trkpt lat="45.4472908" lon="11.5430184"><ele>370.0</ele><time>2026-04-03T20:39:10.727Z</time></trkpt><trkpt lat="45.4471883" lon="11.5431021"><ele>370.0</ele><time>2026-04-03T20:39:12.74Z</time></trkpt><trkpt lat="45.4470835" lon="11.5431174"><ele>373.0</ele><time>2026-04-03T20:39:14.734Z</time></trkpt><trkpt lat="45.4470128" lon="11.5431265"><ele>376.0</ele><time>2026-04-03T20:39:16.739Z</time></trkpt><trkpt lat="45.4469143" lon="11.5431543"><ele>379.0</ele><time>2026-04-03T20:39:52.733Z</time></trkpt><trkpt lat="45.4467095" lon="11.5432374"><ele>382.0</ele><time>2026-04-03T20:39:55.733Z</time></trkpt><trkpt lat="45.446627" lon="11.5432539"><ele>382.0</ele><time>2026-04-03T20:39:56.735Z</time></trkpt><trkpt lat="45.4465406" lon="11.5432823"><ele>382.0</ele><time>2026-04-03T20:39:57.729Z</time></trkpt><trkpt lat="45.4464612" lon="11.5433119"><ele>382.0</ele><time>2026-04-03T20:39:58.738Z</time></trkpt><trkpt lat="45.4463882" lon="11.5433579"><ele>382.0</ele><time>2026-04-03T20:39:59.74Z</time></trkpt><trkpt lat="45.4463145" lon="11.5434083"><ele>382.0</ele><time>2026-04-03T20:40:00.74Z</time></trkpt><trkpt lat="45.4462387" lon="11.5434491"><ele>382.0</ele><time>2026-04-03T20:40:01.744Z</time></trkpt><trkpt lat="45.4461629" lon="11.5434743"><ele>382.8571428571429</ele><time>2026-04-03T20:40:02.745Z</time></trkpt><trkpt lat="45.44609" lon="11.5434872"><ele>383.71428571428567</ele><time>2026-04-03T20:40:03.741Z</time></trkpt><trkpt lat="45.4460213" lon="11.5434906"><ele>384.57142857142856</ele><time>2026-04-03T20:40:04.753Z</time></trkpt><trkpt lat="45.4459529" lon="11.5434971"><ele>385.42857142857144</ele><time>2026-04-03T20:40:05.739Z</time></trkpt><trkpt lat="45.4458837" lon="11.5435201"><ele>386.28571428571433</ele><time>2026-04-03T20:40:06.73Z</time></trkpt><trkpt lat="45.4458161" lon="11.5435578"><ele>387.1428571428571</ele><time>2026-04-03T20:40:07.751Z</time></trkpt><trkpt lat="45.4457452" lon="11.5435965"><ele>388.0</ele><time>2026-04-03T20:40:08.739Z</time></trkpt><trkpt lat="45.4456674" lon="11.5436306"><ele>388.00000000000006</ele><time>2026-04-03T20:40:09.749Z</time></trkpt><trkpt lat="45.445589" lon="11.5436567"><ele>388.0</ele><time>2026-04-03T20:40:10.74Z</time></trkpt><trkpt lat="45.445509" lon="11.5436747"><ele>388.0</ele><time>2026-04-03T20:40:11.738Z</time></trkpt><trkpt lat="45.4454347" lon="11.5436731"><ele>388.0</ele><time>2026-04-03T20:40:12.74Z</time></trkpt><trkpt lat="45.4453671" lon="11.543667"><ele>388.00000000000006</ele><time>2026-04-03T20:40:13.733Z</time></trkpt><trkpt lat="45.4452736" lon="11.5436547"><ele>388.0</ele><time>2026-04-03T20:40:15.738Z</time></trkpt><trkpt lat="45.4451848" lon="11.5438573"><ele>388.00000000000006</ele><time>2026-04-03T20:40:18.734Z</time></trkpt><trkpt lat="45.4451583" lon="11.5439543"><ele>388.0</ele><time>2026-04-03T20:40:19.739Z</time></trkpt><trkpt lat="45.4451402" lon="11.544053"><ele>388.0</ele><time>2026-04-03T20:40:20.725Z</time></trkpt><trkpt lat="45.4451284" lon="11.5441435"><ele>388.0</ele><time>2026-04-03T20:40:21.732Z</time></trkpt><trkpt lat="45.4451045" lon="11.5442953"><ele>388.00000000000006</ele><time>2026-04-03T20:40:23.737Z</time></trkpt><trkpt lat="45.4450519" lon="11.5444256"><ele>388.0</ele><time>2026-04-03T20:40:25.731Z</time></trkpt><trkpt lat="45.4449826" lon="11.5445973"><ele>388.0</ele><time>2026-04-03T20:40:27.722Z</time></trkpt><trkpt lat="45.4449301" lon="11.5447017"><ele>388.0</ele><time>2026-04-03T20:40:28.722Z</time></trkpt><trkpt lat="45.444866" lon="11.5448241"><ele>388.0</ele><time>2026-04-03T20:40:29.73Z</time></trkpt><trkpt lat="45.4447895" lon="11.5449453"><ele>388.0</ele><time>2026-04-03T20:40:30.728Z</time></trkpt><trkpt lat="45.4447141" lon="11.5450698"><ele>388.0</ele><time>2026-04-03T20:40:31.727Z</time></trkpt><trkpt lat="45.444652" lon="11.5452035"><ele>388.2</ele><time>2026-04-03T20:40:32.725Z</time></trkpt><trkpt lat="45.4445926" lon="11.5453428"><ele>388.4</ele><time>2026-04-03T20:40:33.717Z</time></trkpt><trkpt lat="45.4445317" lon="11.5454748"><ele>388.59999999999997</ele><time>2026-04-03T20:40:34.723Z</time></trkpt><trkpt lat="45.4444725" lon="11.5455757"><ele>388.79999999999995</ele><time>2026-04-03T20:40:35.73Z</time></trkpt><trkpt lat="45.4444209" lon="11.5456646"><ele>389.0</ele><time>2026-04-03T20:40:36.729Z</time></trkpt><trkpt lat="45.4442864" lon="11.5456511"><ele>389.0</ele><time>2026-04-03T20:40:45.748Z</time></trkpt><trkpt lat="45.4442522" lon="11.5455635"><ele>389.0</ele><time>2026-04-03T20:40:46.743Z</time></trkpt><trkpt lat="45.4442094" lon="11.5454393"><ele>389.0</ele><time>2026-04-03T20:40:47.741Z</time></trkpt><trkpt lat="45.4441507" lon="11.5453171"><ele>389.0</ele><time>2026-04-03T20:40:48.733Z</time></trkpt><trkpt lat="45.4440884" lon="11.5452134"><ele>389.0</ele><time>2026-04-03T20:40:49.738Z</time></trkpt><trkpt lat="45.4440172" lon="11.5451382"><ele>389.8333333333333</ele><time>2026-04-03T20:40:50.735Z</time></trkpt><trkpt lat="45.4439336" lon="11.5450958"><ele>390.66666666666663</ele><time>2026-04-03T20:40:51.73Z</time></trkpt><trkpt lat="45.4438445" lon="11.5450887"><ele>391.5</ele><time>2026-04-03T20:40:52.722Z</time></trkpt><trkpt lat="45.4437629" lon="11.5451152"><ele>392.33333333333337</ele><time>2026-04-03T20:40:53.731Z</time></trkpt><trkpt lat="45.4436946" lon="11.545169"><ele>393.1666666666667</ele><time>2026-04-03T20:40:54.717Z</time></trkpt><trkpt lat="45.4436263" lon="11.5452119"><ele>394.0</ele><time>2026-04-03T20:40:55.73Z</time></trkpt><trkpt lat="45.443553" lon="11.5452199"><ele>392.0</ele><time>2026-04-03T20:40:56.727Z</time></trkpt><trkpt lat="45.4434735" lon="11.5451998"><ele>390.0</ele><time>2026-04-03T20:40:57.715Z</time></trkpt><trkpt lat="45.4433154" lon="11.5451393"><ele>388.0</ele><time>2026-04-03T20:40:59.725Z</time></trkpt><trkpt lat="45.443239" lon="11.545084"><ele>386.0</ele><time>2026-04-03T20:41:00.718Z</time></trkpt><trkpt lat="45.443164" lon="11.5450134"><ele>384.0</ele><time>2026-04-03T20:41:01.725Z</time></trkpt><trkpt lat="45.4430808" lon="11.5449353"><ele>384.0</ele><time>2026-04-03T20:41:02.717Z</time></trkpt><trkpt lat="45.4429966" lon="11.5448566"><ele>384.0</ele><time>2026-04-03T20:41:03.723Z</time></trkpt><trkpt lat="45.4429188" lon="11.544776"><ele>384.0</ele><time>2026-04-03T20:41:04.724Z</time></trkpt><trkpt lat="45.4428469" lon="11.5446817"><ele>384.0</ele><time>2026-04-03T20:41:05.725Z</time></trkpt><trkpt lat="45.4427798" lon="11.5445734"><ele>384.0</ele><time>2026-04-03T20:41:06.719Z</time></trkpt><trkpt lat="45.4427115" lon="11.5444499"><ele>378.75</ele><time>2026-04-03T20:41:07.734Z</time></trkpt><trkpt lat="45.4426319" lon="11.5443324"><ele>373.5</ele><time>2026-04-03T20:41:08.725Z</time></trkpt><trkpt lat="45.4425441" lon="11.5442173"><ele>368.25</ele><time>2026-04-03T20:41:09.732Z</time></trkpt><trkpt lat="45.4424448" lon="11.5441105"><ele>363.0</ele><time>2026-04-03T20:41:10.716Z</time></trkpt><trkpt lat="45.4423378" lon="11.5440218"><ele>363.0</ele><time>2026-04-03T20:41:11.722Z</time></trkpt><trkpt lat="45.4422273" lon="11.5439546"><ele>363.0</ele><time>2026-04-03T20:41:12.72Z</time></trkpt><trkpt lat="45.4421112" lon="11.5439046"><ele>363.0</ele><time>2026-04-03T20:41:13.723Z</time></trkpt><trkpt lat="45.4419964" lon="11.543846"><ele>363.0</ele><time>2026-04-03T20:41:14.733Z</time></trkpt><trkpt lat="45.4418917" lon="11.54378"><ele>360.5</ele><time>2026-04-03T20:41:15.73Z</time></trkpt><trkpt lat="45.4418027" lon="11.5436988"><ele>358.0</ele><time>2026-04-03T20:41:16.741Z</time></trkpt><trkpt lat="45.4417307" lon="11.5436026"><ele>355.5</ele><time>2026-04-03T20:41:17.736Z</time></trkpt><trkpt lat="45.4416653" lon="11.543504"><ele>353.0</ele><time>2026-04-03T20:41:18.739Z</time></trkpt><trkpt lat="45.4415553" lon="11.5432837"><ele>353.0</ele><time>2026-04-03T20:41:20.736Z</time></trkpt><trkpt lat="45.4415278" lon="11.5431551"><ele>353.0</ele><time>2026-04-03T20:41:21.747Z</time></trkpt><trkpt lat="45.4415085" lon="11.5430356"><ele>353.0</ele><time>2026-04-03T20:41:22.737Z</time></trkpt><trkpt lat="45.4414873" lon="11.5429234"><ele>353.0</ele><time>2026-04-03T20:41:23.733Z</time></trkpt><trkpt lat="45.4414633" lon="11.542823"><ele>353.0</ele><time>2026-04-03T20:41:24.736Z</time></trkpt><trkpt lat="45.4414279" lon="11.5427426"><ele>353.0</ele><time>2026-04-03T20:41:25.735Z</time></trkpt><trkpt lat="45.4413874" lon="11.5426622"><ele>353.75</ele><time>2026-04-03T20:41:27.741Z</time></trkpt><trkpt lat="45.4414099" lon="11.5425746"><ele>354.5</ele><time>2026-04-03T20:41:32.74Z</time></trkpt><trkpt lat="45.4414837" lon="11.5424181"><ele>355.25</ele><time>2026-04-03T20:41:34.741Z</time></trkpt><trkpt lat="45.4415545" lon="11.542276"><ele>356.0</ele><time>2026-04-03T20:41:35.741Z</time></trkpt><trkpt lat="45.4416362" lon="11.5421286"><ele>359.0</ele><time>2026-04-03T20:41:36.734Z</time></trkpt><trkpt lat="45.4417184" lon="11.5419888"><ele>362.0</ele><time>2026-04-03T20:41:37.732Z</time></trkpt><trkpt lat="45.4417924" lon="11.5418675"><ele>365.0</ele><time>2026-04-03T20:41:38.739Z</time></trkpt><trkpt lat="45.4418517" lon="11.5417513"><ele>368.0</ele><time>2026-04-03T20:41:39.738Z</time></trkpt><trkpt lat="45.4419648" lon="11.5415658"><ele>368.0</ele><time>2026-04-03T20:41:41.734Z</time></trkpt><trkpt lat="45.4420374" lon="11.5414868"><ele>368.0</ele><time>2026-04-03T20:41:42.738Z</time></trkpt><trkpt lat="45.4421085" lon="11.5414053"><ele>368.0</ele><time>2026-04-03T20:41:43.736Z</time></trkpt><trkpt lat="45.4421661" lon="11.5413177"><ele>368.0</ele><time>2026-04-03T20:41:44.733Z</time></trkpt><trkpt lat="45.4422154" lon="11.5412311"><ele>368.0</ele><time>2026-04-03T20:41:45.741Z</time></trkpt><trkpt lat="45.4422694" lon="11.5411558"><ele>368.0</ele><time>2026-04-03T20:41:46.733Z</time></trkpt><trkpt lat="45.4423296" lon="11.5410767"><ele>366.4</ele><time>2026-04-03T20:41:47.737Z</time></trkpt><trkpt lat="45.4423868" lon="11.5409834"><ele>364.79999999999995</ele><time>2026-04-03T20:41:48.724Z</time></trkpt><trkpt lat="45.4424421" lon="11.540888"><ele>363.2</ele><time>2026-04-03T20:41:49.728Z</time></trkpt><trkpt lat="45.4424882" lon="11.5407749"><ele>361.6</ele><time>2026-04-03T20:41:50.721Z</time></trkpt><trkpt lat="45.4425328" lon="11.5406484"><ele>360.0</ele><time>2026-04-03T20:41:51.722Z</time></trkpt><trkpt lat="45.442574" lon="11.5405124"><ele>360.6</ele><time>2026-04-03T20:41:52.734Z</time></trkpt><trkpt lat="45.442615" lon="11.5403827"><ele>361.2</ele><time>2026-04-03T20:41:53.733Z</time></trkpt><trkpt lat="45.4426552" lon="11.5402549"><ele>361.79999999999995</ele><time>2026-04-03T20:41:54.739Z</time></trkpt><trkpt lat="45.4426939" lon="11.5401243"><ele>362.4</ele><time>2026-04-03T20:41:55.73Z</time></trkpt><trkpt lat="45.4427363" lon="11.5399853"><ele>363.0</ele><time>2026-04-03T20:41:56.728Z</time></trkpt><trkpt lat="45.442782" lon="11.5398488"><ele>363.0</ele><time>2026-04-03T20:41:57.74Z</time></trkpt><trkpt lat="45.4428317" lon="11.5397101"><ele>363.0</ele><time>2026-04-03T20:41:58.734Z</time></trkpt><trkpt lat="45.4428794" lon="11.539572"><ele>363.0</ele><time>2026-04-03T20:41:59.739Z</time></trkpt><trkpt lat="45.4429207" lon="11.5394441"><ele>363.0</ele><time>2026-04-03T20:42:00.722Z</time></trkpt><trkpt lat="45.442984" lon="11.5392293"><ele>362.1666666666667</ele><time>2026-04-03T20:42:02.725Z</time></trkpt><trkpt lat="45.4430216" lon="11.5391345"><ele>361.3333333333333</ele><time>2026-04-03T20:42:03.725Z</time></trkpt><trkpt lat="45.4430731" lon="11.5390406"><ele>360.5</ele><time>2026-04-03T20:42:04.725Z</time></trkpt><trkpt lat="45.4431386" lon="11.5389392"><ele>359.66666666666663</ele><time>2026-04-03T20:42:05.731Z</time></trkpt><trkpt lat="45.443203" lon="11.5388393"><ele>358.8333333333333</ele><time>2026-04-03T20:42:06.73Z</time></trkpt><trkpt lat="45.4432642" lon="11.5387492"><ele>358.0</ele><time>2026-04-03T20:42:07.729Z</time></trkpt><trkpt lat="45.4433209" lon="11.5386687"><ele>358.0</ele><time>2026-04-03T20:42:08.734Z</time></trkpt><trkpt lat="45.4433794" lon="11.5385835"><ele>358.0</ele><time>2026-04-03T20:42:09.729Z</time></trkpt><trkpt lat="45.4434466" lon="11.5384848"><ele>358.0</ele><time>2026-04-03T20:42:10.73Z</time></trkpt><trkpt lat="45.4435246" lon="11.5383781"><ele>358.0</ele><time>2026-04-03T20:42:11.728Z</time></trkpt><trkpt lat="45.4436002" lon="11.5382587"><ele>358.0</ele><time>2026-04-03T20:42:12.721Z</time></trkpt><trkpt lat="45.4436806" lon="11.5381258"><ele>358.0</ele><time>2026-04-03T20:42:13.733Z</time></trkpt><trkpt lat="45.4437576" lon="11.5379883"><ele>358.0</ele><time>2026-04-03T20:42:14.73Z</time></trkpt><trkpt lat="45.4438307" lon="11.5378619"><ele>358.0</ele><time>2026-04-03T20:42:15.73Z</time></trkpt><trkpt lat="45.4439051" lon="11.5377403"><ele>358.0</ele><time>2026-04-03T20:42:16.74Z</time></trkpt><trkpt lat="45.4439831" lon="11.5376277"><ele>358.0</ele><time>2026-04-03T20:42:17.739Z</time></trkpt><trkpt lat="45.4440583" lon="11.5375215"><ele>358.0</ele><time>2026-04-03T20:42:18.737Z</time></trkpt><trkpt lat="45.4441305" lon="11.5374275"><ele>358.0</ele><time>2026-04-03T20:42:19.741Z</time></trkpt><trkpt lat="45.444198" lon="11.5373393"><ele>358.0</ele><time>2026-04-03T20:42:20.735Z</time></trkpt><trkpt lat="45.4442588" lon="11.5372521"><ele>358.0</ele><time>2026-04-03T20:42:21.736Z</time></trkpt><trkpt lat="45.4443545" lon="11.5370706"><ele>359.2</ele><time>2026-04-03T20:42:23.739Z</time></trkpt><trkpt lat="45.444388" lon="11.5369763"><ele>360.4</ele><time>2026-04-03T20:42:24.733Z</time></trkpt><trkpt lat="45.4444147" lon="11.5368859"><ele>361.59999999999997</ele><time>2026-04-03T20:42:25.73Z</time></trkpt><trkpt lat="45.4444395" lon="11.5367967"><ele>362.79999999999995</ele><time>2026-04-03T20:42:26.731Z</time></trkpt><trkpt lat="45.4444845" lon="11.5366298"><ele>364.0</ele><time>2026-04-03T20:42:28.729Z</time></trkpt><trkpt lat="45.4445361" lon="11.5364593"><ele>364.0</ele><time>2026-04-03T20:42:30.724Z</time></trkpt><trkpt lat="45.444566" lon="11.5363587"><ele>364.0</ele><time>2026-04-03T20:42:31.732Z</time></trkpt><trkpt lat="45.4445946" lon="11.5362529"><ele>364.0</ele><time>2026-04-03T20:42:32.734Z</time></trkpt><trkpt lat="45.4446182" lon="11.5361436"><ele>364.0</ele><time>2026-04-03T20:42:33.734Z</time></trkpt><trkpt lat="45.4446419" lon="11.5360395"><ele>364.0</ele><time>2026-04-03T20:42:34.739Z</time></trkpt><trkpt lat="45.4446639" lon="11.5359476"><ele>364.0</ele><time>2026-04-03T20:42:35.727Z</time></trkpt><trkpt lat="45.4447145" lon="11.5358581"><ele>365.0</ele><time>2026-04-03T20:42:37.733Z</time></trkpt><trkpt lat="45.4447649" lon="11.5357839"><ele>366.0</ele><time>2026-04-03T20:47:10.727Z</time></trkpt><trkpt lat="45.4449016" lon="11.5355256"><ele>367.0</ele><time>2026-04-03T20:47:13.731Z</time></trkpt><trkpt lat="45.4449669" lon="11.5353878"><ele>368.0</ele><time>2026-04-03T20:47:14.732Z</time></trkpt><trkpt lat="45.4450252" lon="11.5352373"><ele>370.75</ele><time>2026-04-03T20:47:15.73Z</time></trkpt><trkpt lat="45.4450823" lon="11.5350814"><ele>373.5</ele><time>2026-04-03T20:47:16.729Z</time></trkpt><trkpt lat="45.445145" lon="11.5349187"><ele>376.25</ele><time>2026-04-03T20:47:17.733Z</time></trkpt><trkpt lat="45.4452124" lon="11.5347548"><ele>379.0</ele><time>2026-04-03T20:47:18.732Z</time></trkpt><trkpt lat="45.4452827" lon="11.5345873"><ele>381.75</ele><time>2026-04-03T20:47:19.738Z</time></trkpt><trkpt lat="45.4453654" lon="11.5344145"><ele>384.5</ele><time>2026-04-03T20:47:20.723Z</time></trkpt><trkpt lat="45.4454526" lon="11.5342486"><ele>387.25</ele><time>2026-04-03T20:47:21.731Z</time></trkpt><trkpt lat="45.4455502" lon="11.5340947"><ele>390.0</ele><time>2026-04-03T20:47:22.726Z</time></trkpt><trkpt lat="45.4456478" lon="11.5339495"><ele>385.6666666666667</ele><time>2026-04-03T20:47:23.734Z</time></trkpt><trkpt lat="45.4457545" lon="11.5338093"><ele>381.33333333333337</ele><time>2026-04-03T20:47:24.731Z</time></trkpt><trkpt lat="45.4458674" lon="11.5336507"><ele>377.0</ele><time>2026-04-03T20:47:25.733Z</time></trkpt><trkpt lat="45.4459705" lon="11.5334897"><ele>377.0</ele><time>2026-04-03T20:47:26.727Z</time></trkpt><trkpt lat="45.4460762" lon="11.5333213"><ele>377.0</ele><time>2026-04-03T20:47:27.743Z</time></trkpt><trkpt lat="45.4461812" lon="11.5331655"><ele>377.0</ele><time>2026-04-03T20:47:28.73Z</time></trkpt><trkpt lat="45.4462807" lon="11.5330345"><ele>377.0</ele><time>2026-04-03T20:47:29.732Z</time></trkpt><trkpt lat="45.4463743" lon="11.5329183"><ele>373.0</ele><time>2026-04-03T20:47:30.729Z</time></trkpt><trkpt lat="45.4464741" lon="11.5328067"><ele>369.0</ele><time>2026-04-03T20:47:31.73Z</time></trkpt><trkpt lat="45.4466779" lon="11.532613"><ele>365.0</ele><time>2026-04-03T20:47:33.728Z</time></trkpt><trkpt lat="45.4468066" lon="11.5325414"><ele>365.0</ele><time>2026-04-03T20:47:34.731Z</time></trkpt><trkpt lat="45.4469364" lon="11.5324583"><ele>365.0</ele><time>2026-04-03T20:47:35.735Z</time></trkpt><trkpt lat="45.447074" lon="11.5323626"><ele>365.0</ele><time>2026-04-03T20:47:36.736Z</time></trkpt><trkpt lat="45.4472031" lon="11.5322706"><ele>365.0</ele><time>2026-04-03T20:47:37.736Z</time></trkpt><trkpt lat="45.4473358" lon="11.5321847"><ele>365.0</ele><time>2026-04-03T20:47:38.739Z</time></trkpt><trkpt lat="45.4474674" lon="11.5321002"><ele>365.0</ele><time>2026-04-03T20:47:39.734Z</time></trkpt><trkpt lat="45.4475916" lon="11.5320449"><ele>365.0</ele><time>2026-04-03T20:47:40.733Z</time></trkpt><trkpt lat="45.4477198" lon="11.5320238"><ele>365.0</ele><time>2026-04-03T20:47:41.733Z</time></trkpt><trkpt lat="45.4478532" lon="11.5320263"><ele>363.75</ele><time>2026-04-03T20:47:42.734Z</time></trkpt><trkpt lat="45.4479971" lon="11.5320369"><ele>362.5</ele><time>2026-04-03T20:47:43.73Z</time></trkpt><trkpt lat="45.4481457" lon="11.5320579"><ele>361.25</ele><time>2026-04-03T20:47:44.735Z</time></trkpt><trkpt lat="45.448285" lon="11.5321083"><ele>360.0</ele><time>2026-04-03T20:47:45.732Z</time></trkpt><trkpt lat="45.4484105" lon="11.5321661"><ele>359.4</ele><time>2026-04-03T20:47:46.733Z</time></trkpt><trkpt lat="45.4485235" lon="11.5321952"><ele>358.8</ele><time>2026-04-03T20:47:47.726Z</time></trkpt><trkpt lat="45.4486344" lon="11.5321774"><ele>358.20000000000005</ele><time>2026-04-03T20:47:48.724Z</time></trkpt><trkpt lat="45.4487351" lon="11.5321501"><ele>357.6</ele><time>2026-04-03T20:47:49.726Z</time></trkpt><trkpt lat="45.4488399" lon="11.5321256"><ele>357.0</ele><time>2026-04-03T20:47:50.725Z</time></trkpt><trkpt lat="45.4489467" lon="11.5321095"><ele>354.5</ele><time>2026-04-03T20:47:51.728Z</time></trkpt><trkpt lat="45.4490497" lon="11.532108"><ele>352.0</ele><time>2026-04-03T20:47:52.73Z</time></trkpt><trkpt lat="45.4492368" lon="11.53211"><ele>349.5</ele><time>2026-04-03T20:47:54.73Z</time></trkpt><trkpt lat="45.4493208" lon="11.5321069"><ele>347.0</ele><time>2026-04-03T20:47:56.733Z</time></trkpt><trkpt lat="45.4492484" lon="11.5319786"><ele>346.6</ele><time>2026-04-03T20:47:59.736Z</time></trkpt><trkpt lat="45.4491686" lon="11.5319062"><ele>346.20000000000005</ele><time>2026-04-03T20:48:00.736Z</time></trkpt><trkpt lat="45.4490899" lon="11.5318093"><ele>345.8</ele><time>2026-04-03T20:48:01.727Z</time></trkpt><trkpt lat="45.4490124" lon="11.5317053"><ele>345.4</ele><time>2026-04-03T20:48:02.725Z</time></trkpt><trkpt lat="45.4489457" lon="11.5316019"><ele>345.0</ele><time>2026-04-03T20:48:03.729Z</time></trkpt><trkpt lat="45.4488886" lon="11.5314942"><ele>345.0</ele><time>2026-04-03T20:48:04.721Z</time></trkpt><trkpt lat="45.4488395" lon="11.5313763"><ele>345.0</ele><time>2026-04-03T20:48:05.727Z</time></trkpt><trkpt lat="45.4488181" lon="11.5312552"><ele>345.0</ele><time>2026-04-03T20:48:06.729Z</time></trkpt><trkpt lat="45.4488067" lon="11.5311295"><ele>345.0</ele><time>2026-04-03T20:48:07.727Z</time></trkpt><trkpt lat="45.4487955" lon="11.5310111"><ele>345.0</ele><time>2026-04-03T20:48:08.737Z</time></trkpt><trkpt lat="45.4487714" lon="11.5309162"><ele>345.0</ele><time>2026-04-03T20:48:09.729Z</time></trkpt><trkpt lat="45.4487312" lon="11.5308422"><ele>344.3333333333333</ele><time>2026-04-03T20:48:10.733Z</time></trkpt><trkpt lat="45.4486048" lon="11.5307861"><ele>343.66666666666663</ele><time>2026-04-03T20:48:12.729Z</time></trkpt><trkpt lat="45.4484902" lon="11.5307649"><ele>343.0</ele><time>2026-04-03T20:48:13.718Z</time></trkpt><trkpt lat="45.4482381" lon="11.5307437"><ele>343.0</ele><time>2026-04-03T20:48:15.714Z</time></trkpt><trkpt lat="45.4481192" lon="11.5307218"><ele>343.0</ele><time>2026-04-03T20:48:16.714Z</time></trkpt><trkpt lat="45.4480152" lon="11.530704"><ele>343.0</ele><time>2026-04-03T20:48:17.714Z</time></trkpt><trkpt lat="45.4479165" lon="11.5306768"><ele>343.0</ele><time>2026-04-03T20:48:18.708Z</time></trkpt><trkpt lat="45.4478264" lon="11.5306586"><ele>343.0</ele><time>2026-04-03T20:48:19.713Z</time></trkpt><trkpt lat="45.4477447" lon="11.5306471"><ele>341.66666666666663</ele><time>2026-04-03T20:48:20.705Z</time></trkpt><trkpt lat="45.4476653" lon="11.5306227"><ele>340.3333333333333</ele><time>2026-04-03T20:48:21.705Z</time></trkpt><trkpt lat="45.4475896" lon="11.5305904"><ele>339.0</ele><time>2026-04-03T20:48:22.706Z</time></trkpt><trkpt lat="45.4475164" lon="11.5305447"><ele>337.6666666666667</ele><time>2026-04-03T20:48:23.71Z</time></trkpt><trkpt lat="45.4474541" lon="11.5304782"><ele>336.33333333333337</ele><time>2026-04-03T20:48:24.71Z</time></trkpt><trkpt lat="45.4474024" lon="11.5303809"><ele>335.0</ele><time>2026-04-03T20:48:25.708Z</time></trkpt><trkpt lat="45.4473717" lon="11.5302788"><ele>335.0</ele><time>2026-04-03T20:48:26.719Z</time></trkpt><trkpt lat="45.4473305" lon="11.5301544"><ele>335.0</ele><time>2026-04-03T20:48:28.715Z</time></trkpt><trkpt lat="45.447219" lon="11.5301345"><ele>335.0</ele><time>2026-04-03T20:48:30.708Z</time></trkpt><trkpt lat="45.4471281" lon="11.5301202"><ele>335.0</ele><time>2026-04-03T20:48:31.708Z</time></trkpt><trkpt lat="45.4470175" lon="11.5300895"><ele>335.0</ele><time>2026-04-03T20:48:32.709Z</time></trkpt><trkpt lat="45.4468973" lon="11.5300686"><ele>336.8</ele><time>2026-04-03T20:48:33.712Z</time></trkpt><trkpt lat="45.4467951" lon="11.530032"><ele>338.6</ele><time>2026-04-03T20:48:34.72Z</time></trkpt><trkpt lat="45.4466651" lon="11.5299346"><ele>340.4</ele><time>2026-04-03T20:48:36.718Z</time></trkpt><trkpt lat="45.4466078" lon="11.5298235"><ele>342.2</ele><time>2026-04-03T20:48:38.706Z</time></trkpt><trkpt lat="45.4465403" lon="11.5298708"><ele>344.0</ele><time>2026-04-03T20:48:42.72Z</time></trkpt><trkpt lat="45.4465135" lon="11.5299865"><ele>344.0</ele><time>2026-04-03T20:48:43.721Z</time></trkpt><trkpt lat="45.4464932" lon="11.5301004"><ele>344.0</ele><time>2026-04-03T20:48:44.724Z</time></trkpt><trkpt lat="45.4464413" lon="11.5301868"><ele>344.0</ele><time>2026-04-03T20:48:46.721Z</time></trkpt><trkpt lat="45.446365" lon="11.5302192"><ele>344.0</ele><time>2026-04-03T20:48:48.728Z</time></trkpt><trkpt lat="45.4463458" lon="11.5303348"><ele>344.0</ele><time>2026-04-03T20:48:50.724Z</time></trkpt><trkpt lat="45.4462911" lon="11.5304236"><ele>344.0</ele><time>2026-04-03T20:48:52.731Z</time></trkpt><trkpt lat="45.4462223" lon="11.5305318"><ele>347.5</ele><time>2026-04-03T20:48:54.73Z</time></trkpt><trkpt lat="45.4461615" lon="11.5306539"><ele>351.0</ele><time>2026-04-03T20:48:56.728Z</time></trkpt><trkpt lat="45.4460526" lon="11.5307849"><ele>354.5</ele><time>2026-04-03T20:49:01.731Z</time></trkpt><trkpt lat="45.4459833" lon="11.5307788"><ele>358.0</ele><time>2026-04-03T20:49:05.735Z</time></trkpt><trkpt lat="45.4459284" lon="11.5307322"><ele>361.5</ele><time>2026-04-03T20:49:13.733Z</time></trkpt><trkpt lat="45.4459233" lon="11.5308275"><ele>365.0</ele><time>2026-04-03T20:49:19.73Z</time></trkpt><trkpt lat="45.445816" lon="11.5310135"><ele>365.00000000000006</ele><time>2026-04-03T20:49:23.734Z</time></trkpt><trkpt lat="45.4457591" lon="11.5310621"><ele>365.0</ele><time>2026-04-03T20:49:24.729Z</time></trkpt><trkpt lat="45.4456971" lon="11.5311178"><ele>365.0</ele><time>2026-04-03T20:49:25.721Z</time></trkpt><trkpt lat="45.4456422" lon="11.5311868"><ele>365.0</ele><time>2026-04-03T20:49:26.734Z</time></trkpt><trkpt lat="45.4455895" lon="11.5312669"><ele>365.0</ele><time>2026-04-03T20:49:27.729Z</time></trkpt><trkpt lat="45.445535" lon="11.53133"><ele>365.00000000000006</ele><time>2026-04-03T20:49:28.74Z</time></trkpt><trkpt lat="45.4454753" lon="11.5313781"><ele>365.0</ele><time>2026-04-03T20:49:29.737Z</time></trkpt><trkpt lat="45.4454117" lon="11.5314119"><ele>368.0</ele><time>2026-04-03T20:49:30.729Z</time></trkpt><trkpt lat="45.4453447" lon="11.5314271"><ele>371.0</ele><time>2026-04-03T20:49:31.727Z</time></trkpt><trkpt lat="45.4452656" lon="11.5314378"><ele>374.0</ele><time>2026-04-03T20:49:32.726Z</time></trkpt><trkpt lat="45.4451803" lon="11.5314493"><ele>377.0</ele><time>2026-04-03T20:49:33.732Z</time></trkpt><trkpt lat="45.4450961" lon="11.5314573"><ele>380.0</ele><time>2026-04-03T20:49:34.723Z</time></trkpt><trkpt lat="45.4450107" lon="11.5314666"><ele>383.0</ele><time>2026-04-03T20:49:35.731Z</time></trkpt><trkpt lat="45.4449311" lon="11.5314815"><ele>383.0</ele><time>2026-04-03T20:49:36.732Z</time></trkpt><trkpt lat="45.4448474" lon="11.5315075"><ele>383.0</ele><time>2026-04-03T20:49:37.725Z</time></trkpt><trkpt lat="45.4447734" lon="11.5315344"><ele>383.0</ele><time>2026-04-03T20:49:38.717Z</time></trkpt><trkpt lat="45.4447069" lon="11.5315687"><ele>383.0</ele><time>2026-04-03T20:49:39.716Z</time></trkpt><trkpt lat="45.4446451" lon="11.531614"><ele>383.0</ele><time>2026-04-03T20:49:40.719Z</time></trkpt><trkpt lat="45.444544" lon="11.5317326"><ele>383.0</ele><time>2026-04-03T20:49:42.712Z</time></trkpt><trkpt lat="45.4444917" lon="11.5318142"><ele>382.0</ele><time>2026-04-03T20:49:43.719Z</time></trkpt><trkpt lat="45.4444319" lon="11.5318741"><ele>381.0</ele><time>2026-04-03T20:49:44.716Z</time></trkpt><trkpt lat="45.4443586" lon="11.5319085"><ele>380.0</ele><time>2026-04-03T20:49:45.721Z</time></trkpt><trkpt lat="45.4442839" lon="11.5319497"><ele>379.0</ele><time>2026-04-03T20:49:46.715Z</time></trkpt><trkpt lat="45.4442096" lon="11.5319895"><ele>378.0</ele><time>2026-04-03T20:49:47.717Z</time></trkpt><trkpt lat="45.4441389" lon="11.5320233"><ele>377.0</ele><time>2026-04-03T20:49:48.722Z</time></trkpt><trkpt lat="45.444067" lon="11.5320378"><ele>377.0</ele><time>2026-04-03T20:49:49.709Z</time></trkpt><trkpt lat="45.4439924" lon="11.5320461"><ele>377.0</ele><time>2026-04-03T20:49:50.716Z</time></trkpt><trkpt lat="45.4439103" lon="11.5320414"><ele>377.0</ele><time>2026-04-03T20:49:51.717Z</time></trkpt><trkpt lat="45.4438241" lon="11.5320143"><ele>377.0</ele><time>2026-04-03T20:49:52.713Z</time></trkpt><trkpt lat="45.4437388" lon="11.5319771"><ele>377.0</ele><time>2026-04-03T20:49:53.722Z</time></trkpt><trkpt lat="45.4436469" lon="11.5319451"><ele>377.0</ele><time>2026-04-03T20:49:54.713Z</time></trkpt><trkpt lat="45.4435498" lon="11.5319237"><ele>376.83333333333337</ele><time>2026-04-03T20:49:55.718Z</time></trkpt><trkpt lat="45.4434614" lon="11.531901"><ele>376.6666666666667</ele><time>2026-04-03T20:49:56.724Z</time></trkpt><trkpt lat="45.4433746" lon="11.5318875"><ele>376.5</ele><time>2026-04-03T20:49:57.726Z</time></trkpt><trkpt lat="45.4432858" lon="11.5318828"><ele>376.3333333333333</ele><time>2026-04-03T20:49:58.725Z</time></trkpt><trkpt lat="45.4432048" lon="11.5318876"><ele>376.16666666666663</ele><time>2026-04-03T20:49:59.73Z</time></trkpt><trkpt lat="45.4431272" lon="11.5319093"><ele>376.0</ele><time>2026-04-03T20:50:00.721Z</time></trkpt><trkpt lat="45.4430512" lon="11.5319407"><ele>377.75</ele><time>2026-04-03T20:50:01.72Z</time></trkpt><trkpt lat="45.4428615" lon="11.5319438"><ele>379.5</ele><time>2026-04-03T20:50:04.713Z</time></trkpt><trkpt lat="45.4427733" lon="11.531923"><ele>381.25</ele><time>2026-04-03T20:50:05.712Z</time></trkpt><trkpt lat="45.442663" lon="11.5319055"><ele>383.0</ele><time>2026-04-03T20:50:06.715Z</time></trkpt><trkpt lat="45.4425471" lon="11.5318914"><ele>383.0</ele><time>2026-04-03T20:50:07.72Z</time></trkpt><trkpt lat="45.4424424" lon="11.5318867"><ele>383.0</ele><time>2026-04-03T20:50:08.733Z</time></trkpt><trkpt lat="45.442369" lon="11.531892"><ele>383.0</ele><time>2026-04-03T20:50:09.722Z</time></trkpt><trkpt lat="45.4422855" lon="11.5319303"><ele>383.0</ele><time>2026-04-03T20:50:11.728Z</time></trkpt><trkpt lat="45.442198" lon="11.5319399"><ele>383.0</ele><time>2026-04-03T20:50:39.728Z</time></trkpt><trkpt lat="45.4419552" lon="11.5319328"><ele>385.5</ele><time>2026-04-03T20:50:43.712Z</time></trkpt><trkpt lat="45.4418887" lon="11.5319498"><ele>388.0</ele><time>2026-04-03T20:50:44.729Z</time></trkpt><trkpt lat="45.4417659" lon="11.5319791"><ele>390.5</ele><time>2026-04-03T20:50:46.71Z</time></trkpt><trkpt lat="45.4417029" lon="11.5319909"><ele>393.0</ele><time>2026-04-03T20:50:47.713Z</time></trkpt><trkpt lat="45.4416312" lon="11.5319943"><ele>395.49999999999994</ele><time>2026-04-03T20:50:48.72Z</time></trkpt><trkpt lat="45.4415546" lon="11.5320015"><ele>398.0</ele><time>2026-04-03T20:50:49.718Z</time></trkpt><trkpt lat="45.4414781" lon="11.532016"><ele>397.99999999999994</ele><time>2026-04-03T20:50:50.725Z</time></trkpt><trkpt lat="45.4414021" lon="11.5320185"><ele>398.0</ele><time>2026-04-03T20:50:51.721Z</time></trkpt><trkpt lat="45.4413276" lon="11.5320144"><ele>398.0</ele><time>2026-04-03T20:50:52.723Z</time></trkpt><trkpt lat="45.4412532" lon="11.5320039"><ele>398.0</ele><time>2026-04-03T20:50:53.729Z</time></trkpt><trkpt lat="45.4411847" lon="11.5319867"><ele>397.99999999999994</ele><time>2026-04-03T20:50:54.722Z</time></trkpt><trkpt lat="45.4410894" lon="11.5318721"><ele>398.0</ele><time>2026-04-03T20:50:56.731Z</time></trkpt><trkpt lat="45.4410676" lon="11.5317586"><ele>398.4</ele><time>2026-04-03T20:50:57.728Z</time></trkpt><trkpt lat="45.4410482" lon="11.5316444"><ele>398.79999999999995</ele><time>2026-04-03T20:50:58.727Z</time></trkpt><trkpt lat="45.4410282" lon="11.5315332"><ele>399.2</ele><time>2026-04-03T20:50:59.725Z</time></trkpt><trkpt lat="45.441002" lon="11.5314289"><ele>399.6</ele><time>2026-04-03T20:51:00.723Z</time></trkpt><trkpt lat="45.4408677" lon="11.5312143"><ele>400.0</ele><time>2026-04-03T20:51:03.729Z</time></trkpt><trkpt lat="45.4408034" lon="11.5311042"><ele>400.2</ele><time>2026-04-03T20:51:04.717Z</time></trkpt><trkpt lat="45.4407418" lon="11.5309844"><ele>400.4</ele><time>2026-04-03T20:51:05.718Z</time></trkpt><trkpt lat="45.4406922" lon="11.5308721"><ele>400.6</ele><time>2026-04-03T20:51:06.72Z</time></trkpt><trkpt lat="45.4406533" lon="11.5307425"><ele>400.8</ele><time>2026-04-03T20:51:07.719Z</time></trkpt><trkpt lat="45.4406269" lon="11.5306074"><ele>401.0</ele><time>2026-04-03T20:51:08.726Z</time></trkpt><trkpt lat="45.4406118" lon="11.5304923"><ele>400.99999999999994</ele><time>2026-04-03T20:51:09.718Z</time></trkpt><trkpt lat="45.440611" lon="11.5303919"><ele>401.0</ele><time>2026-04-03T20:51:10.715Z</time></trkpt><trkpt lat="45.4406161" lon="11.5302857"><ele>401.0</ele><time>2026-04-03T20:51:11.719Z</time></trkpt><trkpt lat="45.4406164" lon="11.5301723"><ele>401.0</ele><time>2026-04-03T20:51:12.724Z</time></trkpt><trkpt lat="45.4406165" lon="11.5300529"><ele>400.99999999999994</ele><time>2026-04-03T20:51:13.735Z</time></trkpt><trkpt lat="45.4406152" lon="11.529936"><ele>401.0</ele><time>2026-04-03T20:51:14.722Z</time></trkpt><trkpt lat="45.4406132" lon="11.529826"><ele>401.16666666666663</ele><time>2026-04-03T20:51:15.734Z</time></trkpt><trkpt lat="45.4405978" lon="11.5297215"><ele>401.3333333333333</ele><time>2026-04-03T20:51:16.728Z</time></trkpt><trkpt lat="45.440573" lon="11.5296202"><ele>401.5</ele><time>2026-04-03T20:51:17.732Z</time></trkpt><trkpt lat="45.44054" lon="11.5295397"><ele>401.66666666666663</ele><time>2026-04-03T20:51:18.735Z</time></trkpt><trkpt lat="45.4404329" lon="11.5294823"><ele>401.8333333333333</ele><time>2026-04-03T20:51:20.73Z</time></trkpt><trkpt lat="45.4403465" lon="11.5294805"><ele>402.0</ele><time>2026-04-03T20:51:21.725Z</time></trkpt><trkpt lat="45.4401242" lon="11.5294841"><ele>402.20000000000005</ele><time>2026-04-03T20:51:23.727Z</time></trkpt><trkpt lat="45.4400146" lon="11.5294773"><ele>402.4</ele><time>2026-04-03T20:51:24.726Z</time></trkpt><trkpt lat="45.4399079" lon="11.529459"><ele>402.6</ele><time>2026-04-03T20:51:25.725Z</time></trkpt><trkpt lat="45.4398157" lon="11.5294332"><ele>402.79999999999995</ele><time>2026-04-03T20:51:26.714Z</time></trkpt><trkpt lat="45.439715" lon="11.5294168"><ele>403.0</ele><time>2026-04-03T20:51:27.72Z</time></trkpt><trkpt lat="45.4396156" lon="11.5294044"><ele>403.0</ele><time>2026-04-03T20:51:28.713Z</time></trkpt><trkpt lat="45.4395285" lon="11.5293944"><ele>403.0</ele><time>2026-04-03T20:51:29.721Z</time></trkpt><trkpt lat="45.4394619" lon="11.5293812"><ele>403.0</ele><time>2026-04-03T20:51:55.719Z</time></trkpt><trkpt lat="45.4393366" lon="11.5292618"><ele>403.0</ele><time>2026-04-03T20:52:00.715Z</time></trkpt><trkpt lat="45.4392665" lon="11.5291945"><ele>403.0</ele><time>2026-04-03T20:52:03.72Z</time></trkpt><trkpt lat="45.4391884" lon="11.529152"><ele>403.0</ele><time>2026-04-03T20:52:06.722Z</time></trkpt><trkpt lat="45.4390992" lon="11.5290913"><ele>403.0</ele><time>2026-04-03T20:54:13.723Z</time></trkpt><trkpt lat="45.4388965" lon="11.5289157"><ele>403.0</ele><time>2026-04-03T20:54:16.724Z</time></trkpt><trkpt lat="45.438844" lon="11.5287996"><ele>403.0</ele><time>2026-04-03T20:54:17.721Z</time></trkpt><trkpt lat="45.4388073" lon="11.5286637"><ele>404.83333333333337</ele><time>2026-04-03T20:54:18.737Z</time></trkpt><trkpt lat="45.4387669" lon="11.5285538"><ele>406.6666666666667</ele><time>2026-04-03T20:54:19.723Z</time></trkpt><trkpt lat="45.4387308" lon="11.5284548"><ele>408.5</ele><time>2026-04-03T20:54:20.722Z</time></trkpt><trkpt lat="45.4387021" lon="11.5283684"><ele>410.33333333333337</ele><time>2026-04-03T20:54:21.726Z</time></trkpt><trkpt lat="45.4386158" lon="11.5282497"><ele>412.1666666666667</ele><time>2026-04-03T20:54:23.726Z</time></trkpt><trkpt lat="45.438553" lon="11.5281808"><ele>414.0</ele><time>2026-04-03T20:54:24.722Z</time></trkpt><trkpt lat="45.4384819" lon="11.5281061"><ele>414.0</ele><time>2026-04-03T20:54:25.732Z</time></trkpt><trkpt lat="45.4384184" lon="11.5280232"><ele>414.0</ele><time>2026-04-03T20:54:26.725Z</time></trkpt><trkpt lat="45.4383554" lon="11.5279344"><ele>414.0</ele><time>2026-04-03T20:54:27.73Z</time></trkpt><trkpt lat="45.4383075" lon="11.5278151"><ele>414.0</ele><time>2026-04-03T20:54:28.726Z</time></trkpt><trkpt lat="45.43827" lon="11.5276879"><ele>414.0</ele><time>2026-04-03T20:54:29.727Z</time></trkpt><trkpt lat="45.4382353" lon="11.5275724"><ele>414.6</ele><time>2026-04-03T20:54:30.731Z</time></trkpt><trkpt lat="45.4382106" lon="11.5274846"><ele>415.2</ele><time>2026-04-03T20:54:31.734Z</time></trkpt><trkpt lat="45.4382147" lon="11.5273677"><ele>415.8</ele><time>2026-04-03T20:54:33.736Z</time></trkpt><trkpt lat="45.4382289" lon="11.527244"><ele>416.40000000000003</ele><time>2026-04-03T20:54:35.723Z</time></trkpt><trkpt lat="45.4381628" lon="11.5270253"><ele>417.0</ele><time>2026-04-03T20:54:39.739Z</time></trkpt><trkpt lat="45.4380974" lon="11.5269275"><ele>417.1666666666667</ele><time>2026-04-03T20:54:41.72Z</time></trkpt><trkpt lat="45.43805" lon="11.5268484"><ele>417.33333333333337</ele><time>2026-04-03T20:54:43.728Z</time></trkpt><trkpt lat="45.4380294" lon="11.5267597"><ele>417.5</ele><time>2026-04-03T20:54:45.729Z</time></trkpt><trkpt lat="45.4380058" lon="11.5266251"><ele>417.6666666666667</ele><time>2026-04-03T20:54:47.729Z</time></trkpt><trkpt lat="45.4380117" lon="11.5264763"><ele>417.83333333333337</ele><time>2026-04-03T20:54:49.729Z</time></trkpt><trkpt lat="45.4380552" lon="11.5263472"><ele>418.0</ele><time>2026-04-03T20:54:51.721Z</time></trkpt><trkpt lat="45.4381083" lon="11.5262264"><ele>416.25</ele><time>2026-04-03T20:54:53.724Z</time></trkpt><trkpt lat="45.4381788" lon="11.5261146"><ele>414.5</ele><time>2026-04-03T20:54:55.722Z</time></trkpt><trkpt lat="45.4382341" lon="11.526016"><ele>412.75</ele><time>2026-04-03T20:54:57.719Z</time></trkpt><trkpt lat="45.4382736" lon="11.525761"><ele>411.0</ele><time>2026-04-03T20:55:01.729Z</time></trkpt><trkpt lat="45.4382561" lon="11.5256336"><ele>411.0</ele><time>2026-04-03T20:55:03.719Z</time></trkpt><trkpt lat="45.4383177" lon="11.525605"><ele>411.0</ele><time>2026-04-03T20:55:16.722Z</time></trkpt><trkpt lat="45.4383986" lon="11.5256473"><ele>411.0</ele><time>2026-04-03T20:55:18.719Z</time></trkpt><trkpt lat="45.4385379" lon="11.5257254"><ele>411.0</ele><time>2026-04-03T20:58:31.764Z</time></trkpt><trkpt lat="45.4382322" lon="11.5255996"><ele>411.0</ele><time>2026-04-03T21:00:18.74Z</time></trkpt><trkpt lat="45.4382323" lon="11.5257072"><ele>411.0</ele><time>2026-04-03T21:00:20.743Z</time></trkpt><trkpt lat="45.4382428" lon="11.5258627"><ele>411.0</ele><time>2026-04-03T21:00:22.736Z</time></trkpt><trkpt lat="45.4382223" lon="11.526019"><ele>411.0</ele><time>2026-04-03T21:00:24.733Z</time></trkpt><trkpt lat="45.4381885" lon="11.5261627"><ele>411.0</ele><time>2026-04-03T21:00:26.732Z</time></trkpt><trkpt lat="45.4381359" lon="11.5263015"><ele>412.4</ele><time>2026-04-03T21:00:28.73Z</time></trkpt><trkpt lat="45.4381033" lon="11.5263898"><ele>413.8</ele><time>2026-04-03T21:00:29.738Z</time></trkpt><trkpt lat="45.4380639" lon="11.5265141"><ele>415.2</ele><time>2026-04-03T21:00:30.734Z</time></trkpt><trkpt lat="45.4380534" lon="11.5266572"><ele>416.59999999999997</ele><time>2026-04-03T21:00:31.746Z</time></trkpt><trkpt lat="45.4380706" lon="11.5267986"><ele>418.0</ele><time>2026-04-03T21:00:32.743Z</time></trkpt><trkpt lat="45.4381072" lon="11.5269475"><ele>417.75</ele><time>2026-04-03T21:00:33.738Z</time></trkpt><trkpt lat="45.4381619" lon="11.527092"><ele>417.5</ele><time>2026-04-03T21:00:34.745Z</time></trkpt><trkpt lat="45.4382176" lon="11.5272304"><ele>417.25</ele><time>2026-04-03T21:00:35.735Z</time></trkpt><trkpt lat="45.4382371" lon="11.5274993"><ele>417.0</ele><time>2026-04-03T21:00:37.746Z</time></trkpt><trkpt lat="45.4381991" lon="11.5276178"><ele>417.0</ele><time>2026-04-03T21:00:38.741Z</time></trkpt><trkpt lat="45.4381173" lon="11.5277264"><ele>417.0</ele><time>2026-04-03T21:00:39.737Z</time></trkpt><trkpt lat="45.4380181" lon="11.527852"><ele>417.0</ele><time>2026-04-03T21:00:40.741Z</time></trkpt><trkpt lat="45.4379134" lon="11.5280087"><ele>417.0</ele><time>2026-04-03T21:00:41.737Z</time></trkpt><trkpt lat="45.4378214" lon="11.5281771"><ele>417.25</ele><time>2026-04-03T21:00:42.74Z</time></trkpt><trkpt lat="45.4377316" lon="11.5283356"><ele>417.5</ele><time>2026-04-03T21:00:43.752Z</time></trkpt><trkpt lat="45.437635" lon="11.5284737"><ele>417.75</ele><time>2026-04-03T21:00:44.745Z</time></trkpt><trkpt lat="45.4375316" lon="11.5286063"><ele>418.0</ele><time>2026-04-03T21:00:45.75Z</time></trkpt><trkpt lat="45.4374241" lon="11.5287299"><ele>418.0</ele><time>2026-04-03T21:00:46.747Z</time></trkpt><trkpt lat="45.4373249" lon="11.5288627"><ele>418.0</ele><time>2026-04-03T21:00:47.75Z</time></trkpt><trkpt lat="45.4372534" lon="11.5290087"><ele>418.0</ele><time>2026-04-03T21:00:48.759Z</time></trkpt><trkpt lat="45.4372152" lon="11.5291724"><ele>418.0</ele><time>2026-04-03T21:00:49.75Z</time></trkpt><trkpt lat="45.4371899" lon="11.5293185"><ele>418.0</ele><time>2026-04-03T21:00:50.759Z</time></trkpt><trkpt lat="45.4371556" lon="11.5294552"><ele>418.0</ele><time>2026-04-03T21:00:51.749Z</time></trkpt><trkpt lat="45.4371143" lon="11.5295897"><ele>418.0</ele><time>2026-04-03T21:00:52.745Z</time></trkpt><trkpt lat="45.437056" lon="11.5297116"><ele>418.0</ele><time>2026-04-03T21:00:53.746Z</time></trkpt><trkpt lat="45.4369764" lon="11.5298201"><ele>418.0</ele><time>2026-04-03T21:00:54.745Z</time></trkpt><trkpt lat="45.4368812" lon="11.5299234"><ele>419.0</ele><time>2026-04-03T21:00:55.745Z</time></trkpt><trkpt lat="45.4367842" lon="11.5300367"><ele>420.0</ele><time>2026-04-03T21:00:56.745Z</time></trkpt><trkpt lat="45.4365914" lon="11.5302878"><ele>421.0</ele><time>2026-04-03T21:00:58.742Z</time></trkpt><trkpt lat="45.4364958" lon="11.5304243"><ele>421.0</ele><time>2026-04-03T21:00:59.748Z</time></trkpt><trkpt lat="45.4364066" lon="11.5305651"><ele>421.0</ele><time>2026-04-03T21:01:00.74Z</time></trkpt><trkpt lat="45.4363227" lon="11.530706"><ele>421.0</ele><time>2026-04-03T21:01:01.742Z</time></trkpt><trkpt lat="45.4362472" lon="11.5308469"><ele>421.0</ele><time>2026-04-03T21:01:02.733Z</time></trkpt><trkpt lat="45.436186" lon="11.5309895"><ele>423.8</ele><time>2026-04-03T21:01:03.736Z</time></trkpt><trkpt lat="45.436143" lon="11.531142"><ele>426.6</ele><time>2026-04-03T21:01:04.743Z</time></trkpt><trkpt lat="45.4361144" lon="11.5312927"><ele>429.4</ele><time>2026-04-03T21:01:05.736Z</time></trkpt><trkpt lat="45.4361012" lon="11.5314448"><ele>432.2</ele><time>2026-04-03T21:01:06.743Z</time></trkpt><trkpt lat="45.4361055" lon="11.5316044"><ele>435.0</ele><time>2026-04-03T21:01:07.74Z</time></trkpt><trkpt lat="45.4361211" lon="11.5317634"><ele>435.0</ele><time>2026-04-03T21:01:08.738Z</time></trkpt><trkpt lat="45.4361477" lon="11.5318993"><ele>435.0</ele><time>2026-04-03T21:01:09.744Z</time></trkpt><trkpt lat="45.4362115" lon="11.5320049"><ele>435.0</ele><time>2026-04-03T21:01:10.746Z</time></trkpt><trkpt lat="45.4362941" lon="11.5320701"><ele>435.0</ele><time>2026-04-03T21:01:11.734Z</time></trkpt><trkpt lat="45.4363859" lon="11.5321048"><ele>435.0</ele><time>2026-04-03T21:01:12.743Z</time></trkpt><trkpt lat="45.4364926" lon="11.5321143"><ele>431.4</ele><time>2026-04-03T21:01:13.739Z</time></trkpt><trkpt lat="45.4366055" lon="11.5321205"><ele>427.8</ele><time>2026-04-03T21:01:14.746Z</time></trkpt><trkpt lat="45.4367176" lon="11.5321313"><ele>424.20000000000005</ele><time>2026-04-03T21:01:15.742Z</time></trkpt><trkpt lat="45.4368215" lon="11.532152"><ele>420.6</ele><time>2026-04-03T21:01:16.743Z</time></trkpt><trkpt lat="45.4369211" lon="11.5321838"><ele>417.0</ele><time>2026-04-03T21:01:17.74Z</time></trkpt><trkpt lat="45.4371086" lon="11.532274"><ele>416.8</ele><time>2026-04-03T21:01:19.752Z</time></trkpt><trkpt lat="45.4371984" lon="11.5323325"><ele>416.6</ele><time>2026-04-03T21:01:20.746Z</time></trkpt><trkpt lat="45.437287" lon="11.5324058"><ele>416.40000000000003</ele><time>2026-04-03T21:01:21.753Z</time></trkpt><trkpt lat="45.4373681" lon="11.5324833"><ele>416.20000000000005</ele><time>2026-04-03T21:01:22.749Z</time></trkpt><trkpt lat="45.4374385" lon="11.5325778"><ele>416.0</ele><time>2026-04-03T21:01:23.757Z</time></trkpt><trkpt lat="45.4374863" lon="11.5326945"><ele>416.0</ele><time>2026-04-03T21:01:24.748Z</time></trkpt><trkpt lat="45.4375066" lon="11.5328151"><ele>416.0</ele><time>2026-04-03T21:01:25.737Z</time></trkpt><trkpt lat="45.4375044" lon="11.5329411"><ele>416.0</ele><time>2026-04-03T21:01:26.753Z</time></trkpt><trkpt lat="45.437467" lon="11.5330577"><ele>416.0</ele><time>2026-04-03T21:01:27.751Z</time></trkpt><trkpt lat="45.437411" lon="11.5331755"><ele>416.0</ele><time>2026-04-03T21:01:28.74Z</time></trkpt><trkpt lat="45.4373614" lon="11.5332876"><ele>414.8</ele><time>2026-04-03T21:01:29.743Z</time></trkpt><trkpt lat="45.4373056" lon="11.533405"><ele>413.6</ele><time>2026-04-03T21:01:30.747Z</time></trkpt><trkpt lat="45.4372554" lon="11.5335299"><ele>412.4</ele><time>2026-04-03T21:01:31.739Z</time></trkpt><trkpt lat="45.4371985" lon="11.5336557"><ele>411.2</ele><time>2026-04-03T21:01:32.751Z</time></trkpt><trkpt lat="45.4371364" lon="11.5337832"><ele>410.0</ele><time>2026-04-03T21:01:33.745Z</time></trkpt><trkpt lat="45.4370712" lon="11.5339172"><ele>409.8</ele><time>2026-04-03T21:01:34.747Z</time></trkpt><trkpt lat="45.4370124" lon="11.5340474"><ele>409.6</ele><time>2026-04-03T21:01:35.742Z</time></trkpt><trkpt lat="45.4369631" lon="11.5341554"><ele>409.4</ele><time>2026-04-03T21:01:36.746Z</time></trkpt><trkpt lat="45.4369264" lon="11.534243"><ele>409.2</ele><time>2026-04-03T21:01:37.748Z</time></trkpt><trkpt lat="45.4368853" lon="11.5343456"><ele>409.0</ele><time>2026-04-03T21:01:39.762Z</time></trkpt><trkpt lat="45.4366417" lon="11.5345091"><ele>408.85714285714283</ele><time>2026-04-03T21:02:22.744Z</time></trkpt><trkpt lat="45.4365809" lon="11.5345561"><ele>408.7142857142857</ele><time>2026-04-03T21:02:23.739Z</time></trkpt><trkpt lat="45.4365137" lon="11.5345984"><ele>408.57142857142856</ele><time>2026-04-03T21:02:24.741Z</time></trkpt><trkpt lat="45.4364532" lon="11.5346474"><ele>408.42857142857144</ele><time>2026-04-03T21:02:25.751Z</time></trkpt><trkpt lat="45.436392" lon="11.5346938"><ele>408.28571428571433</ele><time>2026-04-03T21:02:26.74Z</time></trkpt><trkpt lat="45.4363351" lon="11.5347361"><ele>408.14285714285717</ele><time>2026-04-03T21:02:27.741Z</time></trkpt><trkpt lat="45.4362764" lon="11.5347811"><ele>408.0</ele><time>2026-04-03T21:02:28.743Z</time></trkpt><trkpt lat="45.4362186" lon="11.5348205"><ele>408.0</ele><time>2026-04-03T21:02:29.739Z</time></trkpt><trkpt lat="45.4361601" lon="11.5348609"><ele>408.0</ele><time>2026-04-03T21:02:30.742Z</time></trkpt><trkpt lat="45.4360543" lon="11.5349338"><ele>408.0</ele><time>2026-04-03T21:02:32.736Z</time></trkpt><trkpt lat="45.4359824" lon="11.5350176"><ele>408.0</ele><time>2026-04-03T21:02:34.739Z</time></trkpt><trkpt lat="45.4359539" lon="11.5351261"><ele>408.0</ele><time>2026-04-03T21:02:36.74Z</time></trkpt><trkpt lat="45.4359834" lon="11.5352778"><ele>408.0</ele><time>2026-04-03T21:02:44.741Z</time></trkpt><trkpt lat="45.4359737" lon="11.5355842"><ele>408.0</ele><time>2026-04-03T21:02:47.739Z</time></trkpt><trkpt lat="45.4359692" lon="11.535713"><ele>408.0</ele><time>2026-04-03T21:02:48.737Z</time></trkpt><trkpt lat="45.4359594" lon="11.5358546"><ele>408.0</ele><time>2026-04-03T21:02:49.735Z</time></trkpt><trkpt lat="45.4359447" lon="11.5360082"><ele>408.0</ele><time>2026-04-03T21:02:50.74Z</time></trkpt><trkpt lat="45.4359248" lon="11.5361661"><ele>408.0</ele><time>2026-04-03T21:02:51.733Z</time></trkpt><trkpt lat="45.4358974" lon="11.5363305"><ele>408.0</ele><time>2026-04-03T21:02:52.74Z</time></trkpt><trkpt lat="45.435872" lon="11.536505"><ele>408.0</ele><time>2026-04-03T21:02:53.735Z</time></trkpt><trkpt lat="45.4358399" lon="11.5366833"><ele>408.75</ele><time>2026-04-03T21:02:54.74Z</time></trkpt><trkpt lat="45.4358" lon="11.5368593"><ele>409.5</ele><time>2026-04-03T21:02:55.737Z</time></trkpt><trkpt lat="45.4357486" lon="11.5370278"><ele>410.25</ele><time>2026-04-03T21:02:56.734Z</time></trkpt><trkpt lat="45.4356859" lon="11.5371897"><ele>411.0</ele><time>2026-04-03T21:02:57.743Z</time></trkpt><trkpt lat="45.4356068" lon="11.5373288"><ele>412.0</ele><time>2026-04-03T21:02:58.737Z</time></trkpt><trkpt lat="45.435531" lon="11.5374476"><ele>413.0</ele><time>2026-04-03T21:02:59.747Z</time></trkpt><trkpt lat="45.4354628" lon="11.5375472"><ele>414.0</ele><time>2026-04-03T21:03:00.734Z</time></trkpt><trkpt lat="45.4353964" lon="11.5376472"><ele>415.0</ele><time>2026-04-03T21:03:01.727Z</time></trkpt><trkpt lat="45.435319" lon="11.5377387"><ele>416.0</ele><time>2026-04-03T21:03:02.737Z</time></trkpt><trkpt lat="45.4352375" lon="11.5378385"><ele>414.25</ele><time>2026-04-03T21:03:03.73Z</time></trkpt><trkpt lat="45.4351482" lon="11.5379497"><ele>412.5</ele><time>2026-04-03T21:03:04.738Z</time></trkpt><trkpt lat="45.4350543" lon="11.5380551"><ele>410.75</ele><time>2026-04-03T21:03:05.734Z</time></trkpt><trkpt lat="45.4348948" lon="11.5382273"><ele>409.0</ele><time>2026-04-03T21:03:07.734Z</time></trkpt><trkpt lat="45.434822" lon="11.5382876"><ele>409.0</ele><time>2026-04-03T21:03:08.745Z</time></trkpt><trkpt lat="45.4347453" lon="11.5383061"><ele>409.0</ele><time>2026-04-03T21:03:09.744Z</time></trkpt><trkpt lat="45.4346602" lon="11.5382885"><ele>409.0</ele><time>2026-04-03T21:03:10.728Z</time></trkpt><trkpt lat="45.4345548" lon="11.5382727"><ele>409.0</ele><time>2026-04-03T21:03:11.737Z</time></trkpt><trkpt lat="45.4344455" lon="11.5382799"><ele>409.0</ele><time>2026-04-03T21:03:12.739Z</time></trkpt><trkpt lat="45.4343358" lon="11.5382954"><ele>409.2</ele><time>2026-04-03T21:03:13.747Z</time></trkpt><trkpt lat="45.4342298" lon="11.5382963"><ele>409.4</ele><time>2026-04-03T21:03:14.75Z</time></trkpt><trkpt lat="45.434136" lon="11.538261"><ele>409.6</ele><time>2026-04-03T21:03:15.747Z</time></trkpt><trkpt lat="45.4340496" lon="11.5381776"><ele>409.8</ele><time>2026-04-03T21:03:16.749Z</time></trkpt><trkpt lat="45.4339756" lon="11.5380845"><ele>410.0</ele><time>2026-04-03T21:03:17.751Z</time></trkpt><trkpt lat="45.4339017" lon="11.5379955"><ele>410.0</ele><time>2026-04-03T21:03:18.758Z</time></trkpt><trkpt lat="45.4338235" lon="11.5379089"><ele>410.0</ele><time>2026-04-03T21:03:19.751Z</time></trkpt><trkpt lat="45.4337378" lon="11.5378429"><ele>410.0</ele><time>2026-04-03T21:03:20.751Z</time></trkpt><trkpt lat="45.4336523" lon="11.537803"><ele>410.0</ele><time>2026-04-03T21:03:21.749Z</time></trkpt><trkpt lat="45.4335659" lon="11.5377769"><ele>410.0</ele><time>2026-04-03T21:03:22.751Z</time></trkpt><trkpt lat="45.4334724" lon="11.5377807"><ele>410.5</ele><time>2026-04-03T21:03:23.755Z</time></trkpt><trkpt lat="45.4333775" lon="11.537823"><ele>411.0</ele><time>2026-04-03T21:03:24.745Z</time></trkpt><trkpt lat="45.4332967" lon="11.5378995"><ele>411.5</ele><time>2026-04-03T21:03:25.756Z</time></trkpt><trkpt lat="45.433234" lon="11.5380097"><ele>412.0</ele><time>2026-04-03T21:03:26.747Z</time></trkpt><trkpt lat="45.4331264" lon="11.538271"><ele>411.6</ele><time>2026-04-03T21:03:28.745Z</time></trkpt><trkpt lat="45.4330596" lon="11.5383954"><ele>411.20000000000005</ele><time>2026-04-03T21:03:29.738Z</time></trkpt><trkpt lat="45.4330042" lon="11.5385184"><ele>410.8</ele><time>2026-04-03T21:03:30.745Z</time></trkpt><trkpt lat="45.4329622" lon="11.5386418"><ele>410.4</ele><time>2026-04-03T21:03:31.745Z</time></trkpt><trkpt lat="45.4329227" lon="11.5387581"><ele>410.0</ele><time>2026-04-03T21:03:32.748Z</time></trkpt><trkpt lat="45.4328713" lon="11.5388659"><ele>410.0</ele><time>2026-04-03T21:03:33.744Z</time></trkpt><trkpt lat="45.4328133" lon="11.5389723"><ele>410.0</ele><time>2026-04-03T21:03:34.75Z</time></trkpt><trkpt lat="45.4327492" lon="11.5390714"><ele>410.0</ele><time>2026-04-03T21:03:35.747Z</time></trkpt><trkpt lat="45.4326885" lon="11.5391626"><ele>410.0</ele><time>2026-04-03T21:03:36.748Z</time></trkpt><trkpt lat="45.432623" lon="11.539265"><ele>410.0</ele><time>2026-04-03T21:03:37.74Z</time></trkpt><trkpt lat="45.4325588" lon="11.539375"><ele>410.0</ele><time>2026-04-03T21:03:38.742Z</time></trkpt><trkpt lat="45.432497" lon="11.5394955"><ele>410.0</ele><time>2026-04-03T21:03:39.744Z</time></trkpt><trkpt lat="45.4324294" lon="11.5396091"><ele>410.0</ele><time>2026-04-03T21:03:40.747Z</time></trkpt><trkpt lat="45.4323607" lon="11.539713"><ele>410.0</ele><time>2026-04-03T21:03:41.737Z</time></trkpt><trkpt lat="45.432289" lon="11.5398004"><ele>410.0</ele><time>2026-04-03T21:03:42.754Z</time></trkpt><trkpt lat="45.4322111" lon="11.5398675"><ele>408.8</ele><time>2026-04-03T21:03:43.744Z</time></trkpt><trkpt lat="45.4321222" lon="11.5399074"><ele>407.6</ele><time>2026-04-03T21:03:44.746Z</time></trkpt><trkpt lat="45.4320364" lon="11.5399351"><ele>406.4</ele><time>2026-04-03T21:03:45.741Z</time></trkpt><trkpt lat="45.4319565" lon="11.5399481"><ele>405.2</ele><time>2026-04-03T21:03:46.739Z</time></trkpt><trkpt lat="45.4318775" lon="11.5399559"><ele>404.0</ele><time>2026-04-03T21:03:47.741Z</time></trkpt><trkpt lat="45.4317367" lon="11.5399724"><ele>403.99999999999994</ele><time>2026-04-03T21:03:49.75Z</time></trkpt><trkpt lat="45.4316663" lon="11.540002"><ele>404.0</ele><time>2026-04-03T21:03:50.741Z</time></trkpt><trkpt lat="45.4315933" lon="11.5400368"><ele>404.0</ele><time>2026-04-03T21:03:51.75Z</time></trkpt><trkpt lat="45.431518" lon="11.5400758"><ele>404.0</ele><time>2026-04-03T21:03:52.745Z</time></trkpt><trkpt lat="45.4314418" lon="11.5401079"><ele>403.99999999999994</ele><time>2026-04-03T21:03:53.749Z</time></trkpt><trkpt lat="45.4313685" lon="11.5401094"><ele>404.0</ele><time>2026-04-03T21:03:54.744Z</time></trkpt><trkpt lat="45.4313012" lon="11.5400869"><ele>403.66666666666663</ele><time>2026-04-03T21:03:55.739Z</time></trkpt><trkpt lat="45.4312367" lon="11.5400539"><ele>403.3333333333333</ele><time>2026-04-03T21:03:56.728Z</time></trkpt><trkpt lat="45.4311804" lon="11.5399742"><ele>403.0</ele><time>2026-04-03T21:03:58.742Z</time></trkpt><trkpt lat="45.4311807" lon="11.5398436"><ele>402.66666666666663</ele><time>2026-04-03T21:04:00.732Z</time></trkpt><trkpt lat="45.4311673" lon="11.5397522"><ele>402.3333333333333</ele><time>2026-04-03T21:04:01.732Z</time></trkpt><trkpt lat="45.4311435" lon="11.5396516"><ele>402.0</ele><time>2026-04-03T21:04:02.718Z</time></trkpt><trkpt lat="45.4311157" lon="11.5395478"><ele>400.5</ele><time>2026-04-03T21:04:03.724Z</time></trkpt><trkpt lat="45.4310841" lon="11.5394379"><ele>399.0</ele><time>2026-04-03T21:04:04.731Z</time></trkpt><trkpt lat="45.4310491" lon="11.5393334"><ele>397.5</ele><time>2026-04-03T21:04:05.735Z</time></trkpt><trkpt lat="45.4310108" lon="11.5392496"><ele>396.0</ele><time>2026-04-03T21:04:06.728Z</time></trkpt><trkpt lat="45.4309686" lon="11.5391747"><ele>394.5</ele><time>2026-04-03T21:04:07.736Z</time></trkpt><trkpt lat="45.4308651" lon="11.5390794"><ele>393.0</ele><time>2026-04-03T21:04:09.723Z</time></trkpt><trkpt lat="45.4308757" lon="11.5389118"><ele>393.0</ele><time>2026-04-03T21:04:14.725Z</time></trkpt><trkpt lat="45.4309378" lon="11.5388767"><ele>393.0</ele><time>2026-04-03T21:04:15.721Z</time></trkpt><trkpt lat="45.4310141" lon="11.5387367"><ele>393.0</ele><time>2026-04-03T21:04:17.729Z</time></trkpt><trkpt lat="45.4310758" lon="11.5386879"><ele>393.0</ele><time>2026-04-03T21:04:18.729Z</time></trkpt><trkpt lat="45.4311379" lon="11.5386383"><ele>393.0</ele><time>2026-04-03T21:04:19.731Z</time></trkpt><trkpt lat="45.4312246" lon="11.5385618"><ele>393.0</ele><time>2026-04-03T21:04:20.727Z</time></trkpt><trkpt lat="45.4313138" lon="11.5384669"><ele>392.4</ele><time>2026-04-03T21:04:21.726Z</time></trkpt><trkpt lat="45.4313822" lon="11.5383573"><ele>391.79999999999995</ele><time>2026-04-03T21:04:22.722Z</time></trkpt><trkpt lat="45.4314377" lon="11.5382348"><ele>391.2</ele><time>2026-04-03T21:04:23.73Z</time></trkpt><trkpt lat="45.4314918" lon="11.5381113"><ele>390.6</ele><time>2026-04-03T21:04:24.717Z</time></trkpt><trkpt lat="45.4315414" lon="11.5379751"><ele>390.0</ele><time>2026-04-03T21:04:25.721Z</time></trkpt><trkpt lat="45.4315907" lon="11.5378502"><ele>387.4</ele><time>2026-04-03T21:04:26.728Z</time></trkpt><trkpt lat="45.4316449" lon="11.5377456"><ele>384.8</ele><time>2026-04-03T21:04:27.729Z</time></trkpt><trkpt lat="45.4317071" lon="11.5376655"><ele>382.20000000000005</ele><time>2026-04-03T21:04:28.724Z</time></trkpt><trkpt lat="45.4317819" lon="11.5376074"><ele>379.6</ele><time>2026-04-03T21:04:29.726Z</time></trkpt><trkpt lat="45.4318544" lon="11.5375409"><ele>377.0</ele><time>2026-04-03T21:04:30.721Z</time></trkpt><trkpt lat="45.4319821" lon="11.5373933"><ele>377.0</ele><time>2026-04-03T21:04:32.729Z</time></trkpt><trkpt lat="45.4320179" lon="11.5372868"><ele>377.0</ele><time>2026-04-03T21:04:33.72Z</time></trkpt><trkpt lat="45.4320389" lon="11.5371623"><ele>377.0</ele><time>2026-04-03T21:04:34.729Z</time></trkpt><trkpt lat="45.4320589" lon="11.5370349"><ele>377.0</ele><time>2026-04-03T21:04:35.712Z</time></trkpt><trkpt lat="45.4320832" lon="11.5368994"><ele>377.0</ele><time>2026-04-03T21:04:36.725Z</time></trkpt><trkpt lat="45.4321089" lon="11.536774"><ele>375.6666666666667</ele><time>2026-04-03T21:04:37.724Z</time></trkpt><trkpt lat="45.4321397" lon="11.5366611"><ele>374.33333333333337</ele><time>2026-04-03T21:04:38.725Z</time></trkpt><trkpt lat="45.4321799" lon="11.5365625"><ele>373.0</ele><time>2026-04-03T21:04:39.72Z</time></trkpt><trkpt lat="45.4322342" lon="11.5364782"><ele>371.6666666666667</ele><time>2026-04-03T21:04:40.725Z</time></trkpt><trkpt lat="45.4323085" lon="11.5363941"><ele>370.3333333333333</ele><time>2026-04-03T21:04:41.719Z</time></trkpt><trkpt lat="45.4323902" lon="11.5363141"><ele>369.0</ele><time>2026-04-03T21:04:42.719Z</time></trkpt><trkpt lat="45.4324781" lon="11.5362438"><ele>370.0</ele><time>2026-04-03T21:04:43.715Z</time></trkpt><trkpt lat="45.4325619" lon="11.5361901"><ele>371.0</ele><time>2026-04-03T21:04:44.715Z</time></trkpt><trkpt lat="45.4326383" lon="11.536152"><ele>372.0</ele><time>2026-04-03T21:04:45.72Z</time></trkpt><trkpt lat="45.4327047" lon="11.536126"><ele>373.0</ele><time>2026-04-03T21:04:46.71Z</time></trkpt><trkpt lat="45.4327709" lon="11.5361162"><ele>374.0</ele><time>2026-04-03T21:04:47.722Z</time></trkpt><trkpt lat="45.432835" lon="11.5361152"><ele>375.0</ele><time>2026-04-03T21:04:48.714Z</time></trkpt><trkpt lat="45.4329081" lon="11.5361111"><ele>376.0</ele><time>2026-04-03T21:04:49.714Z</time></trkpt><trkpt lat="45.4329852" lon="11.5361023"><ele>377.6</ele><time>2026-04-03T21:04:50.712Z</time></trkpt><trkpt lat="45.4330686" lon="11.5360829"><ele>379.20000000000005</ele><time>2026-04-03T21:04:51.721Z</time></trkpt><trkpt lat="45.4332425" lon="11.5360302"><ele>380.79999999999995</ele><time>2026-04-03T21:04:53.722Z</time></trkpt><trkpt lat="45.4333263" lon="11.5360035"><ele>382.4</ele><time>2026-04-03T21:04:54.717Z</time></trkpt><trkpt lat="45.4334219" lon="11.5359813"><ele>384.0</ele><time>2026-04-03T21:04:55.714Z</time></trkpt><trkpt lat="45.4335215" lon="11.5359553"><ele>384.0</ele><time>2026-04-03T21:04:56.719Z</time></trkpt><trkpt lat="45.4336042" lon="11.5359246"><ele>384.0</ele><time>2026-04-03T21:04:57.713Z</time></trkpt><trkpt lat="45.4336824" lon="11.5359061"><ele>384.0</ele><time>2026-04-03T21:04:58.717Z</time></trkpt><trkpt lat="45.4337645" lon="11.5359028"><ele>384.0</ele><time>2026-04-03T21:04:59.722Z</time></trkpt><trkpt lat="45.4338548" lon="11.5359147"><ele>384.0</ele><time>2026-04-03T21:05:00.705Z</time></trkpt><trkpt lat="45.4339423" lon="11.535918"><ele>384.0</ele><time>2026-04-03T21:05:01.724Z</time></trkpt><trkpt lat="45.4340183" lon="11.5358726"><ele>384.1666666666667</ele><time>2026-04-03T21:05:02.721Z</time></trkpt><trkpt lat="45.434085" lon="11.5357908"><ele>384.33333333333337</ele><time>2026-04-03T21:05:03.711Z</time></trkpt><trkpt lat="45.4341513" lon="11.5357038"><ele>384.5</ele><time>2026-04-03T21:05:04.711Z</time></trkpt><trkpt lat="45.4342113" lon="11.5356031"><ele>384.6666666666667</ele><time>2026-04-03T21:05:05.716Z</time></trkpt><trkpt lat="45.4342613" lon="11.5355115"><ele>384.83333333333337</ele><time>2026-04-03T21:05:06.713Z</time></trkpt><trkpt lat="45.434291" lon="11.5354231"><ele>385.0</ele><time>2026-04-03T21:05:07.726Z</time></trkpt><trkpt lat="45.4342891" lon="11.5352313"><ele>385.0</ele><time>2026-04-03T21:05:09.717Z</time></trkpt><trkpt lat="45.4342775" lon="11.5351242"><ele>385.0</ele><time>2026-04-03T21:05:10.721Z</time></trkpt><trkpt lat="45.4342609" lon="11.5350126"><ele>385.0</ele><time>2026-04-03T21:05:11.718Z</time></trkpt><trkpt lat="45.4342501" lon="11.5348954"><ele>385.0</ele><time>2026-04-03T21:05:12.719Z</time></trkpt><trkpt lat="45.4342459" lon="11.5346666"><ele>385.0</ele><time>2026-04-03T21:05:14.721Z</time></trkpt><trkpt lat="45.43424" lon="11.5345592"><ele>386.1666666666667</ele><time>2026-04-03T21:05:15.722Z</time></trkpt><trkpt lat="45.4342255" lon="11.5344614"><ele>387.33333333333337</ele><time>2026-04-03T21:05:16.735Z</time></trkpt><trkpt lat="45.4341257" lon="11.5343379"><ele>388.5</ele><time>2026-04-03T21:05:18.721Z</time></trkpt><trkpt lat="45.4340518" lon="11.5343073"><ele>389.66666666666663</ele><time>2026-04-03T21:05:19.726Z</time></trkpt><trkpt lat="45.4339677" lon="11.534296"><ele>390.8333333333333</ele><time>2026-04-03T21:05:20.719Z</time></trkpt><trkpt lat="45.4338834" lon="11.5342852"><ele>392.0</ele><time>2026-04-03T21:05:21.726Z</time></trkpt><trkpt lat="45.4338087" lon="11.5342704"><ele>390.0</ele><time>2026-04-03T21:05:22.738Z</time></trkpt><trkpt lat="45.43371" lon="11.5342677"><ele>388.0</ele><time>2026-04-03T21:05:24.736Z</time></trkpt><trkpt lat="45.4336647" lon="11.53437"><ele>386.0</ele><time>2026-04-03T21:05:26.724Z</time></trkpt><trkpt lat="45.4335963" lon="11.5344316"><ele>384.0</ele><time>2026-04-03T21:05:52.747Z</time></trkpt><trkpt lat="45.4334134" lon="11.53441"><ele>382.0</ele><time>2026-04-03T21:05:55.717Z</time></trkpt><trkpt lat="45.4333223" lon="11.5343725"><ele>382.0</ele><time>2026-04-03T21:05:56.739Z</time></trkpt><trkpt lat="45.4332331" lon="11.5343162"><ele>382.0</ele><time>2026-04-03T21:05:57.733Z</time></trkpt><trkpt lat="45.4331523" lon="11.5342504"><ele>382.0</ele><time>2026-04-03T21:05:58.74Z</time></trkpt><trkpt lat="45.4330743" lon="11.5342005"><ele>382.0</ele><time>2026-04-03T21:05:59.73Z</time></trkpt><trkpt lat="45.432992" lon="11.5341474"><ele>382.0</ele><time>2026-04-03T21:06:00.737Z</time></trkpt><trkpt lat="45.4329095" lon="11.5340738"><ele>381.0</ele><time>2026-04-03T21:06:01.733Z</time></trkpt><trkpt lat="45.4328254" lon="11.533977"><ele>380.0</ele><time>2026-04-03T21:06:02.734Z</time></trkpt><trkpt lat="45.4327454" lon="11.5338402"><ele>379.0</ele><time>2026-04-03T21:06:03.731Z</time></trkpt><trkpt lat="45.4326805" lon="11.5337016"><ele>378.0</ele><time>2026-04-03T21:06:04.754Z</time></trkpt><trkpt lat="45.4326355" lon="11.5335992"><ele>377.0</ele><time>2026-04-03T21:06:05.731Z</time></trkpt><trkpt lat="45.4325741" lon="11.533498"><ele>377.0</ele><time>2026-04-03T21:06:07.72Z</time></trkpt><trkpt lat="45.4325125" lon="11.5334137"><ele>377.0</ele><time>2026-04-03T21:06:09.73Z</time></trkpt><trkpt lat="45.432471" lon="11.5333456"><ele>377.0</ele><time>2026-04-03T21:06:10.723Z</time></trkpt><trkpt lat="45.4324233" lon="11.5332694"><ele>377.0</ele><time>2026-04-03T21:06:11.724Z</time></trkpt><trkpt lat="45.4323712" lon="11.533198"><ele>377.0</ele><time>2026-04-03T21:06:12.726Z</time></trkpt><trkpt lat="45.4323185" lon="11.5331393"><ele>377.0</ele><time>2026-04-03T21:06:13.727Z</time></trkpt><trkpt lat="45.43214" lon="11.5329786"><ele>377.0</ele><time>2026-04-03T21:06:17.723Z</time></trkpt><trkpt lat="45.4320775" lon="11.5329137"><ele>377.0</ele><time>2026-04-03T21:06:18.731Z</time></trkpt><trkpt lat="45.4320147" lon="11.5328524"><ele>377.0</ele><time>2026-04-03T21:06:19.728Z</time></trkpt><trkpt lat="45.4319526" lon="11.532811"><ele>377.0</ele><time>2026-04-03T21:06:20.739Z</time></trkpt><trkpt lat="45.4318765" lon="11.5327859"><ele>377.0</ele><time>2026-04-03T21:06:21.725Z</time></trkpt><trkpt lat="45.4317787" lon="11.5327601"><ele>377.0</ele><time>2026-04-03T21:06:22.73Z</time></trkpt><trkpt lat="45.4316597" lon="11.5327184"><ele>377.0</ele><time>2026-04-03T21:06:23.735Z</time></trkpt><trkpt lat="45.4315325" lon="11.5326505"><ele>377.0</ele><time>2026-04-03T21:06:24.717Z</time></trkpt><trkpt lat="45.4314204" lon="11.5325609"><ele>377.0</ele><time>2026-04-03T21:06:25.723Z</time></trkpt><trkpt lat="45.4313356" lon="11.5324722"><ele>377.0</ele><time>2026-04-03T21:06:26.723Z</time></trkpt><trkpt lat="45.4312796" lon="11.5324171"><ele>377.0</ele><time>2026-04-03T21:06:27.725Z</time></trkpt><trkpt lat="45.4312111" lon="11.5324575"><ele>376.20000000000005</ele><time>2026-04-03T21:06:29.719Z</time></trkpt><trkpt lat="45.4311481" lon="11.5325167"><ele>375.4</ele><time>2026-04-03T21:06:30.72Z</time></trkpt><trkpt lat="45.4310636" lon="11.5325836"><ele>374.6</ele><time>2026-04-03T21:06:31.723Z</time></trkpt><trkpt lat="45.4309747" lon="11.5326481"><ele>373.79999999999995</ele><time>2026-04-03T21:06:32.717Z</time></trkpt><trkpt lat="45.4308884" lon="11.5327113"><ele>373.0</ele><time>2026-04-03T21:06:33.72Z</time></trkpt><trkpt lat="45.4308035" lon="11.5327669"><ele>373.0</ele><time>2026-04-03T21:06:34.723Z</time></trkpt><trkpt lat="45.4306281" lon="11.5328853"><ele>373.0</ele><time>2026-04-03T21:06:36.717Z</time></trkpt><trkpt lat="45.4305324" lon="11.5329474"><ele>373.0</ele><time>2026-04-03T21:06:37.713Z</time></trkpt><trkpt lat="45.430434" lon="11.5330224"><ele>373.0</ele><time>2026-04-03T21:06:38.717Z</time></trkpt><trkpt lat="45.430329" lon="11.5330908"><ele>372.4</ele><time>2026-04-03T21:06:39.722Z</time></trkpt><trkpt lat="45.4302295" lon="11.5331498"><ele>371.79999999999995</ele><time>2026-04-03T21:06:40.717Z</time></trkpt><trkpt lat="45.4301324" lon="11.53321"><ele>371.2</ele><time>2026-04-03T21:06:41.711Z</time></trkpt><trkpt lat="45.4300412" lon="11.5332766"><ele>370.6</ele><time>2026-04-03T21:06:42.714Z</time></trkpt><trkpt lat="45.4299582" lon="11.5333492"><ele>370.0</ele><time>2026-04-03T21:06:43.717Z</time></trkpt><trkpt lat="45.4298778" lon="11.5334184"><ele>370.0</ele><time>2026-04-03T21:06:44.716Z</time></trkpt><trkpt lat="45.4297966" lon="11.5334549"><ele>370.0</ele><time>2026-04-03T21:06:45.721Z</time></trkpt><trkpt lat="45.4297123" lon="11.5334448"><ele>370.0</ele><time>2026-04-03T21:06:46.718Z</time></trkpt><trkpt lat="45.4296145" lon="11.5333891"><ele>370.0</ele><time>2026-04-03T21:06:47.726Z</time></trkpt><trkpt lat="45.4295208" lon="11.5333435"><ele>370.0</ele><time>2026-04-03T21:06:48.719Z</time></trkpt><trkpt lat="45.4294252" lon="11.5333238"><ele>370.6</ele><time>2026-04-03T21:06:49.725Z</time></trkpt><trkpt lat="45.4293312" lon="11.5333462"><ele>371.2</ele><time>2026-04-03T21:06:50.714Z</time></trkpt><trkpt lat="45.4292315" lon="11.5333927"><ele>371.79999999999995</ele><time>2026-04-03T21:06:51.719Z</time></trkpt><trkpt lat="45.4291347" lon="11.5334516"><ele>372.4</ele><time>2026-04-03T21:06:52.728Z</time></trkpt><trkpt lat="45.4290397" lon="11.5335127"><ele>373.0</ele><time>2026-04-03T21:06:53.724Z</time></trkpt><trkpt lat="45.4289463" lon="11.5335714"><ele>373.0</ele><time>2026-04-03T21:06:54.719Z</time></trkpt><trkpt lat="45.4288631" lon="11.5336164"><ele>373.0</ele><time>2026-04-03T21:06:55.729Z</time></trkpt><trkpt lat="45.4287345" lon="11.533729"><ele>373.0</ele><time>2026-04-03T21:06:57.72Z</time></trkpt><trkpt lat="45.4286797" lon="11.5337878"><ele>373.0</ele><time>2026-04-03T21:06:58.717Z</time></trkpt><trkpt lat="45.4286342" lon="11.5338531"><ele>373.0</ele><time>2026-04-03T21:06:59.713Z</time></trkpt><trkpt lat="45.4285989" lon="11.5339345"><ele>373.0</ele><time>2026-04-03T21:07:00.712Z</time></trkpt><trkpt lat="45.4285693" lon="11.5340147"><ele>373.2</ele><time>2026-04-03T21:07:01.721Z</time></trkpt><trkpt lat="45.4285109" lon="11.5341637"><ele>373.4</ele><time>2026-04-03T21:07:03.727Z</time></trkpt><trkpt lat="45.4284683" lon="11.5343239"><ele>373.59999999999997</ele><time>2026-04-03T21:07:05.729Z</time></trkpt><trkpt lat="45.4284429" lon="11.5344193"><ele>373.79999999999995</ele><time>2026-04-03T21:07:06.725Z</time></trkpt><trkpt lat="45.4284073" lon="11.5345177"><ele>374.0</ele><time>2026-04-03T21:07:07.726Z</time></trkpt><trkpt lat="45.4283736" lon="11.5346061"><ele>373.33333333333337</ele><time>2026-04-03T21:07:08.722Z</time></trkpt><trkpt lat="45.4283408" lon="11.5346906"><ele>372.6666666666667</ele><time>2026-04-03T21:07:09.723Z</time></trkpt><trkpt lat="45.4282973" lon="11.5347665"><ele>372.0</ele><time>2026-04-03T21:07:10.732Z</time></trkpt><trkpt lat="45.4282471" lon="11.5348291"><ele>371.3333333333333</ele><time>2026-04-03T21:07:11.73Z</time></trkpt><trkpt lat="45.4281353" lon="11.5348558"><ele>370.66666666666663</ele><time>2026-04-03T21:07:13.732Z</time></trkpt><trkpt lat="45.4280534" lon="11.5348298"><ele>370.0</ele><time>2026-04-03T21:07:14.723Z</time></trkpt><trkpt lat="45.4279658" lon="11.5348085"><ele>370.0</ele><time>2026-04-03T21:07:15.721Z</time></trkpt><trkpt lat="45.4278835" lon="11.5347979"><ele>370.0</ele><time>2026-04-03T21:07:16.718Z</time></trkpt><trkpt lat="45.4277196" lon="11.5348223"><ele>370.0</ele><time>2026-04-03T21:07:18.728Z</time></trkpt><trkpt lat="45.4276434" lon="11.5348503"><ele>370.0</ele><time>2026-04-03T21:07:19.723Z</time></trkpt><trkpt lat="45.4275697" lon="11.5349001"><ele>370.0</ele><time>2026-04-03T21:07:20.724Z</time></trkpt><trkpt lat="45.427499" lon="11.5349564"><ele>370.0</ele><time>2026-04-03T21:07:21.721Z</time></trkpt><trkpt lat="45.4274362" lon="11.5350136"><ele>370.0</ele><time>2026-04-03T21:07:22.729Z</time></trkpt><trkpt lat="45.4273828" lon="11.535075"><ele>370.0</ele><time>2026-04-03T21:07:23.724Z</time></trkpt><trkpt lat="45.4273084" lon="11.5351755"><ele>370.0</ele><time>2026-04-03T21:07:25.73Z</time></trkpt><trkpt lat="45.427295" lon="11.5353258"><ele>370.0</ele><time>2026-04-03T21:07:27.732Z</time></trkpt><trkpt lat="45.4273063" lon="11.5354718"><ele>368.25</ele><time>2026-04-03T21:07:28.729Z</time></trkpt><trkpt lat="45.4273068" lon="11.5356621"><ele>366.5</ele><time>2026-04-03T21:07:29.729Z</time></trkpt><trkpt lat="45.4272873" lon="11.5358461"><ele>364.75</ele><time>2026-04-03T21:07:30.726Z</time></trkpt><trkpt lat="45.4272596" lon="11.5360139"><ele>363.0</ele><time>2026-04-03T21:07:31.73Z</time></trkpt><trkpt lat="45.427234" lon="11.5361735"><ele>365.59999999999997</ele><time>2026-04-03T21:07:32.728Z</time></trkpt><trkpt lat="45.4272162" lon="11.5363289"><ele>368.2</ele><time>2026-04-03T21:07:33.725Z</time></trkpt><trkpt lat="45.4272008" lon="11.536475"><ele>370.8</ele><time>2026-04-03T21:07:34.729Z</time></trkpt><trkpt lat="45.4271852" lon="11.5366068"><ele>373.4</ele><time>2026-04-03T21:07:35.722Z</time></trkpt><trkpt lat="45.4271701" lon="11.5367325"><ele>376.0</ele><time>2026-04-03T21:07:36.727Z</time></trkpt><trkpt lat="45.4271599" lon="11.5368521"><ele>378.0</ele><time>2026-04-03T21:07:37.717Z</time></trkpt><trkpt lat="45.4271586" lon="11.537081"><ele>380.0</ele><time>2026-04-03T21:07:39.718Z</time></trkpt><trkpt lat="45.4271655" lon="11.5371935"><ele>382.0</ele><time>2026-04-03T21:07:40.722Z</time></trkpt><trkpt lat="45.427173" lon="11.5372971"><ele>384.0</ele><time>2026-04-03T21:07:41.722Z</time></trkpt><trkpt lat="45.4271817" lon="11.5373942"><ele>386.0</ele><time>2026-04-03T21:07:42.718Z</time></trkpt><trkpt lat="45.4272132" lon="11.5375312"><ele>386.0</ele><time>2026-04-03T21:07:44.714Z</time></trkpt><trkpt lat="45.4272746" lon="11.5376308"><ele>386.0</ele><time>2026-04-03T21:07:46.717Z</time></trkpt><trkpt lat="45.4273424" lon="11.537706"><ele>386.0</ele><time>2026-04-03T21:07:48.725Z</time></trkpt><trkpt lat="45.4273309" lon="11.5375997"><ele>386.0</ele><time>2026-04-03T21:08:02.718Z</time></trkpt><trkpt lat="45.4272604" lon="11.5374182"><ele>386.0</ele><time>2026-04-03T21:08:04.717Z</time></trkpt><trkpt lat="45.4272345" lon="11.5372968"><ele>385.99999999999994</ele><time>2026-04-03T21:08:05.712Z</time></trkpt><trkpt lat="45.4272219" lon="11.5371716"><ele>386.0</ele><time>2026-04-03T21:08:06.714Z</time></trkpt><trkpt lat="45.427218" lon="11.5370543"><ele>386.0</ele><time>2026-04-03T21:08:07.719Z</time></trkpt><trkpt lat="45.4272166" lon="11.5369481"><ele>386.0</ele><time>2026-04-03T21:08:08.721Z</time></trkpt><trkpt lat="45.4272214" lon="11.5368497"><ele>385.99999999999994</ele><time>2026-04-03T21:08:09.72Z</time></trkpt><trkpt lat="45.4272364" lon="11.5366864"><ele>386.0</ele><time>2026-04-03T21:08:11.72Z</time></trkpt><trkpt lat="45.427245" lon="11.5365532"><ele>384.3333333333333</ele><time>2026-04-03T21:08:13.719Z</time></trkpt><trkpt lat="45.4272431" lon="11.5363951"><ele>382.66666666666663</ele><time>2026-04-03T21:08:15.719Z</time></trkpt><trkpt lat="45.4272408" lon="11.5363033"><ele>381.0</ele><time>2026-04-03T21:08:16.72Z</time></trkpt><trkpt lat="45.4272375" lon="11.5362053"><ele>379.3333333333333</ele><time>2026-04-03T21:08:17.719Z</time></trkpt><trkpt lat="45.427237" lon="11.536101"><ele>377.66666666666663</ele><time>2026-04-03T21:08:18.723Z</time></trkpt><trkpt lat="45.4272409" lon="11.5359865"><ele>376.0</ele><time>2026-04-03T21:08:19.722Z</time></trkpt><trkpt lat="45.4272444" lon="11.5358634"><ele>374.5</ele><time>2026-04-03T21:08:20.723Z</time></trkpt><trkpt lat="45.4272579" lon="11.5357325"><ele>373.0</ele><time>2026-04-03T21:08:21.718Z</time></trkpt><trkpt lat="45.4272781" lon="11.5355991"><ele>371.5</ele><time>2026-04-03T21:08:22.719Z</time></trkpt><trkpt lat="45.4273015" lon="11.5354634"><ele>370.0</ele><time>2026-04-03T21:08:23.723Z</time></trkpt><trkpt lat="45.4273344" lon="11.5352241"><ele>370.0</ele><time>2026-04-03T21:08:25.722Z</time></trkpt><trkpt lat="45.4273601" lon="11.5350988"><ele>370.0</ele><time>2026-04-03T21:08:27.734Z</time></trkpt><trkpt lat="45.427434" lon="11.5350457"><ele>370.0</ele><time>2026-04-03T21:08:30.725Z</time></trkpt><trkpt lat="45.4275315" lon="11.5349645"><ele>370.0</ele><time>2026-04-03T21:08:32.734Z</time></trkpt><trkpt lat="45.4275922" lon="11.5349148"><ele>370.0</ele><time>2026-04-03T21:08:33.723Z</time></trkpt><trkpt lat="45.4276549" lon="11.5348747"><ele>370.0</ele><time>2026-04-03T21:08:34.72Z</time></trkpt><trkpt lat="45.4277178" lon="11.5348508"><ele>370.0</ele><time>2026-04-03T21:08:35.719Z</time></trkpt><trkpt lat="45.4277852" lon="11.534838"><ele>370.0</ele><time>2026-04-03T21:08:36.722Z</time></trkpt><trkpt lat="45.4278538" lon="11.534826"><ele>370.0</ele><time>2026-04-03T21:08:37.717Z</time></trkpt><trkpt lat="45.4279189" lon="11.5348131"><ele>370.0</ele><time>2026-04-03T21:08:38.722Z</time></trkpt><trkpt lat="45.4280382" lon="11.5347921"><ele>370.0</ele><time>2026-04-03T21:08:40.724Z</time></trkpt><trkpt lat="45.4281347" lon="11.5348129"><ele>370.0</ele><time>2026-04-03T21:08:42.728Z</time></trkpt><trkpt lat="45.4282056" lon="11.5348497"><ele>370.0</ele><time>2026-04-03T21:08:44.728Z</time></trkpt><trkpt lat="45.4279414" lon="11.5348492"><ele>370.0</ele><time>2026-04-03T21:09:42.722Z</time></trkpt><trkpt lat="45.4278716" lon="11.5348568"><ele>370.0</ele><time>2026-04-03T21:09:43.722Z</time></trkpt><trkpt lat="45.4277964" lon="11.5348723"><ele>370.0</ele><time>2026-04-03T21:09:44.721Z</time></trkpt><trkpt lat="45.427718" lon="11.5348887"><ele>370.0</ele><time>2026-04-03T21:09:45.726Z</time></trkpt><trkpt lat="45.4276411" lon="11.5349253"><ele>370.0</ele><time>2026-04-03T21:09:46.721Z</time></trkpt><trkpt lat="45.4275658" lon="11.5349656"><ele>370.0</ele><time>2026-04-03T21:09:47.721Z</time></trkpt><trkpt lat="45.427495" lon="11.5350108"><ele>370.0</ele><time>2026-04-03T21:09:48.723Z</time></trkpt><trkpt lat="45.4274305" lon="11.5350644"><ele>370.0</ele><time>2026-04-03T21:09:49.729Z</time></trkpt><trkpt lat="45.4273685" lon="11.5351237"><ele>370.0</ele><time>2026-04-03T21:09:50.719Z</time></trkpt><trkpt lat="45.4272985" lon="11.5352317"><ele>367.66666666666663</ele><time>2026-04-03T21:09:52.731Z</time></trkpt><trkpt lat="45.4272891" lon="11.5354356"><ele>365.3333333333333</ele><time>2026-04-03T21:09:54.738Z</time></trkpt><trkpt lat="45.427284" lon="11.5356369"><ele>363.0</ele><time>2026-04-03T21:09:55.738Z</time></trkpt><trkpt lat="45.4272549" lon="11.5358709"><ele>363.0</ele><time>2026-04-03T21:09:56.729Z</time></trkpt><trkpt lat="45.4272208" lon="11.5360838"><ele>363.0</ele><time>2026-04-03T21:09:57.734Z</time></trkpt><trkpt lat="45.4272044" lon="11.5362496"><ele>363.0</ele><time>2026-04-03T21:09:58.724Z</time></trkpt><trkpt lat="45.427197" lon="11.536394"><ele>363.0</ele><time>2026-04-03T21:09:59.721Z</time></trkpt><trkpt lat="45.4271836" lon="11.5365093"><ele>366.25</ele><time>2026-04-03T21:10:00.717Z</time></trkpt><trkpt lat="45.4271833" lon="11.5366199"><ele>369.5</ele><time>2026-04-03T21:10:01.715Z</time></trkpt><trkpt lat="45.4271785" lon="11.5368817"><ele>372.75</ele><time>2026-04-03T21:10:03.721Z</time></trkpt><trkpt lat="45.4271838" lon="11.5370265"><ele>376.0</ele><time>2026-04-03T21:10:04.715Z</time></trkpt><trkpt lat="45.4271874" lon="11.5371819"><ele>378.0</ele><time>2026-04-03T21:10:05.72Z</time></trkpt><trkpt lat="45.4271953" lon="11.5373444"><ele>380.0</ele><time>2026-04-03T21:10:06.718Z</time></trkpt><trkpt lat="45.427209" lon="11.5375055"><ele>382.0</ele><time>2026-04-03T21:10:07.718Z</time></trkpt><trkpt lat="45.4272318" lon="11.5376373"><ele>384.0</ele><time>2026-04-03T21:10:08.709Z</time></trkpt><trkpt lat="45.4272838" lon="11.5377404"><ele>386.0</ele><time>2026-04-03T21:10:10.718Z</time></trkpt><trkpt lat="45.427397" lon="11.5376647"><ele>385.99999999999994</ele><time>2026-04-03T21:10:12.71Z</time></trkpt><trkpt lat="45.427467" lon="11.5375939"><ele>386.0</ele><time>2026-04-03T21:10:13.709Z</time></trkpt><trkpt lat="45.4275252" lon="11.5375027"><ele>386.0</ele><time>2026-04-03T21:10:14.713Z</time></trkpt><trkpt lat="45.4275741" lon="11.5374157"><ele>386.0</ele><time>2026-04-03T21:10:15.718Z</time></trkpt><trkpt lat="45.4276749" lon="11.5374518"><ele>385.99999999999994</ele><time>2026-04-03T21:10:17.721Z</time></trkpt><trkpt lat="45.4277437" lon="11.537528"><ele>386.0</ele><time>2026-04-03T21:10:18.722Z</time></trkpt><trkpt lat="45.4278252" lon="11.5376029"><ele>386.0</ele><time>2026-04-03T21:10:20.721Z</time></trkpt><trkpt lat="45.4278844" lon="11.5376792"><ele>386.0</ele><time>2026-04-03T21:10:22.727Z</time></trkpt><trkpt lat="45.4278598" lon="11.5378699"><ele>386.0</ele><time>2026-04-03T21:10:27.727Z</time></trkpt><trkpt lat="45.4278322" lon="11.5380757"><ele>386.0</ele><time>2026-04-03T21:10:29.716Z</time></trkpt><trkpt lat="45.4278079" lon="11.5382254"><ele>388.8</ele><time>2026-04-03T21:10:30.725Z</time></trkpt><trkpt lat="45.4277776" lon="11.5383739"><ele>391.6</ele><time>2026-04-03T21:10:31.72Z</time></trkpt><trkpt lat="45.4277515" lon="11.5385242"><ele>394.4</ele><time>2026-04-03T21:10:32.718Z</time></trkpt><trkpt lat="45.427723" lon="11.5386679"><ele>397.2</ele><time>2026-04-03T21:10:33.713Z</time></trkpt><trkpt lat="45.4276729" lon="11.5388038"><ele>400.0</ele><time>2026-04-03T21:10:34.719Z</time></trkpt><trkpt lat="45.4276141" lon="11.5389129"><ele>401.50000000000006</ele><time>2026-04-03T21:10:35.721Z</time></trkpt><trkpt lat="45.4275436" lon="11.5389686"><ele>403.0</ele><time>2026-04-03T21:10:36.725Z</time></trkpt><trkpt lat="45.4274525" lon="11.5389721"><ele>404.5</ele><time>2026-04-03T21:10:37.718Z</time></trkpt><trkpt lat="45.4273932" lon="11.5390783"><ele>406.0</ele><time>2026-04-03T21:10:39.73Z</time></trkpt><trkpt lat="45.427406" lon="11.5391789"><ele>407.50000000000006</ele><time>2026-04-03T21:10:40.733Z</time></trkpt><trkpt lat="45.4273729" lon="11.5393132"><ele>409.0</ele><time>2026-04-03T21:10:42.737Z</time></trkpt><trkpt lat="45.4273075" lon="11.5393325"><ele>407.75</ele><time>2026-04-03T21:11:10.747Z</time></trkpt><trkpt lat="45.4270637" lon="11.5394344"><ele>406.5</ele><time>2026-04-03T21:11:14.717Z</time></trkpt><trkpt lat="45.4269934" lon="11.5394956"><ele>405.25</ele><time>2026-04-03T21:11:15.721Z</time></trkpt><trkpt lat="45.426932" lon="11.5395431"><ele>404.0</ele><time>2026-04-03T21:11:16.725Z</time></trkpt><trkpt lat="45.4268755" lon="11.5396312"><ele>403.49999999999994</ele><time>2026-04-03T21:11:17.721Z</time></trkpt><trkpt lat="45.4268513" lon="11.5397847"><ele>403.0</ele><time>2026-04-03T21:11:19.728Z</time></trkpt><trkpt lat="45.426873" lon="11.539908"><ele>402.5</ele><time>2026-04-03T21:11:20.728Z</time></trkpt><trkpt lat="45.4269059" lon="11.5400214"><ele>402.0</ele><time>2026-04-03T21:11:21.724Z</time></trkpt><trkpt lat="45.4269141" lon="11.5401313"><ele>401.49999999999994</ele><time>2026-04-03T21:11:22.726Z</time></trkpt><trkpt lat="45.4269007" lon="11.5402338"><ele>401.0</ele><time>2026-04-03T21:11:23.727Z</time></trkpt><trkpt lat="45.4268483" lon="11.5403887"><ele>400.99999999999994</ele><time>2026-04-03T21:11:25.732Z</time></trkpt><trkpt lat="45.4267412" lon="11.540402"><ele>401.0</ele><time>2026-04-03T21:11:27.734Z</time></trkpt><trkpt lat="45.4266746" lon="11.5404013"><ele>401.0</ele><time>2026-04-03T21:11:28.726Z</time></trkpt><trkpt lat="45.426608" lon="11.5404065"><ele>401.0</ele><time>2026-04-03T21:11:29.711Z</time></trkpt><trkpt lat="45.4265182" lon="11.5404237"><ele>400.99999999999994</ele><time>2026-04-03T21:11:30.717Z</time></trkpt><trkpt lat="45.4264287" lon="11.5404642"><ele>401.0</ele><time>2026-04-03T21:11:31.716Z</time></trkpt><trkpt lat="45.4262575" lon="11.5406278"><ele>401.0</ele><time>2026-04-03T21:11:33.714Z</time></trkpt><trkpt lat="45.4261654" lon="11.5407271"><ele>401.0</ele><time>2026-04-03T21:11:34.719Z</time></trkpt><trkpt lat="45.4260751" lon="11.5408236"><ele>401.0</ele><time>2026-04-03T21:11:35.712Z</time></trkpt><trkpt lat="45.4259833" lon="11.5409218"><ele>401.0</ele><time>2026-04-03T21:11:36.723Z</time></trkpt><trkpt lat="45.4258913" lon="11.5409976"><ele>401.0</ele><time>2026-04-03T21:11:37.721Z</time></trkpt><trkpt lat="45.4258016" lon="11.5410432"><ele>400.99999999999994</ele><time>2026-04-03T21:11:38.723Z</time></trkpt><trkpt lat="45.425715" lon="11.5410668"><ele>401.0</ele><time>2026-04-03T21:11:39.713Z</time></trkpt><trkpt lat="45.4256349" lon="11.5410972"><ele>401.0</ele><time>2026-04-03T21:11:40.722Z</time></trkpt><trkpt lat="45.425561" lon="11.5411056"><ele>401.0</ele><time>2026-04-03T21:11:41.723Z</time></trkpt><trkpt lat="45.42549" lon="11.5410897"><ele>400.99999999999994</ele><time>2026-04-03T21:11:42.721Z</time></trkpt><trkpt lat="45.425412" lon="11.5410597"><ele>401.0</ele><time>2026-04-03T21:11:43.717Z</time></trkpt><trkpt lat="45.4253252" lon="11.541017"><ele>398.20000000000005</ele><time>2026-04-03T21:11:44.711Z</time></trkpt><trkpt lat="45.4252388" lon="11.5409676"><ele>395.40000000000003</ele><time>2026-04-03T21:11:45.717Z</time></trkpt><trkpt lat="45.4251749" lon="11.5409272"><ele>392.6</ele><time>2026-04-03T21:11:46.707Z</time></trkpt><trkpt lat="45.4250911" lon="11.540877"><ele>389.8</ele><time>2026-04-03T21:11:48.719Z</time></trkpt><trkpt lat="45.4249966" lon="11.5409723"><ele>387.0</ele><time>2026-04-03T21:11:50.711Z</time></trkpt><trkpt lat="45.4249382" lon="11.5410539"><ele>387.0</ele><time>2026-04-03T21:11:51.715Z</time></trkpt><trkpt lat="45.4248823" lon="11.5411375"><ele>387.0</ele><time>2026-04-03T21:11:52.714Z</time></trkpt><trkpt lat="45.4248122" lon="11.5413409"><ele>387.0</ele><time>2026-04-03T21:11:54.714Z</time></trkpt><trkpt lat="45.4248081" lon="11.5414452"><ele>387.0</ele><time>2026-04-03T21:11:55.713Z</time></trkpt><trkpt lat="45.4248266" lon="11.5415539"><ele>387.0</ele><time>2026-04-03T21:11:56.72Z</time></trkpt><trkpt lat="45.4248592" lon="11.5416562"><ele>387.6666666666667</ele><time>2026-04-03T21:11:57.724Z</time></trkpt><trkpt lat="45.4248978" lon="11.5417473"><ele>388.33333333333337</ele><time>2026-04-03T21:11:58.729Z</time></trkpt><trkpt lat="45.4249426" lon="11.5418193"><ele>389.0</ele><time>2026-04-03T21:11:59.724Z</time></trkpt><trkpt lat="45.4249947" lon="11.5418864"><ele>389.6666666666667</ele><time>2026-04-03T21:12:00.727Z</time></trkpt><trkpt lat="45.4250517" lon="11.541968"><ele>390.33333333333337</ele><time>2026-04-03T21:12:01.733Z</time></trkpt><trkpt lat="45.4251209" lon="11.5420774"><ele>391.0</ele><time>2026-04-03T21:12:02.725Z</time></trkpt><trkpt lat="45.4252039" lon="11.5421945"><ele>391.0</ele><time>2026-04-03T21:12:03.726Z</time></trkpt><trkpt lat="45.4252786" lon="11.5422961"><ele>391.0</ele><time>2026-04-03T21:12:04.717Z</time></trkpt><trkpt lat="45.425361" lon="11.5423852"><ele>391.0</ele><time>2026-04-03T21:12:05.721Z</time></trkpt><trkpt lat="45.4254568" lon="11.5424648"><ele>391.0</ele><time>2026-04-03T21:12:06.721Z</time></trkpt><trkpt lat="45.4255452" lon="11.5425437"><ele>391.0</ele><time>2026-04-03T21:12:07.723Z</time></trkpt><trkpt lat="45.4256307" lon="11.5426239"><ele>391.00000000000006</ele><time>2026-04-03T21:12:08.716Z</time></trkpt><trkpt lat="45.4257145" lon="11.5427066"><ele>391.0</ele><time>2026-04-03T21:12:09.714Z</time></trkpt><trkpt lat="45.4257922" lon="11.5427718"><ele>391.0</ele><time>2026-04-03T21:12:10.716Z</time></trkpt><trkpt lat="45.4258628" lon="11.5428136"><ele>391.0</ele><time>2026-04-03T21:12:11.712Z</time></trkpt><trkpt lat="45.4259392" lon="11.5428356"><ele>391.00000000000006</ele><time>2026-04-03T21:12:12.71Z</time></trkpt><trkpt lat="45.4260106" lon="11.5428679"><ele>391.0</ele><time>2026-04-03T21:12:13.713Z</time></trkpt><trkpt lat="45.4261473" lon="11.542987"><ele>389.57142857142856</ele><time>2026-04-03T21:12:15.722Z</time></trkpt><trkpt lat="45.4262041" lon="11.5430724"><ele>388.1428571428571</ele><time>2026-04-03T21:12:16.712Z</time></trkpt><trkpt lat="45.4262423" lon="11.5431645"><ele>386.71428571428567</ele><time>2026-04-03T21:12:17.704Z</time></trkpt><trkpt lat="45.4262615" lon="11.5432576"><ele>385.2857142857143</ele><time>2026-04-03T21:12:18.715Z</time></trkpt><trkpt lat="45.4262623" lon="11.5433582"><ele>383.8571428571429</ele><time>2026-04-03T21:12:19.715Z</time></trkpt><trkpt lat="45.4262487" lon="11.5434623"><ele>382.4285714285714</ele><time>2026-04-03T21:12:20.717Z</time></trkpt><trkpt lat="45.4262346" lon="11.5435534"><ele>381.0</ele><time>2026-04-03T21:12:21.724Z</time></trkpt><trkpt lat="45.4262329" lon="11.5436883"><ele>381.8</ele><time>2026-04-03T21:12:23.73Z</time></trkpt><trkpt lat="45.4263163" lon="11.5438208"><ele>382.6</ele><time>2026-04-03T21:12:25.725Z</time></trkpt><trkpt lat="45.4263784" lon="11.5438831"><ele>383.4</ele><time>2026-04-03T21:12:26.719Z</time></trkpt><trkpt lat="45.4264418" lon="11.5439463"><ele>384.2</ele><time>2026-04-03T21:12:27.731Z</time></trkpt><trkpt lat="45.4265141" lon="11.5440165"><ele>385.0</ele><time>2026-04-03T21:12:28.723Z</time></trkpt><trkpt lat="45.4265878" lon="11.5440814"><ele>385.0</ele><time>2026-04-03T21:12:29.725Z</time></trkpt><trkpt lat="45.4266435" lon="11.5441391"><ele>385.0</ele><time>2026-04-03T21:12:30.715Z</time></trkpt><trkpt lat="45.426688" lon="11.5442069"><ele>385.0</ele><time>2026-04-03T21:12:31.715Z</time></trkpt><trkpt lat="45.4267471" lon="11.5443358"><ele>385.0</ele><time>2026-04-03T21:12:33.719Z</time></trkpt><trkpt lat="45.4268394" lon="11.5444457"><ele>385.0</ele><time>2026-04-03T21:12:35.716Z</time></trkpt><trkpt lat="45.4269794" lon="11.5446058"><ele>384.50000000000006</ele><time>2026-04-03T21:12:37.719Z</time></trkpt><trkpt lat="45.4270477" lon="11.5446879"><ele>384.0</ele><time>2026-04-03T21:12:38.726Z</time></trkpt><trkpt lat="45.4271163" lon="11.5447677"><ele>383.5</ele><time>2026-04-03T21:12:39.719Z</time></trkpt><trkpt lat="45.4271695" lon="11.5448521"><ele>383.0</ele><time>2026-04-03T21:12:40.719Z</time></trkpt><trkpt lat="45.4272205" lon="11.5449155"><ele>382.5</ele><time>2026-04-03T21:12:41.731Z</time></trkpt><trkpt lat="45.4273014" lon="11.5449068"><ele>382.0</ele><time>2026-04-03T21:12:43.72Z</time></trkpt><trkpt lat="45.4273473" lon="11.544833"><ele>382.0</ele><time>2026-04-03T21:12:44.725Z</time></trkpt><trkpt lat="45.4274082" lon="11.5447053"><ele>382.0</ele><time>2026-04-03T21:12:45.719Z</time></trkpt><trkpt lat="45.4274659" lon="11.5445638"><ele>382.0</ele><time>2026-04-03T21:12:46.719Z</time></trkpt><trkpt lat="45.4275301" lon="11.5444398"><ele>382.0</ele><time>2026-04-03T21:12:47.724Z</time></trkpt><trkpt lat="45.4275992" lon="11.5443404"><ele>382.0</ele><time>2026-04-03T21:12:48.717Z</time></trkpt><trkpt lat="45.4276697" lon="11.5442544"><ele>383.0</ele><time>2026-04-03T21:12:49.725Z</time></trkpt><trkpt lat="45.4277404" lon="11.5441853"><ele>384.0</ele><time>2026-04-03T21:12:50.718Z</time></trkpt><trkpt lat="45.4278114" lon="11.5441258"><ele>385.0</ele><time>2026-04-03T21:12:51.724Z</time></trkpt><trkpt lat="45.4278745" lon="11.5440794"><ele>386.0</ele><time>2026-04-03T21:12:52.714Z</time></trkpt><trkpt lat="45.4279369" lon="11.5440518"><ele>387.00000000000006</ele><time>2026-04-03T21:12:53.732Z</time></trkpt><trkpt lat="45.4280131" lon="11.5441314"><ele>388.0</ele><time>2026-04-03T21:13:11.736Z</time></trkpt><trkpt lat="45.4281909" lon="11.5443194"><ele>385.83333333333337</ele><time>2026-04-03T21:13:15.715Z</time></trkpt><trkpt lat="45.4282624" lon="11.5444464"><ele>383.6666666666667</ele><time>2026-04-03T21:13:17.714Z</time></trkpt><trkpt lat="45.4282853" lon="11.5445357"><ele>381.5</ele><time>2026-04-03T21:13:18.724Z</time></trkpt><trkpt lat="45.4283018" lon="11.5446315"><ele>379.33333333333337</ele><time>2026-04-03T21:13:19.718Z</time></trkpt><trkpt lat="45.4283223" lon="11.544739"><ele>377.1666666666667</ele><time>2026-04-03T21:13:20.715Z</time></trkpt><trkpt lat="45.4283387" lon="11.5448444"><ele>375.0</ele><time>2026-04-03T21:13:21.712Z</time></trkpt><trkpt lat="45.4283562" lon="11.5449606"><ele>375.0</ele><time>2026-04-03T21:13:22.712Z</time></trkpt><trkpt lat="45.4283694" lon="11.5450783"><ele>375.0</ele><time>2026-04-03T21:13:23.72Z</time></trkpt><trkpt lat="45.4283976" lon="11.5451631"><ele>375.0</ele><time>2026-04-03T21:13:24.72Z</time></trkpt><trkpt lat="45.4284544" lon="11.5452308"><ele>375.0</ele><time>2026-04-03T21:13:25.724Z</time></trkpt><trkpt lat="45.4285153" lon="11.5452865"><ele>375.0</ele><time>2026-04-03T21:13:26.718Z</time></trkpt><trkpt lat="45.4285621" lon="11.5454321"><ele>375.0</ele><time>2026-04-03T21:13:28.72Z</time></trkpt><trkpt lat="45.4285688" lon="11.545523"><ele>375.0</ele><time>2026-04-03T21:13:29.726Z</time></trkpt><trkpt lat="45.4285518" lon="11.5456624"><ele>375.0</ele><time>2026-04-03T21:13:30.721Z</time></trkpt><trkpt lat="45.4285173" lon="11.5458245"><ele>375.0</ele><time>2026-04-03T21:13:31.718Z</time></trkpt><trkpt lat="45.4284804" lon="11.545999"><ele>375.0</ele><time>2026-04-03T21:13:32.716Z</time></trkpt><trkpt lat="45.428425" lon="11.5463291"><ele>373.4</ele><time>2026-04-03T21:13:34.714Z</time></trkpt><trkpt lat="45.4284098" lon="11.5464467"><ele>371.8</ele><time>2026-04-03T21:13:35.714Z</time></trkpt><trkpt lat="45.428398" lon="11.5465449"><ele>370.20000000000005</ele><time>2026-04-03T21:13:36.719Z</time></trkpt><trkpt lat="45.4284255" lon="11.5466954"><ele>368.6</ele><time>2026-04-03T21:13:38.724Z</time></trkpt><trkpt lat="45.4285096" lon="11.5468031"><ele>367.0</ele><time>2026-04-03T21:13:40.726Z</time></trkpt><trkpt lat="45.4285849" lon="11.5469057"><ele>367.0</ele><time>2026-04-03T21:13:42.723Z</time></trkpt><trkpt lat="45.4286544" lon="11.5470329"><ele>367.0</ele><time>2026-04-03T21:13:44.716Z</time></trkpt><trkpt lat="45.4287404" lon="11.5471845"><ele>367.0</ele><time>2026-04-03T21:13:46.721Z</time></trkpt><trkpt lat="45.4288116" lon="11.547295"><ele>367.0</ele><time>2026-04-03T21:13:47.708Z</time></trkpt><trkpt lat="45.4288802" lon="11.5473767"><ele>367.0</ele><time>2026-04-03T21:13:48.715Z</time></trkpt><trkpt lat="45.4289342" lon="11.5474458"><ele>363.0</ele><time>2026-04-03T21:13:49.709Z</time></trkpt><trkpt lat="45.4289897" lon="11.5475069"><ele>359.0</ele><time>2026-04-03T21:13:51.702Z</time></trkpt><trkpt lat="45.4290504" lon="11.5475539"><ele>355.0</ele><time>2026-04-03T21:13:59.713Z</time></trkpt><trkpt lat="45.4287321" lon="11.5473499"><ele>353.57142857142856</ele><time>2026-04-03T21:21:20.725Z</time></trkpt><trkpt lat="45.4286733" lon="11.5473008"><ele>352.14285714285717</ele><time>2026-04-03T21:21:21.715Z</time></trkpt><trkpt lat="45.4286156" lon="11.5472526"><ele>350.7142857142857</ele><time>2026-04-03T21:21:22.723Z</time></trkpt><trkpt lat="45.4285511" lon="11.5472011"><ele>349.2857142857143</ele><time>2026-04-03T21:21:23.727Z</time></trkpt><trkpt lat="45.4284856" lon="11.5471564"><ele>347.85714285714283</ele><time>2026-04-03T21:21:24.722Z</time></trkpt><trkpt lat="45.4284205" lon="11.5471267"><ele>346.42857142857144</ele><time>2026-04-03T21:21:25.723Z</time></trkpt><trkpt lat="45.4283576" lon="11.5471202"><ele>345.0</ele><time>2026-04-03T21:21:26.728Z</time></trkpt><trkpt lat="45.4282919" lon="11.547154"><ele>345.0</ele><time>2026-04-03T21:21:27.72Z</time></trkpt><trkpt lat="45.4282272" lon="11.5472053"><ele>345.0</ele><time>2026-04-03T21:21:28.719Z</time></trkpt><trkpt lat="45.4281607" lon="11.5472723"><ele>345.0</ele><time>2026-04-03T21:21:29.715Z</time></trkpt><trkpt lat="45.4280896" lon="11.5473357"><ele>345.0</ele><time>2026-04-03T21:21:30.721Z</time></trkpt><trkpt lat="45.4280177" lon="11.5473867"><ele>345.0</ele><time>2026-04-03T21:21:31.721Z</time></trkpt><trkpt lat="45.4279453" lon="11.5474301"><ele>345.0</ele><time>2026-04-03T21:21:32.716Z</time></trkpt><trkpt lat="45.4278679" lon="11.5474708"><ele>342.8</ele><time>2026-04-03T21:21:33.726Z</time></trkpt><trkpt lat="45.4277859" lon="11.5474989"><ele>340.6</ele><time>2026-04-03T21:21:34.715Z</time></trkpt><trkpt lat="45.4277003" lon="11.547516"><ele>338.4</ele><time>2026-04-03T21:21:35.71Z</time></trkpt><trkpt lat="45.4276209" lon="11.5475212"><ele>336.2</ele><time>2026-04-03T21:21:36.715Z</time></trkpt><trkpt lat="45.4274667" lon="11.5475131"><ele>334.0</ele><time>2026-04-03T21:21:38.712Z</time></trkpt><trkpt lat="45.4273839" lon="11.5474846"><ele>334.0</ele><time>2026-04-03T21:21:39.708Z</time></trkpt><trkpt lat="45.4273013" lon="11.5474404"><ele>334.0</ele><time>2026-04-03T21:21:40.716Z</time></trkpt><trkpt lat="45.4272239" lon="11.5473867"><ele>334.0</ele><time>2026-04-03T21:21:41.714Z</time></trkpt><trkpt lat="45.4271456" lon="11.5473313"><ele>334.0</ele><time>2026-04-03T21:21:42.708Z</time></trkpt><trkpt lat="45.4270713" lon="11.5472819"><ele>334.0</ele><time>2026-04-03T21:21:43.712Z</time></trkpt><trkpt lat="45.4269986" lon="11.5472371"><ele>334.0</ele><time>2026-04-03T21:21:44.705Z</time></trkpt><trkpt lat="45.4269188" lon="11.5472159"><ele>332.16666666666663</ele><time>2026-04-03T21:21:45.708Z</time></trkpt><trkpt lat="45.4268388" lon="11.5472115"><ele>330.3333333333333</ele><time>2026-04-03T21:21:46.706Z</time></trkpt><trkpt lat="45.4267526" lon="11.5472211"><ele>328.5</ele><time>2026-04-03T21:21:47.706Z</time></trkpt><trkpt lat="45.4266666" lon="11.5472475"><ele>326.6666666666667</ele><time>2026-04-03T21:21:48.707Z</time></trkpt><trkpt lat="45.4265873" lon="11.5472836"><ele>324.83333333333337</ele><time>2026-04-03T21:21:49.708Z</time></trkpt><trkpt lat="45.4264785" lon="11.5473087"><ele>323.0</ele><time>2026-04-03T21:21:51.707Z</time></trkpt><trkpt lat="45.4264185" lon="11.5473789"><ele>323.0</ele><time>2026-04-03T21:21:53.705Z</time></trkpt><trkpt lat="45.4264964" lon="11.5473991"><ele>323.0</ele><time>2026-04-03T21:21:57.721Z</time></trkpt><trkpt lat="45.4266698" lon="11.547427"><ele>323.0</ele><time>2026-04-03T21:22:01.711Z</time></trkpt><trkpt lat="45.4267342" lon="11.5474232"><ele>323.0</ele><time>2026-04-03T21:22:03.715Z</time></trkpt><trkpt lat="45.426807" lon="11.5474372"><ele>323.0</ele><time>2026-04-03T21:22:05.707Z</time></trkpt><trkpt lat="45.4269171" lon="11.547494"><ele>323.0</ele><time>2026-04-03T21:22:07.715Z</time></trkpt><trkpt lat="45.4269918" lon="11.5475457"><ele>323.0</ele><time>2026-04-03T21:22:08.713Z</time></trkpt><trkpt lat="45.4270737" lon="11.5476205"><ele>323.0</ele><time>2026-04-03T21:22:09.719Z</time></trkpt><trkpt lat="45.4271508" lon="11.5477075"><ele>323.0</ele><time>2026-04-03T21:22:10.709Z</time></trkpt><trkpt lat="45.4272291" lon="11.5477977"><ele>323.0</ele><time>2026-04-03T21:22:11.711Z</time></trkpt><trkpt lat="45.4273083" lon="11.5478921"><ele>317.79999999999995</ele><time>2026-04-03T21:22:12.711Z</time></trkpt><trkpt lat="45.4273954" lon="11.5479728"><ele>312.59999999999997</ele><time>2026-04-03T21:22:13.713Z</time></trkpt><trkpt lat="45.4274848" lon="11.5480418"><ele>307.4</ele><time>2026-04-03T21:22:14.716Z</time></trkpt><trkpt lat="45.4275813" lon="11.5481056"><ele>302.2</ele><time>2026-04-03T21:22:15.715Z</time></trkpt><trkpt lat="45.4276733" lon="11.5481592"><ele>297.0</ele><time>2026-04-03T21:22:16.716Z</time></trkpt><trkpt lat="45.4277524" lon="11.5482072"><ele>297.0</ele><time>2026-04-03T21:22:17.72Z</time></trkpt><trkpt lat="45.4278313" lon="11.5482497"><ele>297.0</ele><time>2026-04-03T21:22:18.72Z</time></trkpt><trkpt lat="45.4280051" lon="11.5483046"><ele>297.0</ele><time>2026-04-03T21:22:20.716Z</time></trkpt><trkpt lat="45.4280929" lon="11.5483283"><ele>297.0</ele><time>2026-04-03T21:22:21.719Z</time></trkpt><trkpt lat="45.4281806" lon="11.5483578"><ele>297.0</ele><time>2026-04-03T21:22:22.723Z</time></trkpt><trkpt lat="45.428269" lon="11.5483858"><ele>299.0</ele><time>2026-04-03T21:22:23.716Z</time></trkpt><trkpt lat="45.4283506" lon="11.5484007"><ele>301.0</ele><time>2026-04-03T21:22:24.719Z</time></trkpt><trkpt lat="45.4284248" lon="11.5484333"><ele>303.0</ele><time>2026-04-03T21:22:25.706Z</time></trkpt><trkpt lat="45.428492" lon="11.5484899"><ele>305.0</ele><time>2026-04-03T21:22:26.708Z</time></trkpt><trkpt lat="45.4285533" lon="11.5485589"><ele>307.0</ele><time>2026-04-03T21:22:27.714Z</time></trkpt><trkpt lat="45.4286092" lon="11.548645"><ele>309.0</ele><time>2026-04-03T21:22:28.716Z</time></trkpt><trkpt lat="45.4286611" lon="11.5487414"><ele>304.1666666666667</ele><time>2026-04-03T21:22:29.714Z</time></trkpt><trkpt lat="45.4287039" lon="11.5488375"><ele>299.3333333333333</ele><time>2026-04-03T21:22:30.713Z</time></trkpt><trkpt lat="45.4287289" lon="11.5489313"><ele>294.5</ele><time>2026-04-03T21:22:31.723Z</time></trkpt><trkpt lat="45.4287303" lon="11.5490284"><ele>289.66666666666663</ele><time>2026-04-03T21:22:32.72Z</time></trkpt><trkpt lat="45.4287342" lon="11.5491417"><ele>284.8333333333333</ele><time>2026-04-03T21:22:33.723Z</time></trkpt><trkpt lat="45.4287379" lon="11.549261"><ele>280.0</ele><time>2026-04-03T21:22:34.72Z</time></trkpt><trkpt lat="45.4287449" lon="11.5493785"><ele>280.0</ele><time>2026-04-03T21:22:35.718Z</time></trkpt><trkpt lat="45.4287577" lon="11.549497"><ele>280.0</ele><time>2026-04-03T21:22:36.719Z</time></trkpt><trkpt lat="45.4287718" lon="11.5496174"><ele>280.0</ele><time>2026-04-03T21:22:37.719Z</time></trkpt><trkpt lat="45.4287886" lon="11.5497405"><ele>280.0</ele><time>2026-04-03T21:22:38.729Z</time></trkpt><trkpt lat="45.4288074" lon="11.5498696"><ele>280.0</ele><time>2026-04-03T21:22:39.717Z</time></trkpt><trkpt lat="45.4288567" lon="11.5501173"><ele>282.3333333333333</ele><time>2026-04-03T21:22:41.72Z</time></trkpt><trkpt lat="45.4288862" lon="11.550242"><ele>284.66666666666663</ele><time>2026-04-03T21:22:42.722Z</time></trkpt><trkpt lat="45.4289144" lon="11.5503626"><ele>287.0</ele><time>2026-04-03T21:22:43.715Z</time></trkpt><trkpt lat="45.4289341" lon="11.5504734"><ele>289.3333333333333</ele><time>2026-04-03T21:22:44.715Z</time></trkpt><trkpt lat="45.4289451" lon="11.5505753"><ele>291.6666666666667</ele><time>2026-04-03T21:22:45.719Z</time></trkpt><trkpt lat="45.4289609" lon="11.5506695"><ele>294.0</ele><time>2026-04-03T21:22:46.721Z</time></trkpt><trkpt lat="45.4289854" lon="11.5507594"><ele>294.0</ele><time>2026-04-03T21:22:47.717Z</time></trkpt><trkpt lat="45.4290084" lon="11.5508459"><ele>294.0</ele><time>2026-04-03T21:22:48.717Z</time></trkpt><trkpt lat="45.4290494" lon="11.5509863"><ele>294.0</ele><time>2026-04-03T21:22:50.717Z</time></trkpt><trkpt lat="45.4290987" lon="11.5511247"><ele>294.0</ele><time>2026-04-03T21:22:52.721Z</time></trkpt><trkpt lat="45.4291346" lon="11.5512322"><ele>294.0</ele><time>2026-04-03T21:22:54.717Z</time></trkpt><trkpt lat="45.4291586" lon="11.5513278"><ele>294.0</ele><time>2026-04-03T21:22:58.725Z</time></trkpt><trkpt lat="45.4291896" lon="11.5514198"><ele>290.4</ele><time>2026-04-03T21:23:03.72Z</time></trkpt><trkpt lat="45.4292755" lon="11.5517165"><ele>286.79999999999995</ele><time>2026-04-03T21:36:33.729Z</time></trkpt><trkpt lat="45.4293076" lon="11.551809"><ele>283.20000000000005</ele><time>2026-04-03T21:36:34.721Z</time></trkpt><trkpt lat="45.4293428" lon="11.5518901"><ele>279.6</ele><time>2026-04-03T21:36:35.723Z</time></trkpt><trkpt lat="45.4293766" lon="11.5519851"><ele>276.0</ele><time>2026-04-03T21:36:36.724Z</time></trkpt><trkpt lat="45.4294093" lon="11.552098"><ele>273.2</ele><time>2026-04-03T21:36:37.728Z</time></trkpt><trkpt lat="45.4294456" lon="11.5522297"><ele>270.40000000000003</ele><time>2026-04-03T21:36:38.727Z</time></trkpt><trkpt lat="45.4294763" lon="11.5523785"><ele>267.6</ele><time>2026-04-03T21:36:39.729Z</time></trkpt><trkpt lat="45.4295078" lon="11.5525342"><ele>264.8</ele><time>2026-04-03T21:36:40.728Z</time></trkpt><trkpt lat="45.4295434" lon="11.5526858"><ele>262.0</ele><time>2026-04-03T21:36:41.72Z</time></trkpt><trkpt lat="45.429578" lon="11.5528455"><ele>260.2</ele><time>2026-04-03T21:36:42.734Z</time></trkpt><trkpt lat="45.4296036" lon="11.552999"><ele>258.4</ele><time>2026-04-03T21:36:43.719Z</time></trkpt><trkpt lat="45.4296202" lon="11.5531279"><ele>256.6</ele><time>2026-04-03T21:36:44.719Z</time></trkpt><trkpt lat="45.4296292" lon="11.5532394"><ele>254.8</ele><time>2026-04-03T21:36:45.725Z</time></trkpt><trkpt lat="45.4296315" lon="11.5533616"><ele>253.0</ele><time>2026-04-03T21:36:46.726Z</time></trkpt><trkpt lat="45.4296406" lon="11.5534914"><ele>254.2</ele><time>2026-04-03T21:36:47.735Z</time></trkpt><trkpt lat="45.4296523" lon="11.5536165"><ele>255.4</ele><time>2026-04-03T21:36:48.726Z</time></trkpt><trkpt lat="45.4296675" lon="11.5537262"><ele>256.59999999999997</ele><time>2026-04-03T21:36:49.725Z</time></trkpt><trkpt lat="45.429596" lon="11.5537867"><ele>257.8</ele><time>2026-04-03T21:36:52.722Z</time></trkpt><trkpt lat="45.4294562" lon="11.5539416"><ele>259.0</ele><time>2026-04-03T21:36:56.726Z</time></trkpt><trkpt lat="45.4294378" lon="11.5540537"><ele>259.0</ele><time>2026-04-03T21:36:57.717Z</time></trkpt><trkpt lat="45.4294143" lon="11.5541828"><ele>259.0</ele><time>2026-04-03T21:36:58.716Z</time></trkpt><trkpt lat="45.4293815" lon="11.5543289"><ele>259.0</ele><time>2026-04-03T21:36:59.712Z</time></trkpt><trkpt lat="45.4293476" lon="11.5544765"><ele>259.0</ele><time>2026-04-03T21:37:00.722Z</time></trkpt><trkpt lat="45.4293208" lon="11.5546047"><ele>259.0</ele><time>2026-04-03T21:37:01.725Z</time></trkpt><trkpt lat="45.4292996" lon="11.5546917"><ele>260.25</ele><time>2026-04-03T21:37:02.711Z</time></trkpt><trkpt lat="45.4292049" lon="11.5548444"><ele>261.5</ele><time>2026-04-03T21:37:04.714Z</time></trkpt><trkpt lat="45.4291363" lon="11.5549491"><ele>262.75</ele><time>2026-04-03T21:37:05.723Z</time></trkpt><trkpt lat="45.4290718" lon="11.5550829"><ele>264.0</ele><time>2026-04-03T21:37:06.721Z</time></trkpt><trkpt lat="45.4290238" lon="11.5552236"><ele>264.0</ele><time>2026-04-03T21:37:07.723Z</time></trkpt><trkpt lat="45.4289928" lon="11.5553571"><ele>264.0</ele><time>2026-04-03T21:37:08.732Z</time></trkpt><trkpt lat="45.4289767" lon="11.5554804"><ele>264.0</ele><time>2026-04-03T21:37:09.726Z</time></trkpt><trkpt lat="45.4289754" lon="11.5555887"><ele>264.0</ele><time>2026-04-03T21:37:10.735Z</time></trkpt><trkpt lat="45.4289959" lon="11.5556932"><ele>264.0</ele><time>2026-04-03T21:37:11.734Z</time></trkpt><trkpt lat="45.4290404" lon="11.5557853"><ele>264.0</ele><time>2026-04-03T21:37:12.726Z</time></trkpt><trkpt lat="45.4290959" lon="11.5558694"><ele>262.75</ele><time>2026-04-03T21:37:13.724Z</time></trkpt><trkpt lat="45.4292211" lon="11.5560079"><ele>261.5</ele><time>2026-04-03T21:37:15.73Z</time></trkpt><trkpt lat="45.4292729" lon="11.55607"><ele>260.25</ele><time>2026-04-03T21:37:16.728Z</time></trkpt><trkpt lat="45.4293515" lon="11.5561896"><ele>259.0</ele><time>2026-04-03T21:37:18.74Z</time></trkpt><trkpt lat="45.4294056" lon="11.556334"><ele>259.16666666666663</ele><time>2026-04-03T21:37:20.736Z</time></trkpt><trkpt lat="45.4294397" lon="11.556486"><ele>259.3333333333333</ele><time>2026-04-03T21:37:22.726Z</time></trkpt><trkpt lat="45.4294907" lon="11.5566344"><ele>259.5</ele><time>2026-04-03T21:37:24.726Z</time></trkpt><trkpt lat="45.4295317" lon="11.556708"><ele>259.6666666666667</ele><time>2026-04-03T21:37:25.733Z</time></trkpt><trkpt lat="45.4295786" lon="11.5567785"><ele>259.83333333333337</ele><time>2026-04-03T21:37:26.735Z</time></trkpt><trkpt lat="45.4296255" lon="11.5568568"><ele>260.0</ele><time>2026-04-03T21:37:27.726Z</time></trkpt><trkpt lat="45.4296757" lon="11.5569289"><ele>260.0</ele><time>2026-04-03T21:37:28.738Z</time></trkpt><trkpt lat="45.4297285" lon="11.5569918"><ele>260.0</ele><time>2026-04-03T21:37:29.726Z</time></trkpt><trkpt lat="45.4297883" lon="11.5570523"><ele>260.0</ele><time>2026-04-03T21:37:30.728Z</time></trkpt><trkpt lat="45.4298575" lon="11.5570956"><ele>260.0</ele><time>2026-04-03T21:37:31.729Z</time></trkpt><trkpt lat="45.4299331" lon="11.5571196"><ele>260.0</ele><time>2026-04-03T21:37:32.727Z</time></trkpt><trkpt lat="45.430014" lon="11.5571297"><ele>260.0</ele><time>2026-04-03T21:37:33.733Z</time></trkpt><trkpt lat="45.4300972" lon="11.5571322"><ele>258.25</ele><time>2026-04-03T21:37:34.739Z</time></trkpt><trkpt lat="45.4302946" lon="11.5571533"><ele>256.5</ele><time>2026-04-03T21:37:36.731Z</time></trkpt><trkpt lat="45.4304101" lon="11.5571702"><ele>254.75</ele><time>2026-04-03T21:37:37.725Z</time></trkpt><trkpt lat="45.4305396" lon="11.5571948"><ele>253.0</ele><time>2026-04-03T21:37:38.726Z</time></trkpt><trkpt lat="45.4306727" lon="11.5572178"><ele>252.75</ele><time>2026-04-03T21:37:39.731Z</time></trkpt><trkpt lat="45.430805" lon="11.5572413"><ele>252.5</ele><time>2026-04-03T21:37:40.726Z</time></trkpt><trkpt lat="45.4309291" lon="11.5572618"><ele>252.25</ele><time>2026-04-03T21:37:41.724Z</time></trkpt><trkpt lat="45.4310479" lon="11.5572723"><ele>252.0</ele><time>2026-04-03T21:37:42.726Z</time></trkpt><trkpt lat="45.431164" lon="11.5572793"><ele>252.0</ele><time>2026-04-03T21:37:43.729Z</time></trkpt><trkpt lat="45.4312708" lon="11.5573011"><ele>252.0</ele><time>2026-04-03T21:37:44.72Z</time></trkpt><trkpt lat="45.4313783" lon="11.5573411"><ele>252.0</ele><time>2026-04-03T21:37:45.728Z</time></trkpt><trkpt lat="45.4314803" lon="11.557395"><ele>252.0</ele><time>2026-04-03T21:37:46.726Z</time></trkpt><trkpt lat="45.431574" lon="11.5574595"><ele>252.0</ele><time>2026-04-03T21:37:47.724Z</time></trkpt><trkpt lat="45.4316626" lon="11.5575238"><ele>254.6</ele><time>2026-04-03T21:37:48.731Z</time></trkpt><trkpt lat="45.4317451" lon="11.5575713"><ele>257.2</ele><time>2026-04-03T21:37:49.732Z</time></trkpt><trkpt lat="45.4318142" lon="11.5576002"><ele>259.8</ele><time>2026-04-03T21:37:50.728Z</time></trkpt><trkpt lat="45.4318921" lon="11.5576106"><ele>262.4</ele><time>2026-04-03T21:37:52.717Z</time></trkpt><trkpt lat="45.43188" lon="11.5575063"><ele>265.0</ele><time>2026-04-03T21:38:06.727Z</time></trkpt><trkpt lat="45.431948" lon="11.5573113"><ele>265.0</ele><time>2026-04-03T21:38:18.73Z</time></trkpt><trkpt lat="45.4319134" lon="11.5572227"><ele>265.0</ele><time>2026-04-03T21:40:48.72Z</time></trkpt><trkpt lat="45.4319152" lon="11.5570316"><ele>265.0</ele><time>2026-04-03T21:40:52.717Z</time></trkpt><trkpt lat="45.4319612" lon="11.5569355"><ele>265.0</ele><time>2026-04-03T21:40:54.72Z</time></trkpt><trkpt lat="45.4319559" lon="11.5568234"><ele>265.0</ele><time>2026-04-03T21:40:58.72Z</time></trkpt><trkpt lat="45.4318878" lon="11.5568271"><ele>265.0</ele><time>2026-04-03T21:41:01.721Z</time></trkpt><trkpt lat="45.4318118" lon="11.5568398"><ele>269.8</ele><time>2026-04-03T21:41:04.719Z</time></trkpt><trkpt lat="45.4317472" lon="11.5568076"><ele>274.6</ele><time>2026-04-03T21:41:08.72Z</time></trkpt><trkpt lat="45.4317287" lon="11.5566955"><ele>279.4</ele><time>2026-04-03T21:41:11.72Z</time></trkpt><trkpt lat="45.4317978" lon="11.5564876"><ele>284.2</ele><time>2026-04-03T21:41:21.722Z</time></trkpt><trkpt lat="45.4317427" lon="11.5564384"><ele>289.0</ele><time>2026-04-03T21:42:14.732Z</time></trkpt><trkpt lat="45.4316238" lon="11.5563717"><ele>289.0</ele><time>2026-04-03T21:42:18.718Z</time></trkpt><trkpt lat="45.4315803" lon="11.5562569"><ele>289.0</ele><time>2026-04-03T21:42:20.716Z</time></trkpt><trkpt lat="45.4316049" lon="11.5561379"><ele>289.0</ele><time>2026-04-03T21:42:22.711Z</time></trkpt><trkpt lat="45.4316651" lon="11.5560551"><ele>289.0</ele><time>2026-04-03T21:42:24.723Z</time></trkpt><trkpt lat="45.4317209" lon="11.5559846"><ele>289.0</ele><time>2026-04-03T21:42:26.722Z</time></trkpt><trkpt lat="45.4316827" lon="11.5558968"><ele>289.0</ele><time>2026-04-03T21:42:30.725Z</time></trkpt><trkpt lat="45.4316112" lon="11.5558534"><ele>293.59999999999997</ele><time>2026-04-03T21:42:32.713Z</time></trkpt><trkpt lat="45.4315468" lon="11.5557838"><ele>298.2</ele><time>2026-04-03T21:42:34.722Z</time></trkpt><trkpt lat="45.4315891" lon="11.5556721"><ele>302.79999999999995</ele><time>2026-04-03T21:42:37.719Z</time></trkpt><trkpt lat="45.4317429" lon="11.5556162"><ele>307.4</ele><time>2026-04-03T21:42:43.72Z</time></trkpt><trkpt lat="45.4317465" lon="11.5555235"><ele>312.0</ele><time>2026-04-03T21:42:46.724Z</time></trkpt><trkpt lat="45.4317169" lon="11.5554401"><ele>316.6</ele><time>2026-04-03T21:44:06.738Z</time></trkpt><trkpt lat="45.431723" lon="11.5552517"><ele>321.2</ele><time>2026-04-03T21:44:14.716Z</time></trkpt><trkpt lat="45.4316897" lon="11.5551383"><ele>325.8</ele><time>2026-04-03T21:44:16.719Z</time></trkpt><trkpt lat="45.431634" lon="11.5550473"><ele>330.4</ele><time>2026-04-03T21:44:18.724Z</time></trkpt><trkpt lat="45.4315781" lon="11.5550041"><ele>335.0</ele><time>2026-04-03T21:44:20.72Z</time></trkpt><trkpt lat="45.4314941" lon="11.5549529"><ele>335.0</ele><time>2026-04-03T21:44:23.726Z</time></trkpt><trkpt lat="45.4314674" lon="11.5548703"><ele>335.0</ele><time>2026-04-03T21:44:25.721Z</time></trkpt><trkpt lat="45.431499" lon="11.5547489"><ele>335.0</ele><time>2026-04-03T21:44:28.715Z</time></trkpt><trkpt lat="45.431568" lon="11.5545905"><ele>335.0</ele><time>2026-04-03T21:44:50.726Z</time></trkpt><trkpt lat="45.4317114" lon="11.5542379"><ele>337.6666666666667</ele><time>2026-04-03T21:45:50.715Z</time></trkpt><trkpt lat="45.4317921" lon="11.554228"><ele>340.33333333333337</ele><time>2026-04-03T21:45:52.71Z</time></trkpt><trkpt lat="45.431835" lon="11.5541569"><ele>343.0</ele><time>2026-04-03T21:45:54.709Z</time></trkpt><trkpt lat="45.4318676" lon="11.5540434"><ele>345.6666666666667</ele><time>2026-04-03T21:45:57.709Z</time></trkpt><trkpt lat="45.4318967" lon="11.5539545"><ele>348.3333333333333</ele><time>2026-04-03T21:45:59.714Z</time></trkpt><trkpt lat="45.4319474" lon="11.5538465"><ele>351.0</ele><time>2026-04-03T21:46:02.718Z</time></trkpt><trkpt lat="45.4320235" lon="11.5538447"><ele>351.0</ele><time>2026-04-03T21:46:06.723Z</time></trkpt><trkpt lat="45.4320961" lon="11.5539032"><ele>351.0</ele><time>2026-04-03T21:46:09.72Z</time></trkpt><trkpt lat="45.4321775" lon="11.5538542"><ele>351.0</ele><time>2026-04-03T21:46:34.721Z</time></trkpt><trkpt lat="45.4322328" lon="11.5536467"><ele>351.0</ele><time>2026-04-03T21:46:42.73Z</time></trkpt><trkpt lat="45.4323087" lon="11.5535818"><ele>351.0</ele><time>2026-04-03T21:46:46.736Z</time></trkpt><trkpt lat="45.4323417" lon="11.5534863"><ele>356.6666666666667</ele><time>2026-04-03T21:53:55.822Z</time></trkpt><trkpt lat="45.4324613" lon="11.5533537"><ele>362.33333333333337</ele><time>2026-04-03T21:53:59.728Z</time></trkpt><trkpt lat="45.4324583" lon="11.5532394"><ele>368.0</ele><time>2026-04-03T21:54:02.726Z</time></trkpt><trkpt lat="45.4325062" lon="11.5531716"><ele>373.6666666666667</ele><time>2026-04-03T21:54:04.723Z</time></trkpt><trkpt lat="45.4325736" lon="11.5531124"><ele>379.33333333333337</ele><time>2026-04-03T21:54:06.731Z</time></trkpt><trkpt lat="45.4326306" lon="11.5530693"><ele>385.0</ele><time>2026-04-03T21:54:08.736Z</time></trkpt><trkpt lat="45.4326746" lon="11.5529876"><ele>385.00000000000006</ele><time>2026-04-03T21:54:11.729Z</time></trkpt><trkpt lat="45.432619" lon="11.5529445"><ele>385.0</ele><time>2026-04-03T21:54:14.728Z</time></trkpt><trkpt lat="45.4326767" lon="11.5528613"><ele>385.0</ele><time>2026-04-03T21:54:18.732Z</time></trkpt><trkpt lat="45.4327819" lon="11.5527104"><ele>385.0</ele><time>2026-04-03T21:54:24.733Z</time></trkpt><trkpt lat="45.4328411" lon="11.5526519"><ele>385.00000000000006</ele><time>2026-04-03T21:54:27.73Z</time></trkpt><trkpt lat="45.432917" lon="11.5526096"><ele>385.0</ele><time>2026-04-03T21:54:30.738Z</time></trkpt><trkpt lat="45.4329901" lon="11.5525889"><ele>387.0</ele><time>2026-04-03T21:54:33.736Z</time></trkpt><trkpt lat="45.4330667" lon="11.552545"><ele>389.0</ele><time>2026-04-03T21:54:37.732Z</time></trkpt><trkpt lat="45.4331211" lon="11.5524709"><ele>391.0</ele><time>2026-04-03T21:54:40.729Z</time></trkpt><trkpt lat="45.4332655" lon="11.5524089"><ele>393.0</ele><time>2026-04-03T21:54:49.741Z</time></trkpt><trkpt lat="45.4333225" lon="11.5523466"><ele>395.0</ele><time>2026-04-03T21:54:51.743Z</time></trkpt><trkpt lat="45.4333667" lon="11.5522365"><ele>394.99999999999994</ele><time>2026-04-03T21:54:54.74Z</time></trkpt><trkpt lat="45.4333822" lon="11.5521454"><ele>395.0</ele><time>2026-04-03T21:54:56.731Z</time></trkpt><trkpt lat="45.4334309" lon="11.5520693"><ele>395.0</ele><time>2026-04-03T21:54:59.738Z</time></trkpt><trkpt lat="45.4334727" lon="11.551975"><ele>395.0</ele><time>2026-04-03T21:55:02.742Z</time></trkpt><trkpt lat="45.4334976" lon="11.5517836"><ele>394.99999999999994</ele><time>2026-04-03T21:55:06.735Z</time></trkpt><trkpt lat="45.4335161" lon="11.5516788"><ele>395.0</ele><time>2026-04-03T22:01:53.753Z</time></trkpt><trkpt lat="45.4334023" lon="11.5515514"><ele>394.99999999999994</ele><time>2026-04-03T22:01:56.727Z</time></trkpt><trkpt lat="45.4333366" lon="11.5515161"><ele>395.0</ele><time>2026-04-03T22:01:57.731Z</time></trkpt><trkpt lat="45.4332581" lon="11.5514919"><ele>395.0</ele><time>2026-04-03T22:01:58.725Z</time></trkpt><trkpt lat="45.433176" lon="11.5514485"><ele>395.0</ele><time>2026-04-03T22:01:59.734Z</time></trkpt><trkpt lat="45.4330921" lon="11.5513827"><ele>394.99999999999994</ele><time>2026-04-03T22:02:00.729Z</time></trkpt><trkpt lat="45.4330087" lon="11.5513036"><ele>395.0</ele><time>2026-04-03T22:02:01.725Z</time></trkpt><trkpt lat="45.4329231" lon="11.5512249"><ele>396.49999999999994</ele><time>2026-04-03T22:02:02.725Z</time></trkpt><trkpt lat="45.4328407" lon="11.5511502"><ele>398.0</ele><time>2026-04-03T22:02:03.721Z</time></trkpt><trkpt lat="45.4327627" lon="11.5510923"><ele>399.5</ele><time>2026-04-03T22:02:04.728Z</time></trkpt><trkpt lat="45.4326979" lon="11.5510666"><ele>401.0</ele><time>2026-04-03T22:02:05.726Z</time></trkpt><trkpt lat="45.4325845" lon="11.5511116"><ele>402.49999999999994</ele><time>2026-04-03T22:02:07.719Z</time></trkpt><trkpt lat="45.4325251" lon="11.5511429"><ele>404.0</ele><time>2026-04-03T22:02:08.711Z</time></trkpt><trkpt lat="45.4324266" lon="11.5510744"><ele>404.0</ele><time>2026-04-03T22:02:10.725Z</time></trkpt><trkpt lat="45.4323744" lon="11.5509254"><ele>404.0</ele><time>2026-04-03T22:02:12.725Z</time></trkpt><trkpt lat="45.4323743" lon="11.5508153"><ele>404.0</ele><time>2026-04-03T22:02:13.722Z</time></trkpt><trkpt lat="45.4323805" lon="11.5506903"><ele>404.0</ele><time>2026-04-03T22:02:14.72Z</time></trkpt><trkpt lat="45.4323631" lon="11.5504496"><ele>404.3333333333333</ele><time>2026-04-03T22:02:16.725Z</time></trkpt><trkpt lat="45.432343" lon="11.5503299"><ele>404.66666666666663</ele><time>2026-04-03T22:02:17.721Z</time></trkpt><trkpt lat="45.4323307" lon="11.5502173"><ele>405.0</ele><time>2026-04-03T22:02:18.723Z</time></trkpt><trkpt lat="45.4323382" lon="11.5501033"><ele>405.33333333333337</ele><time>2026-04-03T22:02:19.719Z</time></trkpt><trkpt lat="45.4323584" lon="11.5499887"><ele>405.6666666666667</ele><time>2026-04-03T22:02:20.721Z</time></trkpt><trkpt lat="45.4323823" lon="11.5498883"><ele>406.0</ele><time>2026-04-03T22:02:21.717Z</time></trkpt><trkpt lat="45.4324158" lon="11.5497984"><ele>406.0</ele><time>2026-04-03T22:02:22.718Z</time></trkpt><trkpt lat="45.4324575" lon="11.5497209"><ele>406.0</ele><time>2026-04-03T22:02:23.734Z</time></trkpt><trkpt lat="45.4324895" lon="11.549639"><ele>406.0</ele><time>2026-04-03T22:02:24.721Z</time></trkpt><trkpt lat="45.4324948" lon="11.5495418"><ele>406.0</ele><time>2026-04-03T22:02:25.731Z</time></trkpt><trkpt lat="45.4324923" lon="11.5494378"><ele>406.0</ele><time>2026-04-03T22:02:26.722Z</time></trkpt><trkpt lat="45.4324687" lon="11.5493478"><ele>406.0</ele><time>2026-04-03T22:02:27.724Z</time></trkpt><trkpt lat="45.4324278" lon="11.5492736"><ele>406.0</ele><time>2026-04-03T22:02:28.727Z</time></trkpt><trkpt lat="45.4323816" lon="11.5491928"><ele>403.8</ele><time>2026-04-03T22:02:29.733Z</time></trkpt><trkpt lat="45.4323466" lon="11.549097"><ele>401.6</ele><time>2026-04-03T22:02:30.725Z</time></trkpt><trkpt lat="45.432336" lon="11.5489969"><ele>399.4</ele><time>2026-04-03T22:02:31.734Z</time></trkpt><trkpt lat="45.432336" lon="11.5488257"><ele>397.2</ele><time>2026-04-03T22:02:33.728Z</time></trkpt><trkpt lat="45.4323322" lon="11.5486512"><ele>395.0</ele><time>2026-04-03T22:02:35.74Z</time></trkpt><trkpt lat="45.4323973" lon="11.5484773"><ele>394.3333333333333</ele><time>2026-04-03T22:02:37.735Z</time></trkpt><trkpt lat="45.4324441" lon="11.5483816"><ele>393.66666666666663</ele><time>2026-04-03T22:02:38.74Z</time></trkpt><trkpt lat="45.432484" lon="11.548271"><ele>393.0</ele><time>2026-04-03T22:02:39.731Z</time></trkpt><trkpt lat="45.4325103" lon="11.5481548"><ele>392.33333333333337</ele><time>2026-04-03T22:02:40.74Z</time></trkpt><trkpt lat="45.4325276" lon="11.5480367"><ele>391.6666666666667</ele><time>2026-04-03T22:02:41.728Z</time></trkpt><trkpt lat="45.432539" lon="11.5479186"><ele>391.0</ele><time>2026-04-03T22:02:42.734Z</time></trkpt><trkpt lat="45.4325533" lon="11.5478015"><ele>390.33333333333337</ele><time>2026-04-03T22:02:43.731Z</time></trkpt><trkpt lat="45.4325648" lon="11.5476916"><ele>389.6666666666667</ele><time>2026-04-03T22:02:44.73Z</time></trkpt><trkpt lat="45.432576" lon="11.5475771"><ele>389.0</ele><time>2026-04-03T22:02:45.728Z</time></trkpt><trkpt lat="45.4325827" lon="11.5474689"><ele>388.33333333333337</ele><time>2026-04-03T22:02:46.734Z</time></trkpt><trkpt lat="45.4325805" lon="11.5473648"><ele>387.6666666666667</ele><time>2026-04-03T22:02:47.733Z</time></trkpt><trkpt lat="45.4325825" lon="11.5472581"><ele>387.0</ele><time>2026-04-03T22:02:48.725Z</time></trkpt><trkpt lat="45.4325978" lon="11.547153"><ele>387.0</ele><time>2026-04-03T22:02:49.733Z</time></trkpt><trkpt lat="45.4326307" lon="11.5470475"><ele>387.0</ele><time>2026-04-03T22:02:50.729Z</time></trkpt><trkpt lat="45.4326792" lon="11.5469525"><ele>387.0</ele><time>2026-04-03T22:02:51.732Z</time></trkpt><trkpt lat="45.4327269" lon="11.5468494"><ele>387.0</ele><time>2026-04-03T22:02:52.72Z</time></trkpt><trkpt lat="45.4327608" lon="11.5467442"><ele>387.0</ele><time>2026-04-03T22:02:53.733Z</time></trkpt><trkpt lat="45.4327861" lon="11.5466416"><ele>387.0</ele><time>2026-04-03T22:02:54.731Z</time></trkpt><trkpt lat="45.4328126" lon="11.5465313"><ele>386.0</ele><time>2026-04-03T22:02:55.728Z</time></trkpt><trkpt lat="45.4328555" lon="11.5464256"><ele>385.0</ele><time>2026-04-03T22:02:56.736Z</time></trkpt><trkpt lat="45.4329751" lon="11.5462212"><ele>384.0</ele><time>2026-04-03T22:02:58.73Z</time></trkpt><trkpt lat="45.4330434" lon="11.5461387"><ele>383.0</ele><time>2026-04-03T22:02:59.73Z</time></trkpt><trkpt lat="45.4331118" lon="11.5460574"><ele>384.5</ele><time>2026-04-03T22:03:00.726Z</time></trkpt><trkpt lat="45.4331741" lon="11.5459909"><ele>386.0</ele><time>2026-04-03T22:03:01.733Z</time></trkpt><trkpt lat="45.433234" lon="11.5459345"><ele>387.5</ele><time>2026-04-03T22:03:02.731Z</time></trkpt><trkpt lat="45.4333058" lon="11.5458802"><ele>389.0</ele><time>2026-04-03T22:03:03.732Z</time></trkpt><trkpt lat="45.4333859" lon="11.5458245"><ele>390.49999999999994</ele><time>2026-04-03T22:03:04.728Z</time></trkpt><trkpt lat="45.4334608" lon="11.545762"><ele>392.0</ele><time>2026-04-03T22:03:05.729Z</time></trkpt><trkpt lat="45.4335298" lon="11.5457102"><ele>391.99999999999994</ele><time>2026-04-03T22:03:06.722Z</time></trkpt><trkpt lat="45.4336018" lon="11.5456928"><ele>392.0</ele><time>2026-04-03T22:03:07.721Z</time></trkpt><trkpt lat="45.4336792" lon="11.5457041"><ele>392.0</ele><time>2026-04-03T22:03:08.714Z</time></trkpt><trkpt lat="45.4337422" lon="11.5457266"><ele>392.0</ele><time>2026-04-03T22:03:09.734Z</time></trkpt><trkpt lat="45.4338155" lon="11.5456205"><ele>391.99999999999994</ele><time>2026-04-03T22:03:11.718Z</time></trkpt><trkpt lat="45.4338274" lon="11.5455278"><ele>392.0</ele><time>2026-04-03T22:03:12.719Z</time></trkpt><trkpt lat="45.433837" lon="11.5454335"><ele>391.49999999999994</ele><time>2026-04-03T22:03:13.73Z</time></trkpt><trkpt lat="45.433836" lon="11.5453404"><ele>391.0</ele><time>2026-04-03T22:03:14.725Z</time></trkpt><trkpt lat="45.4338274" lon="11.5452433"><ele>390.5</ele><time>2026-04-03T22:03:15.738Z</time></trkpt><trkpt lat="45.4338182" lon="11.5451386"><ele>390.0</ele><time>2026-04-03T22:03:16.74Z</time></trkpt><trkpt lat="45.433805" lon="11.5450271"><ele>389.49999999999994</ele><time>2026-04-03T22:03:17.727Z</time></trkpt><trkpt lat="45.433816" lon="11.5448003"><ele>389.0</ele><time>2026-04-03T22:03:19.729Z</time></trkpt><trkpt lat="45.433854" lon="11.5446923"><ele>389.0</ele><time>2026-04-03T22:03:20.729Z</time></trkpt><trkpt lat="45.433914" lon="11.5445774"><ele>389.0</ele><time>2026-04-03T22:03:21.731Z</time></trkpt><trkpt lat="45.4339976" lon="11.5444949"><ele>389.0</ele><time>2026-04-03T22:03:22.727Z</time></trkpt><trkpt lat="45.4340899" lon="11.5444336"><ele>389.0</ele><time>2026-04-03T22:03:23.734Z</time></trkpt><trkpt lat="45.4341867" lon="11.544402"><ele>389.0</ele><time>2026-04-03T22:03:24.724Z</time></trkpt><trkpt lat="45.434278" lon="11.5443389"><ele>386.4</ele><time>2026-04-03T22:03:25.726Z</time></trkpt><trkpt lat="45.4343624" lon="11.544253"><ele>383.79999999999995</ele><time>2026-04-03T22:03:26.733Z</time></trkpt><trkpt lat="45.434424" lon="11.544146"><ele>381.20000000000005</ele><time>2026-04-03T22:03:27.724Z</time></trkpt><trkpt lat="45.4344789" lon="11.5440357"><ele>378.6</ele><time>2026-04-03T22:03:28.736Z</time></trkpt><trkpt lat="45.4345353" lon="11.5439271"><ele>376.0</ele><time>2026-04-03T22:03:29.732Z</time></trkpt><trkpt lat="45.4345928" lon="11.5438359"><ele>377.5</ele><time>2026-04-03T22:03:30.731Z</time></trkpt><trkpt lat="45.4346504" lon="11.5437459"><ele>379.0</ele><time>2026-04-03T22:03:31.742Z</time></trkpt><trkpt lat="45.4347097" lon="11.5436468"><ele>380.5</ele><time>2026-04-03T22:03:32.728Z</time></trkpt><trkpt lat="45.4347572" lon="11.5435344"><ele>382.0</ele><time>2026-04-03T22:03:33.727Z</time></trkpt><trkpt lat="45.4347906" lon="11.5434246"><ele>383.50000000000006</ele><time>2026-04-03T22:03:34.734Z</time></trkpt><trkpt lat="45.4348159" lon="11.5433203"><ele>385.0</ele><time>2026-04-03T22:03:35.737Z</time></trkpt><trkpt lat="45.4348037" lon="11.5431689"><ele>385.2</ele><time>2026-04-03T22:03:37.742Z</time></trkpt><trkpt lat="45.4347017" lon="11.5431135"><ele>385.4</ele><time>2026-04-03T22:03:39.739Z</time></trkpt><trkpt lat="45.434567" lon="11.5430341"><ele>385.6</ele><time>2026-04-03T22:03:41.737Z</time></trkpt><trkpt lat="45.4344914" lon="11.542978"><ele>385.8</ele><time>2026-04-03T22:03:42.732Z</time></trkpt><trkpt lat="45.4344219" lon="11.5428936"><ele>386.0</ele><time>2026-04-03T22:03:43.743Z</time></trkpt><trkpt lat="45.4343404" lon="11.5427761"><ele>383.8</ele><time>2026-04-03T22:03:44.737Z</time></trkpt><trkpt lat="45.4342661" lon="11.5426593"><ele>381.6</ele><time>2026-04-03T22:03:45.744Z</time></trkpt><trkpt lat="45.4342014" lon="11.5425597"><ele>379.4</ele><time>2026-04-03T22:03:46.733Z</time></trkpt><trkpt lat="45.4341446" lon="11.5424691"><ele>377.2</ele><time>2026-04-03T22:03:47.739Z</time></trkpt><trkpt lat="45.4341017" lon="11.542379"><ele>375.0</ele><time>2026-04-03T22:03:48.74Z</time></trkpt><trkpt lat="45.4340375" lon="11.542249"><ele>375.0</ele><time>2026-04-03T22:03:50.751Z</time></trkpt><trkpt lat="45.4339753" lon="11.5421539"><ele>375.0</ele><time>2026-04-03T22:03:54.735Z</time></trkpt><trkpt lat="45.4339043" lon="11.5421173"><ele>375.0</ele><time>2026-04-03T22:03:56.728Z</time></trkpt><trkpt lat="45.4338751" lon="11.5420159"><ele>375.0</ele><time>2026-04-03T22:05:44.729Z</time></trkpt><trkpt lat="45.4339787" lon="11.5418668"><ele>375.0</ele><time>2026-04-03T22:05:54.729Z</time></trkpt><trkpt lat="45.4339931" lon="11.5419743"><ele>375.0</ele><time>2026-04-03T22:05:58.735Z</time></trkpt><trkpt lat="45.4339897" lon="11.5420998"><ele>375.0</ele><time>2026-04-03T22:06:01.734Z</time></trkpt><trkpt lat="45.4339964" lon="11.542192"><ele>375.0</ele><time>2026-04-03T22:06:03.729Z</time></trkpt><trkpt lat="45.4340059" lon="11.5422898"><ele>375.0</ele><time>2026-04-03T22:06:05.73Z</time></trkpt><trkpt lat="45.4340375" lon="11.5425195"><ele>375.0</ele><time>2026-04-03T22:06:09.731Z</time></trkpt><trkpt lat="45.4340568" lon="11.542684"><ele>375.0</ele><time>2026-04-03T22:06:11.731Z</time></trkpt><trkpt lat="45.4340564" lon="11.5428413"><ele>375.0</ele><time>2026-04-03T22:06:13.729Z</time></trkpt><trkpt lat="45.434048" lon="11.5429946"><ele>375.0</ele><time>2026-04-03T22:06:15.728Z</time></trkpt><trkpt lat="45.4340428" lon="11.5431434"><ele>375.0</ele><time>2026-04-03T22:06:17.726Z</time></trkpt><trkpt lat="45.4340211" lon="11.5432554"><ele>375.0</ele><time>2026-04-03T22:06:19.721Z</time></trkpt><trkpt lat="45.4339382" lon="11.5432823"><ele>374.5</ele><time>2026-04-03T22:06:21.716Z</time></trkpt><trkpt lat="45.4338394" lon="11.5433142"><ele>374.0</ele><time>2026-04-03T22:06:23.722Z</time></trkpt><trkpt lat="45.4337323" lon="11.5433923"><ele>373.5</ele><time>2026-04-03T22:06:25.727Z</time></trkpt><trkpt lat="45.4336233" lon="11.5434649"><ele>373.0</ele><time>2026-04-03T22:06:27.716Z</time></trkpt><trkpt lat="45.4334442" lon="11.5435915"><ele>372.59999999999997</ele><time>2026-04-03T22:06:31.72Z</time></trkpt><trkpt lat="45.4333472" lon="11.5436713"><ele>372.2</ele><time>2026-04-03T22:06:33.716Z</time></trkpt><trkpt lat="45.4332621" lon="11.5437368"><ele>371.8</ele><time>2026-04-03T22:06:35.717Z</time></trkpt><trkpt lat="45.4331785" lon="11.5438046"><ele>371.4</ele><time>2026-04-03T22:06:37.715Z</time></trkpt><trkpt lat="45.4330954" lon="11.5438964"><ele>371.0</ele><time>2026-04-03T22:06:39.722Z</time></trkpt><trkpt lat="45.4330432" lon="11.543947"><ele>371.0</ele><time>2026-04-03T22:06:40.721Z</time></trkpt><trkpt lat="45.4329776" lon="11.5440086"><ele>371.0</ele><time>2026-04-03T22:06:41.719Z</time></trkpt><trkpt lat="45.4329075" lon="11.5440729"><ele>371.0</ele><time>2026-04-03T22:06:42.719Z</time></trkpt><trkpt lat="45.4328351" lon="11.5441492"><ele>371.0</ele><time>2026-04-03T22:06:43.722Z</time></trkpt><trkpt lat="45.4327567" lon="11.5442157"><ele>371.0</ele><time>2026-04-03T22:06:44.728Z</time></trkpt><trkpt lat="45.4326748" lon="11.5442702"><ele>371.0</ele><time>2026-04-03T22:06:45.725Z</time></trkpt><trkpt lat="45.4325944" lon="11.5443238"><ele>370.5</ele><time>2026-04-03T22:06:46.737Z</time></trkpt><trkpt lat="45.432514" lon="11.544377"><ele>370.0</ele><time>2026-04-03T22:06:47.73Z</time></trkpt><trkpt lat="45.4324327" lon="11.5444341"><ele>369.5</ele><time>2026-04-03T22:06:48.73Z</time></trkpt><trkpt lat="45.4322693" lon="11.5445451"><ele>369.0</ele><time>2026-04-03T22:06:50.727Z</time></trkpt><trkpt lat="45.432188" lon="11.5446019"><ele>369.6</ele><time>2026-04-03T22:06:51.728Z</time></trkpt><trkpt lat="45.4321025" lon="11.5446563"><ele>370.2</ele><time>2026-04-03T22:06:52.728Z</time></trkpt><trkpt lat="45.4320131" lon="11.5447156"><ele>370.8</ele><time>2026-04-03T22:06:53.729Z</time></trkpt><trkpt lat="45.4319268" lon="11.5447917"><ele>371.40000000000003</ele><time>2026-04-03T22:06:54.717Z</time></trkpt><trkpt lat="45.4318458" lon="11.5448853"><ele>372.0</ele><time>2026-04-03T22:06:55.722Z</time></trkpt><trkpt lat="45.4317666" lon="11.5449907"><ele>372.0</ele><time>2026-04-03T22:06:56.726Z</time></trkpt><trkpt lat="45.4316923" lon="11.5451037"><ele>372.0</ele><time>2026-04-03T22:06:57.72Z</time></trkpt><trkpt lat="45.4316212" lon="11.5452235"><ele>372.0</ele><time>2026-04-03T22:06:58.728Z</time></trkpt><trkpt lat="45.4315463" lon="11.5453596"><ele>372.0</ele><time>2026-04-03T22:06:59.721Z</time></trkpt><trkpt lat="45.4314653" lon="11.5455175"><ele>372.6666666666667</ele><time>2026-04-03T22:07:00.717Z</time></trkpt><trkpt lat="45.4313628" lon="11.5456906"><ele>373.33333333333337</ele><time>2026-04-03T22:07:01.731Z</time></trkpt><trkpt lat="45.4312473" lon="11.5458648"><ele>374.0</ele><time>2026-04-03T22:07:02.719Z</time></trkpt><trkpt lat="45.4311356" lon="11.5460145"><ele>374.0</ele><time>2026-04-03T22:07:03.725Z</time></trkpt><trkpt lat="45.4310181" lon="11.5461362"><ele>374.0</ele><time>2026-04-03T22:07:04.717Z</time></trkpt><trkpt lat="45.4309147" lon="11.5462541"><ele>374.0</ele><time>2026-04-03T22:07:05.715Z</time></trkpt><trkpt lat="45.430813" lon="11.5463643"><ele>374.0</ele><time>2026-04-03T22:07:06.73Z</time></trkpt><trkpt lat="45.430712" lon="11.5464849"><ele>373.6666666666667</ele><time>2026-04-03T22:07:07.727Z</time></trkpt><trkpt lat="45.430617" lon="11.5465883"><ele>373.3333333333333</ele><time>2026-04-03T22:07:08.728Z</time></trkpt><trkpt lat="45.430515" lon="11.5466975"><ele>373.0</ele><time>2026-04-03T22:07:09.728Z</time></trkpt><trkpt lat="45.4303174" lon="11.5469059"><ele>373.0</ele><time>2026-04-03T22:07:11.725Z</time></trkpt><trkpt lat="45.4302037" lon="11.5469932"><ele>373.0</ele><time>2026-04-03T22:07:12.725Z</time></trkpt><trkpt lat="45.4300855" lon="11.5470819"><ele>373.0</ele><time>2026-04-03T22:07:13.725Z</time></trkpt><trkpt lat="45.4299809" lon="11.5471681"><ele>373.0</ele><time>2026-04-03T22:07:14.728Z</time></trkpt><trkpt lat="45.4298808" lon="11.5472608"><ele>370.0</ele><time>2026-04-03T22:07:15.725Z</time></trkpt><trkpt lat="45.4297907" lon="11.5473513"><ele>367.0</ele><time>2026-04-03T22:07:16.725Z</time></trkpt><trkpt lat="45.4297078" lon="11.547437"><ele>364.0</ele><time>2026-04-03T22:07:17.723Z</time></trkpt><trkpt lat="45.4296269" lon="11.5475298"><ele>361.0</ele><time>2026-04-03T22:07:18.719Z</time></trkpt><trkpt lat="45.4295455" lon="11.5476174"><ele>358.0</ele><time>2026-04-03T22:07:19.715Z</time></trkpt><trkpt lat="45.4294588" lon="11.547694"><ele>357.25</ele><time>2026-04-03T22:07:20.717Z</time></trkpt><trkpt lat="45.4293608" lon="11.5477464"><ele>356.5</ele><time>2026-04-03T22:07:21.722Z</time></trkpt><trkpt lat="45.4292427" lon="11.547749"><ele>355.75</ele><time>2026-04-03T22:07:22.714Z</time></trkpt><trkpt lat="45.4291178" lon="11.547716"><ele>355.0</ele><time>2026-04-03T22:07:23.717Z</time></trkpt><trkpt lat="45.4290097" lon="11.54767"><ele>355.0</ele><time>2026-04-03T22:07:24.72Z</time></trkpt><trkpt lat="45.4289393" lon="11.5476307"><ele>355.0</ele><time>2026-04-03T22:07:26.712Z</time></trkpt><trkpt lat="45.4289655" lon="11.547522"><ele>355.0</ele><time>2026-04-03T22:07:35.716Z</time></trkpt><trkpt lat="45.4288247" lon="11.5473063"><ele>355.0</ele><time>2026-04-03T22:07:39.714Z</time></trkpt><trkpt lat="45.4287694" lon="11.5472549"><ele>355.0</ele><time>2026-04-03T22:07:40.721Z</time></trkpt><trkpt lat="45.4286793" lon="11.547139"><ele>357.4</ele><time>2026-04-03T22:07:52.709Z</time></trkpt><trkpt lat="45.4286322" lon="11.5470412"><ele>359.8</ele><time>2026-04-03T22:07:53.715Z</time></trkpt><trkpt lat="45.4285876" lon="11.5469508"><ele>362.20000000000005</ele><time>2026-04-03T22:07:54.711Z</time></trkpt><trkpt lat="45.4285282" lon="11.5468538"><ele>364.6</ele><time>2026-04-03T22:07:55.705Z</time></trkpt><trkpt lat="45.4284504" lon="11.5467376"><ele>367.0</ele><time>2026-04-03T22:07:56.713Z</time></trkpt><trkpt lat="45.4283536" lon="11.546531"><ele>367.0</ele><time>2026-04-03T22:07:58.718Z</time></trkpt><trkpt lat="45.4283198" lon="11.5464321"><ele>367.0</ele><time>2026-04-03T22:07:59.714Z</time></trkpt><trkpt lat="45.4283026" lon="11.5463267"><ele>367.0</ele><time>2026-04-03T22:08:00.723Z</time></trkpt><trkpt lat="45.4283004" lon="11.5462056"><ele>367.0</ele><time>2026-04-03T22:08:01.724Z</time></trkpt><trkpt lat="45.4283128" lon="11.5460513"><ele>367.0</ele><time>2026-04-03T22:08:02.72Z</time></trkpt><trkpt lat="45.4283268" lon="11.5458698"><ele>368.6</ele><time>2026-04-03T22:08:03.716Z</time></trkpt><trkpt lat="45.4283535" lon="11.5457007"><ele>370.20000000000005</ele><time>2026-04-03T22:08:04.708Z</time></trkpt><trkpt lat="45.4283902" lon="11.5455668"><ele>371.8</ele><time>2026-04-03T22:08:05.721Z</time></trkpt><trkpt lat="45.4284214" lon="11.5454549"><ele>373.4</ele><time>2026-04-03T22:08:06.717Z</time></trkpt><trkpt lat="45.4284655" lon="11.5453115"><ele>375.0</ele><time>2026-04-03T22:08:08.717Z</time></trkpt><trkpt lat="45.4284712" lon="11.5451911"><ele>375.0</ele><time>2026-04-03T22:08:10.717Z</time></trkpt><trkpt lat="45.4284188" lon="11.5451137"><ele>375.0</ele><time>2026-04-03T22:08:12.723Z</time></trkpt><trkpt lat="45.4283224" lon="11.545018"><ele>375.0</ele><time>2026-04-03T22:08:14.725Z</time></trkpt><trkpt lat="45.428286" lon="11.5448351"><ele>375.0</ele><time>2026-04-03T22:08:16.718Z</time></trkpt><trkpt lat="45.4282691" lon="11.544734"><ele>375.0</ele><time>2026-04-03T22:08:17.718Z</time></trkpt><trkpt lat="45.4282293" lon="11.5444898"><ele>374.2</ele><time>2026-04-03T22:08:20.729Z</time></trkpt><trkpt lat="45.4282167" lon="11.5443464"><ele>373.4</ele><time>2026-04-03T22:08:22.726Z</time></trkpt><trkpt lat="45.4281155" lon="11.544277"><ele>372.6</ele><time>2026-04-03T22:08:24.718Z</time></trkpt><trkpt lat="45.4280185" lon="11.5442146"><ele>371.8</ele><time>2026-04-03T22:08:26.725Z</time></trkpt><trkpt lat="45.4279759" lon="11.5441345"><ele>371.0</ele><time>2026-04-03T22:08:28.722Z</time></trkpt><trkpt lat="45.42803" lon="11.5440731"><ele>371.0</ele><time>2026-04-03T22:08:38.727Z</time></trkpt><trkpt lat="45.4281576" lon="11.5439111"><ele>371.0</ele><time>2026-04-03T22:08:41.716Z</time></trkpt><trkpt lat="45.4282142" lon="11.5438225"><ele>371.0</ele><time>2026-04-03T22:08:42.714Z</time></trkpt><trkpt lat="45.4282349" lon="11.5436688"><ele>371.0</ele><time>2026-04-03T22:08:44.706Z</time></trkpt><trkpt lat="45.4282191" lon="11.5435735"><ele>371.0</ele><time>2026-04-03T22:08:45.71Z</time></trkpt><trkpt lat="45.4282075" lon="11.5434474"><ele>370.4</ele><time>2026-04-03T22:08:46.704Z</time></trkpt><trkpt lat="45.4282013" lon="11.5432884"><ele>369.8</ele><time>2026-04-03T22:08:47.723Z</time></trkpt><trkpt lat="45.4282046" lon="11.5431422"><ele>369.2</ele><time>2026-04-03T22:08:48.714Z</time></trkpt><trkpt lat="45.4282283" lon="11.5430176"><ele>368.59999999999997</ele><time>2026-04-03T22:08:49.717Z</time></trkpt><trkpt lat="45.4282572" lon="11.5429052"><ele>368.0</ele><time>2026-04-03T22:08:50.712Z</time></trkpt><trkpt lat="45.4282829" lon="11.5428144"><ele>367.6666666666667</ele><time>2026-04-03T22:08:51.711Z</time></trkpt><trkpt lat="45.4283128" lon="11.54272"><ele>367.33333333333337</ele><time>2026-04-03T22:08:52.715Z</time></trkpt><trkpt lat="45.4283553" lon="11.5426356"><ele>367.0</ele><time>2026-04-03T22:08:53.728Z</time></trkpt><trkpt lat="45.4283993" lon="11.5425594"><ele>366.6666666666667</ele><time>2026-04-03T22:08:54.727Z</time></trkpt><trkpt lat="45.42845" lon="11.5424273"><ele>366.3333333333333</ele><time>2026-04-03T22:08:56.726Z</time></trkpt><trkpt lat="45.4284939" lon="11.5423328"><ele>366.0</ele><time>2026-04-03T22:08:58.727Z</time></trkpt><trkpt lat="45.4285441" lon="11.5422512"><ele>366.0</ele><time>2026-04-03T22:09:00.721Z</time></trkpt><trkpt lat="45.4286536" lon="11.5420799"><ele>366.0</ele><time>2026-04-03T22:09:04.725Z</time></trkpt><trkpt lat="45.4286664" lon="11.541991"><ele>366.0</ele><time>2026-04-03T22:09:06.718Z</time></trkpt><trkpt lat="45.4286476" lon="11.5418551"><ele>366.0</ele><time>2026-04-03T22:09:09.729Z</time></trkpt><trkpt lat="45.4286592" lon="11.5417493"><ele>366.0</ele><time>2026-04-03T22:09:11.721Z</time></trkpt><trkpt lat="45.4287009" lon="11.5416476"><ele>367.4</ele><time>2026-04-03T22:09:13.727Z</time></trkpt><trkpt lat="45.4287349" lon="11.5415169"><ele>368.8</ele><time>2026-04-03T22:09:15.725Z</time></trkpt><trkpt lat="45.4287431" lon="11.5413492"><ele>370.2</ele><time>2026-04-03T22:09:17.726Z</time></trkpt><trkpt lat="45.4287413" lon="11.5412398"><ele>371.59999999999997</ele><time>2026-04-03T22:09:18.724Z</time></trkpt><trkpt lat="45.4287347" lon="11.5411222"><ele>373.0</ele><time>2026-04-03T22:09:19.722Z</time></trkpt><trkpt lat="45.4287278" lon="11.5410036"><ele>376.0</ele><time>2026-04-03T22:09:20.724Z</time></trkpt><trkpt lat="45.4287348" lon="11.5408775"><ele>379.0</ele><time>2026-04-03T22:09:21.72Z</time></trkpt><trkpt lat="45.4287702" lon="11.5406169"><ele>382.0</ele><time>2026-04-03T22:09:24.718Z</time></trkpt><trkpt lat="45.428755" lon="11.5404637"><ele>385.0</ele><time>2026-04-03T22:09:26.718Z</time></trkpt><trkpt lat="45.4287167" lon="11.540295"><ele>385.0</ele><time>2026-04-03T22:09:28.722Z</time></trkpt><trkpt lat="45.4286998" lon="11.5401405"><ele>385.0</ele><time>2026-04-03T22:09:30.716Z</time></trkpt><trkpt lat="45.4286954" lon="11.5400347"><ele>385.0</ele><time>2026-04-03T22:09:32.725Z</time></trkpt><trkpt lat="45.4286964" lon="11.5401453"><ele>385.0</ele><time>2026-04-03T22:09:56.73Z</time></trkpt><trkpt lat="45.4287458" lon="11.5404567"><ele>385.0</ele><time>2026-04-03T22:09:59.722Z</time></trkpt><trkpt lat="45.4287769" lon="11.5406102"><ele>385.0</ele><time>2026-04-03T22:10:00.719Z</time></trkpt><trkpt lat="45.4287944" lon="11.5407377"><ele>385.0</ele><time>2026-04-03T22:10:01.726Z</time></trkpt><trkpt lat="45.4287985" lon="11.54084"><ele>385.0</ele><time>2026-04-03T22:10:02.709Z</time></trkpt><trkpt lat="45.4287655" lon="11.5410063"><ele>385.0</ele><time>2026-04-03T22:10:04.714Z</time></trkpt><trkpt lat="45.4287429" lon="11.541183"><ele>383.00000000000006</ele><time>2026-04-03T22:10:06.719Z</time></trkpt><trkpt lat="45.4287389" lon="11.5412806"><ele>381.0</ele><time>2026-04-03T22:10:07.712Z</time></trkpt><trkpt lat="45.4287379" lon="11.5413827"><ele>379.0</ele><time>2026-04-03T22:10:08.721Z</time></trkpt><trkpt lat="45.4287368" lon="11.541479"><ele>377.0</ele><time>2026-04-03T22:10:09.717Z</time></trkpt><trkpt lat="45.4287254" lon="11.5416294"><ele>375.0</ele><time>2026-04-03T22:10:11.723Z</time></trkpt><trkpt lat="45.4286978" lon="11.5417435"><ele>373.0</ele><time>2026-04-03T22:10:14.723Z</time></trkpt><trkpt lat="45.4286535" lon="11.5418233"><ele>373.0</ele><time>2026-04-03T22:10:16.723Z</time></trkpt><trkpt lat="45.4286225" lon="11.5419368"><ele>373.0</ele><time>2026-04-03T22:10:19.725Z</time></trkpt><trkpt lat="45.4286279" lon="11.5421672"><ele>373.0</ele><time>2026-04-03T22:10:24.72Z</time></trkpt><trkpt lat="45.4286979" lon="11.5421082"><ele>373.0</ele><time>2026-04-03T22:10:38.716Z</time></trkpt><trkpt lat="45.4287921" lon="11.5420427"><ele>373.0</ele><time>2026-04-03T22:10:40.714Z</time></trkpt><trkpt lat="45.4289534" lon="11.5419704"><ele>372.8333333333333</ele><time>2026-04-03T22:10:43.717Z</time></trkpt><trkpt lat="45.4290149" lon="11.5419359"><ele>372.66666666666663</ele><time>2026-04-03T22:10:44.719Z</time></trkpt><trkpt lat="45.4290837" lon="11.5419181"><ele>372.5</ele><time>2026-04-03T22:10:46.718Z</time></trkpt><trkpt lat="45.4291211" lon="11.5419981"><ele>372.3333333333333</ele><time>2026-04-03T22:10:57.719Z</time></trkpt><trkpt lat="45.429178" lon="11.5420823"><ele>372.1666666666667</ele><time>2026-04-03T22:10:59.709Z</time></trkpt><trkpt lat="45.4292299" lon="11.5422273"><ele>372.0</ele><time>2026-04-03T22:11:01.725Z</time></trkpt><trkpt lat="45.4292582" lon="11.5424451"><ele>372.0</ele><time>2026-04-03T22:11:04.721Z</time></trkpt><trkpt lat="45.4292933" lon="11.5425333"><ele>372.0</ele><time>2026-04-03T22:11:06.725Z</time></trkpt><trkpt lat="45.429351" lon="11.5426484"><ele>372.0</ele><time>2026-04-03T22:11:08.716Z</time></trkpt><trkpt lat="45.4294356" lon="11.5427537"><ele>372.0</ele><time>2026-04-03T22:11:10.721Z</time></trkpt><trkpt lat="45.429531" lon="11.5427715"><ele>372.0</ele><time>2026-04-03T22:11:12.718Z</time></trkpt><trkpt lat="45.429636" lon="11.5427622"><ele>374.40000000000003</ele><time>2026-04-03T22:11:14.719Z</time></trkpt><trkpt lat="45.4297392" lon="11.5427679"><ele>376.8</ele><time>2026-04-03T22:11:16.724Z</time></trkpt><trkpt lat="45.4298157" lon="11.5428211"><ele>379.2</ele><time>2026-04-03T22:11:18.725Z</time></trkpt><trkpt lat="45.4298949" lon="11.5428481"><ele>381.6</ele><time>2026-04-03T22:11:20.716Z</time></trkpt><trkpt lat="45.4299701" lon="11.5427772"><ele>384.0</ele><time>2026-04-03T22:11:22.717Z</time></trkpt><trkpt lat="45.430056" lon="11.5425541"><ele>384.0</ele><time>2026-04-03T22:11:26.72Z</time></trkpt><trkpt lat="45.4301091" lon="11.5424872"><ele>384.0</ele><time>2026-04-03T22:11:28.72Z</time></trkpt><trkpt lat="45.4301801" lon="11.542426"><ele>384.0</ele><time>2026-04-03T22:11:30.718Z</time></trkpt><trkpt lat="45.4302326" lon="11.5422981"><ele>384.0</ele><time>2026-04-03T22:11:32.709Z</time></trkpt><trkpt lat="45.4302929" lon="11.5421354"><ele>384.0</ele><time>2026-04-03T22:11:34.71Z</time></trkpt><trkpt lat="45.4303203" lon="11.5420459"><ele>384.1666666666667</ele><time>2026-04-03T22:11:35.705Z</time></trkpt><trkpt lat="45.4303383" lon="11.5419556"><ele>384.33333333333337</ele><time>2026-04-03T22:11:36.712Z</time></trkpt><trkpt lat="45.4303673" lon="11.5418006"><ele>384.5</ele><time>2026-04-03T22:11:38.72Z</time></trkpt><trkpt lat="45.4304261" lon="11.5416533"><ele>384.6666666666667</ele><time>2026-04-03T22:11:40.718Z</time></trkpt><trkpt lat="45.4304735" lon="11.5415784"><ele>384.83333333333337</ele><time>2026-04-03T22:11:41.726Z</time></trkpt><trkpt lat="45.430529" lon="11.5415098"><ele>385.0</ele><time>2026-04-03T22:11:42.726Z</time></trkpt><trkpt lat="45.4305998" lon="11.5414489"><ele>385.0</ele><time>2026-04-03T22:11:43.72Z</time></trkpt><trkpt lat="45.4307362" lon="11.5413328"><ele>385.0</ele><time>2026-04-03T22:11:45.723Z</time></trkpt><trkpt lat="45.4307926" lon="11.5412665"><ele>385.0</ele><time>2026-04-03T22:11:46.723Z</time></trkpt><trkpt lat="45.4308319" lon="11.5411895"><ele>385.0</ele><time>2026-04-03T22:11:47.731Z</time></trkpt><trkpt lat="45.4308526" lon="11.5410886"><ele>385.0</ele><time>2026-04-03T22:11:48.718Z</time></trkpt><trkpt lat="45.4308803" lon="11.5409599"><ele>387.0</ele><time>2026-04-03T22:11:49.73Z</time></trkpt><trkpt lat="45.4309171" lon="11.5408347"><ele>389.0</ele><time>2026-04-03T22:11:50.72Z</time></trkpt><trkpt lat="45.4309495" lon="11.5407348"><ele>391.0</ele><time>2026-04-03T22:11:51.724Z</time></trkpt><trkpt lat="45.430968" lon="11.5406034"><ele>393.0</ele><time>2026-04-03T22:11:53.722Z</time></trkpt><trkpt lat="45.4309473" lon="11.5404736"><ele>395.0</ele><time>2026-04-03T22:11:55.723Z</time></trkpt><trkpt lat="45.4309532" lon="11.5402882"><ele>396.4</ele><time>2026-04-03T22:11:57.712Z</time></trkpt><trkpt lat="45.4309825" lon="11.5402026"><ele>397.8</ele><time>2026-04-03T22:11:58.724Z</time></trkpt><trkpt lat="45.4310763" lon="11.5401342"><ele>399.20000000000005</ele><time>2026-04-03T22:12:00.714Z</time></trkpt><trkpt lat="45.4311727" lon="11.5400608"><ele>400.6</ele><time>2026-04-03T22:12:02.711Z</time></trkpt><trkpt lat="45.4312066" lon="11.53998"><ele>402.0</ele><time>2026-04-03T22:12:05.723Z</time></trkpt><trkpt lat="45.4310401" lon="11.539858"><ele>402.0</ele><time>2026-04-03T22:12:23.728Z</time></trkpt><trkpt lat="45.4309557" lon="11.5398386"><ele>402.0</ele><time>2026-04-03T22:12:24.717Z</time></trkpt><trkpt lat="45.4308527" lon="11.5398282"><ele>402.0</ele><time>2026-04-03T22:12:25.729Z</time></trkpt><trkpt lat="45.4307415" lon="11.5398139"><ele>402.0</ele><time>2026-04-03T22:12:26.72Z</time></trkpt><trkpt lat="45.4304952" lon="11.5397947"><ele>401.25</ele><time>2026-04-03T22:12:28.726Z</time></trkpt><trkpt lat="45.4303647" lon="11.5397991"><ele>400.5</ele><time>2026-04-03T22:12:29.731Z</time></trkpt><trkpt lat="45.4302284" lon="11.5397983"><ele>399.75</ele><time>2026-04-03T22:12:30.718Z</time></trkpt><trkpt lat="45.4300979" lon="11.5397832"><ele>399.0</ele><time>2026-04-03T22:12:31.738Z</time></trkpt><trkpt lat="45.4299783" lon="11.5397717"><ele>399.0</ele><time>2026-04-03T22:12:32.723Z</time></trkpt><trkpt lat="45.429859" lon="11.5397712"><ele>399.0</ele><time>2026-04-03T22:12:33.719Z</time></trkpt><trkpt lat="45.4297358" lon="11.539769"><ele>399.0</ele><time>2026-04-03T22:12:34.723Z</time></trkpt><trkpt lat="45.4296161" lon="11.5397628"><ele>399.0</ele><time>2026-04-03T22:12:35.719Z</time></trkpt><trkpt lat="45.4294993" lon="11.539777"><ele>398.79999999999995</ele><time>2026-04-03T22:12:36.726Z</time></trkpt><trkpt lat="45.4293891" lon="11.5398174"><ele>398.59999999999997</ele><time>2026-04-03T22:12:37.722Z</time></trkpt><trkpt lat="45.4292829" lon="11.5398799"><ele>398.4</ele><time>2026-04-03T22:12:38.717Z</time></trkpt><trkpt lat="45.4291851" lon="11.5399465"><ele>398.2</ele><time>2026-04-03T22:12:39.722Z</time></trkpt><trkpt lat="45.4290824" lon="11.5400073"><ele>398.0</ele><time>2026-04-03T22:12:40.719Z</time></trkpt><trkpt lat="45.4289664" lon="11.5400528"><ele>398.0</ele><time>2026-04-03T22:12:41.729Z</time></trkpt><trkpt lat="45.4288447" lon="11.5400798"><ele>398.0</ele><time>2026-04-03T22:12:42.721Z</time></trkpt><trkpt lat="45.4287366" lon="11.5400941"><ele>398.0</ele><time>2026-04-03T22:12:43.722Z</time></trkpt><trkpt lat="45.4286491" lon="11.5400846"><ele>398.0</ele><time>2026-04-03T22:12:44.728Z</time></trkpt><trkpt lat="45.4285761" lon="11.5400366"><ele>398.0</ele><time>2026-04-03T22:12:45.724Z</time></trkpt><trkpt lat="45.4285074" lon="11.5399578"><ele>398.0</ele><time>2026-04-03T22:12:46.73Z</time></trkpt><trkpt lat="45.4284349" lon="11.5398845"><ele>398.0</ele><time>2026-04-03T22:12:47.729Z</time></trkpt><trkpt lat="45.428283" lon="11.5398549"><ele>398.0</ele><time>2026-04-03T22:12:49.72Z</time></trkpt><trkpt lat="45.428201" lon="11.5398943"><ele>398.0</ele><time>2026-04-03T22:12:50.724Z</time></trkpt><trkpt lat="45.4281138" lon="11.5399588"><ele>398.0</ele><time>2026-04-03T22:12:51.72Z</time></trkpt><trkpt lat="45.4280242" lon="11.5400288"><ele>398.79999999999995</ele><time>2026-04-03T22:12:52.715Z</time></trkpt><trkpt lat="45.4279303" lon="11.5400985"><ele>399.6</ele><time>2026-04-03T22:12:53.721Z</time></trkpt><trkpt lat="45.4278406" lon="11.540162"><ele>400.4</ele><time>2026-04-03T22:12:54.719Z</time></trkpt><trkpt lat="45.4277523" lon="11.5402102"><ele>401.20000000000005</ele><time>2026-04-03T22:12:55.72Z</time></trkpt><trkpt lat="45.4276694" lon="11.54025"><ele>402.0</ele><time>2026-04-03T22:12:56.719Z</time></trkpt><trkpt lat="45.4275885" lon="11.5402632"><ele>402.0</ele><time>2026-04-03T22:12:57.714Z</time></trkpt><trkpt lat="45.4275037" lon="11.5402414"><ele>402.0</ele><time>2026-04-03T22:12:58.715Z</time></trkpt><trkpt lat="45.4274075" lon="11.5401944"><ele>402.0</ele><time>2026-04-03T22:12:59.708Z</time></trkpt><trkpt lat="45.4272955" lon="11.5401313"><ele>402.0</ele><time>2026-04-03T22:13:00.718Z</time></trkpt><trkpt lat="45.4271946" lon="11.5400918"><ele>402.0</ele><time>2026-04-03T22:13:01.715Z</time></trkpt><trkpt lat="45.4270995" lon="11.5400967"><ele>401.8333333333333</ele><time>2026-04-03T22:13:02.714Z</time></trkpt><trkpt lat="45.4270163" lon="11.540146"><ele>401.66666666666663</ele><time>2026-04-03T22:13:03.718Z</time></trkpt><trkpt lat="45.4269397" lon="11.540217"><ele>401.5</ele><time>2026-04-03T22:13:04.726Z</time></trkpt><trkpt lat="45.4268677" lon="11.5402621"><ele>401.3333333333333</ele><time>2026-04-03T22:13:05.725Z</time></trkpt><trkpt lat="45.4267888" lon="11.5402872"><ele>401.16666666666663</ele><time>2026-04-03T22:13:07.728Z</time></trkpt><trkpt lat="45.4268329" lon="11.5402216"><ele>401.0</ele><time>2026-04-03T22:15:24.834Z</time></trkpt><trkpt lat="45.4268295" lon="11.5398035"><ele>401.0</ele><time>2026-04-03T22:15:27.72Z</time></trkpt><trkpt lat="45.4268309" lon="11.5396991"><ele>401.0</ele><time>2026-04-03T22:15:28.715Z</time></trkpt><trkpt lat="45.426901" lon="11.5395396"><ele>401.0</ele><time>2026-04-03T22:15:30.712Z</time></trkpt><trkpt lat="45.4269572" lon="11.5394586"><ele>401.0</ele><time>2026-04-03T22:15:31.723Z</time></trkpt><trkpt lat="45.4270275" lon="11.5393823"><ele>401.0</ele><time>2026-04-03T22:15:32.71Z</time></trkpt><trkpt lat="45.4270992" lon="11.5393221"><ele>402.3333333333333</ele><time>2026-04-03T22:15:33.721Z</time></trkpt><trkpt lat="45.4271826" lon="11.539289"><ele>403.66666666666663</ele><time>2026-04-03T22:15:34.717Z</time></trkpt><trkpt lat="45.4272715" lon="11.5392412"><ele>405.0</ele><time>2026-04-03T22:15:35.714Z</time></trkpt><trkpt lat="45.4273476" lon="11.5391853"><ele>406.33333333333337</ele><time>2026-04-03T22:15:36.715Z</time></trkpt><trkpt lat="45.427403" lon="11.5391117"><ele>407.6666666666667</ele><time>2026-04-03T22:15:37.722Z</time></trkpt><trkpt lat="45.4274094" lon="11.5390205"><ele>409.0</ele><time>2026-04-03T22:15:38.719Z</time></trkpt><trkpt lat="45.4274286" lon="11.5388913"><ele>409.0</ele><time>2026-04-03T22:15:40.718Z</time></trkpt><trkpt lat="45.4275234" lon="11.5388241"><ele>409.0</ele><time>2026-04-03T22:15:42.712Z</time></trkpt><trkpt lat="45.427584" lon="11.5387628"><ele>409.0</ele><time>2026-04-03T22:15:43.712Z</time></trkpt><trkpt lat="45.4276347" lon="11.5386876"><ele>409.0</ele><time>2026-04-03T22:15:44.714Z</time></trkpt><trkpt lat="45.427678" lon="11.5385952"><ele>409.0</ele><time>2026-04-03T22:15:45.713Z</time></trkpt><trkpt lat="45.4277527" lon="11.5383432"><ele>407.2</ele><time>2026-04-03T22:15:47.711Z</time></trkpt><trkpt lat="45.427782" lon="11.5381907"><ele>405.4</ele><time>2026-04-03T22:15:48.71Z</time></trkpt><trkpt lat="45.4278138" lon="11.5380492"><ele>403.6</ele><time>2026-04-03T22:15:49.709Z</time></trkpt><trkpt lat="45.42784" lon="11.5379233"><ele>401.8</ele><time>2026-04-03T22:15:50.705Z</time></trkpt><trkpt lat="45.4278544" lon="11.5378101"><ele>400.0</ele><time>2026-04-03T22:15:51.71Z</time></trkpt><trkpt lat="45.4278669" lon="11.5377157"><ele>397.6666666666667</ele><time>2026-04-03T22:15:52.709Z</time></trkpt><trkpt lat="45.4278531" lon="11.5376004"><ele>395.33333333333337</ele><time>2026-04-03T22:15:54.717Z</time></trkpt><trkpt lat="45.42776" lon="11.5374985"><ele>393.0</ele><time>2026-04-03T22:15:56.711Z</time></trkpt><trkpt lat="45.4276993" lon="11.5374443"><ele>390.66666666666663</ele><time>2026-04-03T22:15:57.711Z</time></trkpt><trkpt lat="45.427637" lon="11.5373995"><ele>388.3333333333333</ele><time>2026-04-03T22:15:58.712Z</time></trkpt><trkpt lat="45.4275353" lon="11.5373562"><ele>386.0</ele><time>2026-04-03T22:16:00.709Z</time></trkpt><trkpt lat="45.4274757" lon="11.5373906"><ele>386.0</ele><time>2026-04-03T22:16:02.717Z</time></trkpt><trkpt lat="45.4274309" lon="11.5375148"><ele>386.0</ele><time>2026-04-03T22:16:04.712Z</time></trkpt><trkpt lat="45.4273862" lon="11.5375815"><ele>386.0</ele><time>2026-04-03T22:16:05.717Z</time></trkpt><trkpt lat="45.4273183" lon="11.5376026"><ele>386.0</ele><time>2026-04-03T22:16:06.713Z</time></trkpt><trkpt lat="45.4271555" lon="11.5374746"><ele>386.0</ele><time>2026-04-03T22:16:08.706Z</time></trkpt><trkpt lat="45.4271024" lon="11.5373618"><ele>385.0</ele><time>2026-04-03T22:16:09.708Z</time></trkpt><trkpt lat="45.4270787" lon="11.5372392"><ele>384.0</ele><time>2026-04-03T22:16:10.711Z</time></trkpt><trkpt lat="45.4270769" lon="11.5370843"><ele>383.0</ele><time>2026-04-03T22:16:11.709Z</time></trkpt><trkpt lat="45.4271031" lon="11.5368933"><ele>382.0</ele><time>2026-04-03T22:16:12.702Z</time></trkpt><trkpt lat="45.427128" lon="11.5367318"><ele>381.0</ele><time>2026-04-03T22:16:13.709Z</time></trkpt><trkpt lat="45.4271446" lon="11.5366144"><ele>380.0</ele><time>2026-04-03T22:16:14.708Z</time></trkpt><trkpt lat="45.4271578" lon="11.536522"><ele>379.0</ele><time>2026-04-03T22:16:15.712Z</time></trkpt><trkpt lat="45.4271712" lon="11.5364228"><ele>378.0</ele><time>2026-04-03T22:16:16.711Z</time></trkpt><trkpt lat="45.427186" lon="11.5362973"><ele>377.0</ele><time>2026-04-03T22:16:17.71Z</time></trkpt><trkpt lat="45.4272019" lon="11.5361447"><ele>376.0</ele><time>2026-04-03T22:16:18.715Z</time></trkpt><trkpt lat="45.4272225" lon="11.5359878"><ele>374.5</ele><time>2026-04-03T22:16:19.711Z</time></trkpt><trkpt lat="45.427251" lon="11.5358266"><ele>373.0</ele><time>2026-04-03T22:16:20.714Z</time></trkpt><trkpt lat="45.4272816" lon="11.5356589"><ele>371.5</ele><time>2026-04-03T22:16:21.715Z</time></trkpt><trkpt lat="45.4273088" lon="11.5354902"><ele>370.0</ele><time>2026-04-03T22:16:22.714Z</time></trkpt><trkpt lat="45.4273272" lon="11.5353277"><ele>370.0</ele><time>2026-04-03T22:16:23.722Z</time></trkpt><trkpt lat="45.4273337" lon="11.5351854"><ele>370.0</ele><time>2026-04-03T22:16:24.721Z</time></trkpt><trkpt lat="45.427335" lon="11.5350804"><ele>370.0</ele><time>2026-04-03T22:16:25.724Z</time></trkpt><trkpt lat="45.4272595" lon="11.5350757"><ele>370.0</ele><time>2026-04-03T22:16:28.712Z</time></trkpt><trkpt lat="45.4270181" lon="11.5351013"><ele>369.4</ele><time>2026-04-03T22:16:31.713Z</time></trkpt><trkpt lat="45.4269109" lon="11.5351111"><ele>368.8</ele><time>2026-04-03T22:16:32.704Z</time></trkpt><trkpt lat="45.4268091" lon="11.5351307"><ele>368.20000000000005</ele><time>2026-04-03T22:16:33.71Z</time></trkpt><trkpt lat="45.4267142" lon="11.5351531"><ele>367.6</ele><time>2026-04-03T22:16:34.706Z</time></trkpt><trkpt lat="45.4266268" lon="11.5351728"><ele>367.0</ele><time>2026-04-03T22:16:35.711Z</time></trkpt><trkpt lat="45.4265427" lon="11.5351954"><ele>367.0</ele><time>2026-04-03T22:16:36.709Z</time></trkpt><trkpt lat="45.4264575" lon="11.5352118"><ele>367.0</ele><time>2026-04-03T22:16:37.706Z</time></trkpt><trkpt lat="45.4263725" lon="11.5352214"><ele>367.0</ele><time>2026-04-03T22:16:38.699Z</time></trkpt><trkpt lat="45.4262883" lon="11.5352278"><ele>367.0</ele><time>2026-04-03T22:16:39.7Z</time></trkpt><trkpt lat="45.426202" lon="11.5352296"><ele>367.0</ele><time>2026-04-03T22:16:40.703Z</time></trkpt><trkpt lat="45.42612" lon="11.5352037"><ele>367.0</ele><time>2026-04-03T22:16:41.702Z</time></trkpt><trkpt lat="45.4260479" lon="11.5351775"><ele>364.5</ele><time>2026-04-03T22:16:42.702Z</time></trkpt><trkpt lat="45.4259849" lon="11.535161"><ele>362.0</ele><time>2026-04-03T22:16:43.712Z</time></trkpt><trkpt lat="45.425861" lon="11.5351557"><ele>359.5</ele><time>2026-04-03T22:16:45.705Z</time></trkpt><trkpt lat="45.4257992" lon="11.5351782"><ele>357.0</ele><time>2026-04-03T22:16:46.701Z</time></trkpt><trkpt lat="45.4257228" lon="11.5351926"><ele>354.5</ele><time>2026-04-03T22:16:47.696Z</time></trkpt><trkpt lat="45.4256275" lon="11.5351991"><ele>352.0</ele><time>2026-04-03T22:16:48.699Z</time></trkpt><trkpt lat="45.4255219" lon="11.5351913"><ele>350.25</ele><time>2026-04-03T22:16:49.705Z</time></trkpt><trkpt lat="45.4253057" lon="11.5351517"><ele>348.5</ele><time>2026-04-03T22:16:51.71Z</time></trkpt><trkpt lat="45.4252041" lon="11.5351284"><ele>346.75</ele><time>2026-04-03T22:16:52.705Z</time></trkpt><trkpt lat="45.4251047" lon="11.5351056"><ele>345.0</ele><time>2026-04-03T22:16:53.706Z</time></trkpt><trkpt lat="45.4250101" lon="11.5350948"><ele>345.0</ele><time>2026-04-03T22:16:54.708Z</time></trkpt><trkpt lat="45.424919" lon="11.5350956"><ele>345.0</ele><time>2026-04-03T22:16:55.699Z</time></trkpt><trkpt lat="45.4248308" lon="11.5351029"><ele>345.0</ele><time>2026-04-03T22:16:56.707Z</time></trkpt><trkpt lat="45.4247395" lon="11.5351066"><ele>345.0</ele><time>2026-04-03T22:16:57.71Z</time></trkpt><trkpt lat="45.4246394" lon="11.5351086"><ele>345.0</ele><time>2026-04-03T22:16:58.705Z</time></trkpt><trkpt lat="45.4245363" lon="11.5351098"><ele>344.0</ele><time>2026-04-03T22:16:59.712Z</time></trkpt><trkpt lat="45.424439" lon="11.5351194"><ele>343.0</ele><time>2026-04-03T22:17:00.712Z</time></trkpt><trkpt lat="45.4243377" lon="11.5351352"><ele>342.0</ele><time>2026-04-03T22:17:01.718Z</time></trkpt><trkpt lat="45.4242339" lon="11.5351492"><ele>341.0</ele><time>2026-04-03T22:17:02.712Z</time></trkpt><trkpt lat="45.4241344" lon="11.5351605"><ele>340.0</ele><time>2026-04-03T22:17:03.714Z</time></trkpt><trkpt lat="45.4240427" lon="11.5351684"><ele>340.0</ele><time>2026-04-03T22:17:04.713Z</time></trkpt><trkpt lat="45.4239596" lon="11.5351722"><ele>340.0</ele><time>2026-04-03T22:17:05.713Z</time></trkpt><trkpt lat="45.4238903" lon="11.5351671"><ele>340.0</ele><time>2026-04-03T22:17:06.714Z</time></trkpt><trkpt lat="45.4238155" lon="11.5351099"><ele>340.0</ele><time>2026-04-03T22:17:08.712Z</time></trkpt><trkpt lat="45.4238208" lon="11.5349319"><ele>340.0</ele><time>2026-04-03T22:17:10.707Z</time></trkpt><trkpt lat="45.4238241" lon="11.5347196"><ele>339.4</ele><time>2026-04-03T22:17:13.716Z</time></trkpt><trkpt lat="45.4237856" lon="11.5346124"><ele>338.8</ele><time>2026-04-03T22:17:48.725Z</time></trkpt><trkpt lat="45.4236812" lon="11.5344539"><ele>338.20000000000005</ele><time>2026-04-03T22:17:50.713Z</time></trkpt><trkpt lat="45.4235804" lon="11.5344122"><ele>337.6</ele><time>2026-04-03T22:17:52.716Z</time></trkpt><trkpt lat="45.4235154" lon="11.5344335"><ele>337.0</ele><time>2026-04-03T22:17:53.723Z</time></trkpt><trkpt lat="45.4234394" lon="11.5344657"><ele>337.0</ele><time>2026-04-03T22:17:54.718Z</time></trkpt><trkpt lat="45.423357" lon="11.5344957"><ele>337.0</ele><time>2026-04-03T22:17:55.719Z</time></trkpt><trkpt lat="45.4232646" lon="11.534526"><ele>337.0</ele><time>2026-04-03T22:17:56.712Z</time></trkpt><trkpt lat="45.4231706" lon="11.5345629"><ele>337.0</ele><time>2026-04-03T22:17:57.712Z</time></trkpt><trkpt lat="45.4230905" lon="11.5346267"><ele>337.0</ele><time>2026-04-03T22:17:58.719Z</time></trkpt><trkpt lat="45.4230117" lon="11.5347255"><ele>340.5</ele><time>2026-04-03T22:17:59.715Z</time></trkpt><trkpt lat="45.4229466" lon="11.5348372"><ele>344.0</ele><time>2026-04-03T22:18:00.721Z</time></trkpt><trkpt lat="45.4228886" lon="11.5349595"><ele>347.5</ele><time>2026-04-03T22:18:01.711Z</time></trkpt><trkpt lat="45.4228434" lon="11.5350631"><ele>351.0</ele><time>2026-04-03T22:18:02.71Z</time></trkpt><trkpt lat="45.4227965" lon="11.5351258"><ele>354.5</ele><time>2026-04-03T22:18:03.711Z</time></trkpt><trkpt lat="45.4227028" lon="11.5351237"><ele>358.0</ele><time>2026-04-03T22:18:05.702Z</time></trkpt><trkpt lat="45.4226769" lon="11.5350227"><ele>358.0</ele><time>2026-04-03T22:18:07.702Z</time></trkpt><trkpt lat="45.4227284" lon="11.5348398"><ele>358.0</ele><time>2026-04-03T22:18:09.711Z</time></trkpt><trkpt lat="45.4228086" lon="11.5345155"><ele>358.0</ele><time>2026-04-03T22:18:11.708Z</time></trkpt><trkpt lat="45.4228387" lon="11.5343557"><ele>359.5</ele><time>2026-04-03T22:18:12.709Z</time></trkpt><trkpt lat="45.422856" lon="11.5342008"><ele>361.0</ele><time>2026-04-03T22:18:13.705Z</time></trkpt><trkpt lat="45.4228645" lon="11.534056"><ele>362.5</ele><time>2026-04-03T22:18:14.71Z</time></trkpt><trkpt lat="45.4228592" lon="11.5338952"><ele>364.0</ele><time>2026-04-03T22:18:15.703Z</time></trkpt><trkpt lat="45.4228374" lon="11.5337136"><ele>364.75</ele><time>2026-04-03T22:18:16.711Z</time></trkpt><trkpt lat="45.4228151" lon="11.5335309"><ele>365.5</ele><time>2026-04-03T22:18:17.705Z</time></trkpt><trkpt lat="45.4228116" lon="11.5333642"><ele>366.25</ele><time>2026-04-03T22:18:18.717Z</time></trkpt><trkpt lat="45.4228092" lon="11.533212"><ele>367.0</ele><time>2026-04-03T22:18:19.703Z</time></trkpt><trkpt lat="45.4228064" lon="11.5330728"><ele>367.0</ele><time>2026-04-03T22:18:20.709Z</time></trkpt><trkpt lat="45.4228025" lon="11.5329368"><ele>367.0</ele><time>2026-04-03T22:18:21.711Z</time></trkpt><trkpt lat="45.422804" lon="11.5328111"><ele>367.0</ele><time>2026-04-03T22:18:22.71Z</time></trkpt><trkpt lat="45.4228119" lon="11.5326947"><ele>367.0</ele><time>2026-04-03T22:18:23.724Z</time></trkpt><trkpt lat="45.4228176" lon="11.532577"><ele>367.0</ele><time>2026-04-03T22:18:24.714Z</time></trkpt><trkpt lat="45.4228075" lon="11.5324505"><ele>367.0</ele><time>2026-04-03T22:18:25.715Z</time></trkpt><trkpt lat="45.422786" lon="11.5323036"><ele>366.8</ele><time>2026-04-03T22:18:26.711Z</time></trkpt><trkpt lat="45.4227548" lon="11.5321589"><ele>366.6</ele><time>2026-04-03T22:18:27.708Z</time></trkpt><trkpt lat="45.4227387" lon="11.5320285"><ele>366.40000000000003</ele><time>2026-04-03T22:18:28.71Z</time></trkpt><trkpt lat="45.4227335" lon="11.5319078"><ele>366.20000000000005</ele><time>2026-04-03T22:18:29.713Z</time></trkpt><trkpt lat="45.4227344" lon="11.5317999"><ele>366.0</ele><time>2026-04-03T22:18:30.714Z</time></trkpt><trkpt lat="45.4226568" lon="11.531611"><ele>366.3333333333333</ele><time>2026-04-03T22:18:36.715Z</time></trkpt><trkpt lat="45.4226332" lon="11.5314946"><ele>366.6666666666667</ele><time>2026-04-03T22:18:44.718Z</time></trkpt><trkpt lat="45.422551" lon="11.5313662"><ele>367.0</ele><time>2026-04-03T22:18:46.708Z</time></trkpt><trkpt lat="45.4224894" lon="11.5312966"><ele>367.33333333333337</ele><time>2026-04-03T22:18:47.713Z</time></trkpt><trkpt lat="45.4224205" lon="11.5312351"><ele>367.6666666666667</ele><time>2026-04-03T22:18:48.707Z</time></trkpt><trkpt lat="45.4223527" lon="11.5311795"><ele>368.0</ele><time>2026-04-03T22:18:49.707Z</time></trkpt><trkpt lat="45.4222894" lon="11.5311294"><ele>368.75</ele><time>2026-04-03T22:18:50.699Z</time></trkpt><trkpt lat="45.4222346" lon="11.5310812"><ele>369.5</ele><time>2026-04-03T22:18:51.704Z</time></trkpt><trkpt lat="45.4220647" lon="11.5308735"><ele>370.25</ele><time>2026-04-03T22:18:55.703Z</time></trkpt><trkpt lat="45.4219938" lon="11.5307641"><ele>371.0</ele><time>2026-04-03T22:18:57.702Z</time></trkpt><trkpt lat="45.4219472" lon="11.5306474"><ele>374.6666666666667</ele><time>2026-04-03T22:18:59.709Z</time></trkpt><trkpt lat="45.4219012" lon="11.5305104"><ele>378.33333333333337</ele><time>2026-04-03T22:19:01.715Z</time></trkpt><trkpt lat="45.4218855" lon="11.5304211"><ele>382.0</ele><time>2026-04-03T22:19:02.704Z</time></trkpt><trkpt lat="45.4218862" lon="11.5303186"><ele>385.6666666666667</ele><time>2026-04-03T22:19:03.705Z</time></trkpt><trkpt lat="45.4219018" lon="11.5302159"><ele>389.3333333333333</ele><time>2026-04-03T22:19:04.704Z</time></trkpt><trkpt lat="45.4219173" lon="11.5301241"><ele>393.0</ele><time>2026-04-03T22:19:05.703Z</time></trkpt><trkpt lat="45.4219284" lon="11.5299686"><ele>393.75</ele><time>2026-04-03T22:19:07.71Z</time></trkpt><trkpt lat="45.4219667" lon="11.5298365"><ele>394.5</ele><time>2026-04-03T22:19:09.712Z</time></trkpt><trkpt lat="45.4219685" lon="11.529715"><ele>395.25</ele><time>2026-04-03T22:19:11.707Z</time></trkpt><trkpt lat="45.421918" lon="11.5295449"><ele>396.0</ele><time>2026-04-03T22:19:13.709Z</time></trkpt><trkpt lat="45.4218529" lon="11.5293554"><ele>396.8333333333333</ele><time>2026-04-03T22:19:15.711Z</time></trkpt><trkpt lat="45.4218179" lon="11.5292754"><ele>397.66666666666663</ele><time>2026-04-03T22:19:16.704Z</time></trkpt><trkpt lat="45.4217486" lon="11.5292868"><ele>398.5</ele><time>2026-04-03T22:19:19.709Z</time></trkpt><trkpt lat="45.4217195" lon="11.5294339"><ele>399.3333333333333</ele><time>2026-04-03T22:19:21.702Z</time></trkpt><trkpt lat="45.4216745" lon="11.5295048"><ele>400.16666666666663</ele><time>2026-04-03T22:19:24.708Z</time></trkpt><trkpt lat="45.4216674" lon="11.5293849"><ele>401.0</ele><time>2026-04-03T22:19:26.71Z</time></trkpt><trkpt lat="45.4216641" lon="11.5292716"><ele>401.0</ele><time>2026-04-03T22:19:27.708Z</time></trkpt><trkpt lat="45.4216538" lon="11.5291216"><ele>401.0</ele><time>2026-04-03T22:19:28.71Z</time></trkpt><trkpt lat="45.4216518" lon="11.5289727"><ele>401.0</ele><time>2026-04-03T22:19:29.704Z</time></trkpt><trkpt lat="45.4216501" lon="11.5288508"><ele>401.0</ele><time>2026-04-03T22:19:30.71Z</time></trkpt><trkpt lat="45.4216383" lon="11.5287416"><ele>401.0</ele><time>2026-04-03T22:19:31.715Z</time></trkpt><trkpt lat="45.421632" lon="11.5286212"><ele>402.4</ele><time>2026-04-03T22:19:32.71Z</time></trkpt><trkpt lat="45.4216224" lon="11.5285054"><ele>403.8</ele><time>2026-04-03T22:19:33.71Z</time></trkpt><trkpt lat="45.4216075" lon="11.5283986"><ele>405.2</ele><time>2026-04-03T22:19:34.715Z</time></trkpt><trkpt lat="45.4215191" lon="11.5282404"><ele>406.59999999999997</ele><time>2026-04-03T22:19:36.721Z</time></trkpt><trkpt lat="45.421434" lon="11.5281773"><ele>408.0</ele><time>2026-04-03T22:19:38.723Z</time></trkpt><trkpt lat="45.4213996" lon="11.5283154"><ele>408.0</ele><time>2026-04-03T22:20:12.712Z</time></trkpt><trkpt lat="45.421355" lon="11.5285731"><ele>408.0</ele><time>2026-04-03T22:20:14.706Z</time></trkpt><trkpt lat="45.4213408" lon="11.5287101"><ele>408.0</ele><time>2026-04-03T22:20:15.713Z</time></trkpt><trkpt lat="45.4213168" lon="11.5288199"><ele>408.0</ele><time>2026-04-03T22:20:16.707Z</time></trkpt><trkpt lat="45.4212816" lon="11.5289146"><ele>408.0</ele><time>2026-04-03T22:20:17.705Z</time></trkpt><trkpt lat="45.4212292" lon="11.5289926"><ele>407.59999999999997</ele><time>2026-04-03T22:20:18.708Z</time></trkpt><trkpt lat="45.4211616" lon="11.5290657"><ele>407.2</ele><time>2026-04-03T22:20:19.706Z</time></trkpt><trkpt lat="45.4210958" lon="11.5291508"><ele>406.8</ele><time>2026-04-03T22:20:20.708Z</time></trkpt><trkpt lat="45.4210271" lon="11.5292568"><ele>406.4</ele><time>2026-04-03T22:20:21.708Z</time></trkpt><trkpt lat="45.4209567" lon="11.5293576"><ele>406.0</ele><time>2026-04-03T22:20:22.712Z</time></trkpt><trkpt lat="45.4209058" lon="11.5294522"><ele>407.1666666666667</ele><time>2026-04-03T22:20:23.715Z</time></trkpt><trkpt lat="45.4208729" lon="11.5295588"><ele>408.33333333333337</ele><time>2026-04-03T22:20:24.71Z</time></trkpt><trkpt lat="45.4208483" lon="11.5296845"><ele>409.5</ele><time>2026-04-03T22:20:25.716Z</time></trkpt><trkpt lat="45.4208293" lon="11.5298065"><ele>410.66666666666663</ele><time>2026-04-03T22:20:26.71Z</time></trkpt><trkpt lat="45.4208088" lon="11.5299251"><ele>411.8333333333333</ele><time>2026-04-03T22:20:27.714Z</time></trkpt><trkpt lat="45.4207773" lon="11.5300326"><ele>413.0</ele><time>2026-04-03T22:20:28.707Z</time></trkpt><trkpt lat="45.4207384" lon="11.5301251"><ele>413.0</ele><time>2026-04-03T22:20:29.719Z</time></trkpt><trkpt lat="45.420667" lon="11.5302389"><ele>413.0</ele><time>2026-04-03T22:20:31.714Z</time></trkpt><trkpt lat="45.4205702" lon="11.5303263"><ele>413.0</ele><time>2026-04-03T22:20:33.704Z</time></trkpt><trkpt lat="45.4204351" lon="11.5303933"><ele>413.0</ele><time>2026-04-03T22:20:35.702Z</time></trkpt><trkpt lat="45.4203557" lon="11.5304077"><ele>413.0</ele><time>2026-04-03T22:20:36.702Z</time></trkpt><trkpt lat="45.4202756" lon="11.5304347"><ele>413.7142857142857</ele><time>2026-04-03T22:20:37.703Z</time></trkpt><trkpt lat="45.4202029" lon="11.5304501"><ele>414.42857142857144</ele><time>2026-04-03T22:20:38.697Z</time></trkpt><trkpt lat="45.4201302" lon="11.5304696"><ele>415.1428571428571</ele><time>2026-04-03T22:20:39.697Z</time></trkpt><trkpt lat="45.4200597" lon="11.5305023"><ele>415.8571428571429</ele><time>2026-04-03T22:20:40.698Z</time></trkpt><trkpt lat="45.4199959" lon="11.5305399"><ele>416.57142857142856</ele><time>2026-04-03T22:20:41.7Z</time></trkpt><trkpt lat="45.4199222" lon="11.530558"><ele>417.2857142857143</ele><time>2026-04-03T22:20:43.699Z</time></trkpt><trkpt lat="45.4198706" lon="11.5306246"><ele>418.0</ele><time>2026-04-03T22:20:46.703Z</time></trkpt><trkpt lat="45.4198065" lon="11.5307579"><ele>418.00000000000006</ele><time>2026-04-03T22:20:48.699Z</time></trkpt><trkpt lat="45.4197546" lon="11.5308283"><ele>418.0</ele><time>2026-04-03T22:20:49.706Z</time></trkpt><trkpt lat="45.4197042" lon="11.5308897"><ele>418.0</ele><time>2026-04-03T22:20:50.694Z</time></trkpt><trkpt lat="45.4196582" lon="11.530971"><ele>418.0</ele><time>2026-04-03T22:20:51.706Z</time></trkpt><trkpt lat="45.4196218" lon="11.5311066"><ele>418.00000000000006</ele><time>2026-04-03T22:20:53.713Z</time></trkpt><trkpt lat="45.4196612" lon="11.5311852"><ele>418.0</ele><time>2026-04-03T22:21:02.719Z</time></trkpt><trkpt lat="45.4197943" lon="11.5313387"><ele>417.1666666666667</ele><time>2026-04-03T22:21:06.708Z</time></trkpt><trkpt lat="45.4198674" lon="11.531401"><ele>416.33333333333337</ele><time>2026-04-03T22:21:08.705Z</time></trkpt><trkpt lat="45.4199283" lon="11.5314411"><ele>415.5</ele><time>2026-04-03T22:21:09.71Z</time></trkpt><trkpt lat="45.4199892" lon="11.5315488"><ele>414.66666666666663</ele><time>2026-04-03T22:21:10.7Z</time></trkpt><trkpt lat="45.4200469" lon="11.5316304"><ele>413.8333333333333</ele><time>2026-04-03T22:21:11.715Z</time></trkpt><trkpt lat="45.4200914" lon="11.5316979"><ele>413.0</ele><time>2026-04-03T22:21:12.698Z</time></trkpt><trkpt lat="45.4200567" lon="11.5317812"><ele>413.0</ele><time>2026-04-03T22:21:28.707Z</time></trkpt><trkpt lat="45.4198727" lon="11.5317797"><ele>413.0</ele><time>2026-04-03T22:21:32.704Z</time></trkpt><trkpt lat="45.4198084" lon="11.5317629"><ele>413.0</ele><time>2026-04-03T22:22:53.727Z</time></trkpt><trkpt lat="45.4196954" lon="11.5320611"><ele>412.59999999999997</ele><time>2026-04-03T22:22:58.694Z</time></trkpt><trkpt lat="45.4196183" lon="11.5321691"><ele>412.2</ele><time>2026-04-03T22:23:00.699Z</time></trkpt><trkpt lat="45.4195502" lon="11.5322055"><ele>411.8</ele><time>2026-04-03T22:23:02.709Z</time></trkpt><trkpt lat="45.4194621" lon="11.5321952"><ele>411.4</ele><time>2026-04-03T22:23:05.706Z</time></trkpt><trkpt lat="45.4194666" lon="11.5320818"><ele>411.0</ele><time>2026-04-03T22:27:34.729Z</time></trkpt><trkpt lat="45.4195158" lon="11.5318868"><ele>411.4</ele><time>2026-04-03T22:27:38.72Z</time></trkpt><trkpt lat="45.4195633" lon="11.5317787"><ele>411.8</ele><time>2026-04-03T22:27:41.715Z</time></trkpt><trkpt lat="45.4195857" lon="11.5316756"><ele>412.2</ele><time>2026-04-03T22:27:43.712Z</time></trkpt><trkpt lat="45.4196116" lon="11.5315568"><ele>412.59999999999997</ele><time>2026-04-03T22:27:45.717Z</time></trkpt><trkpt lat="45.419642" lon="11.531402"><ele>413.0</ele><time>2026-04-03T22:27:47.721Z</time></trkpt><trkpt lat="45.4196555" lon="11.5312614"><ele>413.0</ele><time>2026-04-03T22:27:49.712Z</time></trkpt><trkpt lat="45.4196748" lon="11.5311374"><ele>413.0</ele><time>2026-04-03T22:27:51.716Z</time></trkpt><trkpt lat="45.4197517" lon="11.5311824"><ele>413.0</ele><time>2026-04-03T22:27:55.713Z</time></trkpt><trkpt lat="45.4198652" lon="11.5313185"><ele>413.0</ele><time>2026-04-03T22:27:59.71Z</time></trkpt><trkpt lat="45.4199308" lon="11.5313806"><ele>413.0</ele><time>2026-04-03T22:28:01.711Z</time></trkpt><trkpt lat="45.4200169" lon="11.5314884"><ele>412.99999999999994</ele><time>2026-04-03T22:28:03.709Z</time></trkpt><trkpt lat="45.4200768" lon="11.5315439"><ele>413.0</ele><time>2026-04-03T22:28:05.712Z</time></trkpt><trkpt lat="45.4200121" lon="11.5315765"><ele>413.0</ele><time>2026-04-03T22:28:10.711Z</time></trkpt><trkpt lat="45.4199717" lon="11.5316595"><ele>413.0</ele><time>2026-04-03T22:28:19.722Z</time></trkpt><trkpt lat="45.4198654" lon="11.5317664"><ele>412.99999999999994</ele><time>2026-04-03T22:28:26.712Z</time></trkpt><trkpt lat="45.419803" lon="11.5317883"><ele>413.0</ele><time>2026-04-03T22:28:29.71Z</time></trkpt><trkpt lat="45.4197391" lon="11.5319186"><ele>413.0</ele><time>2026-04-03T22:28:32.705Z</time></trkpt><trkpt lat="45.4196651" lon="11.5320515"><ele>413.0</ele><time>2026-04-03T22:28:34.701Z</time></trkpt><trkpt lat="45.4196046" lon="11.5321452"><ele>413.0</ele><time>2026-04-03T22:28:36.705Z</time></trkpt><trkpt lat="45.4195557" lon="11.5322176"><ele>413.0</ele><time>2026-04-03T22:28:39.708Z</time></trkpt><trkpt lat="45.4194776" lon="11.5322059"><ele>413.0</ele><time>2026-04-03T22:28:42.709Z</time></trkpt><trkpt lat="45.4193394" lon="11.5321241"><ele>412.59999999999997</ele><time>2026-04-03T22:28:48.724Z</time></trkpt><trkpt lat="45.4192715" lon="11.532063"><ele>412.2</ele><time>2026-04-03T22:29:03.726Z</time></trkpt><trkpt lat="45.4191154" lon="11.5320775"><ele>411.8</ele><time>2026-04-03T22:29:12.721Z</time></trkpt><trkpt lat="45.4190403" lon="11.5320766"><ele>411.4</ele><time>2026-04-03T22:29:15.721Z</time></trkpt><trkpt lat="45.4190042" lon="11.5319985"><ele>411.0</ele><time>2026-04-03T22:34:18.731Z</time></trkpt><trkpt lat="45.4190073" lon="11.5317804"><ele>411.5</ele><time>2026-04-03T22:34:23.735Z</time></trkpt><trkpt lat="45.4190361" lon="11.5316632"><ele>412.0</ele><time>2026-04-03T22:34:26.721Z</time></trkpt><trkpt lat="45.4190793" lon="11.531579"><ele>412.5</ele><time>2026-04-03T22:34:29.722Z</time></trkpt><trkpt lat="45.4190893" lon="11.5314583"><ele>413.0</ele><time>2026-04-03T22:34:32.716Z</time></trkpt><trkpt lat="45.4191105" lon="11.5313518"><ele>413.5</ele><time>2026-04-03T22:34:34.718Z</time></trkpt><trkpt lat="45.4191383" lon="11.5312595"><ele>414.0</ele><time>2026-04-03T22:34:37.715Z</time></trkpt><trkpt lat="45.4191703" lon="11.5311778"><ele>414.0</ele><time>2026-04-03T22:34:46.727Z</time></trkpt><trkpt lat="45.419263" lon="11.5310178"><ele>414.0</ele><time>2026-04-03T22:34:51.724Z</time></trkpt><trkpt lat="45.4193147" lon="11.5309318"><ele>414.0</ele><time>2026-04-03T22:34:53.726Z</time></trkpt><trkpt lat="45.4193143" lon="11.5308089"><ele>414.0</ele><time>2026-04-03T22:34:56.723Z</time></trkpt><trkpt lat="45.419352" lon="11.5306926"><ele>414.0</ele><time>2026-04-03T22:35:00.73Z</time></trkpt><trkpt lat="45.4194192" lon="11.5306291"><ele>414.0</ele><time>2026-04-03T22:35:02.726Z</time></trkpt><trkpt lat="45.4195043" lon="11.5306098"><ele>414.0</ele><time>2026-04-03T22:35:04.722Z</time></trkpt><trkpt lat="45.4196089" lon="11.5305962"><ele>414.0</ele><time>2026-04-03T22:35:06.724Z</time></trkpt><trkpt lat="45.4197097" lon="11.5305699"><ele>414.0</ele><time>2026-04-03T22:35:08.728Z</time></trkpt><trkpt lat="45.4199003" lon="11.5305648"><ele>414.79999999999995</ele><time>2026-04-03T22:35:12.713Z</time></trkpt><trkpt lat="45.4200178" lon="11.5305522"><ele>415.59999999999997</ele><time>2026-04-03T22:35:14.71Z</time></trkpt><trkpt lat="45.4201301" lon="11.5304788"><ele>416.4</ele><time>2026-04-03T22:35:16.714Z</time></trkpt><trkpt lat="45.4201906" lon="11.5304357"><ele>417.2</ele><time>2026-04-03T22:35:17.71Z</time></trkpt><trkpt lat="45.4203007" lon="11.5303969"><ele>418.0</ele><time>2026-04-03T22:35:19.706Z</time></trkpt><trkpt lat="45.4204075" lon="11.5303412"><ele>418.00000000000006</ele><time>2026-04-03T22:35:21.702Z</time></trkpt><trkpt lat="45.4204766" lon="11.5303067"><ele>418.0</ele><time>2026-04-03T22:35:22.712Z</time></trkpt><trkpt lat="45.4205437" lon="11.5302765"><ele>418.0</ele><time>2026-04-03T22:35:23.714Z</time></trkpt><trkpt lat="45.4206055" lon="11.5302477"><ele>418.0</ele><time>2026-04-03T22:35:24.711Z</time></trkpt><trkpt lat="45.4207046" lon="11.5301474"><ele>418.00000000000006</ele><time>2026-04-03T22:35:26.719Z</time></trkpt><trkpt lat="45.4207829" lon="11.5300374"><ele>418.0</ele><time>2026-04-03T22:35:28.718Z</time></trkpt><trkpt lat="45.4208399" lon="11.529904"><ele>417.1666666666667</ele><time>2026-04-03T22:35:30.712Z</time></trkpt><trkpt lat="45.4208859" lon="11.5297337"><ele>416.33333333333337</ele><time>2026-04-03T22:35:32.716Z</time></trkpt><trkpt lat="45.4209054" lon="11.5296396"><ele>415.5</ele><time>2026-04-03T22:35:33.713Z</time></trkpt><trkpt lat="45.4209194" lon="11.5295364"><ele>414.66666666666663</ele><time>2026-04-03T22:35:34.714Z</time></trkpt><trkpt lat="45.4209343" lon="11.5294245"><ele>413.8333333333333</ele><time>2026-04-03T22:35:35.719Z</time></trkpt><trkpt lat="45.4209602" lon="11.5293193"><ele>413.0</ele><time>2026-04-03T22:35:36.714Z</time></trkpt><trkpt lat="45.421003" lon="11.5292252"><ele>412.16666666666663</ele><time>2026-04-03T22:35:37.722Z</time></trkpt><trkpt lat="45.4210628" lon="11.5291277"><ele>411.3333333333333</ele><time>2026-04-03T22:35:38.721Z</time></trkpt><trkpt lat="45.4211291" lon="11.5290263"><ele>410.5</ele><time>2026-04-03T22:35:39.724Z</time></trkpt><trkpt lat="45.4211919" lon="11.5289376"><ele>409.66666666666663</ele><time>2026-04-03T22:35:40.725Z</time></trkpt><trkpt lat="45.4212547" lon="11.5288656"><ele>408.8333333333333</ele><time>2026-04-03T22:35:41.721Z</time></trkpt><trkpt lat="45.4213092" lon="11.5288083"><ele>408.0</ele><time>2026-04-03T22:35:42.73Z</time></trkpt><trkpt lat="45.4213852" lon="11.5286993"><ele>408.0</ele><time>2026-04-03T22:35:44.731Z</time></trkpt><trkpt lat="45.4214232" lon="11.5285832"><ele>408.0</ele><time>2026-04-03T22:35:46.715Z</time></trkpt><trkpt lat="45.4214361" lon="11.5284499"><ele>408.0</ele><time>2026-04-03T22:35:48.725Z</time></trkpt><trkpt lat="45.421448" lon="11.5283166"><ele>408.0</ele><time>2026-04-03T22:35:50.725Z</time></trkpt><trkpt lat="45.4214782" lon="11.5282259"><ele>408.0</ele><time>2026-04-03T22:35:52.722Z</time></trkpt><trkpt lat="45.4215894" lon="11.5283278"><ele>408.0</ele><time>2026-04-03T22:35:57.726Z</time></trkpt><trkpt lat="45.4216283" lon="11.5284086"><ele>408.0</ele><time>2026-04-03T22:35:59.73Z</time></trkpt><trkpt lat="45.4216592" lon="11.5285228"><ele>408.0</ele><time>2026-04-03T22:36:02.728Z</time></trkpt><trkpt lat="45.4216713" lon="11.52863"><ele>408.0</ele><time>2026-04-03T22:36:05.725Z</time></trkpt><trkpt lat="45.4216709" lon="11.5287499"><ele>408.0</ele><time>2026-04-03T22:36:08.72Z</time></trkpt><trkpt lat="45.4216789" lon="11.5288492"><ele>408.0</ele><time>2026-04-03T22:36:10.719Z</time></trkpt><trkpt lat="45.4216841" lon="11.5289634"><ele>406.59999999999997</ele><time>2026-04-03T22:36:12.724Z</time></trkpt><trkpt lat="45.4216801" lon="11.5290814"><ele>405.2</ele><time>2026-04-03T22:36:14.721Z</time></trkpt><trkpt lat="45.4216448" lon="11.5293877"><ele>403.8</ele><time>2026-04-03T22:36:18.717Z</time></trkpt><trkpt lat="45.4216318" lon="11.5294776"><ele>402.4</ele><time>2026-04-03T22:36:20.716Z</time></trkpt><trkpt lat="45.4216919" lon="11.5295115"><ele>401.0</ele><time>2026-04-03T22:36:27.725Z</time></trkpt><trkpt lat="45.4217283" lon="11.5294331"><ele>401.0</ele><time>2026-04-03T22:36:29.722Z</time></trkpt><trkpt lat="45.4217602" lon="11.5293158"><ele>401.0</ele><time>2026-04-03T22:36:31.728Z</time></trkpt><trkpt lat="45.4218092" lon="11.5292591"><ele>401.0</ele><time>2026-04-03T22:36:33.723Z</time></trkpt><trkpt lat="45.4218426" lon="11.5293367"><ele>401.0</ele><time>2026-04-03T22:36:35.716Z</time></trkpt><trkpt lat="45.4219016" lon="11.5295829"><ele>401.0</ele><time>2026-04-03T22:36:39.717Z</time></trkpt><trkpt lat="45.4219247" lon="11.5297027"><ele>400.16666666666663</ele><time>2026-04-03T22:36:41.718Z</time></trkpt><trkpt lat="45.4219506" lon="11.5298153"><ele>399.3333333333333</ele><time>2026-04-03T22:36:43.721Z</time></trkpt><trkpt lat="45.4219581" lon="11.5299273"><ele>398.5</ele><time>2026-04-03T22:36:46.713Z</time></trkpt><trkpt lat="45.4219206" lon="11.5300404"><ele>397.66666666666663</ele><time>2026-04-03T22:36:49.719Z</time></trkpt><trkpt lat="45.4219194" lon="11.5301418"><ele>396.8333333333333</ele><time>2026-04-03T22:36:51.714Z</time></trkpt><trkpt lat="45.4219123" lon="11.5302775"><ele>396.0</ele><time>2026-04-03T22:36:53.721Z</time></trkpt><trkpt lat="45.4219076" lon="11.5303977"><ele>395.4</ele><time>2026-04-03T22:36:55.72Z</time></trkpt><trkpt lat="45.421899" lon="11.5305196"><ele>394.8</ele><time>2026-04-03T22:36:57.715Z</time></trkpt><trkpt lat="45.4219818" lon="11.5307164"><ele>394.2</ele><time>2026-04-03T22:37:02.707Z</time></trkpt><trkpt lat="45.4220342" lon="11.5308121"><ele>393.59999999999997</ele><time>2026-04-03T22:37:04.704Z</time></trkpt><trkpt lat="45.4220745" lon="11.5309114"><ele>393.0</ele><time>2026-04-03T22:37:06.707Z</time></trkpt><trkpt lat="45.4221048" lon="11.530995"><ele>393.0</ele><time>2026-04-03T22:37:08.707Z</time></trkpt><trkpt lat="45.422144" lon="11.5310676"><ele>393.0</ele><time>2026-04-03T22:37:10.715Z</time></trkpt><trkpt lat="45.4221951" lon="11.5311329"><ele>393.0</ele><time>2026-04-03T22:37:13.718Z</time></trkpt><trkpt lat="45.4222573" lon="11.531187"><ele>393.0</ele><time>2026-04-03T22:37:15.71Z</time></trkpt><trkpt lat="45.4223252" lon="11.5312371"><ele>393.0</ele><time>2026-04-03T22:37:17.716Z</time></trkpt><trkpt lat="45.4223862" lon="11.5312878"><ele>393.0</ele><time>2026-04-03T22:37:19.712Z</time></trkpt><trkpt lat="45.4225096" lon="11.5314021"><ele>388.8333333333333</ele><time>2026-04-03T22:37:23.719Z</time></trkpt><trkpt lat="45.4225611" lon="11.5314784"><ele>384.6666666666667</ele><time>2026-04-03T22:37:25.713Z</time></trkpt><trkpt lat="45.4226244" lon="11.5315858"><ele>380.5</ele><time>2026-04-03T22:37:27.716Z</time></trkpt><trkpt lat="45.4226858" lon="11.5316986"><ele>376.33333333333337</ele><time>2026-04-03T22:37:29.715Z</time></trkpt><trkpt lat="45.4227276" lon="11.5317894"><ele>372.1666666666667</ele><time>2026-04-03T22:37:31.724Z</time></trkpt><trkpt lat="45.4227871" lon="11.5318606"><ele>368.0</ele><time>2026-04-03T22:37:35.713Z</time></trkpt><trkpt lat="45.4227779" lon="11.5319979"><ele>367.59999999999997</ele><time>2026-04-03T22:37:38.713Z</time></trkpt><trkpt lat="45.4227631" lon="11.5321825"><ele>367.2</ele><time>2026-04-03T22:37:40.715Z</time></trkpt><trkpt lat="45.4227751" lon="11.5323798"><ele>366.8</ele><time>2026-04-03T22:37:42.718Z</time></trkpt><trkpt lat="45.4227841" lon="11.5324748"><ele>366.4</ele><time>2026-04-03T22:37:43.72Z</time></trkpt><trkpt lat="45.4227927" lon="11.532576"><ele>366.0</ele><time>2026-04-03T22:37:44.715Z</time></trkpt><trkpt lat="45.4227965" lon="11.5326858"><ele>366.0</ele><time>2026-04-03T22:37:45.72Z</time></trkpt><trkpt lat="45.4227976" lon="11.5327901"><ele>366.0</ele><time>2026-04-03T22:37:46.717Z</time></trkpt><trkpt lat="45.422795" lon="11.5328903"><ele>366.0</ele><time>2026-04-03T22:37:47.72Z</time></trkpt><trkpt lat="45.4227841" lon="11.5329859"><ele>366.0</ele><time>2026-04-03T22:37:48.724Z</time></trkpt><trkpt lat="45.422775" lon="11.5330826"><ele>366.0</ele><time>2026-04-03T22:37:49.72Z</time></trkpt><trkpt lat="45.4227727" lon="11.5331728"><ele>366.0</ele><time>2026-04-03T22:37:50.722Z</time></trkpt><trkpt lat="45.4227888" lon="11.5333421"><ele>366.1666666666667</ele><time>2026-04-03T22:37:52.727Z</time></trkpt><trkpt lat="45.4228005" lon="11.5335056"><ele>366.3333333333333</ele><time>2026-04-03T22:37:54.708Z</time></trkpt><trkpt lat="45.4228023" lon="11.533598"><ele>366.5</ele><time>2026-04-03T22:37:55.716Z</time></trkpt><trkpt lat="45.4228039" lon="11.5336907"><ele>366.66666666666663</ele><time>2026-04-03T22:37:56.715Z</time></trkpt><trkpt lat="45.4228108" lon="11.5337828"><ele>366.8333333333333</ele><time>2026-04-03T22:37:57.715Z</time></trkpt><trkpt lat="45.4228179" lon="11.5338808"><ele>367.0</ele><time>2026-04-03T22:37:58.713Z</time></trkpt><trkpt lat="45.4228253" lon="11.5339944"><ele>366.40000000000003</ele><time>2026-04-03T22:37:59.718Z</time></trkpt><trkpt lat="45.4228365" lon="11.5341089"><ele>365.8</ele><time>2026-04-03T22:38:00.709Z</time></trkpt><trkpt lat="45.4228463" lon="11.5342215"><ele>365.2</ele><time>2026-04-03T22:38:01.711Z</time></trkpt><trkpt lat="45.4228544" lon="11.534432"><ele>364.6</ele><time>2026-04-03T22:38:03.704Z</time></trkpt><trkpt lat="45.4228517" lon="11.5345224"><ele>364.0</ele><time>2026-04-03T22:38:04.701Z</time></trkpt><trkpt lat="45.4228214" lon="11.5346893"><ele>362.79999999999995</ele><time>2026-04-03T22:38:06.707Z</time></trkpt><trkpt lat="45.4227678" lon="11.5348471"><ele>361.59999999999997</ele><time>2026-04-03T22:38:08.704Z</time></trkpt><trkpt lat="45.4227266" lon="11.5349689"><ele>360.4</ele><time>2026-04-03T22:38:10.709Z</time></trkpt><trkpt lat="45.4227106" lon="11.5350781"><ele>359.2</ele><time>2026-04-03T22:38:12.712Z</time></trkpt><trkpt lat="45.4227693" lon="11.5351224"><ele>358.0</ele><time>2026-04-03T22:38:18.712Z</time></trkpt><trkpt lat="45.4227655" lon="11.5352651"><ele>356.3333333333333</ele><time>2026-04-03T22:38:21.713Z</time></trkpt><trkpt lat="45.4227455" lon="11.5354248"><ele>354.6666666666667</ele><time>2026-04-03T22:38:23.718Z</time></trkpt><trkpt lat="45.4226724" lon="11.5357187"><ele>353.0</ele><time>2026-04-03T22:38:25.709Z</time></trkpt><trkpt lat="45.4226021" lon="11.5358874"><ele>353.0</ele><time>2026-04-03T22:38:26.711Z</time></trkpt><trkpt lat="45.4225277" lon="11.5360461"><ele>353.0</ele><time>2026-04-03T22:38:27.698Z</time></trkpt><trkpt lat="45.422445" lon="11.5361904"><ele>353.0</ele><time>2026-04-03T22:38:28.704Z</time></trkpt><trkpt lat="45.4223609" lon="11.5363235"><ele>353.0</ele><time>2026-04-03T22:38:29.698Z</time></trkpt><trkpt lat="45.4222725" lon="11.5364485"><ele>350.5</ele><time>2026-04-03T22:38:30.713Z</time></trkpt><trkpt lat="45.422188" lon="11.5365658"><ele>348.0</ele><time>2026-04-03T22:38:31.702Z</time></trkpt><trkpt lat="45.4221012" lon="11.5366716"><ele>345.5</ele><time>2026-04-03T22:38:32.7Z</time></trkpt><trkpt lat="45.4220146" lon="11.5367704"><ele>343.0</ele><time>2026-04-03T22:38:33.7Z</time></trkpt><trkpt lat="45.4219255" lon="11.5368741"><ele>344.2</ele><time>2026-04-03T22:38:34.708Z</time></trkpt><trkpt lat="45.4218346" lon="11.5369814"><ele>345.4</ele><time>2026-04-03T22:38:35.703Z</time></trkpt><trkpt lat="45.4217453" lon="11.5370887"><ele>346.59999999999997</ele><time>2026-04-03T22:38:36.708Z</time></trkpt><trkpt lat="45.4216632" lon="11.5371909"><ele>347.79999999999995</ele><time>2026-04-03T22:38:37.702Z</time></trkpt><trkpt lat="45.4215802" lon="11.5372773"><ele>349.0</ele><time>2026-04-03T22:38:38.707Z</time></trkpt><trkpt lat="45.4214975" lon="11.537355"><ele>349.0</ele><time>2026-04-03T22:38:39.709Z</time></trkpt><trkpt lat="45.4214143" lon="11.5374067"><ele>349.0</ele><time>2026-04-03T22:38:40.709Z</time></trkpt><trkpt lat="45.4213365" lon="11.5374345"><ele>349.0</ele><time>2026-04-03T22:38:41.711Z</time></trkpt><trkpt lat="45.4212504" lon="11.5374465"><ele>349.0</ele><time>2026-04-03T22:38:42.718Z</time></trkpt><trkpt lat="45.4211672" lon="11.5374682"><ele>349.0</ele><time>2026-04-03T22:38:43.708Z</time></trkpt><trkpt lat="45.4210938" lon="11.537519"><ele>349.0</ele><time>2026-04-03T22:38:44.717Z</time></trkpt><trkpt lat="45.4209148" lon="11.5377181"><ele>349.16666666666663</ele><time>2026-04-03T22:38:46.704Z</time></trkpt><trkpt lat="45.4208305" lon="11.5378231"><ele>349.3333333333333</ele><time>2026-04-03T22:38:47.72Z</time></trkpt><trkpt lat="45.4207553" lon="11.5379082"><ele>349.5</ele><time>2026-04-03T22:38:48.722Z</time></trkpt><trkpt lat="45.420679" lon="11.5379545"><ele>349.6666666666667</ele><time>2026-04-03T22:38:50.725Z</time></trkpt><trkpt lat="45.4206197" lon="11.537883"><ele>349.83333333333337</ele><time>2026-04-03T22:38:54.73Z</time></trkpt><trkpt lat="45.4205434" lon="11.5379211"><ele>350.0</ele><time>2026-04-03T22:38:56.73Z</time></trkpt><trkpt lat="45.4204788" lon="11.5379407"><ele>350.0</ele><time>2026-04-03T22:38:57.732Z</time></trkpt><trkpt lat="45.420377" lon="11.5379628"><ele>350.0</ele><time>2026-04-03T22:38:58.727Z</time></trkpt><trkpt lat="45.4202579" lon="11.5379939"><ele>350.0</ele><time>2026-04-03T22:38:59.728Z</time></trkpt><trkpt lat="45.4201352" lon="11.5380321"><ele>350.0</ele><time>2026-04-03T22:39:00.724Z</time></trkpt><trkpt lat="45.420013" lon="11.5380815"><ele>350.0</ele><time>2026-04-03T22:39:01.736Z</time></trkpt><trkpt lat="45.4198947" lon="11.5381512"><ele>350.0</ele><time>2026-04-03T22:39:02.727Z</time></trkpt><trkpt lat="45.419781" lon="11.5382426"><ele>350.0</ele><time>2026-04-03T22:39:03.73Z</time></trkpt><trkpt lat="45.4196762" lon="11.5383313"><ele>350.0</ele><time>2026-04-03T22:39:04.722Z</time></trkpt><trkpt lat="45.4195809" lon="11.5384106"><ele>347.5</ele><time>2026-04-03T22:39:05.728Z</time></trkpt><trkpt lat="45.4194039" lon="11.5385601"><ele>345.0</ele><time>2026-04-03T22:39:07.722Z</time></trkpt><trkpt lat="45.4193235" lon="11.5386403"><ele>342.5</ele><time>2026-04-03T22:39:08.726Z</time></trkpt><trkpt lat="45.4192398" lon="11.5387323"><ele>340.0</ele><time>2026-04-03T22:39:09.725Z</time></trkpt><trkpt lat="45.4191575" lon="11.5388345"><ele>340.0</ele><time>2026-04-03T22:39:10.724Z</time></trkpt><trkpt lat="45.4190813" lon="11.5389361"><ele>340.0</ele><time>2026-04-03T22:39:11.724Z</time></trkpt><trkpt lat="45.4190074" lon="11.5390358"><ele>340.0</ele><time>2026-04-03T22:39:12.729Z</time></trkpt><trkpt lat="45.4189328" lon="11.5391209"><ele>340.0</ele><time>2026-04-03T22:39:13.725Z</time></trkpt><trkpt lat="45.418862" lon="11.5391881"><ele>340.0</ele><time>2026-04-03T22:39:14.729Z</time></trkpt><trkpt lat="45.4187936" lon="11.5392431"><ele>337.8333333333333</ele><time>2026-04-03T22:39:15.725Z</time></trkpt><trkpt lat="45.4187356" lon="11.5392966"><ele>335.66666666666663</ele><time>2026-04-03T22:39:16.727Z</time></trkpt><trkpt lat="45.4186843" lon="11.5393564"><ele>333.5</ele><time>2026-04-03T22:39:17.729Z</time></trkpt><trkpt lat="45.4185982" lon="11.5394354"><ele>331.3333333333333</ele><time>2026-04-03T22:39:19.737Z</time></trkpt><trkpt lat="45.4185349" lon="11.5395014"><ele>329.1666666666667</ele><time>2026-04-03T22:39:21.722Z</time></trkpt><trkpt lat="45.4184946" lon="11.5395924"><ele>327.0</ele><time>2026-04-03T22:39:23.728Z</time></trkpt><trkpt lat="45.4184941" lon="11.539741"><ele>327.0</ele><time>2026-04-03T22:39:25.723Z</time></trkpt><trkpt lat="45.4185137" lon="11.5398357"><ele>327.0</ele><time>2026-04-03T22:39:26.738Z</time></trkpt><trkpt lat="45.4185168" lon="11.5401472"><ele>327.0</ele><time>2026-04-03T22:39:30.725Z</time></trkpt><trkpt lat="45.4184884" lon="11.5402304"><ele>327.0</ele><time>2026-04-03T22:39:31.745Z</time></trkpt><trkpt lat="45.4184561" lon="11.5403093"><ele>327.0</ele><time>2026-04-03T22:39:32.729Z</time></trkpt><trkpt lat="45.4183899" lon="11.5404517"><ele>325.6</ele><time>2026-04-03T22:39:34.732Z</time></trkpt><trkpt lat="45.4183052" lon="11.5405911"><ele>324.20000000000005</ele><time>2026-04-03T22:39:36.734Z</time></trkpt><trkpt lat="45.4182207" lon="11.54072"><ele>322.8</ele><time>2026-04-03T22:39:38.724Z</time></trkpt><trkpt lat="45.418171" lon="11.5407794"><ele>321.4</ele><time>2026-04-03T22:39:39.728Z</time></trkpt><trkpt lat="45.4181185" lon="11.5408374"><ele>320.0</ele><time>2026-04-03T22:39:40.724Z</time></trkpt><trkpt lat="45.418032" lon="11.5409516"><ele>315.25</ele><time>2026-04-03T22:39:42.728Z</time></trkpt><trkpt lat="45.4179799" lon="11.5410877"><ele>310.5</ele><time>2026-04-03T22:39:44.725Z</time></trkpt><trkpt lat="45.4179132" lon="11.5412104"><ele>305.75</ele><time>2026-04-03T22:39:46.722Z</time></trkpt><trkpt lat="45.4178428" lon="11.5413576"><ele>301.0</ele><time>2026-04-03T22:39:48.725Z</time></trkpt><trkpt lat="45.4178065" lon="11.541549"><ele>301.0</ele><time>2026-04-03T22:39:50.731Z</time></trkpt><trkpt lat="45.4177866" lon="11.5416404"><ele>301.0</ele><time>2026-04-03T22:39:51.725Z</time></trkpt><trkpt lat="45.4177643" lon="11.5417251"><ele>301.0</ele><time>2026-04-03T22:39:52.735Z</time></trkpt><trkpt lat="45.4177237" lon="11.5418917"><ele>301.0</ele><time>2026-04-03T22:39:54.724Z</time></trkpt><trkpt lat="45.417693" lon="11.5419771"><ele>301.0</ele><time>2026-04-03T22:39:55.728Z</time></trkpt><trkpt lat="45.4176298" lon="11.5421291"><ele>301.0</ele><time>2026-04-03T22:39:57.716Z</time></trkpt><trkpt lat="45.4175746" lon="11.5422871"><ele>301.0</ele><time>2026-04-03T22:39:59.718Z</time></trkpt><trkpt lat="45.4175092" lon="11.5423822"><ele>301.0</ele><time>2026-04-03T22:40:01.738Z</time></trkpt><trkpt lat="45.4174402" lon="11.5423333"><ele>301.0</ele><time>2026-04-03T22:40:03.738Z</time></trkpt><trkpt lat="45.4174182" lon="11.5422489"><ele>301.0</ele><time>2026-04-03T22:40:04.727Z</time></trkpt><trkpt lat="45.4174104" lon="11.5421597"><ele>301.0</ele><time>2026-04-03T22:40:05.725Z</time></trkpt><trkpt lat="45.4173928" lon="11.5420186"><ele>301.0</ele><time>2026-04-03T22:40:07.722Z</time></trkpt><trkpt lat="45.4173431" lon="11.5418812"><ele>301.0</ele><time>2026-04-03T22:40:09.718Z</time></trkpt><trkpt lat="45.417272" lon="11.5416314"><ele>301.0</ele><time>2026-04-03T22:40:12.709Z</time></trkpt><trkpt lat="45.4172662" lon="11.5415363"><ele>301.0</ele><time>2026-04-03T22:40:13.714Z</time></trkpt><trkpt lat="45.4172631" lon="11.5414409"><ele>301.0</ele><time>2026-04-03T22:40:14.707Z</time></trkpt><trkpt lat="45.4172602" lon="11.5412624"><ele>301.0</ele><time>2026-04-03T22:40:16.709Z</time></trkpt><trkpt lat="45.4172575" lon="11.5411726"><ele>300.0</ele><time>2026-04-03T22:40:17.718Z</time></trkpt><trkpt lat="45.4172593" lon="11.541011"><ele>299.0</ele><time>2026-04-03T22:40:19.715Z</time></trkpt><trkpt lat="45.417248" lon="11.5408597"><ele>298.0</ele><time>2026-04-03T22:40:21.715Z</time></trkpt><trkpt lat="45.4172643" lon="11.5406885"><ele>297.0</ele><time>2026-04-03T22:40:23.72Z</time></trkpt><trkpt lat="45.4172811" lon="11.5405196"><ele>296.0</ele><time>2026-04-03T22:40:25.716Z</time></trkpt><trkpt lat="45.4172741" lon="11.5403554"><ele>295.0</ele><time>2026-04-03T22:40:27.716Z</time></trkpt><trkpt lat="45.417257" lon="11.5402599"><ele>294.0</ele><time>2026-04-03T22:40:28.713Z</time></trkpt><trkpt lat="45.4172382" lon="11.540167"><ele>293.0</ele><time>2026-04-03T22:40:29.718Z</time></trkpt><trkpt lat="45.4172105" lon="11.5399955"><ele>292.0</ele><time>2026-04-03T22:40:31.727Z</time></trkpt><trkpt lat="45.4172087" lon="11.5397781"><ele>292.0</ele><time>2026-04-03T22:40:33.714Z</time></trkpt><trkpt lat="45.417213" lon="11.5396536"><ele>292.0</ele><time>2026-04-03T22:40:34.719Z</time></trkpt><trkpt lat="45.4172219" lon="11.5395132"><ele>292.0</ele><time>2026-04-03T22:40:35.721Z</time></trkpt><trkpt lat="45.4172389" lon="11.5393528"><ele>292.0</ele><time>2026-04-03T22:40:36.72Z</time></trkpt><trkpt lat="45.4172529" lon="11.5392091"><ele>292.0</ele><time>2026-04-03T22:40:37.726Z</time></trkpt><trkpt lat="45.417262" lon="11.5390986"><ele>289.25</ele><time>2026-04-03T22:40:38.724Z</time></trkpt><trkpt lat="45.4172825" lon="11.5389661"><ele>286.5</ele><time>2026-04-03T22:41:11.723Z</time></trkpt><trkpt lat="45.4172606" lon="11.5386114"><ele>283.75</ele><time>2026-04-03T22:41:15.727Z</time></trkpt><trkpt lat="45.4172477" lon="11.5385209"><ele>281.0</ele><time>2026-04-03T22:41:16.722Z</time></trkpt><trkpt lat="45.4172325" lon="11.5383571"><ele>278.25</ele><time>2026-04-03T22:41:18.72Z</time></trkpt><trkpt lat="45.4172249" lon="11.5381929"><ele>275.5</ele><time>2026-04-03T22:41:20.718Z</time></trkpt><trkpt lat="45.4172131" lon="11.5380287"><ele>272.75</ele><time>2026-04-03T22:41:22.717Z</time></trkpt><trkpt lat="45.4171616" lon="11.5378759"><ele>270.0</ele><time>2026-04-03T22:41:24.724Z</time></trkpt><trkpt lat="45.4170426" lon="11.5377961"><ele>265.85714285714283</ele><time>2026-04-03T22:41:26.726Z</time></trkpt><trkpt lat="45.4169714" lon="11.537779"><ele>261.71428571428567</ele><time>2026-04-03T22:41:27.715Z</time></trkpt><trkpt lat="45.4168968" lon="11.537771"><ele>257.57142857142856</ele><time>2026-04-03T22:41:28.717Z</time></trkpt><trkpt lat="45.416824" lon="11.5377735"><ele>253.42857142857144</ele><time>2026-04-03T22:41:29.722Z</time></trkpt><trkpt lat="45.4167531" lon="11.5377846"><ele>249.2857142857143</ele><time>2026-04-03T22:41:30.727Z</time></trkpt><trkpt lat="45.4166787" lon="11.5378021"><ele>245.14285714285717</ele><time>2026-04-03T22:41:31.729Z</time></trkpt><trkpt lat="45.4166003" lon="11.5378111"><ele>241.0</ele><time>2026-04-03T22:41:32.723Z</time></trkpt><trkpt lat="45.4164424" lon="11.5378093"><ele>240.99999999999997</ele><time>2026-04-03T22:41:34.723Z</time></trkpt><trkpt lat="45.4163701" lon="11.5378422"><ele>241.0</ele><time>2026-04-03T22:41:35.724Z</time></trkpt><trkpt lat="45.4163077" lon="11.5379192"><ele>241.0</ele><time>2026-04-03T22:41:36.725Z</time></trkpt><trkpt lat="45.4162568" lon="11.538"><ele>241.0</ele><time>2026-04-03T22:41:37.718Z</time></trkpt><trkpt lat="45.4162025" lon="11.5380474"><ele>240.99999999999997</ele><time>2026-04-03T22:41:38.73Z</time></trkpt><trkpt lat="45.416117" lon="11.5379969"><ele>241.0</ele><time>2026-04-03T22:41:40.729Z</time></trkpt><trkpt lat="45.4160967" lon="11.5379069"><ele>238.85714285714286</ele><time>2026-04-03T22:41:41.729Z</time></trkpt><trkpt lat="45.416089" lon="11.5378038"><ele>236.71428571428572</ele><time>2026-04-03T22:41:42.727Z</time></trkpt><trkpt lat="45.416085" lon="11.5376968"><ele>234.57142857142858</ele><time>2026-04-03T22:41:43.72Z</time></trkpt><trkpt lat="45.4160707" lon="11.5375972"><ele>232.42857142857144</ele><time>2026-04-03T22:41:44.722Z</time></trkpt><trkpt lat="45.4160386" lon="11.5374988"><ele>230.28571428571428</ele><time>2026-04-03T22:41:45.731Z</time></trkpt><trkpt lat="45.4159824" lon="11.5374249"><ele>228.14285714285717</ele><time>2026-04-03T22:41:46.723Z</time></trkpt><trkpt lat="45.4159128" lon="11.5373836"><ele>226.0</ele><time>2026-04-03T22:41:47.724Z</time></trkpt><trkpt lat="45.4158373" lon="11.5373632"><ele>225.99999999999997</ele><time>2026-04-03T22:41:48.722Z</time></trkpt><trkpt lat="45.4157621" lon="11.5373701"><ele>226.0</ele><time>2026-04-03T22:41:49.726Z</time></trkpt><trkpt lat="45.4156986" lon="11.5374221"><ele>226.0</ele><time>2026-04-03T22:41:50.72Z</time></trkpt><trkpt lat="45.4156289" lon="11.5374935"><ele>226.0</ele><time>2026-04-03T22:41:51.719Z</time></trkpt><trkpt lat="45.4155628" lon="11.537543"><ele>225.99999999999997</ele><time>2026-04-03T22:41:52.716Z</time></trkpt><trkpt lat="45.4154945" lon="11.5375744"><ele>226.0</ele><time>2026-04-03T22:41:53.716Z</time></trkpt><trkpt lat="45.4153532" lon="11.5375543"><ele>221.16666666666666</ele><time>2026-04-03T22:41:55.718Z</time></trkpt><trkpt lat="45.4152803" lon="11.5375171"><ele>216.33333333333331</ele><time>2026-04-03T22:41:56.723Z</time></trkpt><trkpt lat="45.4152149" lon="11.5375236"><ele>211.5</ele><time>2026-04-03T22:41:57.724Z</time></trkpt><trkpt lat="45.4151551" lon="11.5375736"><ele>206.66666666666669</ele><time>2026-04-03T22:41:58.717Z</time></trkpt><trkpt lat="45.4151193" lon="11.5376694"><ele>201.83333333333334</ele><time>2026-04-03T22:41:59.72Z</time></trkpt><trkpt lat="45.4150988" lon="11.5377707"><ele>197.0</ele><time>2026-04-03T22:42:00.718Z</time></trkpt><trkpt lat="45.4150192" lon="11.5378616"><ele>197.0</ele><time>2026-04-03T22:42:02.726Z</time></trkpt><trkpt lat="45.4149559" lon="11.5377136"><ele>197.0</ele><time>2026-04-03T22:42:04.728Z</time></trkpt><trkpt lat="45.4149436" lon="11.5375944"><ele>197.0</ele><time>2026-04-03T22:42:05.725Z</time></trkpt><trkpt lat="45.4149434" lon="11.5374695"><ele>197.0</ele><time>2026-04-03T22:42:06.73Z</time></trkpt><trkpt lat="45.4149506" lon="11.5373437"><ele>197.0</ele><time>2026-04-03T22:42:07.721Z</time></trkpt><trkpt lat="45.4149484" lon="11.5372187"><ele>197.0</ele><time>2026-04-03T22:42:08.717Z</time></trkpt><trkpt lat="45.4149563" lon="11.5370863"><ele>197.0</ele><time>2026-04-03T22:42:09.718Z</time></trkpt><trkpt lat="45.4149636" lon="11.5369515"><ele>197.0</ele><time>2026-04-03T22:42:10.721Z</time></trkpt><trkpt lat="45.4149793" lon="11.5368153"><ele>197.0</ele><time>2026-04-03T22:42:11.723Z</time></trkpt><trkpt lat="45.415006" lon="11.5366857"><ele>197.0</ele><time>2026-04-03T22:42:12.713Z</time></trkpt><trkpt lat="45.4150424" lon="11.5365649"><ele>195.2</ele><time>2026-04-03T22:42:13.722Z</time></trkpt><trkpt lat="45.4150899" lon="11.5364471"><ele>193.39999999999998</ele><time>2026-04-03T22:42:14.722Z</time></trkpt><trkpt lat="45.4151948" lon="11.5362271"><ele>191.60000000000002</ele><time>2026-04-03T22:42:16.72Z</time></trkpt><trkpt lat="45.4152218" lon="11.5361174"><ele>189.8</ele><time>2026-04-03T22:42:17.714Z</time></trkpt><trkpt lat="45.4152282" lon="11.5360093"><ele>188.0</ele><time>2026-04-03T22:42:18.72Z</time></trkpt><trkpt lat="45.4152181" lon="11.5358978"><ele>185.60000000000002</ele><time>2026-04-03T22:42:19.723Z</time></trkpt><trkpt lat="45.4151615" lon="11.5358143"><ele>183.20000000000002</ele><time>2026-04-03T22:42:20.716Z</time></trkpt><trkpt lat="45.4150865" lon="11.5357759"><ele>180.8</ele><time>2026-04-03T22:42:21.723Z</time></trkpt><trkpt lat="45.4150033" lon="11.5357941"><ele>178.4</ele><time>2026-04-03T22:42:22.715Z</time></trkpt><trkpt lat="45.4149115" lon="11.5358695"><ele>176.0</ele><time>2026-04-03T22:42:23.713Z</time></trkpt><trkpt lat="45.4148322" lon="11.5359658"><ele>176.0</ele><time>2026-04-03T22:42:24.714Z</time></trkpt><trkpt lat="45.4147769" lon="11.5360835"><ele>176.0</ele><time>2026-04-03T22:42:25.714Z</time></trkpt><trkpt lat="45.4147296" lon="11.5362081"><ele>176.0</ele><time>2026-04-03T22:42:26.719Z</time></trkpt><trkpt lat="45.4146964" lon="11.5363333"><ele>176.0</ele><time>2026-04-03T22:42:27.715Z</time></trkpt><trkpt lat="45.414663" lon="11.5364535"><ele>176.0</ele><time>2026-04-03T22:42:28.717Z</time></trkpt><trkpt lat="45.4146224" lon="11.5365704"><ele>173.16666666666666</ele><time>2026-04-03T22:42:29.715Z</time></trkpt><trkpt lat="45.4145884" lon="11.5366845"><ele>170.33333333333331</ele><time>2026-04-03T22:42:30.714Z</time></trkpt><trkpt lat="45.4145536" lon="11.5367923"><ele>167.5</ele><time>2026-04-03T22:42:31.722Z</time></trkpt><trkpt lat="45.4145183" lon="11.5368979"><ele>164.66666666666666</ele><time>2026-04-03T22:42:32.715Z</time></trkpt><trkpt lat="45.4144862" lon="11.537003"><ele>161.83333333333334</ele><time>2026-04-03T22:42:33.722Z</time></trkpt><trkpt lat="45.4144512" lon="11.5370958"><ele>159.0</ele><time>2026-04-03T22:42:34.711Z</time></trkpt><trkpt lat="45.4144213" lon="11.5371856"><ele>159.0</ele><time>2026-04-03T22:42:35.716Z</time></trkpt><trkpt lat="45.4143625" lon="11.5373609"><ele>159.0</ele><time>2026-04-03T22:42:37.717Z</time></trkpt><trkpt lat="45.4143265" lon="11.537436"><ele>159.0</ele><time>2026-04-03T22:42:38.715Z</time></trkpt><trkpt lat="45.4142418" lon="11.5375735"><ele>159.0</ele><time>2026-04-03T22:42:40.71Z</time></trkpt><trkpt lat="45.4141993" lon="11.5376574"><ele>159.0</ele><time>2026-04-03T22:42:41.716Z</time></trkpt><trkpt lat="45.4141634" lon="11.5377533"><ele>159.0</ele><time>2026-04-03T22:42:42.716Z</time></trkpt><trkpt lat="45.414143" lon="11.5378671"><ele>159.0</ele><time>2026-04-03T22:42:43.717Z</time></trkpt><trkpt lat="45.4141372" lon="11.5379912"><ele>159.0</ele><time>2026-04-03T22:42:44.722Z</time></trkpt><trkpt lat="45.4141464" lon="11.5381151"><ele>159.0</ele><time>2026-04-03T22:42:45.719Z</time></trkpt><trkpt lat="45.4141561" lon="11.5382459"><ele>159.0</ele><time>2026-04-03T22:42:46.715Z</time></trkpt><trkpt lat="45.4141569" lon="11.5383693"><ele>159.0</ele><time>2026-04-03T22:42:47.719Z</time></trkpt><trkpt lat="45.4141478" lon="11.5384975"><ele>159.0</ele><time>2026-04-03T22:42:48.723Z</time></trkpt><trkpt lat="45.41413" lon="11.5386232"><ele>159.0</ele><time>2026-04-03T22:42:49.717Z</time></trkpt><trkpt lat="45.4141056" lon="11.5387588"><ele>159.0</ele><time>2026-04-03T22:42:50.72Z</time></trkpt><trkpt lat="45.4140756" lon="11.5389068"><ele>159.0</ele><time>2026-04-03T22:42:51.718Z</time></trkpt><trkpt lat="45.4140323" lon="11.5390632"><ele>159.0</ele><time>2026-04-03T22:42:52.72Z</time></trkpt><trkpt lat="45.4139808" lon="11.5392143"><ele>158.25</ele><time>2026-04-03T22:42:53.725Z</time></trkpt><trkpt lat="45.4139285" lon="11.5393548"><ele>157.5</ele><time>2026-04-03T22:42:54.72Z</time></trkpt><trkpt lat="45.413874" lon="11.5394825"><ele>156.75</ele><time>2026-04-03T22:42:55.72Z</time></trkpt><trkpt lat="45.4138122" lon="11.539592"><ele>156.0</ele><time>2026-04-03T22:42:56.722Z</time></trkpt><trkpt lat="45.4136785" lon="11.5397509"><ele>153.33333333333334</ele><time>2026-04-03T22:42:58.716Z</time></trkpt><trkpt lat="45.4136024" lon="11.5398112"><ele>150.66666666666666</ele><time>2026-04-03T22:42:59.728Z</time></trkpt><trkpt lat="45.4135275" lon="11.5398679"><ele>148.0</ele><time>2026-04-03T22:43:00.722Z</time></trkpt><trkpt lat="45.4134567" lon="11.53992"><ele>145.33333333333331</ele><time>2026-04-03T22:43:01.728Z</time></trkpt><trkpt lat="45.4133939" lon="11.5399789"><ele>142.66666666666666</ele><time>2026-04-03T22:43:02.72Z</time></trkpt><trkpt lat="45.413344" lon="11.5400582"><ele>140.0</ele><time>2026-04-03T22:43:03.727Z</time></trkpt><trkpt lat="45.4133121" lon="11.5401649"><ele>140.0</ele><time>2026-04-03T22:43:04.722Z</time></trkpt><trkpt lat="45.4132986" lon="11.5402907"><ele>140.0</ele><time>2026-04-03T22:43:05.715Z</time></trkpt><trkpt lat="45.4132873" lon="11.5404191"><ele>140.0</ele><time>2026-04-03T22:43:06.718Z</time></trkpt><trkpt lat="45.413278" lon="11.5405589"><ele>140.0</ele><time>2026-04-03T22:43:07.714Z</time></trkpt><trkpt lat="45.4132676" lon="11.5407122"><ele>140.0</ele><time>2026-04-03T22:43:08.726Z</time></trkpt><trkpt lat="45.413259" lon="11.5408617"><ele>140.0</ele><time>2026-04-03T22:43:09.715Z</time></trkpt><trkpt lat="45.4132537" lon="11.5410064"><ele>140.0</ele><time>2026-04-03T22:43:10.718Z</time></trkpt><trkpt lat="45.4132452" lon="11.5411447"><ele>140.0</ele><time>2026-04-03T22:43:11.714Z</time></trkpt><trkpt lat="45.4132378" lon="11.5412692"><ele>140.0</ele><time>2026-04-03T22:43:12.72Z</time></trkpt><trkpt lat="45.4132272" lon="11.5413927"><ele>140.0</ele><time>2026-04-03T22:43:13.719Z</time></trkpt><trkpt lat="45.4132152" lon="11.5415121"><ele>140.0</ele><time>2026-04-03T22:43:14.719Z</time></trkpt><trkpt lat="45.4132022" lon="11.54162"><ele>140.0</ele><time>2026-04-03T22:43:15.721Z</time></trkpt><trkpt lat="45.413184" lon="11.5417258"><ele>140.0</ele><time>2026-04-03T22:43:16.725Z</time></trkpt><trkpt lat="45.4131689" lon="11.5418297"><ele>140.0</ele><time>2026-04-03T22:43:17.724Z</time></trkpt><trkpt lat="45.4131187" lon="11.5420299"><ele>140.0</ele><time>2026-04-03T22:43:19.718Z</time></trkpt><trkpt lat="45.4130775" lon="11.5421225"><ele>138.5</ele><time>2026-04-03T22:43:20.714Z</time></trkpt><trkpt lat="45.4130277" lon="11.5422261"><ele>137.0</ele><time>2026-04-03T22:43:21.723Z</time></trkpt><trkpt lat="45.4129774" lon="11.5423399"><ele>135.5</ele><time>2026-04-03T22:43:22.723Z</time></trkpt><trkpt lat="45.4129414" lon="11.5424532"><ele>134.0</ele><time>2026-04-03T22:43:23.732Z</time></trkpt><trkpt lat="45.4129175" lon="11.5425618"><ele>132.5</ele><time>2026-04-03T22:43:24.719Z</time></trkpt><trkpt lat="45.4129059" lon="11.5426779"><ele>131.0</ele><time>2026-04-03T22:43:25.728Z</time></trkpt><trkpt lat="45.4129187" lon="11.5427855"><ele>128.33333333333331</ele><time>2026-04-03T22:43:26.725Z</time></trkpt><trkpt lat="45.4129624" lon="11.5428787"><ele>125.66666666666666</ele><time>2026-04-03T22:43:27.724Z</time></trkpt><trkpt lat="45.4130349" lon="11.5429556"><ele>123.0</ele><time>2026-04-03T22:43:28.717Z</time></trkpt><trkpt lat="45.4131134" lon="11.5430089"><ele>120.33333333333334</ele><time>2026-04-03T22:43:29.72Z</time></trkpt><trkpt lat="45.4131996" lon="11.5430461"><ele>117.66666666666667</ele><time>2026-04-03T22:43:30.718Z</time></trkpt><trkpt lat="45.4132794" lon="11.5430734"><ele>115.0</ele><time>2026-04-03T22:43:31.726Z</time></trkpt><trkpt lat="45.4133427" lon="11.5431006"><ele>115.0</ele><time>2026-04-03T22:43:32.719Z</time></trkpt><trkpt lat="45.4134023" lon="11.5431802"><ele>115.0</ele><time>2026-04-03T22:43:34.722Z</time></trkpt><trkpt lat="45.4133325" lon="11.54326"><ele>115.0</ele><time>2026-04-03T22:43:36.721Z</time></trkpt><trkpt lat="45.4132485" lon="11.5432788"><ele>115.0</ele><time>2026-04-03T22:43:37.715Z</time></trkpt><trkpt lat="45.4131493" lon="11.5432936"><ele>115.0</ele><time>2026-04-03T22:43:38.722Z</time></trkpt><trkpt lat="45.4129932" lon="11.5433226"><ele>113.33333333333334</ele><time>2026-04-03T22:43:40.713Z</time></trkpt><trkpt lat="45.4129045" lon="11.5433529"><ele>111.66666666666667</ele><time>2026-04-03T22:43:42.719Z</time></trkpt><trkpt lat="45.4128368" lon="11.5433832"><ele>110.0</ele><time>2026-04-03T22:43:44.722Z</time></trkpt><trkpt lat="45.4127633" lon="11.5434575"><ele>108.33333333333334</ele><time>2026-04-03T22:43:47.718Z</time></trkpt><trkpt lat="45.4127063" lon="11.5435315"><ele>106.66666666666667</ele><time>2026-04-03T22:43:49.72Z</time></trkpt><trkpt lat="45.4126134" lon="11.5436276"><ele>105.0</ele><time>2026-04-03T22:43:51.723Z</time></trkpt><trkpt lat="45.4125537" lon="11.5436838"><ele>102.5</ele><time>2026-04-03T22:43:52.72Z</time></trkpt><trkpt lat="45.4124866" lon="11.5437355"><ele>100.0</ele><time>2026-04-03T22:43:53.725Z</time></trkpt><trkpt lat="45.412415" lon="11.5437829"><ele>97.5</ele><time>2026-04-03T22:43:54.72Z</time></trkpt><trkpt lat="45.4123458" lon="11.5438243"><ele>95.0</ele><time>2026-04-03T22:43:55.72Z</time></trkpt><trkpt lat="45.4122788" lon="11.543869"><ele>92.5</ele><time>2026-04-03T22:43:56.722Z</time></trkpt><trkpt lat="45.4122078" lon="11.5439034"><ele>90.0</ele><time>2026-04-03T22:43:57.718Z</time></trkpt><trkpt lat="45.4120962" lon="11.5438853"><ele>87.8</ele><time>2026-04-03T22:43:59.717Z</time></trkpt><trkpt lat="45.4119903" lon="11.5437049"><ele>85.6</ele><time>2026-04-03T22:44:01.713Z</time></trkpt><trkpt lat="45.4119587" lon="11.5435895"><ele>83.4</ele><time>2026-04-03T22:44:02.712Z</time></trkpt><trkpt lat="45.4119327" lon="11.5434733"><ele>81.2</ele><time>2026-04-03T22:44:03.711Z</time></trkpt><trkpt lat="45.4118986" lon="11.5433555"><ele>79.0</ele><time>2026-04-03T22:44:04.71Z</time></trkpt><trkpt lat="45.4118655" lon="11.5432341"><ele>79.0</ele><time>2026-04-03T22:44:05.705Z</time></trkpt><trkpt lat="45.4118373" lon="11.5431014"><ele>79.0</ele><time>2026-04-03T22:44:06.715Z</time></trkpt><trkpt lat="45.4117909" lon="11.5429807"><ele>79.0</ele><time>2026-04-03T22:44:07.71Z</time></trkpt><trkpt lat="45.4117281" lon="11.5428866"><ele>79.0</ele><time>2026-04-03T22:44:08.713Z</time></trkpt><trkpt lat="45.4116496" lon="11.5428019"><ele>79.0</ele><time>2026-04-03T22:44:09.712Z</time></trkpt><trkpt lat="45.4115659" lon="11.5427089"><ele>80.0</ele><time>2026-04-03T22:44:10.721Z</time></trkpt><trkpt lat="45.4114795" lon="11.5426125"><ele>81.0</ele><time>2026-04-03T22:44:11.722Z</time></trkpt><trkpt lat="45.4114048" lon="11.5424948"><ele>82.0</ele><time>2026-04-03T22:44:12.725Z</time></trkpt><trkpt lat="45.411344" lon="11.5423611"><ele>83.0</ele><time>2026-04-03T22:44:13.717Z</time></trkpt><trkpt lat="45.4112967" lon="11.542221"><ele>84.0</ele><time>2026-04-03T22:44:14.719Z</time></trkpt><trkpt lat="45.4112664" lon="11.5420795"><ele>80.2</ele><time>2026-04-03T22:44:15.717Z</time></trkpt><trkpt lat="45.4112329" lon="11.5419432"><ele>76.4</ele><time>2026-04-03T22:44:16.717Z</time></trkpt><trkpt lat="45.4111966" lon="11.5418092"><ele>72.6</ele><time>2026-04-03T22:44:17.719Z</time></trkpt><trkpt lat="45.4111669" lon="11.5416838"><ele>68.8</ele><time>2026-04-03T22:44:18.718Z</time></trkpt><trkpt lat="45.411146" lon="11.5415521"><ele>65.0</ele><time>2026-04-03T22:44:19.724Z</time></trkpt><trkpt lat="45.4111248" lon="11.5414203"><ele>65.25</ele><time>2026-04-03T22:44:20.712Z</time></trkpt><trkpt lat="45.4110888" lon="11.5411376"><ele>65.5</ele><time>2026-04-03T22:44:22.716Z</time></trkpt><trkpt lat="45.4110766" lon="11.5409815"><ele>65.75</ele><time>2026-04-03T22:44:23.717Z</time></trkpt><trkpt lat="45.411067" lon="11.5408137"><ele>66.0</ele><time>2026-04-03T22:44:24.712Z</time></trkpt><trkpt lat="45.4110567" lon="11.5406447"><ele>66.0</ele><time>2026-04-03T22:44:25.722Z</time></trkpt><trkpt lat="45.4110466" lon="11.5404787"><ele>66.0</ele><time>2026-04-03T22:44:26.713Z</time></trkpt><trkpt lat="45.4110391" lon="11.540318"><ele>66.0</ele><time>2026-04-03T22:44:27.719Z</time></trkpt><trkpt lat="45.4110358" lon="11.5401682"><ele>66.0</ele><time>2026-04-03T22:44:28.719Z</time></trkpt><trkpt lat="45.4110186" lon="11.5400407"><ele>66.0</ele><time>2026-04-03T22:44:29.719Z</time></trkpt><trkpt lat="45.4109972" lon="11.5399259"><ele>66.16666666666667</ele><time>2026-04-03T22:44:30.718Z</time></trkpt><trkpt lat="45.4109733" lon="11.539833"><ele>66.33333333333333</ele><time>2026-04-03T22:44:31.721Z</time></trkpt><trkpt lat="45.4109068" lon="11.5397348"><ele>66.5</ele><time>2026-04-03T22:44:33.717Z</time></trkpt><trkpt lat="45.4107975" lon="11.5396327"><ele>66.66666666666666</ele><time>2026-04-03T22:44:35.713Z</time></trkpt><trkpt lat="45.4107396" lon="11.5395743"><ele>66.83333333333333</ele><time>2026-04-03T22:44:36.708Z</time></trkpt><trkpt lat="45.4106791" lon="11.5395315"><ele>67.0</ele><time>2026-04-03T22:44:37.702Z</time></trkpt><trkpt lat="45.4105743" lon="11.5395235"><ele>68.0</ele><time>2026-04-03T22:44:39.702Z</time></trkpt><trkpt lat="45.4105048" lon="11.5396502"><ele>67.0</ele><time>2026-04-03T22:44:41.713Z</time></trkpt></trkseg><trkseg><trkpt lat="45.4111304" lon="11.541572"><ele>90.0</ele><time>2026-04-03T23:14:18.126Z</time></trkpt><trkpt lat="45.4122851" lon="11.543964"><ele>115.0</ele><time>2026-04-03T23:14:40.546Z</time></trkpt><trkpt lat="45.4135479" lon="11.5431108"><ele>140.0</ele><time>2026-04-03T23:14:58.06Z</time></trkpt><trkpt lat="45.4144886" lon="11.5445048"><ele>115.0</ele><time>2026-04-03T23:15:52.818Z</time></trkpt><trkpt lat="45.4134259" lon="11.5433227"><ele>72.0</ele><time>2026-04-03T23:40:46.377Z</time></trkpt><trkpt lat="45.4121299" lon="11.5439027"><ele>61.0</ele><time>2026-04-03T23:42:39.832Z</time></trkpt><trkpt lat="45.4113211" lon="11.5422814"><ele>73.0</ele><time>2026-04-03T23:42:56.47Z</time></trkpt><trkpt lat="45.4122143" lon="11.5449713"><ele>73.0</ele><time>2026-04-03T23:43:27.52Z</time></trkpt><trkpt lat="45.4122143" lon="11.5449713"><ele>73.0</ele><time>2026-04-03T23:43:27.52Z</time></trkpt><trkpt lat="45.41546" lon="11.548738"><ele>78.0</ele><time>2026-04-03T23:44:19.805Z</time></trkpt><trkpt lat="45.4183169" lon="11.5487621"><ele>78.0</ele><time>2026-04-03T23:44:47.745Z</time></trkpt><trkpt lat="45.4183169" lon="11.5487621"><ele>78.0</ele><time>2026-04-03T23:44:47.745Z</time></trkpt><trkpt lat="45.4193957" lon="11.5557132"><ele>74.5</ele><time>2026-04-03T23:45:49.332Z</time></trkpt><trkpt lat="45.4193957" lon="11.5557132"><ele>71.0</ele><time>2026-04-03T23:45:49.332Z</time></trkpt><trkpt lat="45.4227673" lon="11.5592394"><ele>19.0</ele><time>2026-04-03T23:47:16.124Z</time></trkpt><trkpt lat="45.4220452" lon="11.5620991"><ele>18.0</ele><time>2026-04-03T23:47:39.498Z</time></trkpt><trkpt lat="45.4206975" lon="11.5656377"><ele>17.0</ele><time>2026-04-03T23:48:00.248Z</time></trkpt><trkpt lat="45.4197793" lon="11.5692724"><ele>24.0</ele><time>2026-04-03T23:48:19.788Z</time></trkpt><trkpt lat="45.4193151" lon="11.5731374"><ele>27.0</ele><time>2026-04-03T23:48:47.044Z</time></trkpt><trkpt lat="45.4180605" lon="11.5767235"><ele>18.0</ele><time>2026-04-03T23:49:08.743Z</time></trkpt><trkpt lat="45.4169392" lon="11.5803649"><ele>16.0</ele><time>2026-04-03T23:49:29.757Z</time></trkpt><trkpt lat="45.4170426" lon="11.5842523"><ele>17.0</ele><time>2026-04-03T23:49:56.854Z</time></trkpt><trkpt lat="45.4168721" lon="11.5881357"><ele>18.0</ele><time>2026-04-03T23:50:18.015Z</time></trkpt><trkpt lat="45.4186649" lon="11.5897888"><ele>20.0</ele><time>2026-04-03T23:50:36.748Z</time></trkpt><trkpt lat="45.4211037" lon="11.5917902"><ele>21.0</ele><time>2026-04-03T23:50:57.845Z</time></trkpt><trkpt lat="45.4234438" lon="11.5937081"><ele>21.0</ele><time>2026-04-03T23:51:17.922Z</time></trkpt></trkseg><trkseg><trkpt lat="45.4475304" lon="11.6011225"><ele>21.0</ele><time>2026-04-03T23:54:57.75Z</time></trkpt><trkpt lat="45.4503507" lon="11.6012927"><ele>22.0</ele><time>2026-04-03T23:55:16.762Z</time></trkpt><trkpt lat="45.4529752" lon="11.6022045"><ele>21.0</ele><time>2026-04-03T23:55:34.821Z</time></trkpt><trkpt lat="45.4556372" lon="11.6035402"><ele>21.0</ele><time>2026-04-03T23:55:53.751Z</time></trkpt><trkpt lat="45.4581909" lon="11.6052335"><ele>23.0</ele><time>2026-04-03T23:56:12.747Z</time></trkpt><trkpt lat="45.4602891" lon="11.6078985"><ele>23.0</ele><time>2026-04-03T23:56:35.822Z</time></trkpt><trkpt lat="45.4630822" lon="11.6084276"><ele>22.0</ele><time>2026-04-03T23:56:57.784Z</time></trkpt><trkpt lat="45.4662537" lon="11.6105118"><ele>26.0</ele><time>2026-04-03T23:57:19.769Z</time></trkpt><trkpt lat="45.4689641" lon="11.6116539"><ele>26.0</ele><time>2026-04-03T23:57:38.775Z</time></trkpt><trkpt lat="45.4716629" lon="11.6114185"><ele>29.0</ele><time>2026-04-03T23:57:56.78Z</time></trkpt><trkpt lat="45.4744722" lon="11.6111562"><ele>28.0</ele><time>2026-04-03T23:58:14.8Z</time></trkpt><trkpt lat="45.4772318" lon="11.6102313"><ele>24.0</ele><time>2026-04-03T23:58:33.345Z</time></trkpt><trkpt lat="45.4805711" lon="11.6088108"><ele>27.0</ele><time>2026-04-03T23:59:01.554Z</time></trkpt><trkpt lat="45.4812412" lon="11.6050816"><ele>27.0</ele><time>2026-04-03T23:59:17.961Z</time></trkpt><trkpt lat="45.4837286" lon="11.6017398"><ele>31.0</ele><time>2026-04-03T23:59:38.871Z</time></trkpt><trkpt lat="45.4871285" lon="11.600667"><ele>28.0</ele><time>2026-04-04T00:00:00.896Z</time></trkpt><trkpt lat="45.4893861" lon="11.5970441"><ele>30.0</ele><time>2026-04-04T00:00:22.882Z</time></trkpt><trkpt lat="45.4919249" lon="11.5938291"><ele>27.0</ele><time>2026-04-04T00:00:42.745Z</time></trkpt><trkpt lat="45.4944605" lon="11.5904072"><ele>28.0</ele><time>2026-04-04T00:01:03.79Z</time></trkpt><trkpt lat="45.497288" lon="11.5875263"><ele>30.0</ele><time>2026-04-04T00:01:27.538Z</time></trkpt><trkpt lat="45.4983485" lon="11.5836119"><ele>27.0</ele><time>2026-04-04T00:01:45.836Z</time></trkpt><trkpt lat="45.4996988" lon="11.5801688"><ele>27.0</ele><time>2026-04-04T00:02:02.767Z</time></trkpt><trkpt lat="45.5015845" lon="11.5760534"><ele>28.0</ele><time>2026-04-04T00:02:23.962Z</time></trkpt><trkpt lat="45.5035085" lon="11.5720299"><ele>30.0</ele><time>2026-04-04T00:02:44.799Z</time></trkpt><trkpt lat="45.5056701" lon="11.569617"><ele>31.0</ele><time>2026-04-04T00:03:04.885Z</time></trkpt><trkpt lat="45.5090537" lon="11.5681938"><ele>30.0</ele><time>2026-04-04T00:03:27.995Z</time></trkpt><trkpt lat="45.5114686" lon="11.5663901"><ele>31.0</ele><time>2026-04-04T00:03:46.053Z</time></trkpt><trkpt lat="45.5142455" lon="11.5659374"><ele>29.0</ele><time>2026-04-04T00:04:05.149Z</time></trkpt><trkpt lat="45.516995" lon="11.5657012"><ele>32.0</ele><time>2026-04-04T00:04:23.185Z</time></trkpt><trkpt lat="45.5196212" lon="11.5646467"><ele>30.0</ele><time>2026-04-04T00:04:40.996Z</time></trkpt><trkpt lat="45.5222704" lon="11.5638878"><ele>31.0</ele><time>2026-04-04T00:04:58.778Z</time></trkpt><trkpt lat="45.5250711" lon="11.5636548"><ele>31.0</ele><time>2026-04-04T00:05:16.811Z</time></trkpt><trkpt lat="45.5281255" lon="11.5630513"><ele>30.0</ele><time>2026-04-04T00:05:37.15Z</time></trkpt><trkpt lat="45.5309413" lon="11.5626363"><ele>35.0</ele><time>2026-04-04T00:05:54.772Z</time></trkpt><trkpt lat="45.5336514" lon="11.5608832"><ele>30.0</ele><time>2026-04-04T00:06:13.877Z</time></trkpt><trkpt lat="45.5365008" lon="11.5581601"><ele>28.0</ele><time>2026-04-04T00:06:35.777Z</time></trkpt><trkpt lat="45.5391556" lon="11.5591768"><ele>28.0</ele><time>2026-04-04T00:06:58.995Z</time></trkpt></trkseg></trk></gpx>